GFSGBSN_prec_precacc_006.txt.gz
Total_Precipitation_Accumulation
0.00 0.00 0.00 0.00 0.00 0.00 0.00 0.00 0.00 0.00 0.03 0.05 0.06 0.06 0.05 0.05 0.06 0.07 0.02 0.00 0.00 0.00 0.00 0.00 0.00 0.00 0.01 0.02 0.01 0.00 0.00 0.00 0.01 0.04 0.00 0.00 0.00 0.00 0.00 0.00 0.00 0.00 0.00 0.00 0.00 0.00 0.00
0.00 0.00 0.00 0.00 0.00 0.00 0.00 0.00 0.00 0.00 0.01 0.04 0.07 0.05 0.06 0.07 0.08 0.07 0.05 0.00 0.00 0.00 0.00 0.00 0.00 0.00 0.00 0.00 0.00 0.00 0.00 0.00 0.00 0.02 0.00 0.00 0.00 0.00 0.00 0.00 0.00 0.00 0.00 0.00 0.00 0.00 0.00
0.00 0.00 0.00 0.00 0.00 0.00 0.00 0.00 0.00 0.00 0.00 0.02 0.06 0.06 0.06 0.06 0.09 0.08 0.06 0.00 0.00 0.00 0.00 0.00 0.00 0.00 0.00 0.00 0.00 0.00 0.00 0.00 0.00 0.00 0.00 0.00 0.00 0.00 0.00 0.00 0.00 0.00 0.00 0.00 0.00 0.00 0.00
0.00 0.00 0.00 0.00 0.00 0.00 0.00 0.00 0.00 0.00 0.00 0.00 0.03 0.04 0.05 0.05 0.09 0.09 0.08 0.02 0.00 0.01 0.02 0.01 0.00 0.00 0.00 0.00 0.00 0.00 0.00 0.00 0.00 0.00 0.00 0.01 0.00 0.00 0.00 0.00 0.00 0.00 0.00 0.00 0.00 0.00 0.00
0.00 0.00 0.00 0.00 0.00 0.00 0.00 0.00 0.00 0.00 0.00 0.00 0.01 0.02 0.03 0.05 0.10 0.12 0.13 0.16 0.03 0.01 0.02 0.05 0.00 0.00 0.00 0.00 0.00 0.00 0.00 0.00 0.00 0.00 0.00 0.00 0.00 0.00 0.00 0.00 0.00 0.00 0.00 0.00 0.00 0.00 0.00
0.00 0.01 0.00 0.00 0.00 0.00 0.00 0.00 0.00 0.00 0.00 0.00 0.00 0.01 0.04 0.04 0.08 0.18 0.25 0.34 0.11 0.02 0.01 0.00 0.00 0.00 0.00 0.00 0.00 0.00 0.00 0.00 0.00 0.00 0.00 0.00 0.00 0.00 0.00 0.00 0.00 0.00 0.00 0.00 0.00 0.00 0.00
0.01 0.01 0.01 0.01 0.01 0.01 0.01 0.01 0.00 0.00 0.00 0.00 0.00 0.01 0.03 0.05 0.08 0.31 0.47 0.57 0.23 0.02 0.01 0.00 0.00 0.00 0.00 0.00 0.00 0.00 0.00 0.00 0.00 0.00 0.00 0.00 0.00 0.00 0.00 0.00 0.00 0.00 0.00 0.00 0.00 0.00 0.00
0.01 0.01 0.01 0.02 0.01 0.02 0.02 0.01 0.01 0.01 0.01 0.02 0.02 0.04 0.05 0.05 0.09 0.38 0.59 0.32 0.04 0.00 0.00 0.00 0.00 0.00 0.00 0.00 0.00 0.00 0.00 0.00 0.00 0.00 0.00 0.00 0.00 0.00 0.00 0.00 0.00 0.00 0.00 0.00 0.00 0.00 0.00
0.01 0.01 0.02 0.02 0.02 0.03 0.02 0.01 0.01 0.02 0.04 0.08 0.09 0.12 0.08 0.07 0.13 0.43 0.45 0.23 0.04 0.02 0.00 0.00 0.00 0.00 0.00 0.00 0.00 0.00 0.00 0.00 0.00 0.00 0.00 0.00 0.00 0.00 0.00 0.00 0.00 0.00 0.00 0.00 0.00 0.00 0.00
0.01 0.01 0.01 0.01 0.02 0.03 0.01 0.01 0.04 0.08 0.10 0.16 0.15 0.11 0.09 0.10 0.23 0.36 0.35 0.20 0.11 0.15 0.10 0.00 0.00 0.00 0.00 0.00 0.00 0.00 0.00 0.00 0.00 0.00 0.00 0.00 0.00 0.00 0.00 0.00 0.00 0.00 0.00 0.00 0.00 0.00 0.00
0.01 0.01 0.02 0.02 0.03 0.03 0.03 0.05 0.09 0.12 0.14 0.13 0.06 0.04 0.08 0.16 0.35 0.46 0.31 0.14 0.17 0.31 0.16 0.00 0.00 0.00 0.00 0.00 0.00 0.00 0.00 0.00 0.00 0.00 0.00 0.00 0.00 0.00 0.00 0.00 0.00 0.00 0.00 0.00 0.00 0.01 0.01
0.01 0.01 0.02 0.04 0.04 0.05 0.04 0.07 0.09 0.09 0.12 0.06 0.05 0.04 0.06 0.10 0.30 0.40 0.36 0.33 0.38 0.39 0.11 0.00 0.00 0.02 0.01 0.00 0.01 0.00 0.01 0.01 0.00 0.00 0.00 0.00 0.00 0.00 0.00 0.00 0.00 0.00 0.00 0.00 0.00 0.01 0.03
0.01 0.01 0.03 0.05 0.06 0.05 0.04 0.06 0.04 0.06 0.10 0.08 0.07 0.04 0.07 0.15 0.35 0.35 0.59 0.75 0.58 0.26 0.02 0.00 0.01 0.02 0.01 0.00 0.02 0.00 0.01 0.01 0.00 0.00 0.00 0.00 0.00 0.00 0.00 0.00 0.00 0.00 0.03 0.06 0.06 0.07 0.02
0.01 0.02 0.04 0.05 0.06 0.05 0.06 0.03 0.01 0.02 0.07 0.19 0.29 0.16 0.10 0.09 0.23 0.70 0.82 0.60 0.38 0.05 0.00 0.00 0.00 0.01 0.01 0.00 0.01 0.01 0.00 0.01 0.00 0.00 0.00 0.00 0.00 0.00 0.00 0.00 0.00 0.00 0.02 0.05 0.02 0.00 0.00
0.01 0.02 0.04 0.05 0.06 0.04 0.04 0.02 0.00 0.02 0.15 0.56 0.34 0.09 0.07 0.03 0.24 0.90 0.72 0.52 0.13 0.00 0.00 0.00 0.00 0.01 0.01 0.00 0.00 0.00 0.01 0.00 0.00 0.00 0.01 0.00 0.00 0.00 0.00 0.00 0.01 0.07 0.11 0.04 0.14 0.09 0.11
0.01 0.03 0.05 0.04 0.05 0.05 0.02 0.02 0.01 0.03 0.17 0.59 0.40 0.08 0.08 0.11 0.32 0.78 0.57 0.28 0.03 0.00 0.00 0.00 0.00 0.00 0.00 0.00 0.00 0.00 0.00 0.00 0.00 0.00 0.00 0.00 0.00 0.00 0.00 0.00 0.00 0.01 0.02 0.07 0.21 0.14 0.06
0.02 0.05 0.05 0.03 0.04 0.04 0.02 0.02 0.01 0.03 0.12 0.25 0.37 0.12 0.09 0.14 0.51 0.81 0.48 0.22 0.00 0.00 0.00 0.00 0.00 0.00 0.00 0.00 0.00 0.00 0.00 0.00 0.00 0.00 0.00 0.00 0.02 0.00 0.01 0.00 0.00 0.01 0.07 0.10 0.14 0.12 0.06
0.02 0.04 0.04 0.03 0.05 0.02 0.02 0.01 0.01 0.02 0.09 0.25 0.50 0.31 0.04 0.24 0.55 0.55 0.20 0.08 0.00 0.00 0.00 0.00 0.00 0.00 0.00 0.00 0.00 0.00 0.00 0.00 0.00 0.00 0.00 0.00 0.03 0.02 0.00 0.00 0.00 0.00 0.00 0.02 0.12 0.05 0.04
0.02 0.04 0.03 0.03 0.06 0.04 0.02 0.00 0.00 0.02 0.13 0.32 0.39 0.36 0.17 0.16 0.18 0.15 0.07 0.03 0.00 0.00 0.00 0.00 0.00 0.00 0.00 0.00 0.00 0.00 0.00 0.00 0.00 0.00 0.00 0.00 0.03 0.03 0.01 0.02 0.02 0.04 0.01 0.09 0.14 0.16 0.08
0.02 0.04 0.03 0.03 0.06 0.04 0.01 0.00 0.00 0.03 0.05 0.33 0.47 0.57 0.46 0.25 0.08 0.01 0.00 0.00 0.00 0.00 0.00 0.00 0.00 0.00 0.00 0.00 0.00 0.00 0.00 0.00 0.00 0.00 0.00 0.01 0.02 0.02 0.03 0.06 0.17 0.16 0.02 0.06 0.19 0.18 0.02
0.01 0.03 0.02 0.04 0.05 0.04 0.00 0.00 0.00 0.03 0.17 0.50 0.40 0.14 0.12 0.13 0.06 0.00 0.00 0.00 0.00 0.00 0.00 0.00 0.01 0.00 0.00 0.01 0.00 0.00 0.00 0.00 0.00 0.00 0.00 0.03 0.04 0.01 0.02 0.06 0.22 0.20 0.07 0.05 0.14 0.04 0.03
0.01 0.01 0.03 0.04 0.03 0.03 0.00 0.00 0.00 0.06 0.17 0.43 0.33 0.06 0.00 0.01 0.03 0.00 0.00 0.00 0.00 0.00 0.00 0.00 0.00 0.00 0.01 0.01 0.00 0.00 0.00 0.00 0.00 0.00 0.01 0.04 0.07 0.06 0.06 0.05 0.10 0.16 0.04 0.04 0.03 0.01 0.00
0.02 0.00 0.03 0.03 0.02 0.03 0.00 0.00 0.00 0.04 0.11 0.14 0.32 0.11 0.01 0.04 0.04 0.00 0.00 0.00 0.00 0.00 0.00 0.01 0.00 0.01 0.01 0.00 0.00 0.00 0.00 0.00 0.00 0.00 0.02 0.04 0.07 0.14 0.06 0.04 0.11 0.11 0.02 0.01 0.01 0.00 0.00
0.02 0.01 0.01 0.02 0.02 0.02 0.00 0.00 0.00 0.02 0.07 0.08 0.19 0.15 0.02 0.03 0.00 0.00 0.00 0.00 0.00 0.00 0.00 0.00 0.00 0.01 0.01 0.00 0.01 0.01 0.00 0.00 0.00 0.00 0.00 0.00 0.06 0.17 0.08 0.09 0.22 0.11 0.02 0.00 0.00 0.00 0.00
0.02 0.02 0.00 0.02 0.02 0.01 0.00 0.00 0.00 0.01 0.03 0.04 0.18 0.14 0.05 0.01 0.00 0.00 0.00 0.00 0.00 0.00 0.00 0.00 0.00 0.00 0.00 0.01 0.04 0.04 0.00 0.00 0.00 0.00 0.00 0.00 0.04 0.15 0.13 0.14 0.08 0.00 0.00 0.00 0.00 0.00 0.00
0.01 0.01 0.01 0.01 0.01 0.01 0.01 0.00 0.00 0.00 0.01 0.02 0.10 0.19 0.14 0.03 0.00 0.00 0.00 0.00 0.00 0.00 0.02 0.01 0.03 0.01 0.00 0.04 0.11 0.06 0.00 0.00 0.00 0.00 0.00 0.00 0.01 0.09 0.05 0.03 0.00 0.00 0.00 0.00 0.00 0.00 0.00
0.00 0.01 0.01 0.01 0.01 0.01 0.01 0.00 0.00 0.00 0.00 0.01 0.07 0.14 0.21 0.06 0.01 0.00 0.00 0.00 0.00 0.00 0.01 0.01 0.05 0.01 0.01 0.04 0.11 0.04 0.00 0.00 0.00 0.00 0.00 0.00 0.01 0.01 0.01 0.01 0.00 0.00 0.00 0.00 0.00 0.00 0.00
0.00 0.00 0.01 0.02 0.00 0.00 0.00 0.00 0.01 0.00 0.00 0.02 0.05 0.08 0.22 0.11 0.02 0.00 0.00 0.00 0.00 0.00 0.00 0.00 0.00 0.01 0.03 0.07 0.08 0.03 0.00 0.00 0.00 0.00 0.00 0.00 0.00 0.00 0.00 0.00 0.00 0.00 0.00 0.00 0.00 0.00 0.00
0.00 0.00 0.00 0.01 0.00 0.00 0.00 0.01 0.00 0.00 0.00 0.02 0.03 0.07 0.14 0.13 0.03 0.00 0.00 0.00 0.00 0.00 0.00 0.00 0.00 0.00 0.03 0.09 0.13 0.05 0.01 0.00 0.00 0.00 0.00 0.00 0.00 0.00 0.00 0.00 0.00 0.00 0.00 0.00 0.00 0.00 0.00

GFSGBSN_prec_precacc_009.txt.gz
Total_Precipitation_Accumulation
0.00 0.00 0.00 0.00 0.00 0.00 0.00 0.00 0.00 0.00 0.03 0.05 0.06 0.06 0.05 0.06 0.06 0.09 0.08 0.05 0.01 0.00 0.00 0.00 0.00 0.00 0.04 0.09 0.03 0.00 0.00 0.00 0.03 0.12 0.00 0.00 0.00 0.00 0.00 0.00 0.00 0.00 0.00 0.00 0.00 0.00 0.00
0.00 0.00 0.00 0.00 0.00 0.00 0.00 0.00 0.00 0.00 0.01 0.04 0.07 0.05 0.06 0.07 0.08 0.07 0.07 0.05 0.02 0.00 0.00 0.00 0.00 0.00 0.00 0.02 0.00 0.00 0.00 0.00 0.00 0.10 0.02 0.00 0.00 0.00 0.00 0.00 0.00 0.00 0.00 0.00 0.00 0.00 0.00
0.00 0.00 0.00 0.00 0.00 0.00 0.00 0.00 0.00 0.00 0.00 0.02 0.06 0.06 0.06 0.06 0.09 0.09 0.08 0.05 0.04 0.00 0.00 0.00 0.00 0.00 0.00 0.00 0.00 0.00 0.00 0.00 0.00 0.05 0.03 0.00 0.00 0.00 0.00 0.00 0.00 0.00 0.00 0.00 0.00 0.00 0.00
0.00 0.00 0.00 0.00 0.00 0.00 0.00 0.00 0.00 0.00 0.00 0.00 0.03 0.04 0.05 0.05 0.09 0.10 0.11 0.06 0.06 0.03 0.02 0.01 0.00 0.00 0.00 0.00 0.00 0.00 0.00 0.00 0.00 0.00 0.01 0.03 0.02 0.00 0.00 0.00 0.00 0.00 0.00 0.00 0.00 0.00 0.00
0.00 0.01 0.00 0.00 0.00 0.01 0.01 0.01 0.01 0.00 0.00 0.00 0.01 0.02 0.03 0.05 0.10 0.14 0.18 0.25 0.23 0.08 0.03 0.07 0.00 0.00 0.00 0.00 0.00 0.00 0.00 0.00 0.00 0.00 0.00 0.00 0.01 0.00 0.00 0.00 0.00 0.00 0.00 0.00 0.00 0.00 0.00
0.01 0.01 0.00 0.01 0.01 0.03 0.01 0.02 0.00 0.00 0.00 0.00 0.00 0.02 0.04 0.04 0.08 0.20 0.32 0.49 0.53 0.25 0.06 0.02 0.00 0.00 0.00 0.00 0.00 0.00 0.00 0.00 0.00 0.00 0.00 0.00 0.00 0.00 0.00 0.00 0.00 0.00 0.00 0.00 0.00 0.00 0.00
0.01 0.01 0.02 0.03 0.04 0.04 0.05 0.04 0.01 0.02 0.01 0.01 0.01 0.01 0.03 0.06 0.09 0.32 0.56 0.82 0.85 0.46 0.10 0.00 0.00 0.00 0.00 0.00 0.00 0.00 0.00 0.00 0.00 0.00 0.00 0.00 0.00 0.00 0.00 0.00 0.00 0.00 0.00 0.00 0.00 0.00 0.00
0.02 0.02 0.03 0.04 0.04 0.05 0.07 0.04 0.02 0.03 0.03 0.05 0.03 0.05 0.10 0.13 0.15 0.40 0.70 0.69 0.32 0.08 0.03 0.00 0.00 0.00 0.00 0.00 0.00 0.00 0.00 0.00 0.00 0.00 0.00 0.00 0.00 0.00 0.00 0.00 0.00 0.00 0.00 0.00 0.00 0.00 0.00
0.02 0.02 0.03 0.03 0.04 0.08 0.05 0.02 0.03 0.05 0.07 0.14 0.14 0.16 0.17 0.13 0.14 0.43 0.50 0.45 0.28 0.13 0.04 0.01 0.00 0.00 0.00 0.00 0.00 0.00 0.00 0.00 0.00 0.00 0.00 0.00 0.00 0.00 0.00 0.00 0.00 0.00 0.00 0.00 0.00 0.00 0.00
0.02 0.02 0.02 0.02 0.05 0.07 0.04 0.04 0.08 0.11 0.12 0.22 0.20 0.15 0.14 0.12 0.25 0.38 0.36 0.34 0.46 0.39 0.32 0.04 0.00 0.00 0.00 0.00 0.00 0.00 0.00 0.00 0.00 0.00 0.00 0.00 0.00 0.00 0.00 0.00 0.00 0.00 0.00 0.00 0.00 0.00 0.00
0.01 0.02 0.03 0.04 0.06 0.06 0.07 0.08 0.13 0.14 0.16 0.16 0.09 0.06 0.08 0.17 0.39 0.47 0.36 0.26 0.48 0.67 0.66 0.08 0.00 0.00 0.00 0.00 0.00 0.00 0.00 0.00 0.00 0.00 0.00 0.00 0.00 0.00 0.00 0.00 0.00 0.00 0.00 0.00 0.00 0.01 0.01
0.02 0.03 0.03 0.07 0.06 0.08 0.08 0.09 0.13 0.11 0.14 0.07 0.05 0.04 0.07 0.11 0.31 0.41 0.40 0.58 0.62 0.85 0.42 0.03 0.01 0.03 0.02 0.00 0.01 0.00 0.01 0.01 0.00 0.00 0.00 0.00 0.00 0.00 0.00 0.00 0.00 0.00 0.00 0.00 0.00 0.02 0.04
0.02 0.04 0.05 0.06 0.08 0.08 0.08 0.09 0.05 0.07 0.11 0.08 0.08 0.12 0.21 0.18 0.35 0.36 0.69 1.06 0.91 0.52 0.10 0.01 0.01 0.03 0.01 0.01 0.02 0.01 0.01 0.02 0.01 0.01 0.01 0.00 0.00 0.00 0.00 0.00 0.00 0.00 0.04 0.06 0.06 0.08 0.02
0.02 0.04 0.05 0.07 0.08 0.07 0.10 0.06 0.02 0.02 0.07 0.19 0.36 0.27 0.17 0.12 0.23 0.73 1.19 0.85 0.61 0.11 0.01 0.00 0.01 0.01 0.01 0.00 0.02 0.01 0.01 0.02 0.01 0.00 0.00 0.00 0.00 0.00 0.00 0.00 0.00 0.00 0.02 0.05 0.02 0.00 0.00
0.03 0.04 0.06 0.06 0.07 0.07 0.08 0.03 0.01 0.02 0.15 0.57 0.42 0.12 0.12 0.04 0.24 0.98 1.03 0.76 0.24 0.01 0.00 0.00 0.01 0.02 0.02 0.00 0.01 0.01 0.01 0.00 0.00 0.00 0.01 0.00 0.00 0.00 0.00 0.00 0.01 0.07 0.11 0.04 0.15 0.10 0.12
0.03 0.05 0.07 0.05 0.06 0.07 0.05 0.04 0.01 0.04 0.18 0.61 0.43 0.13 0.18 0.15 0.36 0.91 0.70 0.42 0.10 0.00 0.00 0.00 0.00 0.00 0.00 0.00 0.01 0.00 0.00 0.00 0.00 0.00 0.00 0.00 0.00 0.00 0.00 0.00 0.00 0.01 0.02 0.09 0.24 0.15 0.06
0.04 0.06 0.07 0.04 0.06 0.06 0.05 0.02 0.02 0.03 0.12 0.27 0.43 0.18 0.21 0.24 0.56 0.89 0.53 0.31 0.03 0.00 0.00 0.00 0.00 0.00 0.00 0.00 0.00 0.00 0.00 0.00 0.00 0.00 0.00 0.00 0.02 0.00 0.01 0.00 0.00 0.01 0.08 0.11 0.16 0.14 0.08
0.04 0.06 0.06 0.03 0.06 0.04 0.04 0.01 0.02 0.02 0.11 0.29 0.58 0.43 0.12 0.28 0.60 0.59 0.28 0.14 0.02 0.00 0.00 0.00 0.00 0.00 0.00 0.00 0.00 0.00 0.00 0.00 0.00 0.00 0.00 0.00 0.03 0.02 0.00 0.00 0.00 0.00 0.00 0.03 0.20 0.08 0.12
0.04 0.05 0.05 0.04 0.07 0.05 0.03 0.00 0.01 0.03 0.15 0.37 0.47 0.43 0.22 0.23 0.25 0.18 0.16 0.10 0.01 0.01 0.01 0.00 0.00 0.00 0.00 0.00 0.00 0.00 0.00 0.00 0.00 0.00 0.00 0.00 0.04 0.03 0.01 0.03 0.03 0.04 0.01 0.10 0.19 0.28 0.17
0.02 0.04 0.04 0.04 0.08 0.05 0.02 0.00 0.01 0.03 0.05 0.40 0.69 0.71 0.52 0.31 0.13 0.02 0.07 0.08 0.03 0.03 0.00 0.00 0.00 0.00 0.00 0.00 0.00 0.00 0.00 0.00 0.00 0.00 0.00 0.01 0.03 0.02 0.03 0.06 0.18 0.18 0.03 0.09 0.29 0.30 0.04
0.01 0.03 0.03 0.05 0.05 0.05 0.01 0.00 0.00 0.03 0.18 0.56 0.52 0.19 0.13 0.14 0.08 0.02 0.03 0.03 0.02 0.00 0.00 0.00 0.01 0.00 0.00 0.01 0.00 0.00 0.00 0.00 0.00 0.00 0.00 0.04 0.05 0.02 0.02 0.06 0.22 0.20 0.08 0.06 0.24 0.09 0.08
0.01 0.02 0.03 0.04 0.03 0.03 0.00 0.00 0.00 0.06 0.19 0.44 0.36 0.08 0.01 0.01 0.03 0.01 0.01 0.01 0.00 0.00 0.00 0.00 0.00 0.00 0.01 0.01 0.00 0.00 0.00 0.00 0.00 0.00 0.01 0.04 0.08 0.06 0.06 0.05 0.10 0.16 0.04 0.05 0.05 0.02 0.02
0.02 0.01 0.03 0.04 0.02 0.03 0.01 0.00 0.00 0.04 0.12 0.15 0.33 0.11 0.02 0.05 0.04 0.00 0.00 0.00 0.00 0.00 0.00 0.01 0.00 0.01 0.01 0.01 0.00 0.00 0.00 0.00 0.00 0.00 0.02 0.05 0.08 0.15 0.07 0.04 0.11 0.12 0.04 0.02 0.01 0.00 0.00
0.02 0.01 0.02 0.03 0.03 0.02 0.01 0.00 0.00 0.02 0.07 0.09 0.21 0.15 0.02 0.04 0.01 0.00 0.00 0.00 0.00 0.00 0.01 0.00 0.00 0.02 0.02 0.01 0.01 0.01 0.00 0.00 0.00 0.00 0.01 0.01 0.06 0.19 0.08 0.09 0.24 0.13 0.02 0.00 0.00 0.00 0.00
0.02 0.02 0.00 0.02 0.02 0.01 0.00 0.00 0.00 0.01 0.03 0.04 0.18 0.14 0.06 0.02 0.00 0.00 0.00 0.00 0.00 0.00 0.00 0.00 0.00 0.00 0.01 0.01 0.04 0.04 0.01 0.00 0.00 0.00 0.00 0.01 0.05 0.18 0.15 0.17 0.09 0.01 0.00 0.00 0.00 0.00 0.00
0.01 0.01 0.01 0.01 0.01 0.01 0.01 0.00 0.00 0.00 0.01 0.02 0.10 0.19 0.14 0.03 0.00 0.00 0.00 0.00 0.00 0.00 0.02 0.01 0.03 0.01 0.01 0.05 0.12 0.07 0.01 0.00 0.00 0.00 0.00 0.00 0.01 0.11 0.07 0.07 0.01 0.00 0.00 0.00 0.02 0.00 0.00
0.00 0.01 0.01 0.01 0.01 0.01 0.01 0.00 0.00 0.00 0.00 0.01 0.07 0.14 0.21 0.07 0.01 0.00 0.00 0.00 0.00 0.01 0.02 0.02 0.06 0.01 0.02 0.06 0.12 0.05 0.01 0.00 0.00 0.00 0.00 0.01 0.02 0.02 0.03 0.06 0.00 0.00 0.00 0.00 0.00 0.01 0.00
0.01 0.00 0.01 0.02 0.00 0.00 0.00 0.00 0.01 0.00 0.00 0.02 0.05 0.09 0.22 0.11 0.02 0.00 0.00 0.00 0.00 0.00 0.01 0.01 0.01 0.01 0.04 0.08 0.09 0.04 0.01 0.00 0.00 0.00 0.00 0.00 0.00 0.00 0.00 0.00 0.00 0.00 0.00 0.00 0.00 0.00 0.00
0.00 0.00 0.00 0.01 0.00 0.00 0.00 0.01 0.00 0.00 0.00 0.02 0.03 0.08 0.14 0.13 0.04 0.00 0.00 0.00 0.00 0.00 0.00 0.00 0.01 0.01 0.03 0.09 0.14 0.07 0.02 0.00 0.00 0.00 0.00 0.00 0.00 0.00 0.00 0.00 0.00 0.00 0.00 0.00 0.00 0.00 0.00

GFSGBSN_prec_precacc_015.txt.gz
Total_Precipitation_Accumulation
0.00 0.00 0.00 0.00 0.00 0.00 0.00 0.01 0.01 0.01 0.04 0.05 0.06 0.06 0.06 0.06 0.06 0.09 0.09 0.06 0.07 0.10 0.12 0.10 0.01 0.00 0.05 0.18 0.06 0.00 0.00 0.02 0.09 0.20 0.01 0.00 0.00 0.00 0.00 0.00 0.00 0.00 0.00 0.00 0.00 0.00 0.00
0.00 0.00 0.00 0.01 0.00 0.01 0.02 0.02 0.02 0.03 0.02 0.06 0.08 0.06 0.06 0.07 0.08 0.07 0.08 0.06 0.06 0.13 0.14 0.09 0.02 0.00 0.01 0.05 0.01 0.00 0.00 0.00 0.03 0.24 0.06 0.01 0.00 0.00 0.00 0.00 0.00 0.00 0.00 0.00 0.00 0.00 0.00
0.00 0.01 0.01 0.00 0.01 0.03 0.02 0.02 0.04 0.05 0.04 0.07 0.08 0.07 0.06 0.06 0.09 0.09 0.08 0.05 0.07 0.14 0.15 0.15 0.06 0.00 0.00 0.00 0.00 0.00 0.00 0.00 0.00 0.15 0.12 0.03 0.00 0.00 0.00 0.00 0.00 0.00 0.00 0.00 0.00 0.00 0.00
0.01 0.01 0.01 0.01 0.02 0.03 0.03 0.04 0.06 0.06 0.07 0.05 0.04 0.05 0.05 0.06 0.10 0.10 0.11 0.06 0.06 0.13 0.21 0.16 0.11 0.00 0.00 0.00 0.00 0.00 0.00 0.00 0.01 0.07 0.16 0.08 0.03 0.00 0.00 0.00 0.00 0.00 0.00 0.00 0.00 0.00 0.00
0.02 0.02 0.01 0.02 0.03 0.04 0.05 0.07 0.09 0.08 0.06 0.03 0.04 0.05 0.04 0.05 0.10 0.15 0.19 0.25 0.23 0.21 0.21 0.29 0.12 0.01 0.00 0.00 0.00 0.00 0.00 0.00 0.05 0.12 0.09 0.04 0.02 0.00 0.00 0.00 0.00 0.00 0.00 0.00 0.00 0.00 0.00
0.02 0.02 0.01 0.03 0.04 0.06 0.06 0.10 0.08 0.07 0.05 0.04 0.05 0.04 0.07 0.06 0.09 0.21 0.34 0.49 0.54 0.40 0.39 0.41 0.13 0.01 0.00 0.00 0.00 0.00 0.00 0.00 0.00 0.04 0.03 0.07 0.03 0.00 0.00 0.00 0.00 0.00 0.00 0.00 0.00 0.00 0.00
0.02 0.02 0.03 0.05 0.06 0.07 0.11 0.11 0.06 0.08 0.06 0.06 0.04 0.05 0.10 0.11 0.16 0.45 0.63 0.85 0.97 0.77 0.61 0.27 0.07 0.00 0.00 0.00 0.00 0.00 0.00 0.00 0.00 0.01 0.00 0.00 0.02 0.00 0.00 0.00 0.00 0.00 0.00 0.00 0.00 0.00 0.00
0.02 0.03 0.04 0.07 0.07 0.09 0.12 0.08 0.06 0.09 0.04 0.10 0.06 0.13 0.21 0.21 0.24 0.47 0.77 0.73 0.57 0.39 0.39 0.17 0.04 0.00 0.00 0.00 0.00 0.00 0.00 0.00 0.00 0.00 0.00 0.00 0.00 0.00 0.00 0.00 0.00 0.00 0.00 0.00 0.00 0.00 0.00
0.02 0.03 0.05 0.07 0.07 0.11 0.10 0.06 0.07 0.09 0.09 0.19 0.19 0.19 0.22 0.16 0.15 0.50 0.54 0.47 0.50 0.52 0.44 0.32 0.07 0.00 0.00 0.00 0.00 0.00 0.00 0.00 0.00 0.00 0.00 0.00 0.00 0.00 0.00 0.00 0.00 0.00 0.00 0.00 0.00 0.00 0.00
0.02 0.02 0.06 0.06 0.08 0.10 0.08 0.07 0.12 0.15 0.14 0.24 0.23 0.16 0.16 0.13 0.28 0.43 0.43 0.41 0.69 0.95 0.74 0.40 0.15 0.01 0.00 0.00 0.00 0.00 0.00 0.00 0.00 0.00 0.00 0.00 0.00 0.00 0.00 0.00 0.00 0.00 0.00 0.00 0.00 0.00 0.00
0.02 0.04 0.07 0.07 0.09 0.10 0.11 0.11 0.16 0.17 0.18 0.18 0.11 0.07 0.12 0.24 0.43 0.48 0.46 0.49 0.79 1.36 1.10 0.32 0.10 0.01 0.00 0.00 0.00 0.00 0.00 0.00 0.00 0.00 0.00 0.00 0.00 0.00 0.00 0.00 0.00 0.00 0.00 0.00 0.00 0.01 0.01
0.03 0.05 0.07 0.09 0.08 0.11 0.11 0.12 0.15 0.12 0.15 0.08 0.06 0.07 0.15 0.24 0.48 0.44 0.43 0.95 1.02 1.34 0.78 0.31 0.16 0.04 0.03 0.02 0.01 0.00 0.01 0.01 0.00 0.00 0.00 0.00 0.00 0.00 0.00 0.00 0.00 0.00 0.00 0.00 0.00 0.02 0.04
0.02 0.06 0.08 0.09 0.10 0.11 0.11 0.13 0.07 0.08 0.11 0.08 0.08 0.15 0.37 0.36 0.42 0.37 0.78 1.41 1.31 0.78 0.29 0.07 0.06 0.04 0.02 0.01 0.03 0.01 0.02 0.02 0.01 0.01 0.01 0.00 0.00 0.00 0.00 0.00 0.00 0.00 0.04 0.06 0.06 0.09 0.02
0.03 0.07 0.09 0.10 0.10 0.10 0.13 0.10 0.02 0.02 0.08 0.20 0.38 0.33 0.27 0.24 0.27 0.73 1.28 1.05 0.93 0.25 0.12 0.03 0.01 0.03 0.02 0.01 0.03 0.02 0.01 0.02 0.01 0.00 0.00 0.00 0.00 0.00 0.00 0.00 0.00 0.00 0.02 0.05 0.02 0.00 0.00
0.04 0.07 0.09 0.09 0.09 0.09 0.10 0.05 0.01 0.02 0.17 0.63 0.46 0.17 0.19 0.11 0.26 0.98 1.07 0.82 0.54 0.23 0.02 0.02 0.06 0.09 0.07 0.01 0.02 0.02 0.02 0.01 0.00 0.00 0.01 0.00 0.00 0.00 0.00 0.00 0.01 0.07 0.11 0.04 0.15 0.10 0.12
0.04 0.07 0.10 0.08 0.09 0.09 0.08 0.05 0.01 0.05 0.22 0.70 0.45 0.19 0.26 0.19 0.36 0.92 0.72 0.51 0.29 0.22 0.01 0.00 0.03 0.01 0.02 0.01 0.01 0.01 0.01 0.00 0.00 0.00 0.00 0.00 0.00 0.00 0.00 0.00 0.00 0.01 0.02 0.09 0.24 0.15 0.06
0.05 0.08 0.09 0.06 0.09 0.07 0.07 0.03 0.03 0.05 0.18 0.32 0.45 0.23 0.34 0.31 0.58 0.91 0.57 0.46 0.20 0.07 0.01 0.00 0.00 0.00 0.00 0.00 0.00 0.00 0.00 0.00 0.00 0.00 0.00 0.00 0.02 0.01 0.01 0.00 0.00 0.01 0.08 0.11 0.16 0.14 0.08
0.05 0.07 0.07 0.05 0.09 0.05 0.05 0.01 0.03 0.05 0.19 0.31 0.59 0.47 0.21 0.32 0.64 0.65 0.41 0.32 0.30 0.13 0.02 0.00 0.00 0.00 0.00 0.00 0.00 0.00 0.00 0.00 0.00 0.00 0.00 0.00 0.04 0.02 0.01 0.00 0.00 0.00 0.00 0.03 0.21 0.08 0.13
0.04 0.06 0.05 0.05 0.08 0.05 0.04 0.00 0.01 0.05 0.23 0.41 0.48 0.46 0.27 0.26 0.28 0.24 0.30 0.23 0.08 0.07 0.04 0.00 0.00 0.00 0.00 0.00 0.00 0.00 0.00 0.00 0.00 0.00 0.00 0.00 0.04 0.03 0.01 0.03 0.03 0.04 0.01 0.10 0.20 0.39 0.23
0.03 0.05 0.04 0.06 0.09 0.05 0.02 0.01 0.01 0.04 0.07 0.42 0.69 0.72 0.54 0.31 0.15 0.07 0.28 0.21 0.11 0.09 0.02 0.00 0.00 0.00 0.00 0.00 0.00 0.00 0.00 0.00 0.00 0.00 0.00 0.01 0.03 0.02 0.03 0.06 0.19 0.18 0.03 0.10 0.38 0.49 0.08
0.02 0.04 0.03 0.06 0.06 0.05 0.01 0.00 0.01 0.04 0.18 0.56 0.52 0.20 0.14 0.16 0.10 0.10 0.15 0.17 0.11 0.04 0.01 0.00 0.01 0.00 0.00 0.01 0.00 0.00 0.00 0.00 0.00 0.00 0.00 0.04 0.05 0.02 0.02 0.06 0.22 0.20 0.08 0.07 0.31 0.15 0.19
0.02 0.02 0.04 0.05 0.04 0.03 0.01 0.00 0.00 0.06 0.19 0.44 0.36 0.08 0.01 0.01 0.05 0.05 0.04 0.07 0.03 0.00 0.00 0.00 0.00 0.00 0.01 0.01 0.00 0.00 0.00 0.00 0.00 0.00 0.01 0.05 0.09 0.06 0.06 0.05 0.10 0.16 0.04 0.06 0.05 0.02 0.02
0.03 0.01 0.03 0.04 0.02 0.03 0.01 0.00 0.00 0.04 0.12 0.15 0.33 0.11 0.02 0.05 0.04 0.01 0.01 0.00 0.01 0.00 0.00 0.01 0.00 0.01 0.02 0.01 0.00 0.00 0.00 0.00 0.00 0.00 0.02 0.06 0.08 0.15 0.07 0.04 0.11 0.13 0.04 0.02 0.01 0.00 0.01
0.03 0.01 0.02 0.03 0.03 0.02 0.01 0.00 0.00 0.02 0.07 0.09 0.21 0.16 0.03 0.04 0.01 0.00 0.00 0.00 0.00 0.00 0.01 0.00 0.00 0.02 0.02 0.01 0.01 0.01 0.00 0.00 0.01 0.00 0.01 0.02 0.06 0.19 0.09 0.09 0.24 0.13 0.02 0.00 0.00 0.00 0.00
0.03 0.02 0.01 0.02 0.02 0.01 0.01 0.00 0.00 0.01 0.03 0.04 0.18 0.15 0.06 0.02 0.00 0.00 0.00 0.00 0.00 0.00 0.00 0.00 0.00 0.00 0.01 0.02 0.04 0.04 0.01 0.00 0.00 0.00 0.01 0.01 0.06 0.18 0.16 0.17 0.09 0.01 0.00 0.00 0.00 0.00 0.00
0.02 0.02 0.01 0.02 0.02 0.01 0.01 0.00 0.00 0.00 0.01 0.02 0.11 0.19 0.15 0.04 0.00 0.00 0.00 0.00 0.00 0.00 0.02 0.01 0.03 0.01 0.01 0.05 0.12 0.08 0.02 0.00 0.00 0.00 0.01 0.01 0.02 0.13 0.09 0.08 0.01 0.01 0.00 0.00 0.02 0.01 0.00
0.02 0.02 0.02 0.01 0.01 0.01 0.01 0.01 0.00 0.00 0.00 0.01 0.08 0.14 0.21 0.07 0.01 0.00 0.00 0.00 0.00 0.01 0.02 0.02 0.06 0.01 0.02 0.07 0.13 0.05 0.01 0.00 0.00 0.00 0.00 0.02 0.04 0.06 0.06 0.10 0.00 0.00 0.00 0.00 0.00 0.01 0.00
0.02 0.02 0.02 0.02 0.01 0.01 0.01 0.01 0.01 0.00 0.00 0.02 0.05 0.09 0.22 0.11 0.02 0.00 0.00 0.01 0.01 0.02 0.03 0.01 0.01 0.01 0.05 0.09 0.10 0.05 0.02 0.01 0.00 0.00 0.00 0.00 0.00 0.01 0.02 0.02 0.00 0.00 0.00 0.00 0.00 0.00 0.00
0.02 0.02 0.01 0.02 0.01 0.01 0.01 0.01 0.01 0.00 0.00 0.02 0.03 0.08 0.15 0.14 0.04 0.00 0.00 0.00 0.00 0.01 0.01 0.00 0.03 0.01 0.03 0.10 0.14 0.09 0.03 0.01 0.00 0.00 0.00 0.00 0.00 0.00 0.00 0.00 0.00 0.00 0.00 0.00 0.00 0.00 0.00

GFSGBSN_prec_precacc_018.txt.gz
Total_Precipitation_Accumulation
0.00 0.01 0.01 0.01 0.00 0.01 0.01 0.02 0.02 0.03 0.08 0.09 0.10 0.11 0.08 0.08 0.07 0.09 0.09 0.06 0.07 0.10 0.13 0.16 0.12 0.06 0.05 0.19 0.06 0.00 0.03 0.05 0.11 0.20 0.01 0.00 0.00 0.00 0.00 0.00 0.00 0.00 0.00 0.00 0.00 0.00 0.00
0.01 0.01 0.01 0.01 0.01 0.02 0.02 0.03 0.04 0.05 0.05 0.10 0.17 0.14 0.07 0.08 0.09 0.08 0.08 0.06 0.06 0.13 0.15 0.15 0.30 0.18 0.01 0.05 0.01 0.00 0.01 0.06 0.07 0.24 0.06 0.01 0.00 0.00 0.00 0.00 0.00 0.00 0.00 0.00 0.00 0.00 0.00
0.01 0.02 0.01 0.01 0.02 0.03 0.03 0.04 0.05 0.06 0.06 0.10 0.14 0.09 0.07 0.09 0.10 0.09 0.08 0.05 0.07 0.14 0.15 0.18 0.26 0.16 0.02 0.00 0.00 0.00 0.01 0.03 0.02 0.17 0.12 0.03 0.00 0.00 0.00 0.00 0.00 0.00 0.00 0.00 0.00 0.00 0.00
0.02 0.02 0.02 0.01 0.03 0.04 0.05 0.05 0.06 0.07 0.09 0.07 0.07 0.06 0.05 0.06 0.10 0.11 0.11 0.06 0.07 0.13 0.21 0.19 0.37 0.11 0.00 0.00 0.00 0.00 0.00 0.00 0.01 0.08 0.18 0.10 0.03 0.01 0.00 0.00 0.00 0.00 0.00 0.00 0.00 0.00 0.00
0.02 0.02 0.01 0.03 0.04 0.06 0.06 0.07 0.09 0.09 0.08 0.04 0.07 0.06 0.05 0.06 0.10 0.15 0.19 0.25 0.23 0.21 0.22 0.36 0.40 0.11 0.00 0.00 0.00 0.00 0.00 0.00 0.07 0.20 0.18 0.09 0.06 0.01 0.00 0.00 0.00 0.00 0.00 0.00 0.00 0.00 0.00
0.03 0.02 0.01 0.05 0.06 0.08 0.07 0.10 0.09 0.08 0.06 0.06 0.07 0.05 0.09 0.07 0.09 0.22 0.35 0.49 0.54 0.40 0.39 0.51 0.40 0.12 0.00 0.00 0.00 0.00 0.00 0.01 0.05 0.16 0.12 0.14 0.09 0.05 0.00 0.00 0.00 0.00 0.00 0.00 0.00 0.00 0.00
0.03 0.03 0.04 0.06 0.08 0.08 0.11 0.11 0.07 0.09 0.08 0.08 0.06 0.06 0.11 0.12 0.16 0.46 0.65 0.85 0.97 0.78 0.63 0.42 0.23 0.02 0.00 0.00 0.00 0.00 0.00 0.01 0.06 0.09 0.04 0.05 0.07 0.03 0.00 0.00 0.00 0.00 0.00 0.00 0.00 0.00 0.00
0.03 0.03 0.04 0.08 0.09 0.10 0.12 0.09 0.07 0.11 0.06 0.11 0.07 0.14 0.22 0.21 0.24 0.48 0.78 0.73 0.59 0.41 0.40 0.30 0.11 0.01 0.00 0.00 0.00 0.00 0.00 0.00 0.02 0.03 0.01 0.00 0.02 0.00 0.00 0.00 0.00 0.00 0.00 0.00 0.00 0.00 0.00
0.03 0.03 0.06 0.09 0.10 0.12 0.10 0.06 0.09 0.12 0.10 0.19 0.20 0.20 0.22 0.16 0.15 0.50 0.54 0.48 0.51 0.55 0.47 0.45 0.18 0.02 0.00 0.00 0.00 0.00 0.00 0.00 0.00 0.00 0.00 0.00 0.00 0.00 0.00 0.00 0.00 0.00 0.00 0.00 0.00 0.00 0.00
0.03 0.03 0.06 0.08 0.10 0.11 0.09 0.08 0.14 0.18 0.15 0.25 0.23 0.17 0.19 0.17 0.29 0.43 0.44 0.42 0.71 0.96 0.82 0.60 0.31 0.05 0.00 0.00 0.00 0.00 0.00 0.00 0.00 0.00 0.00 0.00 0.00 0.00 0.00 0.00 0.00 0.00 0.00 0.00 0.00 0.00 0.00
0.02 0.04 0.07 0.09 0.10 0.11 0.11 0.12 0.19 0.18 0.18 0.19 0.12 0.09 0.15 0.35 0.54 0.50 0.47 0.50 0.84 1.37 1.21 0.54 0.19 0.03 0.01 0.00 0.00 0.01 0.00 0.00 0.00 0.00 0.00 0.00 0.00 0.00 0.00 0.00 0.00 0.00 0.00 0.00 0.00 0.01 0.01
0.03 0.06 0.07 0.11 0.10 0.13 0.12 0.13 0.16 0.12 0.16 0.10 0.07 0.10 0.22 0.34 0.66 0.50 0.44 0.95 1.03 1.38 1.04 0.58 0.20 0.07 0.04 0.02 0.01 0.00 0.01 0.01 0.00 0.00 0.00 0.00 0.00 0.00 0.00 0.00 0.00 0.00 0.00 0.00 0.00 0.02 0.04
0.03 0.06 0.09 0.11 0.11 0.12 0.11 0.15 0.07 0.08 0.13 0.11 0.13 0.18 0.44 0.42 0.43 0.37 0.78 1.41 1.32 0.85 0.53 0.21 0.08 0.05 0.03 0.02 0.03 0.01 0.02 0.02 0.01 0.01 0.03 0.00 0.00 0.00 0.00 0.00 0.00 0.00 0.04 0.06 0.06 0.09 0.02
0.03 0.07 0.09 0.11 0.11 0.10 0.14 0.10 0.02 0.03 0.09 0.26 0.44 0.35 0.28 0.25 0.27 0.73 1.28 1.05 0.99 0.38 0.27 0.07 0.02 0.03 0.02 0.01 0.03 0.02 0.01 0.03 0.01 0.00 0.00 0.00 0.00 0.00 0.00 0.00 0.00 0.00 0.02 0.05 0.02 0.00 0.00
0.04 0.07 0.09 0.10 0.10 0.09 0.11 0.05 0.01 0.03 0.19 0.67 0.49 0.18 0.21 0.13 0.26 0.98 1.08 0.90 0.72 0.43 0.11 0.05 0.10 0.11 0.08 0.01 0.02 0.02 0.02 0.01 0.00 0.00 0.01 0.00 0.00 0.00 0.00 0.00 0.01 0.07 0.11 0.04 0.15 0.10 0.12
0.04 0.07 0.10 0.08 0.10 0.09 0.08 0.05 0.02 0.06 0.24 0.71 0.45 0.20 0.30 0.20 0.36 0.93 0.76 0.66 0.40 0.32 0.05 0.00 0.06 0.02 0.02 0.01 0.01 0.01 0.01 0.00 0.00 0.00 0.00 0.00 0.00 0.00 0.00 0.00 0.00 0.01 0.02 0.09 0.24 0.15 0.06
0.05 0.08 0.09 0.06 0.09 0.07 0.07 0.03 0.03 0.05 0.18 0.32 0.45 0.23 0.35 0.31 0.58 0.93 0.66 0.59 0.31 0.14 0.03 0.00 0.00 0.00 0.00 0.00 0.00 0.00 0.00 0.00 0.00 0.00 0.00 0.00 0.02 0.01 0.01 0.00 0.00 0.01 0.08 0.11 0.16 0.14 0.08
0.05 0.07 0.07 0.05 0.09 0.05 0.06 0.01 0.03 0.05 0.20 0.31 0.59 0.47 0.21 0.32 0.64 0.70 0.55 0.50 0.43 0.15 0.02 0.00 0.00 0.00 0.00 0.00 0.00 0.00 0.00 0.00 0.00 0.00 0.00 0.00 0.04 0.02 0.01 0.00 0.00 0.00 0.00 0.03 0.21 0.08 0.13
0.04 0.06 0.05 0.05 0.08 0.05 0.04 0.01 0.01 0.05 0.23 0.41 0.48 0.46 0.27 0.26 0.29 0.27 0.37 0.30 0.13 0.08 0.04 0.00 0.00 0.00 0.00 0.00 0.00 0.00 0.00 0.00 0.00 0.00 0.00 0.00 0.04 0.03 0.01 0.03 0.03 0.04 0.01 0.10 0.20 0.39 0.23
0.03 0.05 0.04 0.06 0.09 0.05 0.02 0.01 0.01 0.04 0.07 0.42 0.69 0.72 0.54 0.31 0.15 0.08 0.28 0.21 0.12 0.09 0.02 0.00 0.00 0.00 0.00 0.00 0.00 0.00 0.00 0.00 0.00 0.00 0.00 0.01 0.03 0.02 0.03 0.06 0.19 0.18 0.03 0.10 0.38 0.50 0.08
0.02 0.04 0.03 0.06 0.06 0.05 0.01 0.00 0.01 0.04 0.18 0.56 0.52 0.20 0.14 0.16 0.10 0.10 0.15 0.17 0.11 0.04 0.01 0.00 0.01 0.00 0.00 0.01 0.00 0.00 0.00 0.00 0.00 0.00 0.00 0.04 0.05 0.02 0.02 0.06 0.22 0.20 0.08 0.07 0.31 0.16 0.21
0.02 0.02 0.04 0.05 0.04 0.03 0.01 0.00 0.00 0.06 0.19 0.44 0.36 0.08 0.01 0.01 0.05 0.05 0.04 0.07 0.03 0.00 0.00 0.00 0.00 0.00 0.01 0.01 0.00 0.00 0.00 0.00 0.00 0.00 0.01 0.05 0.09 0.06 0.06 0.05 0.10 0.16 0.04 0.06 0.05 0.02 0.02
0.03 0.02 0.04 0.04 0.02 0.03 0.01 0.00 0.00 0.04 0.12 0.15 0.33 0.11 0.03 0.05 0.04 0.01 0.01 0.00 0.01 0.00 0.00 0.01 0.00 0.01 0.02 0.01 0.00 0.00 0.00 0.00 0.00 0.00 0.02 0.06 0.08 0.15 0.07 0.04 0.11 0.13 0.04 0.02 0.01 0.00 0.01
0.03 0.02 0.02 0.03 0.03 0.02 0.01 0.00 0.00 0.02 0.07 0.09 0.21 0.16 0.03 0.04 0.01 0.00 0.00 0.00 0.00 0.00 0.01 0.00 0.00 0.02 0.02 0.01 0.01 0.01 0.00 0.00 0.01 0.00 0.01 0.02 0.06 0.19 0.09 0.09 0.24 0.13 0.02 0.00 0.00 0.00 0.00
0.03 0.03 0.01 0.03 0.03 0.01 0.01 0.00 0.00 0.01 0.03 0.04 0.18 0.15 0.07 0.02 0.00 0.00 0.00 0.00 0.00 0.00 0.00 0.00 0.00 0.00 0.01 0.02 0.04 0.04 0.01 0.00 0.00 0.00 0.01 0.01 0.06 0.18 0.16 0.17 0.09 0.01 0.00 0.00 0.00 0.00 0.00
0.02 0.03 0.02 0.02 0.02 0.02 0.01 0.00 0.00 0.00 0.01 0.02 0.11 0.19 0.15 0.04 0.00 0.00 0.00 0.00 0.00 0.00 0.02 0.01 0.03 0.01 0.01 0.05 0.12 0.08 0.02 0.00 0.00 0.00 0.01 0.02 0.03 0.14 0.09 0.08 0.01 0.01 0.00 0.00 0.02 0.01 0.00
0.02 0.02 0.02 0.01 0.02 0.02 0.02 0.01 0.01 0.00 0.00 0.01 0.08 0.14 0.22 0.07 0.01 0.00 0.00 0.00 0.00 0.01 0.02 0.02 0.06 0.01 0.02 0.07 0.13 0.05 0.01 0.00 0.00 0.00 0.01 0.04 0.05 0.08 0.08 0.10 0.00 0.00 0.00 0.00 0.00 0.01 0.00
0.02 0.02 0.02 0.02 0.01 0.01 0.01 0.01 0.01 0.00 0.00 0.02 0.05 0.09 0.22 0.12 0.02 0.00 0.00 0.01 0.01 0.02 0.03 0.01 0.01 0.01 0.05 0.09 0.10 0.05 0.02 0.01 0.00 0.00 0.00 0.00 0.01 0.02 0.03 0.03 0.00 0.00 0.00 0.00 0.00 0.00 0.00
0.02 0.02 0.02 0.03 0.01 0.01 0.01 0.01 0.01 0.00 0.00 0.02 0.03 0.08 0.15 0.14 0.04 0.00 0.00 0.00 0.00 0.01 0.01 0.00 0.03 0.01 0.03 0.10 0.14 0.09 0.03 0.01 0.00 0.00 0.00 0.00 0.00 0.00 0.00 0.00 0.00 0.00 0.00 0.00 0.00 0.00 0.00

GFSGBSN_prec_precacc_021.txt.gz
Total_Precipitation_Accumulation
0.01 0.01 0.01 0.01 0.00 0.01 0.02 0.03 0.03 0.04 0.08 0.09 0.12 0.16 0.16 0.12 0.11 0.12 0.11 0.07 0.07 0.10 0.13 0.16 0.12 0.37 0.31 0.19 0.06 0.00 0.06 0.09 0.14 0.22 0.01 0.00 0.00 0.00 0.00 0.00 0.00 0.00 0.00 0.00 0.00 0.00 0.00
0.01 0.02 0.01 0.01 0.01 0.04 0.05 0.04 0.04 0.05 0.06 0.12 0.20 0.18 0.09 0.11 0.12 0.09 0.09 0.06 0.06 0.13 0.15 0.15 0.31 0.37 0.26 0.08 0.01 0.00 0.06 0.16 0.10 0.26 0.06 0.01 0.00 0.00 0.00 0.00 0.00 0.00 0.00 0.00 0.00 0.00 0.00
0.01 0.02 0.02 0.01 0.03 0.06 0.05 0.04 0.05 0.06 0.06 0.12 0.16 0.11 0.09 0.10 0.11 0.09 0.08 0.06 0.07 0.14 0.15 0.18 0.27 0.43 0.10 0.02 0.00 0.00 0.07 0.17 0.14 0.19 0.12 0.03 0.00 0.00 0.00 0.00 0.00 0.00 0.00 0.00 0.00 0.00 0.00
0.02 0.02 0.02 0.01 0.04 0.06 0.06 0.06 0.07 0.07 0.10 0.08 0.09 0.07 0.06 0.07 0.11 0.12 0.11 0.06 0.07 0.13 0.21 0.19 0.39 0.37 0.07 0.01 0.00 0.00 0.02 0.08 0.13 0.17 0.19 0.11 0.04 0.01 0.00 0.00 0.00 0.00 0.00 0.00 0.00 0.00 0.00
0.03 0.03 0.02 0.03 0.05 0.08 0.07 0.08 0.10 0.10 0.09 0.06 0.08 0.08 0.06 0.07 0.11 0.17 0.19 0.26 0.23 0.21 0.22 0.36 0.44 0.30 0.06 0.00 0.00 0.00 0.01 0.02 0.10 0.28 0.26 0.11 0.09 0.02 0.00 0.00 0.00 0.00 0.00 0.00 0.00 0.00 0.00
0.03 0.03 0.02 0.05 0.07 0.11 0.08 0.11 0.09 0.08 0.09 0.09 0.07 0.06 0.09 0.07 0.10 0.24 0.35 0.50 0.54 0.40 0.39 0.52 0.53 0.37 0.03 0.00 0.00 0.00 0.02 0.03 0.10 0.26 0.22 0.23 0.15 0.06 0.00 0.00 0.00 0.00 0.00 0.00 0.00 0.00 0.00
0.03 0.03 0.04 0.07 0.10 0.10 0.13 0.12 0.07 0.10 0.12 0.09 0.06 0.06 0.11 0.12 0.17 0.47 0.65 0.85 0.98 0.78 0.63 0.43 0.30 0.11 0.00 0.00 0.00 0.01 0.02 0.04 0.16 0.20 0.11 0.10 0.11 0.07 0.01 0.00 0.00 0.00 0.00 0.00 0.00 0.00 0.00
0.03 0.04 0.05 0.09 0.11 0.12 0.14 0.10 0.08 0.14 0.10 0.11 0.07 0.14 0.22 0.22 0.25 0.49 0.78 0.73 0.61 0.44 0.40 0.31 0.16 0.04 0.01 0.00 0.00 0.00 0.01 0.04 0.08 0.18 0.06 0.05 0.04 0.04 0.02 0.00 0.00 0.00 0.00 0.00 0.00 0.00 0.00
0.03 0.03 0.06 0.10 0.11 0.14 0.12 0.08 0.11 0.16 0.12 0.19 0.20 0.21 0.23 0.19 0.18 0.51 0.54 0.48 0.53 0.56 0.47 0.48 0.28 0.05 0.00 0.00 0.00 0.00 0.01 0.02 0.02 0.05 0.09 0.02 0.01 0.01 0.02 0.00 0.00 0.00 0.00 0.00 0.00 0.00 0.00
0.03 0.03 0.07 0.09 0.12 0.13 0.10 0.09 0.16 0.20 0.15 0.26 0.26 0.20 0.23 0.26 0.32 0.48 0.45 0.44 0.74 0.96 0.82 0.68 0.44 0.08 0.00 0.00 0.00 0.00 0.01 0.00 0.00 0.01 0.08 0.04 0.00 0.00 0.00 0.00 0.00 0.00 0.00 0.00 0.00 0.00 0.00
0.02 0.04 0.07 0.10 0.11 0.12 0.12 0.13 0.21 0.19 0.20 0.25 0.18 0.13 0.20 0.48 0.71 0.54 0.47 0.51 0.85 1.37 1.22 0.63 0.32 0.08 0.02 0.00 0.00 0.03 0.01 0.00 0.00 0.00 0.00 0.01 0.00 0.00 0.00 0.00 0.00 0.00 0.00 0.00 0.00 0.01 0.01
0.03 0.06 0.08 0.11 0.10 0.14 0.12 0.14 0.16 0.14 0.20 0.19 0.20 0.20 0.34 0.43 0.77 0.57 0.44 0.95 1.03 1.38 1.21 0.78 0.34 0.13 0.07 0.02 0.01 0.01 0.01 0.01 0.00 0.00 0.00 0.00 0.00 0.00 0.00 0.00 0.00 0.00 0.00 0.00 0.00 0.02 0.04
0.03 0.06 0.09 0.11 0.12 0.13 0.12 0.15 0.08 0.11 0.19 0.21 0.18 0.20 0.45 0.43 0.44 0.38 0.78 1.41 1.32 0.90 0.71 0.34 0.16 0.07 0.03 0.02 0.04 0.02 0.03 0.02 0.01 0.02 0.05 0.00 0.00 0.00 0.00 0.00 0.00 0.00 0.04 0.06 0.06 0.09 0.02
0.03 0.07 0.09 0.11 0.12 0.11 0.14 0.11 0.03 0.06 0.15 0.30 0.45 0.36 0.29 0.25 0.27 0.73 1.28 1.06 1.03 0.50 0.42 0.12 0.03 0.04 0.03 0.01 0.04 0.03 0.01 0.03 0.01 0.00 0.01 0.00 0.00 0.00 0.00 0.00 0.00 0.00 0.02 0.05 0.02 0.00 0.00
0.04 0.07 0.09 0.10 0.11 0.09 0.11 0.06 0.02 0.05 0.22 0.69 0.49 0.18 0.21 0.13 0.26 0.98 1.09 0.94 0.82 0.65 0.24 0.07 0.11 0.12 0.10 0.01 0.03 0.02 0.03 0.01 0.00 0.00 0.01 0.00 0.00 0.00 0.00 0.00 0.01 0.07 0.11 0.04 0.15 0.10 0.12
0.04 0.07 0.10 0.08 0.10 0.09 0.08 0.05 0.02 0.06 0.24 0.71 0.45 0.20 0.30 0.20 0.36 0.93 0.77 0.75 0.49 0.39 0.06 0.00 0.08 0.03 0.03 0.01 0.01 0.01 0.01 0.00 0.00 0.00 0.00 0.00 0.00 0.00 0.00 0.00 0.00 0.01 0.02 0.09 0.24 0.15 0.06
0.05 0.08 0.09 0.06 0.09 0.07 0.07 0.03 0.03 0.05 0.18 0.32 0.45 0.23 0.35 0.31 0.58 0.95 0.71 0.67 0.39 0.15 0.03 0.00 0.00 0.00 0.00 0.00 0.00 0.00 0.00 0.00 0.00 0.00 0.00 0.00 0.02 0.01 0.01 0.00 0.00 0.01 0.08 0.11 0.16 0.14 0.08
0.05 0.07 0.07 0.05 0.09 0.05 0.06 0.01 0.03 0.05 0.20 0.31 0.59 0.47 0.21 0.32 0.65 0.77 0.65 0.56 0.45 0.15 0.02 0.00 0.00 0.00 0.00 0.00 0.00 0.00 0.00 0.00 0.00 0.00 0.00 0.00 0.04 0.02 0.01 0.00 0.00 0.00 0.00 0.03 0.21 0.08 0.13
0.04 0.06 0.05 0.05 0.08 0.05 0.04 0.01 0.01 0.05 0.23 0.41 0.48 0.46 0.27 0.26 0.29 0.28 0.38 0.31 0.13 0.08 0.04 0.00 0.00 0.00 0.00 0.00 0.00 0.00 0.00 0.00 0.00 0.00 0.00 0.00 0.04 0.03 0.01 0.03 0.03 0.04 0.01 0.10 0.20 0.39 0.24
0.03 0.05 0.04 0.06 0.09 0.05 0.02 0.01 0.01 0.04 0.07 0.42 0.69 0.72 0.54 0.31 0.15 0.08 0.28 0.21 0.12 0.09 0.02 0.00 0.00 0.00 0.00 0.00 0.00 0.00 0.00 0.00 0.00 0.00 0.00 0.01 0.03 0.02 0.03 0.06 0.19 0.18 0.03 0.10 0.38 0.51 0.08
0.02 0.04 0.03 0.06 0.06 0.05 0.01 0.00 0.01 0.04 0.18 0.56 0.52 0.20 0.14 0.16 0.10 0.10 0.15 0.17 0.11 0.04 0.01 0.00 0.01 0.00 0.00 0.01 0.00 0.00 0.00 0.00 0.00 0.00 0.00 0.04 0.05 0.02 0.02 0.06 0.22 0.20 0.08 0.07 0.31 0.16 0.21
0.02 0.03 0.04 0.05 0.04 0.03 0.01 0.00 0.00 0.06 0.19 0.44 0.36 0.08 0.01 0.01 0.05 0.05 0.04 0.07 0.03 0.00 0.00 0.00 0.00 0.00 0.01 0.01 0.00 0.00 0.00 0.00 0.00 0.00 0.01 0.05 0.09 0.06 0.06 0.05 0.10 0.16 0.04 0.06 0.05 0.02 0.02
0.03 0.02 0.04 0.04 0.02 0.03 0.01 0.00 0.00 0.04 0.12 0.15 0.33 0.11 0.03 0.05 0.04 0.01 0.01 0.00 0.01 0.00 0.00 0.01 0.00 0.01 0.02 0.01 0.00 0.00 0.00 0.00 0.00 0.00 0.02 0.06 0.08 0.15 0.07 0.04 0.11 0.13 0.04 0.02 0.01 0.00 0.01
0.03 0.02 0.03 0.03 0.03 0.02 0.01 0.00 0.00 0.02 0.07 0.09 0.21 0.16 0.03 0.04 0.01 0.00 0.00 0.00 0.00 0.00 0.01 0.00 0.00 0.02 0.02 0.01 0.01 0.01 0.00 0.00 0.01 0.00 0.01 0.02 0.06 0.19 0.09 0.09 0.24 0.13 0.02 0.00 0.00 0.00 0.00
0.03 0.03 0.02 0.03 0.03 0.01 0.01 0.00 0.00 0.01 0.03 0.04 0.18 0.15 0.07 0.02 0.00 0.00 0.00 0.00 0.00 0.00 0.00 0.00 0.00 0.00 0.01 0.02 0.04 0.04 0.02 0.00 0.00 0.00 0.01 0.01 0.06 0.18 0.16 0.17 0.09 0.01 0.00 0.00 0.00 0.00 0.00
0.02 0.03 0.02 0.02 0.02 0.02 0.01 0.00 0.00 0.00 0.01 0.02 0.11 0.19 0.15 0.04 0.00 0.00 0.00 0.00 0.00 0.00 0.02 0.01 0.03 0.01 0.01 0.05 0.12 0.08 0.02 0.00 0.00 0.01 0.01 0.02 0.03 0.15 0.10 0.08 0.01 0.01 0.00 0.00 0.02 0.01 0.00
0.02 0.03 0.03 0.02 0.02 0.02 0.02 0.01 0.01 0.00 0.00 0.01 0.08 0.14 0.22 0.07 0.01 0.00 0.00 0.00 0.00 0.01 0.02 0.02 0.06 0.01 0.02 0.07 0.13 0.05 0.01 0.00 0.00 0.00 0.02 0.05 0.07 0.09 0.09 0.11 0.00 0.00 0.00 0.00 0.00 0.01 0.00
0.03 0.03 0.03 0.04 0.03 0.02 0.02 0.01 0.01 0.01 0.01 0.02 0.05 0.09 0.22 0.12 0.02 0.00 0.00 0.01 0.01 0.02 0.03 0.01 0.01 0.01 0.05 0.09 0.10 0.05 0.02 0.01 0.00 0.00 0.00 0.01 0.02 0.03 0.04 0.04 0.00 0.00 0.00 0.00 0.00 0.00 0.00
0.04 0.04 0.02 0.03 0.02 0.02 0.01 0.02 0.01 0.01 0.01 0.03 0.03 0.08 0.15 0.14 0.04 0.00 0.00 0.00 0.00 0.01 0.01 0.00 0.03 0.01 0.03 0.10 0.14 0.09 0.03 0.01 0.00 0.00 0.00 0.00 0.00 0.00 0.00 0.00 0.00 0.00 0.00 0.00 0.00 0.00 0.00

GFSGBSN_prec_precacc_027.txt.gz
Total_Precipitation_Accumulation
0.02 0.02 0.02 0.02 0.02 0.02 0.05 0.07 0.07 0.05 0.09 0.11 0.15 0.21 0.20 0.14 0.15 0.17 0.15 0.12 0.11 0.14 0.16 0.17 0.12 0.37 0.43 0.41 0.13 0.05 0.07 0.11 0.14 0.24 0.03 0.02 0.00 0.00 0.00 0.00 0.00 0.00 0.00 0.00 0.00 0.00 0.00
0.02 0.03 0.03 0.02 0.02 0.05 0.09 0.10 0.07 0.06 0.07 0.14 0.23 0.25 0.14 0.13 0.15 0.11 0.12 0.10 0.08 0.14 0.15 0.15 0.31 0.38 0.36 0.20 0.03 0.02 0.07 0.27 0.12 0.27 0.07 0.02 0.00 0.00 0.00 0.00 0.00 0.00 0.00 0.00 0.00 0.00 0.00
0.02 0.04 0.03 0.02 0.03 0.07 0.10 0.09 0.08 0.08 0.09 0.14 0.22 0.17 0.12 0.12 0.13 0.11 0.09 0.07 0.09 0.15 0.16 0.19 0.28 0.45 0.20 0.10 0.03 0.04 0.11 0.34 0.25 0.21 0.13 0.03 0.00 0.00 0.00 0.00 0.00 0.00 0.00 0.00 0.00 0.00 0.00
0.03 0.04 0.03 0.02 0.05 0.09 0.11 0.10 0.10 0.10 0.13 0.14 0.17 0.13 0.10 0.10 0.13 0.15 0.12 0.08 0.09 0.14 0.24 0.20 0.40 0.42 0.12 0.02 0.06 0.03 0.06 0.23 0.44 0.38 0.23 0.12 0.04 0.01 0.00 0.00 0.00 0.00 0.00 0.00 0.00 0.00 0.00
0.04 0.04 0.03 0.04 0.06 0.12 0.12 0.13 0.13 0.12 0.12 0.14 0.18 0.14 0.10 0.08 0.12 0.18 0.20 0.26 0.24 0.21 0.25 0.38 0.45 0.37 0.12 0.01 0.02 0.04 0.04 0.20 0.38 0.58 0.46 0.20 0.11 0.03 0.00 0.00 0.00 0.00 0.00 0.00 0.00 0.00 0.00
0.05 0.04 0.02 0.06 0.08 0.15 0.12 0.16 0.12 0.10 0.13 0.18 0.14 0.08 0.11 0.09 0.11 0.25 0.36 0.50 0.55 0.41 0.41 0.53 0.53 0.52 0.12 0.02 0.01 0.04 0.10 0.18 0.33 0.71 0.52 0.39 0.24 0.07 0.01 0.00 0.00 0.00 0.00 0.00 0.00 0.00 0.00
0.04 0.04 0.05 0.07 0.11 0.14 0.17 0.17 0.09 0.14 0.20 0.18 0.09 0.10 0.14 0.16 0.22 0.50 0.65 0.85 0.98 0.78 0.63 0.43 0.31 0.19 0.04 0.05 0.01 0.03 0.17 0.24 0.59 1.01 0.44 0.18 0.17 0.09 0.01 0.00 0.00 0.00 0.00 0.00 0.00 0.00 0.00
0.04 0.04 0.06 0.09 0.12 0.14 0.17 0.13 0.10 0.20 0.20 0.17 0.13 0.24 0.32 0.30 0.34 0.54 0.78 0.73 0.62 0.51 0.40 0.31 0.19 0.14 0.05 0.08 0.01 0.02 0.18 0.33 0.55 0.74 0.35 0.17 0.10 0.05 0.02 0.00 0.00 0.00 0.00 0.00 0.00 0.00 0.00
0.03 0.04 0.07 0.10 0.12 0.16 0.17 0.09 0.14 0.22 0.18 0.27 0.29 0.39 0.35 0.35 0.29 0.53 0.55 0.48 0.53 0.58 0.48 0.50 0.34 0.17 0.13 0.08 0.00 0.01 0.30 0.40 0.31 0.43 0.35 0.15 0.08 0.05 0.08 0.01 0.00 0.00 0.00 0.00 0.00 0.00 0.00
0.03 0.04 0.07 0.09 0.12 0.14 0.13 0.10 0.19 0.26 0.22 0.35 0.39 0.38 0.32 0.37 0.36 0.54 0.46 0.44 0.74 0.97 0.82 0.69 0.53 0.29 0.09 0.03 0.00 0.01 0.34 0.21 0.21 0.22 0.61 0.20 0.09 0.07 0.06 0.07 0.00 0.00 0.00 0.00 0.00 0.00 0.00
0.03 0.05 0.08 0.10 0.11 0.14 0.13 0.14 0.23 0.25 0.25 0.30 0.28 0.24 0.29 0.56 0.75 0.68 0.48 0.51 0.85 1.37 1.23 0.66 0.51 0.33 0.10 0.01 0.01 0.04 0.30 0.21 0.10 0.10 0.39 0.16 0.12 0.10 0.09 0.04 0.01 0.00 0.00 0.00 0.00 0.01 0.01
0.03 0.07 0.08 0.11 0.11 0.14 0.12 0.15 0.19 0.20 0.23 0.22 0.22 0.22 0.37 0.45 0.80 0.59 0.44 0.95 1.03 1.38 1.26 0.91 0.58 0.25 0.08 0.03 0.02 0.08 0.29 0.14 0.07 0.08 0.12 0.05 0.08 0.07 0.08 0.01 0.02 0.00 0.00 0.00 0.00 0.02 0.04
0.03 0.06 0.09 0.11 0.12 0.13 0.12 0.16 0.10 0.16 0.21 0.21 0.18 0.21 0.45 0.43 0.44 0.38 0.78 1.41 1.32 0.95 0.86 0.54 0.36 0.10 0.04 0.04 0.05 0.06 0.09 0.04 0.03 0.04 0.09 0.01 0.00 0.02 0.01 0.00 0.00 0.00 0.04 0.06 0.06 0.09 0.02
0.04 0.07 0.10 0.11 0.12 0.11 0.14 0.11 0.04 0.08 0.16 0.30 0.45 0.36 0.29 0.25 0.27 0.73 1.28 1.06 1.08 0.58 0.64 0.25 0.05 0.05 0.03 0.03 0.06 0.04 0.01 0.03 0.01 0.00 0.01 0.01 0.00 0.00 0.00 0.00 0.00 0.00 0.02 0.05 0.02 0.00 0.00
0.04 0.07 0.09 0.10 0.11 0.09 0.11 0.06 0.02 0.05 0.23 0.69 0.49 0.18 0.21 0.13 0.26 0.98 1.09 0.95 0.88 0.84 0.52 0.14 0.12 0.12 0.11 0.02 0.04 0.04 0.03 0.01 0.00 0.00 0.01 0.00 0.00 0.00 0.00 0.00 0.01 0.07 0.11 0.04 0.15 0.10 0.12
0.04 0.07 0.10 0.08 0.10 0.09 0.08 0.05 0.02 0.06 0.24 0.71 0.45 0.20 0.30 0.20 0.36 0.93 0.78 0.82 0.53 0.42 0.08 0.00 0.09 0.04 0.03 0.01 0.02 0.02 0.01 0.00 0.00 0.00 0.00 0.00 0.00 0.00 0.00 0.00 0.00 0.01 0.02 0.09 0.24 0.15 0.06
0.05 0.08 0.09 0.06 0.09 0.07 0.07 0.03 0.03 0.05 0.18 0.32 0.45 0.23 0.35 0.31 0.58 0.95 0.72 0.69 0.40 0.15 0.03 0.00 0.00 0.00 0.00 0.00 0.00 0.00 0.00 0.00 0.00 0.00 0.00 0.00 0.02 0.01 0.01 0.00 0.00 0.01 0.08 0.11 0.16 0.14 0.08
0.05 0.07 0.07 0.05 0.09 0.05 0.06 0.01 0.03 0.05 0.20 0.31 0.59 0.47 0.21 0.32 0.65 0.77 0.65 0.56 0.45 0.16 0.02 0.00 0.00 0.00 0.00 0.00 0.00 0.00 0.00 0.00 0.00 0.00 0.00 0.00 0.04 0.02 0.01 0.00 0.00 0.00 0.00 0.03 0.21 0.08 0.13
0.04 0.06 0.06 0.05 0.08 0.05 0.04 0.01 0.01 0.05 0.23 0.41 0.48 0.46 0.27 0.26 0.29 0.28 0.38 0.31 0.13 0.08 0.04 0.00 0.00 0.00 0.00 0.00 0.00 0.00 0.00 0.00 0.00 0.00 0.00 0.00 0.04 0.03 0.01 0.03 0.03 0.04 0.01 0.10 0.20 0.39 0.24
0.03 0.06 0.05 0.06 0.09 0.05 0.02 0.01 0.01 0.04 0.07 0.42 0.69 0.72 0.54 0.31 0.15 0.08 0.28 0.21 0.12 0.09 0.02 0.00 0.00 0.00 0.00 0.00 0.00 0.00 0.00 0.00 0.00 0.00 0.00 0.01 0.03 0.02 0.03 0.06 0.19 0.18 0.03 0.10 0.38 0.51 0.08
0.02 0.04 0.04 0.06 0.06 0.05 0.01 0.00 0.01 0.04 0.18 0.56 0.52 0.20 0.14 0.16 0.10 0.10 0.15 0.17 0.11 0.04 0.01 0.00 0.01 0.00 0.00 0.01 0.00 0.00 0.00 0.00 0.00 0.00 0.00 0.04 0.05 0.02 0.02 0.06 0.22 0.20 0.08 0.07 0.31 0.16 0.21
0.03 0.03 0.04 0.06 0.04 0.03 0.01 0.00 0.00 0.06 0.19 0.44 0.36 0.08 0.01 0.01 0.05 0.05 0.04 0.07 0.03 0.00 0.00 0.00 0.00 0.00 0.01 0.01 0.00 0.00 0.00 0.00 0.00 0.00 0.01 0.05 0.09 0.06 0.06 0.05 0.10 0.16 0.04 0.06 0.05 0.02 0.02
0.04 0.02 0.05 0.05 0.03 0.03 0.01 0.00 0.00 0.04 0.12 0.15 0.33 0.11 0.03 0.05 0.04 0.01 0.01 0.00 0.01 0.00 0.00 0.01 0.00 0.01 0.02 0.01 0.00 0.00 0.00 0.00 0.00 0.00 0.02 0.06 0.08 0.15 0.07 0.04 0.11 0.13 0.04 0.02 0.01 0.00 0.01
0.04 0.02 0.03 0.05 0.04 0.02 0.01 0.00 0.00 0.02 0.07 0.09 0.21 0.16 0.03 0.04 0.01 0.00 0.00 0.00 0.00 0.00 0.01 0.00 0.00 0.02 0.02 0.01 0.01 0.01 0.00 0.00 0.01 0.00 0.01 0.02 0.06 0.19 0.09 0.09 0.24 0.13 0.02 0.00 0.00 0.00 0.00
0.03 0.03 0.02 0.04 0.05 0.02 0.01 0.00 0.00 0.01 0.03 0.04 0.18 0.15 0.07 0.02 0.00 0.00 0.00 0.00 0.00 0.00 0.00 0.00 0.00 0.00 0.01 0.02 0.04 0.04 0.02 0.00 0.00 0.00 0.01 0.01 0.06 0.18 0.16 0.17 0.09 0.01 0.00 0.00 0.00 0.00 0.00
0.03 0.03 0.02 0.04 0.05 0.05 0.03 0.01 0.00 0.00 0.01 0.02 0.11 0.19 0.15 0.04 0.00 0.00 0.00 0.00 0.00 0.00 0.02 0.01 0.03 0.01 0.01 0.05 0.12 0.08 0.02 0.00 0.00 0.01 0.01 0.02 0.03 0.16 0.10 0.09 0.01 0.01 0.00 0.00 0.02 0.01 0.00
0.04 0.04 0.04 0.06 0.05 0.06 0.05 0.03 0.01 0.00 0.00 0.01 0.08 0.14 0.22 0.07 0.01 0.00 0.00 0.00 0.00 0.01 0.02 0.02 0.06 0.01 0.02 0.07 0.13 0.05 0.01 0.00 0.00 0.00 0.02 0.05 0.08 0.11 0.10 0.12 0.00 0.00 0.00 0.00 0.00 0.01 0.00
0.05 0.04 0.06 0.06 0.04 0.04 0.05 0.06 0.06 0.01 0.01 0.02 0.05 0.09 0.22 0.12 0.02 0.00 0.00 0.01 0.01 0.02 0.03 0.01 0.01 0.01 0.05 0.09 0.10 0.05 0.02 0.01 0.00 0.00 0.00 0.01 0.02 0.04 0.04 0.05 0.00 0.00 0.00 0.00 0.00 0.00 0.00
0.06 0.06 0.04 0.04 0.04 0.04 0.04 0.07 0.12 0.02 0.01 0.03 0.03 0.08 0.15 0.14 0.04 0.00 0.00 0.00 0.00 0.01 0.01 0.00 0.03 0.01 0.03 0.10 0.14 0.09 0.03 0.01 0.00 0.00 0.00 0.00 0.00 0.00 0.00 0.00 0.00 0.00 0.00 0.00 0.00 0.00 0.00

GFSGBSN_prec_precacc_030.txt.gz
Total_Precipitation_Accumulation
0.02 0.03 0.03 0.03 0.03 0.03 0.06 0.09 0.10 0.07 0.10 0.14 0.17 0.25 0.28 0.20 0.17 0.18 0.16 0.13 0.11 0.15 0.19 0.21 0.13 0.37 0.44 0.42 0.14 0.10 0.12 0.12 0.15 0.24 0.05 0.03 0.01 0.01 0.00 0.00 0.00 0.00 0.00 0.00 0.00 0.00 0.00
0.02 0.03 0.03 0.03 0.03 0.05 0.09 0.12 0.09 0.07 0.09 0.17 0.28 0.28 0.22 0.19 0.18 0.12 0.12 0.10 0.08 0.14 0.15 0.16 0.31 0.39 0.37 0.20 0.04 0.06 0.15 0.30 0.13 0.28 0.09 0.03 0.00 0.00 0.00 0.00 0.00 0.00 0.00 0.00 0.00 0.00 0.00
0.02 0.04 0.04 0.03 0.04 0.08 0.12 0.12 0.10 0.10 0.11 0.17 0.27 0.21 0.22 0.23 0.20 0.13 0.10 0.08 0.09 0.15 0.16 0.20 0.31 0.46 0.20 0.10 0.04 0.08 0.15 0.38 0.28 0.22 0.14 0.06 0.00 0.00 0.00 0.00 0.00 0.00 0.00 0.00 0.00 0.00 0.00
0.03 0.05 0.03 0.03 0.06 0.09 0.13 0.12 0.12 0.11 0.14 0.16 0.21 0.18 0.19 0.17 0.17 0.16 0.13 0.09 0.10 0.15 0.24 0.22 0.42 0.44 0.13 0.02 0.07 0.08 0.09 0.29 0.47 0.41 0.27 0.15 0.04 0.01 0.00 0.00 0.00 0.00 0.00 0.00 0.00 0.00 0.00
0.04 0.04 0.03 0.04 0.07 0.13 0.13 0.15 0.15 0.13 0.15 0.18 0.24 0.21 0.15 0.13 0.14 0.18 0.22 0.27 0.24 0.22 0.27 0.44 0.47 0.37 0.13 0.03 0.03 0.07 0.07 0.26 0.46 0.63 0.53 0.31 0.16 0.04 0.00 0.00 0.00 0.00 0.00 0.00 0.00 0.00 0.00
0.05 0.04 0.03 0.06 0.09 0.15 0.13 0.18 0.14 0.13 0.19 0.24 0.20 0.16 0.15 0.12 0.14 0.29 0.39 0.50 0.55 0.42 0.45 0.53 0.53 0.53 0.12 0.04 0.01 0.05 0.11 0.24 0.42 0.78 0.67 0.55 0.32 0.09 0.01 0.00 0.00 0.00 0.00 0.00 0.00 0.00 0.00
0.05 0.04 0.05 0.08 0.11 0.14 0.18 0.18 0.11 0.19 0.25 0.22 0.14 0.16 0.17 0.17 0.25 0.51 0.66 0.85 0.98 0.78 0.64 0.43 0.31 0.20 0.07 0.11 0.01 0.03 0.19 0.46 0.78 1.10 0.52 0.26 0.20 0.09 0.01 0.00 0.00 0.00 0.00 0.00 0.00 0.00 0.00
0.04 0.04 0.06 0.09 0.12 0.15 0.18 0.14 0.13 0.24 0.22 0.20 0.16 0.26 0.36 0.31 0.35 0.54 0.78 0.73 0.62 0.51 0.40 0.31 0.19 0.15 0.06 0.13 0.02 0.02 0.30 0.90 0.86 0.92 0.44 0.25 0.12 0.05 0.02 0.00 0.00 0.00 0.00 0.00 0.00 0.00 0.00
0.04 0.04 0.07 0.10 0.12 0.16 0.17 0.10 0.16 0.24 0.19 0.28 0.32 0.40 0.36 0.35 0.29 0.53 0.55 0.48 0.53 0.58 0.48 0.53 0.40 0.18 0.17 0.14 0.02 0.03 0.60 0.97 0.49 0.67 0.43 0.19 0.10 0.05 0.08 0.01 0.00 0.00 0.00 0.00 0.00 0.00 0.00
0.03 0.04 0.07 0.09 0.13 0.14 0.13 0.10 0.20 0.27 0.22 0.35 0.40 0.39 0.33 0.37 0.36 0.54 0.46 0.44 0.74 0.97 0.84 0.75 0.60 0.40 0.20 0.07 0.05 0.08 0.78 0.66 0.39 0.58 0.84 0.36 0.15 0.07 0.07 0.07 0.00 0.00 0.00 0.00 0.00 0.00 0.00
0.03 0.05 0.08 0.10 0.11 0.14 0.13 0.15 0.23 0.26 0.25 0.31 0.28 0.24 0.29 0.56 0.75 0.68 0.48 0.51 0.85 1.37 1.23 0.68 0.64 0.47 0.17 0.02 0.04 0.11 0.66 0.45 0.15 0.29 0.58 0.35 0.22 0.12 0.10 0.05 0.02 0.00 0.00 0.00 0.00 0.01 0.01
0.03 0.07 0.08 0.11 0.11 0.14 0.13 0.15 0.19 0.20 0.23 0.22 0.22 0.22 0.37 0.45 0.81 0.59 0.44 0.95 1.03 1.38 1.27 0.95 0.68 0.32 0.10 0.04 0.02 0.10 0.43 0.27 0.13 0.19 0.26 0.19 0.19 0.15 0.15 0.02 0.03 0.00 0.00 0.00 0.00 0.02 0.04
0.03 0.07 0.09 0.11 0.12 0.13 0.12 0.16 0.10 0.16 0.21 0.21 0.18 0.21 0.45 0.43 0.44 0.38 0.78 1.41 1.32 0.96 0.91 0.63 0.40 0.11 0.04 0.05 0.07 0.20 0.29 0.13 0.09 0.13 0.20 0.13 0.14 0.10 0.16 0.02 0.04 0.00 0.04 0.06 0.06 0.09 0.02
0.04 0.07 0.10 0.11 0.12 0.11 0.14 0.11 0.04 0.08 0.16 0.30 0.45 0.36 0.29 0.25 0.27 0.73 1.28 1.06 1.08 0.60 0.71 0.30 0.06 0.05 0.04 0.04 0.12 0.11 0.03 0.04 0.01 0.01 0.03 0.03 0.04 0.08 0.11 0.01 0.02 0.00 0.02 0.05 0.02 0.00 0.00
0.04 0.07 0.10 0.10 0.11 0.09 0.11 0.06 0.02 0.05 0.23 0.69 0.49 0.18 0.21 0.13 0.26 0.98 1.09 0.95 0.89 0.86 0.53 0.15 0.12 0.12 0.11 0.02 0.04 0.04 0.03 0.01 0.00 0.00 0.01 0.00 0.00 0.00 0.00 0.00 0.01 0.07 0.11 0.04 0.15 0.10 0.12
0.04 0.07 0.10 0.09 0.10 0.09 0.08 0.05 0.02 0.06 0.24 0.71 0.45 0.20 0.30 0.20 0.36 0.93 0.78 0.82 0.53 0.43 0.08 0.00 0.09 0.04 0.03 0.01 0.02 0.02 0.01 0.00 0.00 0.00 0.00 0.00 0.00 0.00 0.00 0.00 0.00 0.01 0.02 0.09 0.24 0.15 0.06
0.05 0.09 0.10 0.06 0.09 0.07 0.07 0.03 0.03 0.05 0.18 0.32 0.45 0.23 0.35 0.31 0.58 0.95 0.72 0.69 0.40 0.15 0.03 0.00 0.00 0.00 0.00 0.00 0.00 0.00 0.00 0.00 0.00 0.00 0.00 0.00 0.02 0.01 0.01 0.00 0.00 0.01 0.08 0.11 0.16 0.14 0.08
0.05 0.07 0.08 0.05 0.09 0.05 0.06 0.01 0.03 0.05 0.20 0.31 0.59 0.47 0.21 0.32 0.65 0.77 0.65 0.56 0.45 0.16 0.02 0.00 0.00 0.00 0.00 0.00 0.00 0.00 0.00 0.00 0.00 0.00 0.00 0.00 0.04 0.02 0.01 0.00 0.00 0.00 0.00 0.03 0.21 0.08 0.13
0.05 0.06 0.06 0.06 0.08 0.06 0.04 0.01 0.01 0.05 0.23 0.41 0.48 0.46 0.27 0.26 0.29 0.28 0.38 0.31 0.13 0.08 0.04 0.00 0.00 0.00 0.00 0.00 0.00 0.00 0.00 0.00 0.00 0.00 0.00 0.00 0.04 0.03 0.01 0.03 0.03 0.04 0.01 0.10 0.20 0.39 0.24
0.03 0.06 0.05 0.06 0.09 0.06 0.02 0.01 0.01 0.04 0.07 0.42 0.69 0.72 0.54 0.31 0.15 0.08 0.28 0.21 0.12 0.09 0.02 0.00 0.00 0.00 0.00 0.00 0.00 0.00 0.00 0.00 0.00 0.00 0.00 0.01 0.03 0.02 0.03 0.06 0.19 0.18 0.03 0.10 0.38 0.51 0.08
0.03 0.04 0.04 0.06 0.07 0.05 0.01 0.00 0.01 0.04 0.18 0.56 0.52 0.20 0.14 0.16 0.10 0.10 0.15 0.17 0.11 0.04 0.01 0.00 0.01 0.00 0.00 0.01 0.00 0.00 0.00 0.00 0.00 0.00 0.00 0.04 0.05 0.02 0.02 0.06 0.22 0.20 0.08 0.07 0.31 0.16 0.21
0.03 0.03 0.04 0.06 0.04 0.04 0.01 0.00 0.00 0.06 0.19 0.44 0.36 0.09 0.01 0.01 0.05 0.05 0.04 0.07 0.03 0.00 0.00 0.00 0.00 0.00 0.01 0.01 0.00 0.00 0.00 0.00 0.00 0.00 0.01 0.05 0.09 0.06 0.06 0.05 0.10 0.16 0.04 0.06 0.05 0.02 0.02
0.04 0.03 0.05 0.05 0.03 0.04 0.01 0.00 0.00 0.04 0.12 0.15 0.33 0.11 0.03 0.05 0.04 0.01 0.01 0.00 0.01 0.00 0.00 0.01 0.00 0.01 0.02 0.01 0.00 0.00 0.00 0.00 0.00 0.00 0.02 0.06 0.08 0.15 0.07 0.04 0.11 0.13 0.04 0.02 0.01 0.00 0.01
0.04 0.03 0.04 0.05 0.04 0.02 0.01 0.00 0.00 0.02 0.07 0.09 0.21 0.16 0.03 0.04 0.01 0.00 0.00 0.00 0.00 0.00 0.01 0.00 0.00 0.02 0.02 0.01 0.01 0.01 0.00 0.00 0.01 0.00 0.01 0.02 0.06 0.19 0.09 0.09 0.24 0.13 0.02 0.00 0.00 0.00 0.00
0.04 0.04 0.03 0.04 0.06 0.02 0.02 0.01 0.01 0.01 0.03 0.04 0.18 0.15 0.07 0.02 0.00 0.00 0.00 0.00 0.00 0.00 0.00 0.00 0.00 0.00 0.01 0.02 0.04 0.04 0.02 0.00 0.00 0.00 0.01 0.01 0.06 0.18 0.16 0.17 0.09 0.01 0.00 0.00 0.00 0.00 0.00
0.03 0.05 0.03 0.05 0.07 0.05 0.05 0.02 0.01 0.00 0.01 0.02 0.11 0.19 0.15 0.04 0.00 0.00 0.00 0.00 0.00 0.00 0.02 0.01 0.03 0.01 0.01 0.05 0.12 0.08 0.02 0.00 0.00 0.01 0.01 0.02 0.03 0.16 0.10 0.09 0.01 0.01 0.00 0.00 0.02 0.01 0.00
0.05 0.05 0.04 0.07 0.06 0.07 0.06 0.05 0.04 0.01 0.01 0.01 0.08 0.14 0.22 0.07 0.01 0.00 0.00 0.00 0.00 0.01 0.02 0.02 0.06 0.01 0.02 0.07 0.13 0.05 0.01 0.00 0.00 0.00 0.02 0.06 0.08 0.12 0.10 0.12 0.00 0.00 0.00 0.00 0.00 0.01 0.00
0.06 0.05 0.06 0.06 0.05 0.06 0.07 0.07 0.12 0.06 0.02 0.02 0.05 0.09 0.22 0.12 0.02 0.00 0.00 0.01 0.01 0.02 0.03 0.01 0.01 0.01 0.05 0.09 0.10 0.05 0.02 0.01 0.00 0.00 0.00 0.01 0.03 0.05 0.05 0.05 0.00 0.00 0.00 0.00 0.00 0.00 0.00
0.08 0.06 0.04 0.04 0.05 0.06 0.06 0.08 0.18 0.09 0.04 0.04 0.03 0.08 0.15 0.14 0.04 0.00 0.00 0.00 0.00 0.01 0.01 0.00 0.03 0.01 0.03 0.10 0.14 0.09 0.03 0.01 0.00 0.00 0.00 0.00 0.00 0.00 0.00 0.00 0.00 0.00 0.00 0.00 0.00 0.00 0.00

GFSGBSN_prec_precacc_033.txt.gz
Total_Precipitation_Accumulation
0.02 0.03 0.04 0.04 0.03 0.03 0.06 0.10 0.11 0.08 0.11 0.15 0.20 0.28 0.32 0.26 0.20 0.22 0.19 0.15 0.12 0.15 0.19 0.22 0.16 0.38 0.44 0.42 0.14 0.13 0.14 0.17 0.30 0.30 0.06 0.03 0.01 0.03 0.00 0.00 0.00 0.00 0.00 0.00 0.00 0.00 0.00
0.02 0.03 0.04 0.03 0.04 0.06 0.10 0.14 0.11 0.08 0.10 0.18 0.31 0.31 0.25 0.25 0.27 0.24 0.18 0.15 0.09 0.14 0.15 0.16 0.31 0.39 0.37 0.20 0.04 0.07 0.17 0.31 0.24 0.36 0.10 0.03 0.00 0.01 0.00 0.00 0.00 0.00 0.00 0.00 0.00 0.00 0.00
0.02 0.05 0.04 0.03 0.05 0.08 0.13 0.13 0.11 0.11 0.13 0.22 0.32 0.28 0.28 0.25 0.24 0.18 0.17 0.14 0.11 0.15 0.16 0.21 0.32 0.46 0.21 0.10 0.05 0.11 0.18 0.43 0.34 0.29 0.15 0.06 0.00 0.01 0.00 0.00 0.00 0.00 0.00 0.00 0.00 0.00 0.00
0.03 0.05 0.04 0.03 0.06 0.10 0.14 0.13 0.13 0.13 0.19 0.22 0.28 0.27 0.29 0.20 0.19 0.17 0.16 0.12 0.10 0.15 0.26 0.24 0.44 0.44 0.13 0.02 0.07 0.11 0.13 0.45 0.53 0.45 0.28 0.18 0.04 0.01 0.00 0.00 0.00 0.00 0.00 0.00 0.00 0.00 0.00
0.05 0.04 0.03 0.05 0.07 0.13 0.14 0.16 0.16 0.17 0.19 0.22 0.29 0.27 0.24 0.17 0.16 0.18 0.23 0.27 0.24 0.23 0.30 0.45 0.49 0.38 0.14 0.03 0.04 0.13 0.14 0.48 0.56 0.68 0.58 0.37 0.18 0.05 0.00 0.00 0.00 0.00 0.00 0.00 0.00 0.00 0.00
0.05 0.04 0.03 0.07 0.09 0.15 0.14 0.18 0.15 0.18 0.21 0.26 0.24 0.18 0.18 0.12 0.14 0.29 0.40 0.50 0.55 0.43 0.49 0.56 0.56 0.54 0.12 0.04 0.06 0.19 0.21 0.49 0.64 0.83 0.76 0.66 0.41 0.12 0.01 0.00 0.00 0.00 0.00 0.00 0.00 0.00 0.00
0.05 0.04 0.05 0.08 0.11 0.14 0.18 0.19 0.12 0.23 0.25 0.24 0.17 0.16 0.18 0.17 0.25 0.51 0.66 0.86 1.01 0.81 0.66 0.44 0.31 0.21 0.11 0.19 0.14 0.15 0.32 0.71 0.92 1.14 0.57 0.32 0.25 0.11 0.01 0.00 0.00 0.00 0.00 0.00 0.00 0.00 0.00
0.04 0.04 0.06 0.09 0.12 0.15 0.18 0.15 0.14 0.26 0.22 0.20 0.17 0.26 0.36 0.31 0.35 0.54 0.78 0.75 0.64 0.52 0.40 0.31 0.19 0.15 0.07 0.16 0.12 0.11 0.42 1.22 1.06 0.94 0.46 0.28 0.14 0.05 0.02 0.00 0.00 0.00 0.00 0.00 0.00 0.00 0.00
0.04 0.04 0.07 0.10 0.12 0.16 0.17 0.10 0.17 0.25 0.20 0.28 0.32 0.40 0.36 0.35 0.29 0.53 0.55 0.49 0.53 0.58 0.49 0.57 0.41 0.19 0.18 0.19 0.12 0.13 0.77 1.29 0.76 0.69 0.47 0.21 0.10 0.05 0.08 0.01 0.00 0.00 0.00 0.00 0.00 0.00 0.00
0.03 0.04 0.07 0.09 0.13 0.14 0.13 0.10 0.20 0.27 0.23 0.35 0.40 0.39 0.33 0.37 0.36 0.54 0.46 0.44 0.74 0.97 0.91 0.83 0.66 0.43 0.24 0.13 0.18 0.18 0.92 1.05 0.73 0.66 0.91 0.43 0.18 0.07 0.07 0.07 0.00 0.00 0.00 0.00 0.00 0.00 0.00
0.03 0.05 0.08 0.10 0.11 0.14 0.13 0.15 0.23 0.26 0.26 0.31 0.28 0.24 0.29 0.56 0.75 0.68 0.48 0.51 0.85 1.37 1.32 0.78 0.72 0.54 0.25 0.08 0.09 0.15 0.81 0.75 0.26 0.48 0.70 0.47 0.30 0.13 0.10 0.05 0.02 0.00 0.00 0.00 0.00 0.01 0.01
0.03 0.07 0.08 0.11 0.11 0.14 0.13 0.15 0.19 0.20 0.23 0.22 0.22 0.22 0.37 0.45 0.81 0.59 0.44 0.95 1.03 1.40 1.37 1.04 0.76 0.38 0.15 0.09 0.03 0.17 0.65 0.46 0.30 0.39 0.41 0.28 0.27 0.22 0.17 0.02 0.03 0.00 0.00 0.00 0.00 0.02 0.04
0.03 0.07 0.09 0.11 0.12 0.13 0.12 0.16 0.10 0.16 0.21 0.21 0.18 0.21 0.45 0.43 0.44 0.38 0.78 1.41 1.33 0.99 0.97 0.69 0.43 0.13 0.06 0.06 0.10 0.24 0.47 0.33 0.31 0.34 0.43 0.36 0.26 0.20 0.19 0.02 0.04 0.00 0.04 0.07 0.07 0.09 0.02
0.04 0.07 0.10 0.11 0.12 0.11 0.14 0.11 0.04 0.08 0.16 0.30 0.45 0.36 0.29 0.25 0.27 0.73 1.28 1.06 1.09 0.63 0.72 0.30 0.07 0.07 0.05 0.05 0.18 0.16 0.10 0.07 0.02 0.02 0.11 0.17 0.21 0.19 0.24 0.03 0.03 0.00 0.02 0.05 0.02 0.00 0.00
0.04 0.07 0.10 0.10 0.11 0.09 0.11 0.06 0.02 0.05 0.23 0.69 0.49 0.18 0.21 0.13 0.26 0.98 1.09 0.95 0.89 0.86 0.53 0.15 0.12 0.12 0.12 0.02 0.05 0.05 0.03 0.01 0.00 0.00 0.02 0.02 0.03 0.04 0.12 0.03 0.02 0.08 0.11 0.04 0.15 0.10 0.12
0.04 0.07 0.10 0.09 0.10 0.09 0.08 0.05 0.02 0.06 0.24 0.71 0.45 0.20 0.30 0.20 0.36 0.93 0.78 0.82 0.53 0.43 0.08 0.00 0.09 0.04 0.03 0.01 0.02 0.02 0.01 0.00 0.00 0.00 0.00 0.00 0.01 0.01 0.02 0.02 0.01 0.01 0.02 0.09 0.24 0.15 0.06
0.05 0.09 0.10 0.06 0.09 0.07 0.07 0.03 0.03 0.05 0.18 0.32 0.45 0.23 0.35 0.31 0.58 0.95 0.72 0.70 0.40 0.15 0.03 0.00 0.00 0.00 0.00 0.00 0.00 0.00 0.00 0.00 0.00 0.00 0.00 0.00 0.02 0.01 0.01 0.01 0.00 0.01 0.08 0.11 0.16 0.14 0.08
0.05 0.07 0.08 0.06 0.09 0.05 0.06 0.01 0.03 0.05 0.20 0.31 0.59 0.47 0.21 0.32 0.65 0.77 0.65 0.56 0.45 0.16 0.02 0.00 0.00 0.00 0.00 0.00 0.00 0.00 0.00 0.00 0.00 0.00 0.00 0.00 0.04 0.02 0.01 0.00 0.00 0.00 0.00 0.03 0.21 0.08 0.13
0.05 0.07 0.06 0.06 0.08 0.06 0.04 0.01 0.01 0.05 0.23 0.41 0.48 0.46 0.27 0.26 0.29 0.28 0.38 0.31 0.13 0.08 0.04 0.00 0.00 0.00 0.00 0.00 0.00 0.00 0.00 0.00 0.00 0.00 0.00 0.00 0.04 0.03 0.01 0.03 0.03 0.04 0.01 0.10 0.20 0.39 0.24
0.03 0.06 0.05 0.06 0.09 0.06 0.02 0.01 0.01 0.04 0.07 0.42 0.69 0.72 0.54 0.31 0.15 0.08 0.28 0.21 0.12 0.09 0.02 0.00 0.00 0.00 0.00 0.00 0.00 0.00 0.00 0.00 0.00 0.00 0.00 0.01 0.03 0.02 0.03 0.06 0.19 0.18 0.03 0.10 0.38 0.51 0.08
0.03 0.05 0.04 0.06 0.07 0.05 0.01 0.00 0.01 0.04 0.18 0.56 0.52 0.20 0.14 0.16 0.10 0.10 0.15 0.17 0.11 0.04 0.01 0.00 0.01 0.00 0.00 0.01 0.00 0.00 0.00 0.00 0.00 0.00 0.00 0.04 0.05 0.02 0.02 0.06 0.22 0.20 0.08 0.07 0.31 0.16 0.21
0.03 0.04 0.05 0.06 0.04 0.04 0.01 0.00 0.00 0.06 0.19 0.44 0.36 0.09 0.01 0.01 0.05 0.05 0.04 0.07 0.03 0.00 0.00 0.00 0.00 0.00 0.01 0.01 0.00 0.00 0.00 0.00 0.00 0.00 0.01 0.05 0.09 0.06 0.06 0.05 0.10 0.16 0.04 0.06 0.05 0.02 0.02
0.04 0.03 0.05 0.05 0.04 0.04 0.01 0.00 0.00 0.04 0.12 0.15 0.33 0.11 0.03 0.05 0.04 0.01 0.01 0.00 0.01 0.00 0.00 0.01 0.00 0.01 0.02 0.01 0.00 0.00 0.00 0.00 0.00 0.00 0.02 0.06 0.08 0.15 0.07 0.04 0.11 0.13 0.04 0.02 0.01 0.00 0.01
0.04 0.03 0.04 0.05 0.04 0.03 0.01 0.00 0.00 0.02 0.07 0.09 0.21 0.16 0.03 0.04 0.01 0.00 0.00 0.00 0.00 0.00 0.01 0.00 0.00 0.03 0.02 0.01 0.01 0.01 0.00 0.00 0.01 0.00 0.01 0.02 0.06 0.19 0.09 0.09 0.24 0.13 0.02 0.00 0.00 0.00 0.00
0.04 0.04 0.03 0.05 0.06 0.03 0.02 0.01 0.01 0.01 0.03 0.04 0.18 0.15 0.07 0.02 0.00 0.00 0.00 0.00 0.00 0.00 0.00 0.00 0.00 0.00 0.01 0.02 0.04 0.04 0.02 0.00 0.00 0.00 0.01 0.01 0.06 0.18 0.16 0.17 0.09 0.01 0.00 0.00 0.00 0.00 0.00
0.03 0.05 0.04 0.05 0.07 0.06 0.05 0.02 0.02 0.01 0.01 0.02 0.11 0.19 0.15 0.04 0.00 0.00 0.00 0.00 0.00 0.00 0.02 0.01 0.03 0.01 0.01 0.05 0.12 0.08 0.02 0.00 0.00 0.01 0.01 0.02 0.03 0.16 0.10 0.09 0.01 0.01 0.00 0.00 0.02 0.01 0.00
0.05 0.06 0.04 0.07 0.07 0.07 0.06 0.05 0.05 0.02 0.01 0.01 0.08 0.14 0.22 0.07 0.01 0.00 0.00 0.00 0.00 0.01 0.02 0.02 0.06 0.02 0.03 0.08 0.14 0.06 0.01 0.00 0.00 0.00 0.03 0.06 0.09 0.12 0.11 0.12 0.00 0.00 0.00 0.00 0.00 0.01 0.00
0.06 0.06 0.06 0.06 0.05 0.07 0.07 0.07 0.12 0.07 0.02 0.02 0.05 0.09 0.22 0.12 0.02 0.00 0.00 0.01 0.01 0.02 0.03 0.01 0.01 0.02 0.05 0.11 0.11 0.05 0.02 0.01 0.00 0.00 0.00 0.01 0.03 0.05 0.06 0.06 0.00 0.00 0.00 0.00 0.00 0.00 0.00
0.09 0.07 0.04 0.04 0.05 0.07 0.07 0.08 0.18 0.10 0.06 0.05 0.03 0.08 0.15 0.14 0.04 0.00 0.00 0.00 0.00 0.01 0.01 0.00 0.03 0.01 0.03 0.11 0.15 0.09 0.04 0.01 0.00 0.00 0.00 0.00 0.00 0.00 0.00 0.00 0.00 0.00 0.00 0.00 0.00 0.00 0.00

GFSGBSN_prec_precacc_036.txt.gz
Total_Precipitation_Accumulation
0.02 0.03 0.04 0.04 0.04 0.04 0.06 0.11 0.11 0.08 0.13 0.17 0.24 0.33 0.39 0.32 0.22 0.24 0.22 0.18 0.14 0.18 0.22 0.23 0.19 0.42 0.44 0.42 0.14 0.16 0.19 0.22 0.41 0.37 0.06 0.04 0.01 0.03 0.01 0.00 0.00 0.00 0.00 0.00 0.00 0.00 0.00
0.03 0.04 0.04 0.03 0.04 0.06 0.10 0.14 0.11 0.09 0.13 0.22 0.37 0.38 0.33 0.32 0.29 0.24 0.22 0.21 0.16 0.19 0.16 0.16 0.32 0.40 0.37 0.21 0.04 0.08 0.23 0.35 0.30 0.45 0.10 0.03 0.00 0.01 0.01 0.00 0.00 0.00 0.00 0.00 0.00 0.00 0.00
0.03 0.05 0.04 0.03 0.05 0.08 0.13 0.13 0.12 0.13 0.16 0.24 0.36 0.32 0.36 0.35 0.25 0.18 0.18 0.17 0.16 0.19 0.17 0.21 0.33 0.46 0.21 0.10 0.05 0.11 0.18 0.44 0.38 0.39 0.15 0.07 0.00 0.02 0.01 0.01 0.00 0.00 0.00 0.00 0.00 0.00 0.00
0.03 0.05 0.04 0.03 0.06 0.10 0.14 0.13 0.14 0.15 0.21 0.24 0.31 0.28 0.33 0.29 0.21 0.17 0.17 0.14 0.11 0.15 0.26 0.24 0.44 0.44 0.13 0.02 0.07 0.11 0.13 0.45 0.53 0.54 0.31 0.18 0.04 0.02 0.00 0.01 0.00 0.00 0.00 0.00 0.00 0.00 0.00
0.05 0.05 0.03 0.05 0.07 0.13 0.14 0.16 0.17 0.19 0.21 0.23 0.30 0.28 0.26 0.19 0.16 0.19 0.23 0.27 0.24 0.23 0.30 0.45 0.49 0.39 0.14 0.03 0.04 0.13 0.14 0.48 0.57 0.79 0.70 0.41 0.22 0.06 0.01 0.01 0.02 0.00 0.00 0.00 0.00 0.00 0.00
0.05 0.04 0.03 0.07 0.09 0.15 0.14 0.19 0.16 0.19 0.22 0.27 0.25 0.18 0.19 0.12 0.14 0.29 0.40 0.50 0.55 0.44 0.49 0.56 0.57 0.56 0.14 0.04 0.06 0.19 0.21 0.52 0.69 0.97 0.94 0.85 0.50 0.16 0.03 0.01 0.01 0.00 0.00 0.00 0.00 0.00 0.00
0.05 0.04 0.05 0.08 0.12 0.14 0.18 0.19 0.13 0.24 0.26 0.24 0.17 0.16 0.18 0.17 0.25 0.51 0.66 0.86 1.06 0.85 0.67 0.47 0.32 0.22 0.15 0.22 0.19 0.18 0.35 0.84 1.19 1.35 0.66 0.44 0.31 0.13 0.01 0.00 0.00 0.00 0.00 0.00 0.00 0.00 0.00
0.04 0.04 0.06 0.09 0.12 0.15 0.18 0.15 0.15 0.27 0.23 0.21 0.17 0.26 0.36 0.31 0.35 0.54 0.78 0.75 0.64 0.54 0.41 0.31 0.19 0.15 0.08 0.20 0.30 0.28 0.61 1.69 1.33 1.14 0.51 0.39 0.19 0.05 0.02 0.00 0.00 0.00 0.00 0.00 0.00 0.00 0.00
0.04 0.04 0.07 0.10 0.13 0.16 0.17 0.10 0.17 0.26 0.20 0.29 0.32 0.40 0.36 0.35 0.29 0.53 0.55 0.49 0.53 0.58 0.52 0.58 0.41 0.19 0.23 0.51 0.49 0.46 1.24 1.70 0.90 0.75 0.48 0.24 0.11 0.05 0.08 0.01 0.00 0.00 0.00 0.00 0.00 0.00 0.00
0.03 0.04 0.07 0.09 0.13 0.14 0.14 0.11 0.20 0.27 0.23 0.36 0.41 0.39 0.33 0.37 0.36 0.54 0.46 0.45 0.74 0.97 0.96 0.84 0.67 0.45 0.35 0.56 0.52 0.44 1.15 1.24 0.80 0.68 0.93 0.46 0.19 0.08 0.07 0.07 0.00 0.00 0.00 0.00 0.00 0.00 0.00
0.03 0.05 0.08 0.10 0.12 0.14 0.14 0.15 0.24 0.26 0.26 0.31 0.28 0.24 0.29 0.56 0.75 0.68 0.48 0.51 0.85 1.38 1.38 0.81 0.72 0.55 0.33 0.25 0.22 0.26 0.89 0.81 0.32 0.49 0.75 0.50 0.31 0.14 0.11 0.05 0.02 0.00 0.00 0.00 0.00 0.01 0.01
0.03 0.07 0.08 0.12 0.11 0.15 0.13 0.15 0.20 0.20 0.23 0.22 0.22 0.22 0.37 0.45 0.81 0.59 0.44 0.95 1.03 1.41 1.43 1.10 0.85 0.43 0.19 0.11 0.04 0.19 0.67 0.51 0.40 0.41 0.44 0.29 0.29 0.26 0.19 0.03 0.03 0.00 0.00 0.00 0.00 0.02 0.04
0.03 0.07 0.09 0.11 0.12 0.13 0.12 0.16 0.10 0.16 0.21 0.21 0.19 0.21 0.45 0.43 0.44 0.38 0.78 1.41 1.33 1.00 1.00 0.73 0.48 0.19 0.08 0.07 0.10 0.26 0.59 0.47 0.48 0.48 0.62 0.45 0.36 0.24 0.20 0.04 0.05 0.00 0.04 0.07 0.07 0.10 0.02
0.04 0.07 0.10 0.11 0.12 0.11 0.14 0.11 0.04 0.08 0.16 0.30 0.45 0.36 0.29 0.25 0.27 0.73 1.28 1.06 1.09 0.64 0.73 0.31 0.11 0.08 0.05 0.05 0.18 0.23 0.28 0.24 0.15 0.07 0.24 0.31 0.45 0.33 0.29 0.04 0.03 0.00 0.02 0.06 0.02 0.00 0.00
0.04 0.07 0.10 0.10 0.11 0.09 0.11 0.06 0.02 0.05 0.23 0.69 0.49 0.18 0.21 0.13 0.26 0.98 1.09 0.95 0.89 0.86 0.54 0.15 0.12 0.13 0.13 0.02 0.05 0.09 0.09 0.08 0.06 0.06 0.11 0.08 0.09 0.15 0.18 0.04 0.03 0.08 0.11 0.04 0.15 0.10 0.12
0.04 0.07 0.10 0.09 0.10 0.09 0.09 0.05 0.02 0.06 0.24 0.71 0.45 0.20 0.30 0.20 0.36 0.93 0.78 0.82 0.54 0.43 0.08 0.00 0.09 0.04 0.03 0.01 0.02 0.02 0.03 0.01 0.00 0.00 0.00 0.00 0.02 0.02 0.09 0.08 0.03 0.01 0.02 0.09 0.24 0.15 0.06
0.05 0.09 0.10 0.06 0.10 0.07 0.07 0.03 0.03 0.05 0.18 0.32 0.45 0.23 0.35 0.31 0.58 0.95 0.72 0.70 0.40 0.15 0.03 0.00 0.00 0.00 0.00 0.00 0.00 0.00 0.00 0.00 0.00 0.00 0.00 0.00 0.02 0.02 0.04 0.10 0.03 0.01 0.08 0.11 0.16 0.14 0.08
0.05 0.08 0.08 0.06 0.09 0.05 0.06 0.01 0.03 0.05 0.20 0.31 0.59 0.47 0.21 0.32 0.65 0.77 0.66 0.56 0.45 0.16 0.02 0.00 0.00 0.00 0.00 0.00 0.00 0.00 0.00 0.00 0.00 0.00 0.00 0.00 0.04 0.03 0.02 0.00 0.00 0.00 0.00 0.03 0.21 0.08 0.13
0.05 0.07 0.06 0.06 0.09 0.06 0.04 0.01 0.01 0.05 0.23 0.42 0.48 0.46 0.27 0.26 0.29 0.28 0.38 0.31 0.13 0.08 0.04 0.00 0.00 0.00 0.00 0.00 0.00 0.00 0.00 0.00 0.00 0.00 0.00 0.00 0.04 0.03 0.02 0.03 0.03 0.04 0.01 0.10 0.20 0.39 0.24
0.04 0.06 0.05 0.06 0.09 0.06 0.03 0.01 0.01 0.04 0.07 0.42 0.69 0.72 0.54 0.31 0.15 0.08 0.28 0.21 0.12 0.09 0.02 0.00 0.00 0.00 0.00 0.00 0.00 0.00 0.00 0.00 0.00 0.00 0.00 0.01 0.03 0.02 0.03 0.06 0.19 0.18 0.03 0.10 0.38 0.51 0.08
0.03 0.05 0.04 0.06 0.07 0.06 0.01 0.00 0.01 0.04 0.18 0.56 0.52 0.20 0.14 0.16 0.10 0.10 0.15 0.17 0.11 0.04 0.01 0.00 0.01 0.00 0.00 0.01 0.00 0.00 0.00 0.00 0.00 0.00 0.00 0.04 0.05 0.02 0.02 0.06 0.22 0.20 0.08 0.07 0.31 0.16 0.21
0.03 0.04 0.05 0.06 0.05 0.04 0.01 0.00 0.00 0.06 0.19 0.44 0.36 0.09 0.01 0.01 0.05 0.05 0.04 0.07 0.03 0.00 0.00 0.00 0.00 0.00 0.01 0.01 0.00 0.00 0.00 0.00 0.00 0.00 0.01 0.05 0.09 0.06 0.06 0.05 0.10 0.16 0.04 0.06 0.05 0.02 0.02
0.04 0.03 0.05 0.05 0.04 0.05 0.01 0.01 0.00 0.04 0.12 0.15 0.33 0.11 0.03 0.05 0.04 0.01 0.01 0.00 0.01 0.00 0.00 0.01 0.00 0.02 0.02 0.01 0.00 0.00 0.00 0.00 0.00 0.00 0.02 0.06 0.08 0.15 0.07 0.04 0.11 0.13 0.04 0.02 0.01 0.00 0.01
0.04 0.03 0.04 0.06 0.05 0.03 0.01 0.01 0.01 0.02 0.07 0.09 0.21 0.16 0.03 0.04 0.01 0.00 0.00 0.00 0.00 0.00 0.01 0.00 0.00 0.03 0.03 0.01 0.01 0.01 0.00 0.00 0.01 0.00 0.01 0.02 0.06 0.19 0.09 0.09 0.24 0.13 0.02 0.00 0.00 0.00 0.00
0.04 0.04 0.03 0.05 0.06 0.03 0.02 0.01 0.01 0.01 0.03 0.04 0.18 0.15 0.07 0.02 0.00 0.00 0.00 0.00 0.00 0.00 0.00 0.00 0.00 0.00 0.01 0.02 0.05 0.04 0.02 0.01 0.00 0.00 0.01 0.01 0.06 0.18 0.16 0.17 0.09 0.01 0.00 0.00 0.00 0.00 0.00
0.03 0.05 0.04 0.05 0.07 0.06 0.05 0.02 0.02 0.01 0.01 0.02 0.11 0.19 0.15 0.04 0.00 0.00 0.00 0.00 0.00 0.00 0.02 0.01 0.03 0.01 0.01 0.06 0.13 0.08 0.02 0.01 0.01 0.01 0.01 0.02 0.03 0.16 0.10 0.09 0.01 0.01 0.00 0.00 0.02 0.01 0.00
0.05 0.06 0.04 0.07 0.07 0.07 0.06 0.05 0.05 0.02 0.01 0.01 0.08 0.14 0.22 0.07 0.01 0.00 0.00 0.00 0.00 0.01 0.02 0.02 0.06 0.02 0.03 0.09 0.14 0.06 0.01 0.00 0.00 0.00 0.03 0.06 0.09 0.13 0.11 0.13 0.00 0.00 0.00 0.00 0.00 0.01 0.00
0.06 0.06 0.06 0.06 0.05 0.07 0.07 0.07 0.12 0.07 0.02 0.03 0.06 0.09 0.22 0.12 0.02 0.00 0.00 0.01 0.01 0.02 0.03 0.01 0.02 0.02 0.06 0.12 0.11 0.06 0.02 0.01 0.00 0.00 0.00 0.01 0.03 0.05 0.06 0.06 0.00 0.00 0.00 0.00 0.00 0.00 0.00
0.09 0.08 0.05 0.04 0.05 0.07 0.07 0.08 0.18 0.10 0.07 0.06 0.04 0.08 0.15 0.14 0.04 0.00 0.00 0.00 0.00 0.01 0.01 0.00 0.03 0.01 0.04 0.12 0.16 0.10 0.04 0.01 0.00 0.00 0.00 0.00 0.00 0.00 0.00 0.00 0.00 0.00 0.00 0.00 0.00 0.00 0.00

GFSGBSN_prec_precacc_039.txt.gz
Total_Precipitation_Accumulation
0.02 0.03 0.04 0.04 0.04 0.04 0.07 0.11 0.12 0.09 0.16 0.19 0.26 0.37 0.43 0.37 0.32 0.27 0.23 0.21 0.20 0.21 0.27 0.30 0.25 0.48 0.48 0.44 0.14 0.16 0.19 0.23 0.49 0.52 0.07 0.05 0.01 0.03 0.01 0.00 0.00 0.00 0.00 0.00 0.00 0.01 0.01
0.03 0.04 0.04 0.03 0.04 0.06 0.11 0.14 0.12 0.11 0.16 0.23 0.39 0.40 0.35 0.34 0.33 0.24 0.22 0.21 0.20 0.21 0.18 0.17 0.36 0.44 0.40 0.22 0.04 0.09 0.25 0.40 0.43 0.62 0.14 0.04 0.00 0.01 0.01 0.01 0.00 0.00 0.00 0.00 0.00 0.00 0.00
0.03 0.05 0.04 0.03 0.05 0.08 0.13 0.14 0.12 0.15 0.18 0.25 0.38 0.33 0.36 0.36 0.25 0.18 0.18 0.18 0.17 0.21 0.19 0.21 0.33 0.46 0.21 0.10 0.06 0.14 0.21 0.51 0.49 0.51 0.22 0.07 0.01 0.02 0.01 0.03 0.00 0.00 0.00 0.00 0.00 0.00 0.00
0.03 0.05 0.04 0.03 0.06 0.10 0.14 0.14 0.14 0.16 0.22 0.24 0.31 0.29 0.33 0.29 0.21 0.17 0.17 0.15 0.11 0.16 0.26 0.24 0.44 0.44 0.13 0.02 0.07 0.11 0.15 0.49 0.55 0.61 0.36 0.21 0.07 0.02 0.02 0.01 0.01 0.01 0.00 0.00 0.00 0.00 0.00
0.05 0.05 0.03 0.05 0.07 0.13 0.14 0.16 0.17 0.20 0.21 0.23 0.31 0.28 0.26 0.19 0.16 0.19 0.23 0.27 0.24 0.23 0.30 0.45 0.49 0.39 0.14 0.03 0.04 0.13 0.14 0.49 0.58 0.83 0.74 0.43 0.25 0.06 0.03 0.02 0.04 0.03 0.00 0.00 0.00 0.00 0.00
0.05 0.04 0.03 0.07 0.09 0.15 0.14 0.19 0.16 0.20 0.23 0.27 0.25 0.18 0.19 0.12 0.14 0.29 0.40 0.50 0.55 0.44 0.49 0.56 0.57 0.56 0.14 0.04 0.06 0.19 0.21 0.54 0.74 1.02 1.00 0.93 0.60 0.18 0.05 0.02 0.02 0.00 0.00 0.00 0.00 0.00 0.00
0.05 0.04 0.05 0.08 0.12 0.14 0.18 0.19 0.13 0.24 0.27 0.25 0.17 0.16 0.18 0.17 0.25 0.51 0.66 0.87 1.07 0.85 0.67 0.47 0.32 0.23 0.15 0.22 0.19 0.18 0.35 0.89 1.26 1.42 0.72 0.56 0.43 0.15 0.01 0.00 0.00 0.00 0.00 0.00 0.00 0.00 0.00
0.04 0.04 0.06 0.09 0.12 0.15 0.19 0.15 0.15 0.27 0.23 0.21 0.17 0.26 0.36 0.31 0.35 0.54 0.78 0.75 0.64 0.54 0.41 0.31 0.19 0.15 0.08 0.20 0.31 0.30 0.65 1.72 1.38 1.24 0.61 0.55 0.25 0.05 0.02 0.00 0.00 0.00 0.00 0.00 0.00 0.00 0.00
0.04 0.04 0.07 0.10 0.13 0.16 0.17 0.10 0.17 0.26 0.20 0.29 0.33 0.40 0.36 0.35 0.29 0.53 0.55 0.49 0.53 0.58 0.54 0.59 0.41 0.19 0.29 0.55 0.52 0.49 1.25 1.71 0.92 0.91 0.59 0.31 0.13 0.05 0.08 0.01 0.00 0.00 0.00 0.00 0.00 0.00 0.00
0.03 0.04 0.07 0.09 0.13 0.14 0.14 0.11 0.21 0.28 0.23 0.36 0.41 0.40 0.33 0.37 0.36 0.54 0.46 0.45 0.74 0.97 1.01 0.90 0.70 0.51 0.59 0.79 0.69 0.57 1.22 1.29 0.86 0.87 0.99 0.48 0.20 0.08 0.07 0.07 0.00 0.00 0.00 0.00 0.00 0.00 0.00
0.03 0.05 0.08 0.10 0.12 0.14 0.14 0.15 0.24 0.26 0.26 0.31 0.29 0.24 0.29 0.56 0.75 0.68 0.48 0.51 0.85 1.38 1.41 0.83 0.74 0.67 0.78 0.60 0.47 0.59 1.10 0.87 0.35 0.69 0.82 0.52 0.31 0.15 0.12 0.05 0.02 0.00 0.00 0.00 0.00 0.01 0.01
0.03 0.07 0.08 0.12 0.11 0.15 0.13 0.15 0.20 0.21 0.23 0.22 0.22 0.23 0.37 0.45 0.81 0.59 0.44 0.95 1.03 1.42 1.50 1.22 0.94 0.69 0.45 0.28 0.22 0.42 0.79 0.53 0.41 0.47 0.46 0.29 0.29 0.28 0.21 0.04 0.03 0.00 0.00 0.00 0.00 0.02 0.04
0.03 0.07 0.09 0.11 0.13 0.14 0.12 0.16 0.10 0.16 0.21 0.21 0.19 0.21 0.45 0.43 0.44 0.38 0.78 1.41 1.33 1.01 1.01 0.77 0.53 0.21 0.10 0.08 0.12 0.27 0.59 0.48 0.50 0.49 0.62 0.46 0.36 0.24 0.20 0.04 0.05 0.00 0.04 0.07 0.07 0.10 0.02
0.04 0.07 0.10 0.11 0.12 0.12 0.14 0.11 0.04 0.08 0.16 0.30 0.45 0.36 0.29 0.25 0.27 0.73 1.28 1.06 1.09 0.65 0.74 0.33 0.13 0.08 0.05 0.06 0.22 0.26 0.32 0.28 0.17 0.07 0.29 0.35 0.47 0.34 0.29 0.04 0.03 0.00 0.02 0.06 0.02 0.00 0.00
0.04 0.07 0.10 0.10 0.11 0.10 0.11 0.06 0.02 0.05 0.23 0.69 0.49 0.18 0.21 0.13 0.26 0.98 1.09 0.95 0.89 0.86 0.54 0.16 0.13 0.13 0.13 0.03 0.09 0.16 0.19 0.16 0.11 0.07 0.14 0.10 0.12 0.17 0.19 0.05 0.04 0.09 0.11 0.04 0.15 0.10 0.12
0.04 0.07 0.10 0.09 0.10 0.10 0.09 0.05 0.02 0.06 0.24 0.71 0.45 0.20 0.30 0.20 0.36 0.93 0.78 0.82 0.54 0.43 0.08 0.00 0.09 0.04 0.03 0.01 0.02 0.03 0.07 0.05 0.02 0.02 0.01 0.00 0.04 0.09 0.14 0.11 0.05 0.01 0.03 0.10 0.24 0.15 0.06
0.05 0.09 0.10 0.06 0.10 0.08 0.07 0.03 0.03 0.05 0.18 0.32 0.45 0.23 0.35 0.31 0.58 0.95 0.72 0.70 0.40 0.15 0.03 0.00 0.00 0.00 0.00 0.00 0.00 0.00 0.00 0.00 0.01 0.01 0.00 0.00 0.02 0.06 0.14 0.17 0.06 0.02 0.08 0.11 0.16 0.14 0.08
0.05 0.08 0.08 0.06 0.09 0.06 0.06 0.01 0.03 0.05 0.20 0.31 0.59 0.47 0.21 0.32 0.65 0.77 0.66 0.56 0.45 0.16 0.02 0.00 0.00 0.00 0.00 0.00 0.00 0.00 0.00 0.00 0.00 0.00 0.00 0.00 0.04 0.03 0.05 0.01 0.00 0.01 0.00 0.03 0.21 0.08 0.13
0.05 0.07 0.06 0.06 0.09 0.06 0.04 0.01 0.01 0.05 0.23 0.42 0.48 0.46 0.27 0.26 0.30 0.28 0.38 0.31 0.13 0.08 0.04 0.00 0.00 0.00 0.00 0.00 0.00 0.00 0.00 0.00 0.00 0.00 0.00 0.00 0.04 0.03 0.03 0.05 0.04 0.05 0.02 0.10 0.21 0.39 0.24
0.04 0.06 0.05 0.06 0.09 0.06 0.03 0.01 0.01 0.04 0.07 0.42 0.69 0.72 0.54 0.31 0.15 0.08 0.28 0.21 0.12 0.09 0.02 0.00 0.00 0.00 0.00 0.00 0.00 0.00 0.00 0.00 0.00 0.00 0.00 0.01 0.03 0.02 0.03 0.06 0.19 0.18 0.03 0.10 0.41 0.53 0.09
0.03 0.05 0.04 0.06 0.07 0.06 0.01 0.00 0.01 0.04 0.18 0.56 0.52 0.20 0.14 0.16 0.10 0.10 0.15 0.17 0.11 0.04 0.01 0.00 0.01 0.00 0.00 0.01 0.00 0.00 0.00 0.00 0.00 0.00 0.00 0.04 0.05 0.02 0.02 0.06 0.22 0.20 0.08 0.07 0.31 0.16 0.21
0.03 0.04 0.05 0.06 0.05 0.05 0.01 0.00 0.00 0.06 0.19 0.44 0.36 0.09 0.01 0.01 0.05 0.05 0.04 0.08 0.03 0.00 0.00 0.00 0.00 0.00 0.01 0.01 0.00 0.00 0.00 0.00 0.00 0.00 0.01 0.05 0.09 0.06 0.06 0.05 0.10 0.16 0.04 0.06 0.05 0.02 0.02
0.04 0.03 0.05 0.05 0.04 0.05 0.01 0.01 0.00 0.04 0.12 0.15 0.33 0.11 0.03 0.05 0.04 0.01 0.01 0.00 0.01 0.00 0.00 0.01 0.01 0.02 0.02 0.01 0.00 0.00 0.00 0.00 0.00 0.00 0.02 0.06 0.08 0.15 0.07 0.04 0.11 0.13 0.04 0.02 0.01 0.00 0.01
0.04 0.03 0.04 0.06 0.05 0.03 0.01 0.01 0.01 0.02 0.07 0.09 0.21 0.16 0.03 0.04 0.01 0.00 0.00 0.00 0.00 0.00 0.01 0.00 0.00 0.03 0.03 0.01 0.01 0.01 0.00 0.00 0.01 0.00 0.01 0.02 0.06 0.19 0.09 0.09 0.24 0.13 0.02 0.00 0.00 0.00 0.00
0.04 0.04 0.03 0.05 0.06 0.03 0.02 0.01 0.01 0.01 0.03 0.04 0.18 0.15 0.07 0.02 0.00 0.00 0.00 0.00 0.00 0.00 0.00 0.00 0.00 0.00 0.01 0.02 0.05 0.04 0.02 0.01 0.00 0.00 0.01 0.01 0.06 0.18 0.16 0.17 0.09 0.01 0.00 0.00 0.00 0.00 0.00
0.03 0.05 0.04 0.05 0.07 0.06 0.05 0.02 0.02 0.01 0.01 0.02 0.11 0.19 0.15 0.04 0.00 0.00 0.00 0.00 0.00 0.00 0.02 0.01 0.03 0.01 0.01 0.06 0.14 0.09 0.03 0.01 0.01 0.01 0.01 0.02 0.03 0.16 0.10 0.09 0.01 0.01 0.00 0.00 0.02 0.01 0.00
0.05 0.06 0.04 0.07 0.07 0.07 0.07 0.06 0.05 0.02 0.01 0.01 0.08 0.14 0.22 0.07 0.01 0.00 0.00 0.00 0.00 0.01 0.02 0.02 0.06 0.02 0.03 0.09 0.15 0.07 0.01 0.00 0.00 0.00 0.03 0.06 0.09 0.13 0.11 0.13 0.00 0.00 0.00 0.00 0.00 0.01 0.00
0.06 0.06 0.07 0.06 0.05 0.07 0.08 0.08 0.12 0.07 0.02 0.03 0.06 0.09 0.22 0.12 0.02 0.00 0.00 0.01 0.01 0.02 0.03 0.01 0.02 0.02 0.06 0.12 0.11 0.06 0.02 0.01 0.00 0.00 0.00 0.01 0.03 0.05 0.06 0.06 0.00 0.00 0.00 0.00 0.00 0.00 0.00
0.09 0.08 0.07 0.05 0.05 0.07 0.07 0.08 0.18 0.11 0.08 0.07 0.04 0.08 0.15 0.14 0.04 0.00 0.00 0.00 0.00 0.01 0.01 0.00 0.03 0.01 0.04 0.12 0.16 0.10 0.04 0.01 0.00 0.00 0.00 0.00 0.00 0.00 0.00 0.00 0.00 0.00 0.00 0.00 0.00 0.00 0.00

GFSGBSN_prec_precacc_042.txt.gz
Total_Precipitation_Accumulation
0.02 0.03 0.04 0.04 0.04 0.04 0.07 0.12 0.12 0.10 0.16 0.19 0.27 0.37 0.43 0.38 0.33 0.28 0.23 0.21 0.22 0.24 0.28 0.32 0.27 0.58 0.52 0.46 0.14 0.16 0.19 0.23 0.54 0.77 0.14 0.05 0.01 0.03 0.01 0.00 0.00 0.00 0.00 0.00 0.04 0.05 0.06
0.03 0.04 0.04 0.04 0.04 0.06 0.11 0.15 0.12 0.12 0.16 0.24 0.39 0.40 0.35 0.34 0.33 0.24 0.22 0.22 0.22 0.24 0.18 0.18 0.42 0.47 0.41 0.24 0.04 0.10 0.25 0.41 0.55 0.83 0.20 0.04 0.00 0.01 0.01 0.01 0.00 0.00 0.00 0.00 0.02 0.01 0.02
0.03 0.05 0.04 0.04 0.05 0.09 0.14 0.14 0.13 0.15 0.18 0.26 0.38 0.33 0.36 0.36 0.25 0.18 0.18 0.18 0.17 0.25 0.19 0.21 0.36 0.50 0.22 0.11 0.07 0.15 0.22 0.54 0.58 0.72 0.31 0.08 0.01 0.02 0.01 0.03 0.00 0.00 0.00 0.00 0.00 0.00 0.00
0.03 0.05 0.04 0.03 0.06 0.10 0.14 0.14 0.14 0.17 0.23 0.25 0.32 0.29 0.33 0.29 0.21 0.17 0.17 0.15 0.11 0.16 0.26 0.24 0.44 0.44 0.13 0.02 0.08 0.12 0.15 0.51 0.58 0.67 0.49 0.26 0.07 0.02 0.02 0.02 0.02 0.02 0.00 0.00 0.00 0.00 0.00
0.05 0.05 0.03 0.05 0.07 0.13 0.14 0.16 0.17 0.20 0.22 0.24 0.31 0.29 0.26 0.19 0.16 0.19 0.23 0.27 0.24 0.23 0.30 0.45 0.49 0.39 0.14 0.03 0.04 0.13 0.14 0.50 0.60 0.87 0.94 0.51 0.27 0.06 0.03 0.03 0.06 0.04 0.00 0.00 0.00 0.00 0.00
0.05 0.04 0.03 0.07 0.09 0.15 0.15 0.20 0.16 0.20 0.23 0.28 0.25 0.18 0.19 0.12 0.14 0.29 0.40 0.50 0.55 0.44 0.49 0.56 0.57 0.56 0.14 0.04 0.06 0.19 0.21 0.54 0.75 1.12 1.37 1.09 0.64 0.18 0.05 0.03 0.02 0.00 0.00 0.00 0.00 0.00 0.00
0.05 0.04 0.05 0.08 0.12 0.14 0.19 0.20 0.14 0.25 0.27 0.25 0.18 0.17 0.18 0.17 0.25 0.51 0.66 0.87 1.07 0.85 0.67 0.47 0.32 0.23 0.15 0.22 0.19 0.18 0.36 0.93 1.29 1.56 1.21 0.82 0.45 0.15 0.01 0.00 0.00 0.00 0.00 0.00 0.00 0.00 0.00
0.04 0.04 0.06 0.09 0.13 0.15 0.19 0.16 0.15 0.28 0.24 0.21 0.18 0.26 0.36 0.31 0.35 0.54 0.78 0.75 0.64 0.54 0.41 0.31 0.19 0.15 0.08 0.20 0.31 0.31 0.66 1.80 1.40 1.30 0.88 0.68 0.25 0.05 0.02 0.00 0.00 0.00 0.00 0.00 0.00 0.00 0.00
0.04 0.04 0.07 0.10 0.13 0.16 0.17 0.11 0.17 0.26 0.21 0.29 0.33 0.41 0.36 0.35 0.29 0.53 0.55 0.49 0.53 0.58 0.54 0.60 0.41 0.19 0.29 0.55 0.52 0.50 1.27 1.76 0.95 0.93 0.66 0.35 0.13 0.05 0.08 0.01 0.00 0.00 0.00 0.00 0.00 0.00 0.00
0.03 0.04 0.07 0.10 0.13 0.15 0.14 0.11 0.21 0.28 0.23 0.36 0.41 0.40 0.33 0.37 0.36 0.54 0.46 0.45 0.74 0.97 1.09 0.99 0.73 0.54 0.59 0.79 0.70 0.59 1.23 1.31 0.89 0.90 1.08 0.61 0.21 0.08 0.07 0.07 0.00 0.00 0.00 0.00 0.00 0.00 0.00
0.03 0.05 0.08 0.11 0.12 0.14 0.14 0.15 0.24 0.26 0.26 0.31 0.29 0.24 0.30 0.56 0.75 0.68 0.48 0.51 0.85 1.38 1.50 0.96 0.87 0.76 0.83 0.64 0.47 0.60 1.10 0.87 0.37 0.75 0.94 0.67 0.33 0.15 0.12 0.05 0.02 0.00 0.00 0.00 0.00 0.01 0.01
0.03 0.07 0.08 0.12 0.12 0.15 0.13 0.15 0.20 0.21 0.24 0.22 0.22 0.23 0.37 0.45 0.81 0.59 0.44 0.95 1.03 1.42 1.56 1.41 1.21 0.94 0.70 0.38 0.30 0.45 0.82 0.55 0.42 0.61 0.51 0.33 0.30 0.28 0.21 0.04 0.03 0.00 0.00 0.00 0.00 0.02 0.04
0.03 0.07 0.09 0.11 0.13 0.14 0.12 0.16 0.10 0.16 0.21 0.21 0.19 0.21 0.46 0.43 0.44 0.38 0.78 1.41 1.33 1.01 1.01 0.78 0.58 0.33 0.28 0.31 0.24 0.33 0.65 0.51 0.51 0.64 0.73 0.49 0.37 0.24 0.20 0.04 0.05 0.00 0.04 0.07 0.07 0.10 0.02
0.04 0.07 0.10 0.11 0.13 0.12 0.15 0.11 0.04 0.08 0.16 0.30 0.45 0.36 0.29 0.25 0.27 0.73 1.28 1.06 1.10 0.66 0.75 0.33 0.14 0.14 0.18 0.17 0.28 0.27 0.33 0.29 0.17 0.08 0.31 0.36 0.49 0.34 0.30 0.04 0.03 0.00 0.02 0.06 0.02 0.00 0.00
0.04 0.07 0.10 0.10 0.11 0.10 0.12 0.06 0.02 0.05 0.23 0.69 0.49 0.18 0.21 0.13 0.26 0.98 1.09 0.95 0.89 0.86 0.54 0.16 0.13 0.13 0.18 0.09 0.15 0.19 0.21 0.16 0.11 0.07 0.15 0.11 0.13 0.17 0.19 0.05 0.04 0.09 0.11 0.04 0.15 0.10 0.12
0.04 0.07 0.10 0.09 0.11 0.10 0.09 0.06 0.02 0.06 0.24 0.71 0.45 0.20 0.30 0.20 0.36 0.93 0.78 0.82 0.54 0.43 0.08 0.00 0.09 0.04 0.03 0.02 0.05 0.05 0.11 0.06 0.02 0.02 0.01 0.00 0.04 0.10 0.14 0.11 0.05 0.01 0.03 0.11 0.24 0.15 0.06
0.05 0.09 0.10 0.06 0.10 0.08 0.07 0.03 0.03 0.05 0.18 0.32 0.45 0.23 0.35 0.31 0.58 0.95 0.72 0.70 0.40 0.15 0.03 0.00 0.00 0.00 0.00 0.00 0.00 0.00 0.00 0.01 0.01 0.01 0.00 0.00 0.02 0.08 0.16 0.20 0.07 0.02 0.09 0.12 0.17 0.14 0.08
0.05 0.08 0.08 0.06 0.10 0.06 0.06 0.01 0.03 0.05 0.20 0.31 0.59 0.47 0.21 0.32 0.65 0.77 0.66 0.56 0.45 0.16 0.02 0.00 0.00 0.00 0.00 0.00 0.00 0.00 0.00 0.00 0.00 0.00 0.00 0.00 0.04 0.05 0.07 0.02 0.00 0.01 0.00 0.04 0.22 0.08 0.13
0.05 0.07 0.06 0.06 0.09 0.06 0.04 0.01 0.01 0.05 0.23 0.42 0.48 0.46 0.27 0.26 0.30 0.28 0.38 0.31 0.13 0.08 0.04 0.00 0.00 0.00 0.00 0.00 0.00 0.00 0.00 0.00 0.00 0.00 0.00 0.00 0.04 0.05 0.06 0.07 0.04 0.05 0.02 0.10 0.21 0.39 0.24
0.04 0.06 0.05 0.07 0.09 0.06 0.03 0.01 0.01 0.04 0.07 0.42 0.69 0.72 0.54 0.31 0.15 0.08 0.28 0.21 0.12 0.09 0.02 0.00 0.00 0.00 0.00 0.00 0.00 0.00 0.00 0.00 0.00 0.00 0.00 0.01 0.03 0.02 0.04 0.07 0.19 0.18 0.03 0.10 0.42 0.54 0.09
0.03 0.05 0.04 0.07 0.07 0.06 0.01 0.00 0.01 0.04 0.18 0.56 0.52 0.20 0.14 0.16 0.10 0.10 0.15 0.17 0.11 0.04 0.01 0.00 0.01 0.00 0.00 0.01 0.00 0.00 0.00 0.00 0.00 0.00 0.00 0.04 0.05 0.02 0.02 0.06 0.22 0.20 0.08 0.07 0.32 0.16 0.23
0.03 0.04 0.05 0.06 0.05 0.05 0.01 0.00 0.00 0.06 0.19 0.44 0.36 0.09 0.01 0.01 0.05 0.05 0.04 0.08 0.04 0.00 0.00 0.00 0.00 0.00 0.01 0.01 0.00 0.00 0.00 0.00 0.00 0.00 0.01 0.05 0.09 0.06 0.06 0.05 0.10 0.16 0.04 0.06 0.05 0.02 0.02
0.04 0.03 0.05 0.05 0.04 0.05 0.01 0.01 0.01 0.04 0.12 0.15 0.33 0.11 0.03 0.05 0.04 0.01 0.01 0.00 0.01 0.00 0.00 0.01 0.01 0.02 0.02 0.01 0.00 0.00 0.00 0.00 0.00 0.00 0.02 0.06 0.08 0.15 0.07 0.04 0.11 0.13 0.04 0.02 0.01 0.00 0.01
0.04 0.03 0.04 0.06 0.05 0.03 0.01 0.01 0.01 0.02 0.07 0.09 0.21 0.16 0.03 0.04 0.01 0.00 0.00 0.00 0.00 0.00 0.01 0.00 0.00 0.03 0.03 0.01 0.01 0.01 0.00 0.00 0.01 0.00 0.01 0.02 0.06 0.19 0.09 0.09 0.24 0.13 0.02 0.00 0.00 0.00 0.00
0.04 0.04 0.03 0.05 0.06 0.03 0.02 0.01 0.02 0.01 0.03 0.04 0.18 0.15 0.07 0.02 0.00 0.00 0.00 0.00 0.00 0.00 0.00 0.00 0.00 0.00 0.01 0.02 0.05 0.04 0.02 0.01 0.00 0.00 0.01 0.01 0.06 0.18 0.16 0.17 0.09 0.01 0.00 0.00 0.00 0.00 0.00
0.03 0.05 0.04 0.05 0.07 0.06 0.05 0.02 0.03 0.01 0.01 0.02 0.11 0.19 0.15 0.04 0.00 0.00 0.00 0.00 0.00 0.00 0.02 0.02 0.03 0.01 0.01 0.06 0.14 0.09 0.03 0.01 0.01 0.01 0.01 0.02 0.03 0.16 0.10 0.09 0.01 0.01 0.00 0.00 0.02 0.01 0.00
0.05 0.06 0.04 0.07 0.07 0.07 0.07 0.06 0.05 0.02 0.01 0.01 0.08 0.14 0.22 0.07 0.01 0.00 0.00 0.00 0.00 0.01 0.02 0.02 0.06 0.02 0.03 0.09 0.15 0.07 0.01 0.00 0.00 0.00 0.03 0.07 0.09 0.13 0.11 0.13 0.00 0.00 0.00 0.00 0.00 0.01 0.00
0.06 0.06 0.07 0.07 0.05 0.07 0.08 0.08 0.12 0.07 0.02 0.03 0.06 0.09 0.22 0.12 0.02 0.00 0.00 0.01 0.01 0.02 0.03 0.01 0.02 0.02 0.06 0.12 0.11 0.06 0.02 0.01 0.00 0.00 0.00 0.01 0.03 0.05 0.06 0.06 0.00 0.00 0.00 0.00 0.00 0.00 0.00
0.09 0.08 0.07 0.06 0.05 0.07 0.08 0.08 0.19 0.11 0.09 0.07 0.04 0.08 0.15 0.14 0.04 0.00 0.00 0.00 0.00 0.01 0.01 0.00 0.03 0.01 0.04 0.12 0.16 0.10 0.04 0.01 0.00 0.00 0.00 0.00 0.00 0.00 0.00 0.00 0.00 0.00 0.00 0.00 0.00 0.00 0.00

GFSGBSN_prec_precacc_045.txt.gz
Total_Precipitation_Accumulation
0.02 0.03 0.04 0.04 0.04 0.04 0.07 0.12 0.13 0.11 0.16 0.19 0.27 0.37 0.43 0.38 0.33 0.28 0.23 0.21 0.22 0.25 0.28 0.32 0.30 0.68 0.57 0.49 0.14 0.16 0.19 0.23 0.54 0.86 0.23 0.05 0.01 0.04 0.01 0.00 0.02 0.02 0.00 0.01 0.05 0.07 0.07
0.03 0.04 0.04 0.04 0.04 0.06 0.11 0.15 0.13 0.13 0.17 0.24 0.39 0.41 0.35 0.34 0.33 0.24 0.22 0.22 0.23 0.29 0.19 0.19 0.47 0.51 0.43 0.30 0.04 0.10 0.25 0.41 0.55 0.88 0.34 0.06 0.00 0.02 0.01 0.01 0.01 0.01 0.01 0.02 0.05 0.03 0.05
0.03 0.05 0.04 0.04 0.05 0.09 0.14 0.14 0.13 0.16 0.19 0.26 0.38 0.33 0.36 0.36 0.25 0.18 0.18 0.18 0.17 0.26 0.19 0.21 0.36 0.51 0.22 0.11 0.07 0.15 0.23 0.54 0.59 0.79 0.43 0.13 0.02 0.04 0.01 0.03 0.00 0.01 0.03 0.04 0.02 0.03 0.03
0.03 0.05 0.04 0.03 0.06 0.10 0.15 0.14 0.15 0.17 0.24 0.25 0.32 0.30 0.33 0.29 0.21 0.17 0.17 0.15 0.11 0.16 0.26 0.24 0.44 0.45 0.13 0.02 0.08 0.12 0.16 0.53 0.61 0.92 0.76 0.33 0.09 0.04 0.02 0.02 0.03 0.02 0.02 0.01 0.00 0.01 0.01
0.05 0.05 0.03 0.05 0.07 0.13 0.15 0.17 0.18 0.21 0.23 0.24 0.31 0.29 0.26 0.19 0.16 0.19 0.23 0.27 0.24 0.23 0.30 0.45 0.49 0.39 0.14 0.03 0.04 0.13 0.14 0.51 0.62 1.07 1.39 0.66 0.28 0.07 0.04 0.03 0.07 0.04 0.00 0.00 0.00 0.00 0.00
0.05 0.04 0.03 0.07 0.09 0.16 0.15 0.20 0.17 0.21 0.24 0.28 0.25 0.19 0.19 0.13 0.14 0.29 0.40 0.50 0.55 0.44 0.49 0.56 0.57 0.56 0.14 0.04 0.06 0.19 0.21 0.55 0.78 1.31 1.89 1.22 0.67 0.18 0.05 0.03 0.03 0.00 0.00 0.00 0.00 0.00 0.00
0.05 0.04 0.05 0.08 0.12 0.15 0.19 0.20 0.14 0.25 0.28 0.25 0.18 0.17 0.18 0.17 0.25 0.51 0.66 0.87 1.07 0.85 0.67 0.47 0.32 0.23 0.15 0.22 0.19 0.19 0.36 0.93 1.31 1.69 1.63 0.99 0.46 0.15 0.01 0.00 0.00 0.00 0.00 0.00 0.00 0.00 0.00
0.04 0.04 0.06 0.09 0.13 0.16 0.19 0.16 0.16 0.28 0.24 0.22 0.18 0.26 0.37 0.31 0.35 0.54 0.78 0.75 0.64 0.54 0.41 0.31 0.19 0.15 0.08 0.20 0.32 0.31 0.66 1.81 1.44 1.44 1.17 0.98 0.27 0.05 0.02 0.00 0.00 0.00 0.00 0.00 0.00 0.00 0.00
0.04 0.04 0.07 0.11 0.13 0.17 0.18 0.11 0.18 0.27 0.21 0.30 0.33 0.41 0.36 0.36 0.29 0.53 0.55 0.49 0.53 0.58 0.54 0.60 0.41 0.19 0.29 0.55 0.53 0.51 1.28 1.79 1.03 1.00 0.82 0.60 0.15 0.05 0.08 0.01 0.00 0.00 0.00 0.00 0.00 0.00 0.00
0.03 0.04 0.07 0.10 0.13 0.15 0.14 0.12 0.21 0.28 0.24 0.36 0.41 0.40 0.34 0.37 0.36 0.54 0.46 0.45 0.74 0.97 1.12 1.01 0.74 0.55 0.60 0.79 0.71 0.61 1.27 1.39 1.03 0.96 1.22 0.84 0.22 0.08 0.07 0.08 0.00 0.00 0.00 0.00 0.00 0.00 0.00
0.03 0.05 0.08 0.11 0.12 0.14 0.14 0.16 0.25 0.27 0.27 0.31 0.29 0.24 0.30 0.56 0.75 0.68 0.48 0.51 0.85 1.38 1.56 1.01 0.89 0.77 0.84 0.64 0.47 0.62 1.14 0.95 0.46 0.81 1.00 0.76 0.33 0.15 0.12 0.05 0.02 0.00 0.00 0.00 0.00 0.01 0.01
0.03 0.07 0.08 0.12 0.12 0.16 0.13 0.16 0.20 0.21 0.24 0.22 0.22 0.23 0.38 0.45 0.81 0.59 0.44 0.95 1.03 1.42 1.59 1.58 1.30 0.94 0.70 0.40 0.31 0.47 0.85 0.61 0.48 0.62 0.53 0.37 0.31 0.28 0.21 0.04 0.03 0.00 0.00 0.00 0.00 0.02 0.04
0.03 0.07 0.09 0.12 0.13 0.14 0.12 0.16 0.10 0.17 0.21 0.21 0.19 0.21 0.46 0.43 0.44 0.38 0.78 1.41 1.33 1.01 1.01 0.85 0.74 0.39 0.30 0.31 0.26 0.33 0.66 0.53 0.55 0.71 0.76 0.57 0.40 0.24 0.20 0.04 0.05 0.00 0.04 0.08 0.08 0.10 0.02
0.04 0.07 0.10 0.11 0.13 0.12 0.15 0.11 0.04 0.08 0.16 0.30 0.45 0.36 0.29 0.25 0.27 0.73 1.28 1.06 1.10 0.66 0.75 0.36 0.29 0.34 0.31 0.20 0.29 0.27 0.34 0.30 0.17 0.13 0.32 0.42 0.56 0.34 0.30 0.04 0.03 0.00 0.02 0.06 0.02 0.00 0.00
0.04 0.07 0.10 0.10 0.11 0.10 0.12 0.06 0.02 0.05 0.23 0.69 0.49 0.18 0.21 0.13 0.26 0.98 1.09 0.95 0.89 0.86 0.54 0.16 0.17 0.31 0.32 0.14 0.16 0.20 0.22 0.17 0.11 0.08 0.15 0.11 0.14 0.18 0.19 0.05 0.04 0.09 0.11 0.04 0.15 0.10 0.12
0.04 0.07 0.10 0.09 0.11 0.10 0.09 0.06 0.02 0.06 0.24 0.71 0.45 0.20 0.30 0.20 0.36 0.93 0.78 0.82 0.54 0.43 0.08 0.00 0.09 0.06 0.09 0.07 0.07 0.06 0.12 0.06 0.02 0.02 0.01 0.00 0.04 0.11 0.14 0.11 0.05 0.01 0.03 0.11 0.24 0.15 0.06
0.05 0.09 0.10 0.06 0.10 0.08 0.07 0.03 0.03 0.05 0.18 0.32 0.45 0.23 0.35 0.31 0.59 0.95 0.72 0.70 0.40 0.15 0.03 0.00 0.00 0.00 0.00 0.02 0.00 0.00 0.00 0.01 0.01 0.01 0.00 0.00 0.02 0.08 0.17 0.20 0.07 0.02 0.09 0.12 0.17 0.14 0.08
0.05 0.08 0.08 0.06 0.10 0.06 0.06 0.01 0.03 0.05 0.20 0.31 0.59 0.47 0.21 0.32 0.65 0.77 0.66 0.56 0.45 0.16 0.02 0.00 0.00 0.00 0.00 0.00 0.00 0.00 0.00 0.00 0.00 0.00 0.00 0.00 0.04 0.05 0.07 0.02 0.00 0.01 0.00 0.04 0.22 0.08 0.13
0.05 0.07 0.06 0.06 0.09 0.06 0.04 0.01 0.01 0.05 0.23 0.42 0.48 0.46 0.27 0.26 0.30 0.28 0.38 0.31 0.13 0.08 0.04 0.00 0.00 0.00 0.00 0.00 0.00 0.00 0.00 0.00 0.00 0.00 0.00 0.00 0.04 0.07 0.09 0.10 0.05 0.06 0.02 0.10 0.21 0.39 0.24
0.04 0.06 0.05 0.07 0.09 0.06 0.03 0.01 0.01 0.04 0.07 0.42 0.69 0.72 0.54 0.31 0.15 0.08 0.28 0.21 0.12 0.09 0.02 0.00 0.00 0.00 0.00 0.00 0.00 0.00 0.00 0.00 0.00 0.00 0.00 0.01 0.03 0.02 0.04 0.07 0.19 0.18 0.03 0.10 0.42 0.55 0.09
0.03 0.05 0.04 0.07 0.07 0.06 0.01 0.00 0.01 0.04 0.18 0.56 0.52 0.20 0.14 0.16 0.10 0.10 0.15 0.17 0.11 0.04 0.01 0.00 0.01 0.00 0.00 0.01 0.00 0.00 0.00 0.00 0.00 0.00 0.00 0.04 0.05 0.02 0.02 0.06 0.22 0.20 0.08 0.07 0.32 0.16 0.23
0.03 0.04 0.05 0.06 0.05 0.05 0.01 0.00 0.00 0.06 0.19 0.44 0.36 0.09 0.01 0.01 0.05 0.05 0.04 0.08 0.04 0.00 0.00 0.00 0.00 0.00 0.01 0.01 0.00 0.00 0.00 0.00 0.00 0.00 0.01 0.05 0.09 0.06 0.06 0.05 0.10 0.16 0.04 0.06 0.05 0.02 0.02
0.04 0.03 0.05 0.05 0.04 0.05 0.01 0.01 0.01 0.04 0.12 0.15 0.33 0.11 0.03 0.05 0.04 0.01 0.01 0.00 0.01 0.00 0.00 0.01 0.01 0.02 0.02 0.01 0.00 0.00 0.00 0.00 0.00 0.00 0.02 0.06 0.08 0.15 0.07 0.04 0.11 0.13 0.04 0.02 0.01 0.00 0.01
0.04 0.03 0.04 0.06 0.05 0.03 0.01 0.01 0.01 0.02 0.07 0.09 0.21 0.16 0.03 0.04 0.01 0.00 0.00 0.00 0.00 0.00 0.01 0.00 0.00 0.03 0.03 0.01 0.01 0.01 0.00 0.00 0.01 0.00 0.01 0.02 0.06 0.19 0.09 0.09 0.24 0.13 0.02 0.00 0.00 0.00 0.00
0.04 0.04 0.03 0.05 0.06 0.03 0.02 0.01 0.02 0.01 0.03 0.04 0.18 0.15 0.07 0.02 0.00 0.00 0.00 0.00 0.00 0.00 0.00 0.00 0.00 0.00 0.01 0.02 0.05 0.04 0.02 0.01 0.00 0.00 0.01 0.01 0.06 0.18 0.16 0.17 0.09 0.01 0.00 0.00 0.00 0.00 0.00
0.03 0.05 0.04 0.05 0.07 0.06 0.05 0.02 0.03 0.01 0.01 0.02 0.11 0.19 0.15 0.04 0.00 0.00 0.00 0.00 0.00 0.00 0.02 0.02 0.03 0.01 0.01 0.06 0.14 0.09 0.03 0.01 0.01 0.01 0.01 0.02 0.03 0.16 0.10 0.09 0.01 0.01 0.00 0.00 0.02 0.01 0.00
0.05 0.06 0.04 0.07 0.07 0.07 0.07 0.06 0.05 0.02 0.01 0.01 0.08 0.14 0.22 0.07 0.01 0.00 0.00 0.00 0.00 0.01 0.02 0.02 0.06 0.02 0.03 0.09 0.15 0.07 0.01 0.00 0.00 0.00 0.03 0.07 0.09 0.13 0.11 0.13 0.00 0.00 0.00 0.00 0.00 0.01 0.00
0.06 0.06 0.07 0.07 0.05 0.07 0.08 0.08 0.12 0.07 0.02 0.03 0.06 0.09 0.22 0.12 0.02 0.00 0.00 0.01 0.01 0.02 0.03 0.01 0.02 0.02 0.06 0.12 0.11 0.06 0.02 0.01 0.00 0.00 0.00 0.01 0.03 0.05 0.06 0.07 0.00 0.00 0.00 0.00 0.00 0.00 0.00
0.09 0.08 0.07 0.06 0.05 0.07 0.08 0.08 0.19 0.12 0.09 0.07 0.04 0.08 0.15 0.14 0.04 0.00 0.00 0.00 0.00 0.01 0.01 0.00 0.03 0.01 0.04 0.12 0.16 0.10 0.04 0.01 0.00 0.00 0.00 0.00 0.00 0.00 0.00 0.00 0.00 0.00 0.00 0.00 0.00 0.00 0.00

GFSGBSN_prec_precacc_048.txt.gz
Total_Precipitation_Accumulation
0.03 0.04 0.05 0.04 0.04 0.04 0.08 0.13 0.13 0.12 0.17 0.20 0.27 0.38 0.43 0.38 0.33 0.28 0.23 0.21 0.22 0.25 0.28 0.32 0.31 0.71 0.60 0.53 0.17 0.17 0.20 0.23 0.54 0.86 0.28 0.06 0.01 0.04 0.01 0.01 0.05 0.02 0.00 0.03 0.07 0.07 0.07
0.03 0.04 0.05 0.04 0.05 0.07 0.11 0.16 0.13 0.13 0.17 0.25 0.40 0.41 0.36 0.34 0.33 0.24 0.23 0.22 0.23 0.29 0.19 0.19 0.48 0.55 0.45 0.34 0.07 0.11 0.25 0.41 0.55 0.88 0.38 0.07 0.00 0.02 0.02 0.02 0.04 0.02 0.02 0.05 0.06 0.03 0.05
0.03 0.05 0.05 0.04 0.05 0.09 0.14 0.15 0.13 0.16 0.19 0.27 0.39 0.35 0.37 0.36 0.26 0.18 0.18 0.18 0.17 0.26 0.19 0.21 0.37 0.51 0.23 0.12 0.07 0.15 0.23 0.54 0.59 0.79 0.44 0.14 0.02 0.05 0.02 0.05 0.03 0.04 0.09 0.09 0.05 0.03 0.04
0.03 0.05 0.04 0.04 0.06 0.10 0.15 0.15 0.15 0.18 0.24 0.26 0.33 0.31 0.34 0.29 0.21 0.17 0.17 0.15 0.11 0.16 0.26 0.24 0.44 0.45 0.13 0.02 0.08 0.12 0.17 0.58 0.62 0.93 0.84 0.41 0.10 0.06 0.04 0.03 0.04 0.06 0.09 0.07 0.02 0.03 0.05
0.05 0.05 0.03 0.05 0.07 0.14 0.15 0.17 0.18 0.21 0.23 0.25 0.31 0.30 0.27 0.20 0.16 0.19 0.23 0.27 0.24 0.23 0.30 0.45 0.49 0.39 0.14 0.03 0.04 0.13 0.15 0.58 0.69 1.09 1.49 0.88 0.30 0.09 0.05 0.04 0.07 0.05 0.01 0.00 0.00 0.00 0.00
0.05 0.04 0.03 0.07 0.09 0.16 0.16 0.21 0.18 0.21 0.24 0.29 0.26 0.19 0.20 0.13 0.15 0.29 0.40 0.50 0.55 0.44 0.49 0.56 0.57 0.56 0.14 0.04 0.06 0.19 0.21 0.57 0.86 1.35 2.10 1.72 0.77 0.19 0.05 0.03 0.03 0.00 0.00 0.00 0.00 0.00 0.00
0.05 0.04 0.05 0.08 0.12 0.15 0.20 0.21 0.15 0.26 0.29 0.26 0.18 0.17 0.19 0.18 0.25 0.51 0.66 0.87 1.07 0.85 0.67 0.47 0.32 0.23 0.15 0.22 0.19 0.19 0.36 0.94 1.40 1.85 2.10 1.39 0.71 0.16 0.01 0.00 0.00 0.00 0.00 0.00 0.00 0.00 0.00
0.04 0.04 0.06 0.10 0.13 0.16 0.20 0.17 0.17 0.29 0.25 0.23 0.18 0.27 0.37 0.32 0.35 0.54 0.78 0.75 0.64 0.54 0.41 0.31 0.19 0.15 0.08 0.20 0.32 0.31 0.66 1.84 1.68 1.66 1.56 1.23 0.36 0.05 0.02 0.00 0.00 0.00 0.00 0.00 0.00 0.00 0.00
0.04 0.04 0.07 0.11 0.13 0.17 0.18 0.12 0.19 0.28 0.22 0.31 0.34 0.42 0.37 0.36 0.29 0.53 0.55 0.49 0.53 0.58 0.54 0.60 0.42 0.19 0.29 0.55 0.53 0.51 1.28 1.82 1.24 1.15 1.14 0.70 0.16 0.05 0.09 0.02 0.00 0.00 0.00 0.00 0.00 0.00 0.00
0.03 0.04 0.07 0.10 0.14 0.15 0.15 0.12 0.22 0.29 0.25 0.38 0.42 0.41 0.34 0.38 0.36 0.54 0.46 0.45 0.74 0.97 1.14 1.02 0.74 0.55 0.60 0.79 0.71 0.62 1.27 1.40 1.13 1.11 1.42 0.97 0.24 0.08 0.08 0.10 0.00 0.00 0.00 0.00 0.00 0.00 0.00
0.03 0.05 0.08 0.11 0.13 0.15 0.15 0.16 0.25 0.28 0.28 0.32 0.29 0.24 0.30 0.57 0.75 0.68 0.48 0.51 0.85 1.38 1.62 1.06 0.93 0.77 0.84 0.65 0.47 0.63 1.15 0.97 0.60 0.90 1.13 0.89 0.37 0.15 0.12 0.06 0.02 0.00 0.00 0.00 0.00 0.01 0.01
0.03 0.07 0.08 0.13 0.12 0.16 0.13 0.16 0.21 0.22 0.25 0.23 0.23 0.23 0.38 0.46 0.81 0.59 0.44 0.95 1.03 1.42 1.62 1.64 1.30 0.94 0.70 0.40 0.31 0.47 0.86 0.66 0.60 0.69 0.58 0.43 0.32 0.29 0.21 0.04 0.03 0.00 0.00 0.00 0.00 0.02 0.04
0.03 0.07 0.09 0.12 0.13 0.14 0.13 0.17 0.11 0.17 0.21 0.21 0.19 0.22 0.46 0.43 0.44 0.38 0.78 1.41 1.33 1.01 1.03 0.93 0.75 0.39 0.30 0.31 0.26 0.34 0.67 0.62 0.60 0.78 0.85 0.71 0.43 0.24 0.20 0.04 0.05 0.00 0.04 0.08 0.08 0.10 0.02
0.04 0.07 0.10 0.11 0.13 0.12 0.15 0.11 0.05 0.09 0.16 0.30 0.45 0.36 0.29 0.25 0.27 0.73 1.28 1.06 1.10 0.66 0.77 0.43 0.30 0.34 0.31 0.20 0.29 0.27 0.34 0.33 0.19 0.13 0.35 0.52 0.61 0.35 0.30 0.04 0.03 0.00 0.02 0.06 0.02 0.01 0.00
0.04 0.07 0.10 0.10 0.11 0.10 0.12 0.07 0.02 0.06 0.23 0.69 0.49 0.18 0.21 0.13 0.26 0.98 1.09 0.95 0.89 0.86 0.54 0.18 0.26 0.35 0.34 0.15 0.16 0.20 0.23 0.17 0.12 0.08 0.16 0.15 0.17 0.19 0.19 0.05 0.04 0.09 0.11 0.04 0.15 0.10 0.12
0.04 0.07 0.10 0.09 0.11 0.10 0.09 0.06 0.02 0.07 0.24 0.71 0.45 0.20 0.30 0.20 0.36 0.93 0.78 0.82 0.54 0.43 0.08 0.01 0.13 0.09 0.10 0.08 0.07 0.06 0.12 0.06 0.02 0.02 0.01 0.00 0.06 0.11 0.14 0.11 0.05 0.01 0.03 0.11 0.24 0.15 0.06
0.05 0.09 0.10 0.06 0.10 0.08 0.07 0.04 0.03 0.05 0.18 0.32 0.45 0.23 0.35 0.31 0.59 0.95 0.72 0.70 0.40 0.15 0.03 0.00 0.00 0.00 0.00 0.02 0.01 0.00 0.00 0.01 0.01 0.01 0.00 0.00 0.02 0.08 0.17 0.20 0.07 0.02 0.09 0.12 0.17 0.14 0.08
0.05 0.08 0.08 0.06 0.10 0.06 0.06 0.02 0.03 0.05 0.20 0.31 0.59 0.47 0.21 0.32 0.66 0.77 0.66 0.56 0.45 0.16 0.02 0.00 0.00 0.00 0.00 0.00 0.00 0.00 0.00 0.00 0.00 0.00 0.00 0.00 0.04 0.06 0.07 0.02 0.00 0.01 0.00 0.04 0.22 0.08 0.13
0.05 0.07 0.06 0.06 0.09 0.06 0.04 0.01 0.01 0.05 0.23 0.42 0.48 0.46 0.27 0.26 0.30 0.28 0.38 0.31 0.13 0.08 0.04 0.00 0.00 0.00 0.00 0.00 0.00 0.00 0.00 0.00 0.00 0.00 0.00 0.00 0.04 0.07 0.10 0.10 0.05 0.06 0.02 0.10 0.21 0.39 0.24
0.04 0.06 0.05 0.07 0.09 0.06 0.03 0.01 0.01 0.04 0.07 0.42 0.69 0.72 0.54 0.31 0.15 0.08 0.28 0.21 0.12 0.09 0.02 0.00 0.00 0.00 0.00 0.00 0.00 0.00 0.00 0.00 0.00 0.00 0.00 0.01 0.03 0.02 0.04 0.07 0.19 0.18 0.03 0.10 0.42 0.55 0.09
0.03 0.05 0.04 0.07 0.07 0.06 0.01 0.00 0.01 0.04 0.18 0.56 0.52 0.20 0.14 0.16 0.10 0.10 0.15 0.17 0.11 0.04 0.01 0.00 0.01 0.00 0.00 0.01 0.00 0.00 0.00 0.00 0.00 0.00 0.01 0.04 0.05 0.02 0.02 0.06 0.22 0.20 0.08 0.07 0.32 0.17 0.23
0.03 0.04 0.05 0.06 0.05 0.05 0.01 0.00 0.00 0.06 0.19 0.44 0.36 0.09 0.01 0.01 0.05 0.05 0.04 0.08 0.04 0.00 0.00 0.00 0.01 0.00 0.01 0.01 0.00 0.00 0.00 0.00 0.00 0.00 0.01 0.05 0.09 0.06 0.06 0.05 0.10 0.16 0.04 0.06 0.05 0.02 0.02
0.04 0.03 0.05 0.05 0.04 0.05 0.01 0.01 0.01 0.04 0.12 0.15 0.33 0.11 0.03 0.05 0.04 0.01 0.01 0.00 0.01 0.00 0.00 0.01 0.01 0.02 0.02 0.01 0.00 0.00 0.00 0.00 0.00 0.00 0.02 0.06 0.08 0.15 0.07 0.04 0.11 0.13 0.04 0.02 0.01 0.00 0.01
0.04 0.03 0.04 0.06 0.05 0.03 0.01 0.01 0.01 0.02 0.07 0.09 0.21 0.16 0.03 0.04 0.01 0.00 0.00 0.00 0.00 0.00 0.01 0.00 0.00 0.03 0.03 0.01 0.01 0.01 0.00 0.00 0.01 0.00 0.01 0.02 0.06 0.19 0.09 0.09 0.24 0.13 0.02 0.00 0.00 0.00 0.00
0.04 0.04 0.03 0.05 0.06 0.03 0.02 0.01 0.02 0.01 0.03 0.04 0.18 0.15 0.07 0.02 0.00 0.00 0.00 0.00 0.00 0.00 0.00 0.00 0.00 0.00 0.01 0.02 0.05 0.04 0.02 0.01 0.00 0.00 0.01 0.01 0.06 0.18 0.16 0.17 0.09 0.01 0.00 0.00 0.00 0.00 0.00
0.03 0.05 0.04 0.05 0.07 0.06 0.05 0.02 0.03 0.01 0.01 0.02 0.11 0.19 0.15 0.04 0.00 0.00 0.00 0.00 0.00 0.00 0.02 0.02 0.03 0.01 0.01 0.06 0.14 0.09 0.03 0.01 0.01 0.01 0.01 0.02 0.03 0.16 0.10 0.09 0.01 0.01 0.00 0.00 0.02 0.01 0.00
0.05 0.06 0.04 0.07 0.07 0.07 0.07 0.06 0.05 0.02 0.01 0.01 0.08 0.14 0.22 0.07 0.01 0.00 0.00 0.00 0.00 0.01 0.02 0.02 0.06 0.02 0.03 0.09 0.15 0.07 0.01 0.00 0.00 0.00 0.03 0.07 0.09 0.13 0.11 0.13 0.00 0.00 0.00 0.00 0.00 0.01 0.00
0.06 0.06 0.07 0.07 0.05 0.07 0.08 0.08 0.12 0.07 0.02 0.03 0.06 0.09 0.22 0.12 0.02 0.00 0.00 0.01 0.01 0.02 0.03 0.01 0.02 0.02 0.06 0.12 0.11 0.06 0.02 0.01 0.00 0.00 0.00 0.01 0.03 0.05 0.06 0.07 0.00 0.00 0.00 0.00 0.00 0.00 0.00
0.09 0.08 0.07 0.06 0.05 0.07 0.08 0.08 0.19 0.12 0.09 0.07 0.04 0.08 0.15 0.14 0.04 0.00 0.00 0.00 0.00 0.01 0.01 0.00 0.03 0.01 0.04 0.12 0.16 0.10 0.04 0.01 0.00 0.00 0.00 0.00 0.00 0.00 0.00 0.00 0.00 0.00 0.00 0.00 0.00 0.00 0.00

GFSGBSN_prec_precacc_051.txt.gz
Total_Precipitation_Accumulation
0.03 0.04 0.05 0.04 0.04 0.05 0.08 0.13 0.13 0.12 0.17 0.21 0.28 0.39 0.44 0.38 0.33 0.28 0.24 0.21 0.22 0.25 0.28 0.32 0.31 0.72 0.60 0.53 0.17 0.17 0.21 0.25 0.56 0.87 0.29 0.08 0.01 0.04 0.01 0.02 0.07 0.04 0.01 0.07 0.09 0.09 0.08
0.03 0.04 0.05 0.04 0.05 0.07 0.12 0.16 0.13 0.14 0.18 0.25 0.41 0.42 0.37 0.35 0.33 0.25 0.23 0.22 0.23 0.29 0.19 0.19 0.48 0.55 0.46 0.35 0.08 0.11 0.25 0.43 0.55 0.88 0.39 0.10 0.01 0.02 0.02 0.03 0.05 0.04 0.05 0.07 0.07 0.07 0.08
0.03 0.05 0.05 0.04 0.05 0.09 0.14 0.15 0.14 0.16 0.20 0.28 0.40 0.35 0.38 0.37 0.26 0.18 0.19 0.19 0.17 0.26 0.19 0.21 0.37 0.52 0.24 0.12 0.07 0.15 0.24 0.56 0.59 0.79 0.45 0.16 0.03 0.05 0.03 0.05 0.04 0.07 0.14 0.16 0.10 0.07 0.09
0.03 0.05 0.04 0.04 0.06 0.10 0.15 0.15 0.16 0.18 0.25 0.27 0.33 0.31 0.35 0.30 0.22 0.17 0.17 0.15 0.11 0.16 0.26 0.24 0.44 0.45 0.13 0.02 0.08 0.13 0.17 0.60 0.62 0.93 0.88 0.46 0.12 0.06 0.05 0.04 0.05 0.10 0.18 0.14 0.08 0.05 0.07
0.05 0.05 0.03 0.05 0.07 0.14 0.16 0.18 0.19 0.22 0.24 0.26 0.32 0.31 0.28 0.20 0.17 0.20 0.23 0.27 0.24 0.23 0.30 0.45 0.49 0.39 0.14 0.03 0.07 0.17 0.15 0.64 0.73 1.10 1.56 0.99 0.34 0.10 0.05 0.05 0.08 0.07 0.03 0.05 0.04 0.02 0.00
0.06 0.04 0.03 0.07 0.09 0.16 0.16 0.21 0.18 0.23 0.25 0.30 0.27 0.20 0.20 0.14 0.15 0.29 0.40 0.50 0.55 0.44 0.49 0.56 0.57 0.56 0.14 0.04 0.06 0.19 0.21 0.64 0.95 1.38 2.19 1.94 0.79 0.20 0.05 0.04 0.03 0.00 0.00 0.00 0.02 0.01 0.00
0.05 0.04 0.05 0.08 0.12 0.15 0.21 0.22 0.16 0.28 0.29 0.27 0.19 0.18 0.19 0.18 0.26 0.52 0.66 0.87 1.07 0.85 0.67 0.47 0.32 0.23 0.15 0.22 0.19 0.19 0.36 1.09 1.60 1.87 2.18 1.77 0.80 0.16 0.02 0.00 0.00 0.00 0.00 0.00 0.00 0.00 0.00
0.04 0.04 0.06 0.10 0.13 0.16 0.20 0.17 0.18 0.30 0.26 0.24 0.20 0.28 0.38 0.32 0.36 0.55 0.78 0.75 0.64 0.54 0.41 0.31 0.19 0.15 0.08 0.20 0.32 0.31 0.66 2.04 1.87 1.68 1.65 1.48 0.47 0.06 0.02 0.00 0.00 0.00 0.00 0.00 0.00 0.00 0.01
0.05 0.04 0.07 0.11 0.13 0.17 0.18 0.12 0.20 0.29 0.23 0.32 0.35 0.43 0.38 0.36 0.30 0.53 0.55 0.49 0.53 0.58 0.54 0.60 0.42 0.19 0.29 0.55 0.53 0.51 1.28 1.90 1.38 1.16 1.19 0.78 0.18 0.06 0.10 0.02 0.00 0.00 0.00 0.00 0.00 0.00 0.00
0.04 0.04 0.07 0.10 0.14 0.15 0.15 0.13 0.23 0.30 0.26 0.39 0.43 0.42 0.34 0.38 0.36 0.54 0.46 0.45 0.74 0.97 1.16 1.04 0.74 0.55 0.60 0.79 0.72 0.62 1.27 1.44 1.34 1.16 1.56 1.09 0.24 0.10 0.10 0.10 0.00 0.00 0.00 0.00 0.00 0.00 0.00
0.03 0.05 0.08 0.11 0.13 0.15 0.15 0.16 0.26 0.29 0.29 0.33 0.30 0.25 0.31 0.57 0.75 0.68 0.48 0.51 0.85 1.38 1.65 1.12 0.94 0.77 0.84 0.65 0.47 0.63 1.15 0.99 0.64 0.96 1.27 1.04 0.38 0.16 0.13 0.07 0.02 0.00 0.00 0.00 0.00 0.01 0.01
0.03 0.07 0.08 0.13 0.12 0.16 0.14 0.16 0.21 0.23 0.26 0.23 0.23 0.24 0.39 0.46 0.81 0.59 0.44 0.95 1.03 1.42 1.66 1.68 1.31 0.94 0.70 0.40 0.31 0.48 0.87 0.67 0.69 0.79 0.71 0.54 0.33 0.29 0.21 0.05 0.03 0.00 0.00 0.00 0.00 0.02 0.04
0.03 0.07 0.09 0.12 0.13 0.14 0.13 0.17 0.11 0.18 0.21 0.22 0.19 0.22 0.46 0.43 0.44 0.38 0.78 1.41 1.33 1.01 1.08 0.96 0.76 0.39 0.30 0.31 0.27 0.35 0.68 0.64 0.66 0.85 1.00 0.82 0.46 0.24 0.20 0.05 0.05 0.00 0.04 0.08 0.08 0.10 0.02
0.04 0.07 0.10 0.11 0.13 0.12 0.15 0.12 0.05 0.09 0.16 0.30 0.45 0.36 0.29 0.25 0.27 0.73 1.28 1.06 1.10 0.66 0.84 0.45 0.30 0.34 0.32 0.21 0.29 0.27 0.34 0.34 0.19 0.13 0.44 0.67 0.70 0.35 0.30 0.04 0.03 0.00 0.02 0.06 0.02 0.01 0.00
0.04 0.07 0.10 0.10 0.11 0.10 0.12 0.07 0.03 0.06 0.23 0.69 0.49 0.18 0.21 0.13 0.26 0.98 1.09 0.95 0.89 0.87 0.56 0.19 0.27 0.36 0.34 0.15 0.16 0.20 0.23 0.17 0.12 0.09 0.18 0.17 0.19 0.19 0.19 0.05 0.04 0.09 0.11 0.04 0.15 0.10 0.12
0.04 0.07 0.10 0.09 0.11 0.10 0.09 0.06 0.02 0.07 0.24 0.71 0.45 0.20 0.30 0.20 0.36 0.93 0.78 0.82 0.54 0.43 0.08 0.01 0.17 0.14 0.11 0.08 0.07 0.06 0.12 0.06 0.02 0.02 0.01 0.00 0.08 0.12 0.14 0.11 0.05 0.01 0.03 0.11 0.24 0.15 0.06
0.05 0.09 0.10 0.06 0.10 0.08 0.07 0.04 0.03 0.05 0.18 0.32 0.45 0.23 0.35 0.31 0.59 0.95 0.72 0.70 0.40 0.15 0.03 0.00 0.00 0.01 0.00 0.02 0.01 0.00 0.00 0.01 0.01 0.01 0.00 0.00 0.03 0.10 0.19 0.20 0.07 0.02 0.09 0.12 0.17 0.14 0.08
0.05 0.08 0.08 0.06 0.10 0.06 0.06 0.02 0.03 0.05 0.20 0.31 0.59 0.47 0.21 0.32 0.66 0.78 0.66 0.56 0.45 0.16 0.02 0.00 0.00 0.00 0.00 0.00 0.00 0.00 0.00 0.00 0.00 0.00 0.00 0.00 0.04 0.06 0.09 0.02 0.00 0.01 0.00 0.04 0.22 0.08 0.13
0.05 0.07 0.06 0.06 0.09 0.06 0.04 0.01 0.01 0.05 0.23 0.42 0.48 0.46 0.27 0.27 0.30 0.28 0.38 0.31 0.13 0.08 0.04 0.00 0.00 0.00 0.00 0.01 0.00 0.00 0.00 0.00 0.00 0.00 0.00 0.00 0.04 0.08 0.11 0.11 0.05 0.06 0.02 0.10 0.21 0.39 0.24
0.04 0.06 0.05 0.07 0.09 0.06 0.03 0.01 0.01 0.04 0.07 0.42 0.69 0.72 0.54 0.31 0.15 0.08 0.28 0.21 0.12 0.09 0.02 0.00 0.00 0.00 0.00 0.00 0.00 0.00 0.00 0.00 0.00 0.00 0.00 0.01 0.03 0.02 0.04 0.08 0.19 0.18 0.03 0.10 0.42 0.55 0.09
0.03 0.05 0.04 0.07 0.07 0.06 0.01 0.00 0.01 0.04 0.18 0.56 0.52 0.20 0.14 0.16 0.10 0.10 0.15 0.17 0.11 0.04 0.01 0.00 0.01 0.00 0.00 0.01 0.00 0.00 0.00 0.00 0.00 0.00 0.01 0.04 0.05 0.02 0.02 0.06 0.22 0.20 0.08 0.07 0.32 0.17 0.23
0.03 0.04 0.05 0.06 0.05 0.05 0.01 0.00 0.00 0.06 0.19 0.44 0.36 0.09 0.01 0.01 0.05 0.05 0.04 0.08 0.04 0.00 0.00 0.00 0.01 0.00 0.01 0.01 0.00 0.00 0.00 0.00 0.00 0.00 0.02 0.05 0.09 0.06 0.06 0.05 0.10 0.16 0.04 0.06 0.05 0.02 0.02
0.04 0.03 0.05 0.05 0.04 0.05 0.01 0.01 0.01 0.04 0.12 0.15 0.33 0.11 0.03 0.05 0.04 0.01 0.01 0.00 0.01 0.00 0.00 0.01 0.01 0.02 0.02 0.01 0.00 0.00 0.00 0.00 0.00 0.00 0.02 0.06 0.08 0.15 0.07 0.04 0.11 0.13 0.04 0.02 0.01 0.00 0.01
0.04 0.03 0.04 0.06 0.05 0.03 0.01 0.01 0.01 0.02 0.07 0.09 0.21 0.16 0.03 0.04 0.01 0.00 0.00 0.00 0.00 0.00 0.01 0.00 0.00 0.03 0.03 0.01 0.01 0.01 0.00 0.00 0.01 0.00 0.01 0.02 0.06 0.19 0.09 0.09 0.24 0.13 0.02 0.00 0.00 0.00 0.00
0.04 0.04 0.03 0.05 0.06 0.03 0.02 0.01 0.02 0.01 0.03 0.04 0.18 0.15 0.07 0.02 0.00 0.00 0.00 0.00 0.00 0.00 0.00 0.00 0.00 0.00 0.01 0.02 0.05 0.04 0.02 0.01 0.00 0.00 0.01 0.01 0.06 0.18 0.16 0.17 0.09 0.01 0.00 0.00 0.00 0.00 0.00
0.03 0.05 0.04 0.05 0.07 0.06 0.05 0.02 0.03 0.01 0.01 0.02 0.11 0.19 0.15 0.04 0.00 0.00 0.00 0.00 0.00 0.00 0.02 0.02 0.03 0.01 0.01 0.06 0.14 0.09 0.03 0.01 0.01 0.01 0.01 0.02 0.03 0.16 0.10 0.09 0.01 0.01 0.00 0.00 0.02 0.01 0.00
0.05 0.06 0.04 0.07 0.07 0.07 0.07 0.06 0.05 0.02 0.01 0.01 0.08 0.14 0.22 0.07 0.01 0.00 0.00 0.00 0.00 0.01 0.02 0.02 0.06 0.02 0.03 0.09 0.15 0.07 0.01 0.00 0.00 0.00 0.03 0.07 0.09 0.14 0.12 0.14 0.00 0.00 0.00 0.00 0.00 0.01 0.00
0.06 0.06 0.07 0.07 0.05 0.07 0.08 0.08 0.12 0.07 0.02 0.03 0.06 0.09 0.22 0.12 0.02 0.00 0.00 0.01 0.01 0.02 0.03 0.01 0.02 0.02 0.06 0.12 0.11 0.06 0.02 0.01 0.00 0.00 0.00 0.01 0.03 0.05 0.06 0.07 0.00 0.00 0.00 0.00 0.00 0.00 0.00
0.09 0.08 0.07 0.06 0.05 0.07 0.08 0.08 0.19 0.12 0.09 0.07 0.04 0.08 0.15 0.14 0.04 0.00 0.00 0.00 0.00 0.01 0.01 0.00 0.03 0.01 0.04 0.12 0.16 0.10 0.04 0.01 0.00 0.00 0.00 0.00 0.00 0.00 0.00 0.00 0.00 0.00 0.00 0.00 0.00 0.00 0.00

GFSGBSN_prec_precacc_054.txt.gz
Total_Precipitation_Accumulation
0.03 0.04 0.05 0.05 0.04 0.05 0.08 0.13 0.13 0.12 0.18 0.22 0.29 0.39 0.46 0.40 0.33 0.28 0.24 0.21 0.22 0.25 0.28 0.32 0.31 0.72 0.60 0.53 0.17 0.17 0.21 0.27 0.63 0.91 0.35 0.12 0.02 0.04 0.02 0.02 0.11 0.05 0.05 0.10 0.13 0.14 0.08
0.03 0.04 0.05 0.04 0.05 0.07 0.12 0.16 0.14 0.14 0.18 0.26 0.42 0.43 0.37 0.36 0.34 0.25 0.23 0.22 0.23 0.29 0.19 0.19 0.48 0.55 0.46 0.35 0.08 0.11 0.25 0.43 0.60 0.89 0.44 0.17 0.01 0.02 0.02 0.03 0.06 0.05 0.07 0.09 0.12 0.15 0.11
0.03 0.05 0.05 0.04 0.05 0.09 0.14 0.15 0.14 0.17 0.21 0.28 0.41 0.36 0.38 0.38 0.27 0.19 0.19 0.19 0.18 0.26 0.19 0.21 0.37 0.52 0.25 0.12 0.07 0.15 0.24 0.56 0.61 0.80 0.47 0.21 0.03 0.05 0.03 0.06 0.05 0.10 0.16 0.21 0.12 0.09 0.12
0.04 0.05 0.04 0.04 0.06 0.10 0.15 0.16 0.16 0.19 0.26 0.28 0.34 0.32 0.35 0.30 0.22 0.18 0.18 0.15 0.11 0.16 0.26 0.24 0.44 0.45 0.13 0.02 0.08 0.13 0.17 0.62 0.63 0.93 0.91 0.55 0.14 0.07 0.06 0.05 0.06 0.13 0.23 0.18 0.10 0.08 0.10
0.06 0.05 0.03 0.05 0.07 0.14 0.16 0.19 0.20 0.23 0.26 0.27 0.33 0.31 0.29 0.21 0.17 0.20 0.23 0.27 0.24 0.23 0.30 0.45 0.49 0.39 0.14 0.03 0.08 0.17 0.15 0.71 0.80 1.11 1.60 1.08 0.39 0.10 0.06 0.06 0.09 0.09 0.04 0.06 0.08 0.04 0.01
0.09 0.06 0.03 0.07 0.09 0.16 0.16 0.22 0.19 0.23 0.27 0.31 0.28 0.21 0.22 0.15 0.16 0.30 0.40 0.50 0.55 0.44 0.49 0.56 0.57 0.56 0.14 0.04 0.15 0.21 0.22 0.77 1.03 1.41 2.25 2.12 1.02 0.21 0.07 0.04 0.03 0.00 0.00 0.01 0.04 0.03 0.02
0.10 0.06 0.07 0.08 0.12 0.15 0.21 0.22 0.16 0.28 0.30 0.28 0.21 0.20 0.21 0.19 0.26 0.52 0.66 0.87 1.07 0.85 0.67 0.47 0.32 0.23 0.15 0.23 0.20 0.20 0.37 1.23 1.69 1.88 2.20 2.07 1.05 0.17 0.02 0.00 0.00 0.00 0.00 0.00 0.01 0.04 0.02
0.10 0.09 0.08 0.10 0.13 0.16 0.20 0.17 0.18 0.31 0.27 0.25 0.21 0.29 0.39 0.33 0.36 0.56 0.78 0.75 0.64 0.54 0.41 0.31 0.19 0.15 0.08 0.21 0.32 0.31 0.67 2.28 1.96 1.68 1.66 1.65 0.59 0.06 0.02 0.00 0.00 0.00 0.00 0.00 0.00 0.04 0.06
0.12 0.08 0.09 0.11 0.13 0.17 0.18 0.13 0.20 0.30 0.25 0.33 0.36 0.43 0.39 0.37 0.30 0.54 0.55 0.49 0.53 0.58 0.54 0.60 0.42 0.19 0.29 0.57 0.54 0.51 1.31 2.18 1.44 1.16 1.23 0.89 0.24 0.06 0.10 0.03 0.01 0.00 0.00 0.00 0.00 0.01 0.03
0.09 0.08 0.08 0.10 0.14 0.15 0.15 0.13 0.23 0.31 0.27 0.40 0.44 0.42 0.35 0.38 0.36 0.54 0.46 0.45 0.74 0.97 1.16 1.04 0.74 0.55 0.60 0.80 0.73 0.63 1.30 1.61 1.41 1.16 1.58 1.21 0.27 0.10 0.11 0.11 0.00 0.00 0.00 0.00 0.00 0.00 0.00
0.05 0.06 0.08 0.11 0.13 0.15 0.15 0.16 0.27 0.29 0.30 0.34 0.30 0.26 0.31 0.57 0.75 0.68 0.48 0.51 0.85 1.38 1.67 1.13 0.94 0.78 0.84 0.66 0.48 0.64 1.17 1.02 0.66 0.97 1.29 1.12 0.42 0.17 0.15 0.08 0.02 0.00 0.00 0.00 0.00 0.01 0.01
0.04 0.07 0.08 0.13 0.12 0.16 0.14 0.16 0.22 0.23 0.26 0.23 0.23 0.25 0.39 0.46 0.81 0.59 0.44 0.95 1.03 1.42 1.67 1.70 1.31 0.94 0.71 0.41 0.33 0.48 0.89 0.68 0.70 0.79 0.73 0.59 0.34 0.31 0.21 0.05 0.03 0.00 0.00 0.00 0.00 0.02 0.04
0.04 0.07 0.09 0.12 0.13 0.14 0.13 0.17 0.12 0.18 0.22 0.22 0.20 0.23 0.47 0.43 0.44 0.38 0.78 1.41 1.33 1.03 1.12 0.97 0.76 0.39 0.30 0.32 0.29 0.38 0.70 0.68 0.71 0.89 1.09 0.93 0.50 0.26 0.21 0.06 0.05 0.00 0.04 0.08 0.09 0.10 0.03
0.05 0.08 0.10 0.11 0.13 0.12 0.15 0.12 0.05 0.09 0.17 0.30 0.46 0.36 0.29 0.25 0.27 0.73 1.28 1.06 1.10 0.69 0.86 0.45 0.30 0.34 0.32 0.21 0.30 0.28 0.36 0.39 0.22 0.14 0.58 0.77 0.80 0.37 0.30 0.05 0.03 0.00 0.02 0.06 0.02 0.01 0.00
0.05 0.07 0.10 0.10 0.11 0.10 0.12 0.07 0.03 0.06 0.24 0.69 0.49 0.18 0.21 0.13 0.26 0.98 1.09 0.95 0.89 0.88 0.60 0.20 0.27 0.36 0.34 0.15 0.16 0.20 0.23 0.17 0.12 0.10 0.25 0.19 0.22 0.20 0.19 0.05 0.04 0.10 0.12 0.04 0.15 0.10 0.12
0.06 0.08 0.10 0.09 0.11 0.10 0.09 0.06 0.02 0.07 0.24 0.71 0.45 0.20 0.30 0.20 0.36 0.93 0.78 0.82 0.54 0.43 0.09 0.02 0.17 0.14 0.11 0.08 0.07 0.06 0.12 0.06 0.02 0.02 0.01 0.00 0.11 0.13 0.14 0.11 0.06 0.01 0.03 0.11 0.24 0.15 0.06
0.08 0.09 0.10 0.06 0.10 0.08 0.07 0.04 0.03 0.05 0.18 0.32 0.45 0.23 0.35 0.31 0.59 0.95 0.72 0.70 0.40 0.15 0.03 0.04 0.02 0.01 0.00 0.02 0.01 0.00 0.00 0.01 0.01 0.01 0.00 0.00 0.03 0.12 0.19 0.21 0.07 0.02 0.09 0.12 0.17 0.14 0.08
0.07 0.08 0.08 0.06 0.10 0.06 0.06 0.02 0.03 0.05 0.20 0.31 0.59 0.47 0.21 0.32 0.66 0.78 0.66 0.56 0.45 0.16 0.02 0.00 0.01 0.01 0.00 0.00 0.00 0.00 0.00 0.00 0.00 0.00 0.00 0.00 0.04 0.07 0.10 0.02 0.00 0.01 0.00 0.04 0.22 0.08 0.13
0.12 0.08 0.06 0.06 0.09 0.06 0.04 0.01 0.01 0.05 0.23 0.42 0.48 0.46 0.27 0.27 0.30 0.28 0.38 0.31 0.13 0.08 0.04 0.00 0.00 0.02 0.02 0.01 0.00 0.00 0.00 0.00 0.00 0.00 0.00 0.00 0.04 0.09 0.14 0.13 0.06 0.06 0.02 0.10 0.21 0.39 0.24
0.19 0.09 0.05 0.07 0.09 0.06 0.03 0.01 0.01 0.04 0.07 0.42 0.69 0.72 0.54 0.32 0.15 0.08 0.28 0.21 0.12 0.09 0.02 0.00 0.00 0.00 0.00 0.00 0.00 0.00 0.00 0.00 0.00 0.00 0.00 0.01 0.03 0.02 0.05 0.08 0.20 0.18 0.03 0.10 0.42 0.55 0.09
0.11 0.06 0.04 0.07 0.07 0.06 0.01 0.00 0.01 0.04 0.18 0.56 0.52 0.20 0.14 0.16 0.10 0.10 0.15 0.17 0.11 0.04 0.01 0.00 0.01 0.00 0.00 0.01 0.00 0.00 0.00 0.00 0.00 0.00 0.01 0.04 0.05 0.02 0.02 0.06 0.22 0.20 0.08 0.07 0.32 0.17 0.23
0.13 0.06 0.05 0.06 0.05 0.05 0.01 0.00 0.00 0.06 0.19 0.44 0.36 0.09 0.01 0.01 0.05 0.05 0.04 0.08 0.04 0.00 0.00 0.00 0.01 0.00 0.01 0.01 0.00 0.00 0.00 0.00 0.00 0.00 0.02 0.05 0.09 0.06 0.06 0.05 0.10 0.16 0.04 0.06 0.05 0.02 0.02
0.16 0.07 0.05 0.05 0.04 0.05 0.01 0.01 0.01 0.04 0.12 0.15 0.33 0.11 0.03 0.05 0.04 0.01 0.01 0.00 0.01 0.00 0.00 0.01 0.01 0.02 0.02 0.01 0.00 0.00 0.00 0.00 0.00 0.00 0.02 0.06 0.08 0.15 0.07 0.04 0.11 0.13 0.04 0.02 0.01 0.00 0.01
0.17 0.06 0.04 0.06 0.05 0.03 0.01 0.01 0.01 0.02 0.07 0.09 0.21 0.16 0.03 0.04 0.01 0.00 0.00 0.00 0.00 0.00 0.01 0.00 0.00 0.03 0.03 0.01 0.01 0.01 0.00 0.00 0.01 0.00 0.01 0.02 0.06 0.19 0.09 0.09 0.24 0.13 0.02 0.00 0.00 0.00 0.00
0.16 0.07 0.03 0.05 0.06 0.03 0.02 0.01 0.02 0.01 0.03 0.04 0.18 0.15 0.07 0.02 0.00 0.00 0.00 0.00 0.00 0.00 0.00 0.00 0.00 0.00 0.01 0.02 0.05 0.04 0.02 0.01 0.00 0.00 0.01 0.01 0.06 0.18 0.16 0.17 0.09 0.01 0.00 0.00 0.00 0.00 0.00
0.08 0.07 0.04 0.05 0.07 0.06 0.05 0.02 0.03 0.01 0.01 0.02 0.11 0.19 0.15 0.04 0.00 0.00 0.00 0.00 0.00 0.00 0.02 0.02 0.03 0.01 0.01 0.06 0.14 0.09 0.03 0.01 0.01 0.01 0.01 0.02 0.03 0.16 0.10 0.09 0.01 0.01 0.00 0.00 0.02 0.01 0.00
0.08 0.06 0.04 0.07 0.07 0.07 0.07 0.06 0.05 0.02 0.01 0.01 0.08 0.14 0.22 0.07 0.01 0.00 0.00 0.00 0.00 0.01 0.02 0.02 0.06 0.02 0.03 0.09 0.15 0.07 0.01 0.00 0.00 0.00 0.03 0.07 0.09 0.14 0.12 0.14 0.00 0.00 0.00 0.00 0.00 0.01 0.00
0.08 0.06 0.07 0.07 0.05 0.07 0.08 0.08 0.12 0.07 0.02 0.03 0.06 0.09 0.22 0.12 0.02 0.00 0.00 0.01 0.01 0.02 0.03 0.01 0.02 0.02 0.06 0.12 0.11 0.06 0.02 0.01 0.00 0.00 0.00 0.01 0.03 0.06 0.06 0.07 0.00 0.00 0.00 0.00 0.00 0.00 0.00
0.09 0.08 0.07 0.06 0.05 0.07 0.08 0.08 0.19 0.12 0.09 0.07 0.04 0.08 0.15 0.14 0.04 0.00 0.00 0.00 0.00 0.01 0.01 0.00 0.03 0.01 0.04 0.12 0.16 0.10 0.04 0.01 0.00 0.00 0.00 0.00 0.00 0.00 0.00 0.00 0.00 0.00 0.00 0.00 0.00 0.00 0.00

GFSGBSN_prec_precacc_057.txt.gz
Total_Precipitation_Accumulation
0.03 0.04 0.05 0.05 0.04 0.05 0.08 0.13 0.14 0.12 0.18 0.22 0.30 0.41 0.46 0.40 0.35 0.30 0.24 0.21 0.22 0.25 0.28 0.32 0.31 0.72 0.60 0.54 0.18 0.18 0.21 0.27 0.67 0.96 0.39 0.15 0.03 0.05 0.02 0.05 0.28 0.13 0.07 0.11 0.17 0.16 0.09
0.03 0.04 0.05 0.04 0.05 0.07 0.12 0.16 0.14 0.14 0.19 0.27 0.43 0.44 0.38 0.36 0.34 0.26 0.24 0.22 0.23 0.29 0.19 0.19 0.48 0.55 0.47 0.36 0.08 0.11 0.25 0.43 0.64 0.96 0.51 0.23 0.02 0.03 0.02 0.05 0.15 0.14 0.11 0.12 0.12 0.16 0.11
0.03 0.05 0.05 0.04 0.05 0.09 0.14 0.15 0.15 0.18 0.21 0.30 0.43 0.37 0.39 0.38 0.27 0.20 0.20 0.19 0.18 0.26 0.19 0.21 0.37 0.52 0.26 0.14 0.07 0.15 0.24 0.56 0.62 0.83 0.55 0.35 0.06 0.06 0.03 0.07 0.06 0.16 0.23 0.27 0.14 0.09 0.12
0.05 0.06 0.04 0.04 0.07 0.10 0.15 0.16 0.17 0.19 0.26 0.30 0.36 0.33 0.36 0.31 0.22 0.19 0.18 0.16 0.11 0.16 0.26 0.24 0.44 0.45 0.14 0.02 0.08 0.14 0.17 0.62 0.63 0.94 1.00 0.83 0.17 0.10 0.06 0.05 0.06 0.18 0.36 0.25 0.11 0.08 0.10
0.10 0.08 0.06 0.07 0.08 0.14 0.16 0.19 0.20 0.23 0.27 0.28 0.34 0.32 0.30 0.21 0.17 0.20 0.23 0.27 0.24 0.23 0.30 0.45 0.49 0.39 0.14 0.03 0.08 0.18 0.15 0.73 0.82 1.12 1.71 1.59 0.54 0.14 0.09 0.07 0.11 0.11 0.08 0.10 0.10 0.05 0.02
0.14 0.12 0.08 0.10 0.11 0.16 0.16 0.22 0.19 0.24 0.27 0.31 0.29 0.22 0.22 0.15 0.16 0.30 0.41 0.50 0.55 0.44 0.49 0.56 0.57 0.57 0.14 0.04 0.26 0.21 0.22 0.82 1.05 1.43 2.41 2.63 1.24 0.24 0.08 0.05 0.04 0.00 0.00 0.02 0.05 0.05 0.04
0.18 0.18 0.14 0.13 0.15 0.16 0.21 0.22 0.16 0.29 0.30 0.29 0.22 0.21 0.21 0.19 0.26 0.53 0.66 0.87 1.07 0.85 0.67 0.47 0.32 0.23 0.15 0.23 0.21 0.23 0.38 1.41 1.76 1.93 2.34 2.43 1.29 0.19 0.02 0.00 0.00 0.00 0.00 0.01 0.04 0.07 0.05
0.22 0.21 0.14 0.15 0.16 0.17 0.20 0.17 0.18 0.31 0.28 0.26 0.22 0.30 0.40 0.33 0.36 0.56 0.78 0.75 0.64 0.54 0.41 0.31 0.19 0.15 0.08 0.23 0.34 0.35 0.70 2.65 2.12 1.71 1.70 1.80 0.72 0.07 0.02 0.00 0.00 0.00 0.00 0.00 0.02 0.05 0.09
0.15 0.10 0.14 0.16 0.15 0.17 0.18 0.13 0.20 0.30 0.25 0.33 0.37 0.44 0.39 0.37 0.30 0.54 0.55 0.49 0.53 0.58 0.54 0.60 0.42 0.19 0.30 0.60 0.56 0.54 1.35 2.34 1.53 1.18 1.24 0.96 0.34 0.08 0.11 0.03 0.01 0.00 0.00 0.00 0.01 0.03 0.05
0.12 0.14 0.12 0.12 0.14 0.15 0.15 0.13 0.23 0.31 0.27 0.40 0.44 0.43 0.35 0.39 0.36 0.54 0.46 0.45 0.74 0.97 1.17 1.04 0.74 0.55 0.61 0.80 0.75 0.65 1.32 1.73 1.48 1.18 1.60 1.26 0.37 0.12 0.12 0.11 0.00 0.00 0.00 0.00 0.00 0.00 0.00
0.14 0.16 0.10 0.11 0.13 0.15 0.15 0.16 0.27 0.29 0.30 0.34 0.31 0.26 0.32 0.58 0.75 0.68 0.48 0.51 0.85 1.38 1.70 1.14 0.95 0.78 0.85 0.68 0.49 0.68 1.19 1.09 0.67 0.97 1.31 1.18 0.48 0.19 0.15 0.08 0.02 0.00 0.00 0.00 0.00 0.01 0.01
0.14 0.14 0.09 0.13 0.12 0.16 0.14 0.16 0.22 0.23 0.27 0.24 0.24 0.25 0.40 0.47 0.81 0.59 0.44 0.95 1.03 1.43 1.68 1.70 1.31 0.95 0.72 0.42 0.33 0.49 0.97 0.74 0.70 0.79 0.80 0.65 0.42 0.35 0.23 0.06 0.03 0.00 0.00 0.00 0.00 0.02 0.04
0.06 0.10 0.11 0.12 0.13 0.14 0.13 0.17 0.12 0.18 0.22 0.22 0.20 0.23 0.47 0.43 0.44 0.38 0.78 1.41 1.34 1.04 1.12 0.97 0.76 0.39 0.31 0.33 0.30 0.38 0.73 0.71 0.73 0.89 1.18 1.06 0.66 0.30 0.21 0.06 0.05 0.00 0.04 0.09 0.09 0.11 0.03
0.07 0.11 0.13 0.13 0.13 0.12 0.15 0.12 0.05 0.09 0.17 0.30 0.46 0.36 0.29 0.25 0.27 0.73 1.28 1.06 1.10 0.70 0.87 0.45 0.30 0.34 0.32 0.21 0.31 0.29 0.41 0.44 0.22 0.15 0.61 0.88 0.95 0.39 0.30 0.05 0.03 0.00 0.02 0.06 0.02 0.01 0.00
0.12 0.14 0.14 0.13 0.11 0.10 0.12 0.07 0.03 0.06 0.24 0.69 0.49 0.18 0.21 0.13 0.26 0.98 1.09 0.96 0.90 0.89 0.61 0.20 0.27 0.36 0.34 0.15 0.16 0.21 0.29 0.21 0.13 0.11 0.28 0.21 0.27 0.21 0.19 0.06 0.04 0.10 0.12 0.04 0.15 0.10 0.12
0.14 0.15 0.16 0.12 0.11 0.10 0.09 0.06 0.02 0.07 0.24 0.71 0.45 0.20 0.30 0.20 0.36 0.93 0.78 0.83 0.54 0.43 0.09 0.02 0.18 0.14 0.11 0.08 0.07 0.07 0.13 0.08 0.03 0.03 0.01 0.01 0.13 0.16 0.14 0.12 0.06 0.02 0.03 0.11 0.24 0.15 0.06
0.20 0.23 0.22 0.13 0.11 0.08 0.07 0.04 0.03 0.05 0.18 0.32 0.45 0.23 0.35 0.31 0.59 0.96 0.73 0.70 0.40 0.15 0.03 0.04 0.03 0.01 0.00 0.02 0.01 0.00 0.01 0.02 0.02 0.01 0.00 0.00 0.04 0.13 0.21 0.23 0.08 0.02 0.09 0.12 0.17 0.14 0.08
0.23 0.17 0.15 0.11 0.12 0.06 0.06 0.02 0.03 0.05 0.20 0.31 0.59 0.47 0.21 0.32 0.66 0.78 0.66 0.56 0.45 0.16 0.02 0.00 0.01 0.01 0.00 0.00 0.00 0.00 0.00 0.00 0.00 0.00 0.00 0.00 0.04 0.08 0.11 0.03 0.00 0.01 0.01 0.04 0.22 0.08 0.13
0.35 0.32 0.17 0.10 0.10 0.06 0.04 0.01 0.01 0.05 0.23 0.42 0.48 0.46 0.27 0.27 0.31 0.28 0.38 0.31 0.13 0.08 0.04 0.00 0.01 0.02 0.02 0.01 0.00 0.00 0.00 0.00 0.00 0.00 0.00 0.00 0.05 0.10 0.16 0.13 0.06 0.06 0.02 0.10 0.21 0.39 0.24
0.37 0.39 0.25 0.17 0.11 0.06 0.03 0.01 0.01 0.04 0.07 0.42 0.69 0.72 0.54 0.32 0.15 0.08 0.29 0.21 0.12 0.09 0.02 0.00 0.00 0.00 0.00 0.00 0.00 0.00 0.00 0.00 0.00 0.00 0.00 0.01 0.03 0.02 0.05 0.08 0.20 0.18 0.03 0.10 0.42 0.55 0.09
0.22 0.33 0.26 0.17 0.10 0.06 0.01 0.00 0.01 0.04 0.18 0.56 0.52 0.20 0.14 0.16 0.10 0.10 0.15 0.18 0.11 0.04 0.01 0.00 0.01 0.00 0.00 0.01 0.00 0.00 0.00 0.00 0.00 0.00 0.01 0.04 0.05 0.02 0.02 0.06 0.22 0.20 0.08 0.07 0.32 0.17 0.23
0.24 0.23 0.23 0.13 0.05 0.05 0.01 0.00 0.00 0.06 0.19 0.44 0.36 0.09 0.01 0.01 0.05 0.05 0.04 0.08 0.04 0.00 0.01 0.00 0.01 0.00 0.01 0.01 0.00 0.00 0.00 0.00 0.01 0.00 0.02 0.05 0.09 0.06 0.06 0.05 0.10 0.16 0.04 0.06 0.05 0.02 0.02
0.35 0.26 0.21 0.09 0.04 0.05 0.01 0.01 0.01 0.04 0.12 0.15 0.33 0.11 0.03 0.05 0.04 0.01 0.02 0.00 0.01 0.00 0.00 0.01 0.01 0.03 0.02 0.01 0.00 0.00 0.00 0.00 0.00 0.01 0.03 0.06 0.08 0.15 0.07 0.04 0.11 0.13 0.04 0.02 0.01 0.00 0.01
0.40 0.29 0.16 0.10 0.05 0.03 0.01 0.01 0.01 0.02 0.07 0.09 0.21 0.16 0.03 0.04 0.01 0.00 0.00 0.00 0.00 0.00 0.01 0.00 0.00 0.04 0.03 0.01 0.01 0.01 0.00 0.00 0.01 0.00 0.01 0.02 0.06 0.19 0.09 0.09 0.24 0.13 0.02 0.00 0.00 0.00 0.00
0.38 0.25 0.11 0.07 0.06 0.03 0.02 0.01 0.02 0.01 0.03 0.04 0.18 0.15 0.07 0.02 0.00 0.00 0.00 0.00 0.00 0.00 0.00 0.00 0.00 0.00 0.01 0.02 0.05 0.05 0.02 0.01 0.00 0.00 0.01 0.01 0.06 0.18 0.16 0.17 0.09 0.01 0.00 0.00 0.00 0.00 0.00
0.32 0.23 0.11 0.06 0.07 0.06 0.05 0.02 0.03 0.01 0.01 0.02 0.11 0.19 0.15 0.04 0.00 0.00 0.00 0.00 0.00 0.00 0.02 0.02 0.03 0.01 0.01 0.06 0.14 0.10 0.03 0.01 0.01 0.02 0.01 0.02 0.03 0.16 0.10 0.09 0.01 0.01 0.00 0.00 0.02 0.01 0.00
0.34 0.20 0.08 0.07 0.07 0.07 0.07 0.06 0.05 0.02 0.01 0.01 0.08 0.14 0.22 0.07 0.01 0.00 0.00 0.00 0.00 0.01 0.02 0.02 0.06 0.02 0.03 0.10 0.16 0.07 0.02 0.00 0.01 0.01 0.03 0.07 0.10 0.15 0.13 0.15 0.00 0.00 0.00 0.00 0.00 0.01 0.00
0.34 0.18 0.10 0.07 0.05 0.07 0.08 0.08 0.12 0.07 0.02 0.03 0.06 0.09 0.22 0.12 0.02 0.00 0.00 0.01 0.01 0.02 0.03 0.01 0.02 0.02 0.06 0.13 0.12 0.07 0.02 0.01 0.00 0.00 0.00 0.02 0.04 0.06 0.07 0.08 0.00 0.00 0.00 0.00 0.00 0.00 0.00
0.36 0.18 0.09 0.06 0.05 0.07 0.08 0.08 0.19 0.12 0.09 0.07 0.04 0.08 0.15 0.14 0.04 0.00 0.00 0.00 0.00 0.01 0.01 0.00 0.03 0.01 0.04 0.12 0.16 0.10 0.04 0.01 0.00 0.00 0.00 0.00 0.00 0.00 0.00 0.00 0.00 0.00 0.00 0.00 0.00 0.00 0.00

GFSGBSN_prec_precacc_060.txt.gz
Total_Precipitation_Accumulation
0.03 0.04 0.05 0.05 0.04 0.05 0.08 0.14 0.14 0.13 0.18 0.22 0.31 0.42 0.46 0.40 0.35 0.30 0.26 0.23 0.23 0.26 0.28 0.32 0.31 0.72 0.60 0.54 0.19 0.19 0.21 0.27 0.67 0.98 0.47 0.20 0.09 0.10 0.04 0.06 0.37 0.19 0.10 0.17 0.26 0.20 0.13
0.04 0.05 0.06 0.04 0.05 0.07 0.12 0.16 0.14 0.15 0.19 0.28 0.45 0.45 0.38 0.36 0.34 0.26 0.25 0.24 0.24 0.30 0.19 0.19 0.48 0.55 0.48 0.37 0.08 0.11 0.25 0.43 0.64 0.97 0.56 0.28 0.09 0.08 0.04 0.08 0.19 0.21 0.18 0.18 0.23 0.19 0.18
0.05 0.06 0.07 0.06 0.06 0.10 0.15 0.15 0.15 0.18 0.22 0.30 0.44 0.38 0.39 0.38 0.27 0.20 0.20 0.21 0.19 0.26 0.19 0.21 0.37 0.52 0.26 0.16 0.07 0.15 0.24 0.56 0.63 0.86 0.62 0.36 0.14 0.14 0.05 0.09 0.08 0.20 0.30 0.39 0.24 0.15 0.15
0.08 0.10 0.07 0.10 0.09 0.12 0.17 0.16 0.17 0.19 0.27 0.30 0.36 0.33 0.36 0.31 0.23 0.19 0.18 0.16 0.12 0.16 0.26 0.24 0.44 0.45 0.14 0.02 0.08 0.14 0.17 0.62 0.63 0.95 1.11 0.85 0.23 0.13 0.07 0.06 0.11 0.21 0.50 0.39 0.20 0.17 0.13
0.12 0.12 0.12 0.17 0.16 0.19 0.19 0.20 0.20 0.23 0.27 0.29 0.34 0.33 0.30 0.21 0.18 0.20 0.24 0.27 0.24 0.23 0.30 0.45 0.49 0.39 0.14 0.03 0.08 0.18 0.15 0.73 0.83 1.13 1.86 1.66 0.73 0.19 0.12 0.10 0.16 0.17 0.21 0.30 0.17 0.06 0.04
0.15 0.17 0.18 0.24 0.20 0.21 0.21 0.24 0.20 0.24 0.28 0.31 0.29 0.23 0.22 0.15 0.16 0.30 0.41 0.50 0.55 0.44 0.49 0.56 0.57 0.58 0.15 0.05 0.28 0.21 0.22 0.83 1.09 1.48 2.67 2.91 1.43 0.36 0.12 0.08 0.06 0.02 0.02 0.09 0.15 0.07 0.04
0.18 0.20 0.27 0.24 0.19 0.21 0.26 0.24 0.17 0.29 0.30 0.29 0.22 0.21 0.21 0.20 0.27 0.53 0.66 0.87 1.07 0.85 0.67 0.47 0.32 0.23 0.15 0.24 0.22 0.24 0.39 1.49 1.87 2.06 2.61 2.76 1.46 0.32 0.04 0.00 0.00 0.00 0.00 0.01 0.05 0.10 0.06
0.22 0.24 0.20 0.17 0.19 0.21 0.23 0.18 0.18 0.31 0.28 0.26 0.22 0.30 0.40 0.34 0.36 0.56 0.79 0.75 0.64 0.54 0.41 0.31 0.19 0.15 0.08 0.23 0.38 0.37 0.71 2.71 2.25 1.93 1.93 2.03 0.80 0.10 0.03 0.00 0.00 0.00 0.00 0.02 0.07 0.10 0.11
0.15 0.12 0.18 0.21 0.21 0.22 0.20 0.13 0.20 0.30 0.25 0.33 0.37 0.44 0.39 0.37 0.30 0.54 0.55 0.49 0.53 0.58 0.55 0.60 0.42 0.19 0.30 0.62 0.60 0.61 1.39 2.45 1.61 1.33 1.39 1.09 0.38 0.14 0.12 0.03 0.01 0.00 0.00 0.03 0.03 0.06 0.06
0.13 0.17 0.21 0.19 0.21 0.19 0.15 0.13 0.23 0.31 0.27 0.40 0.44 0.43 0.36 0.39 0.36 0.54 0.46 0.45 0.74 0.97 1.18 1.05 0.74 0.55 0.61 0.81 0.79 0.65 1.36 1.88 1.60 1.27 1.62 1.29 0.41 0.18 0.13 0.12 0.00 0.00 0.00 0.01 0.01 0.01 0.01
0.16 0.18 0.16 0.16 0.18 0.16 0.16 0.16 0.27 0.29 0.30 0.34 0.31 0.26 0.32 0.58 0.75 0.68 0.48 0.51 0.85 1.38 1.73 1.15 0.95 0.78 0.85 0.69 0.52 0.69 1.21 1.13 0.68 0.98 1.32 1.19 0.57 0.27 0.17 0.08 0.02 0.00 0.00 0.01 0.02 0.01 0.01
0.16 0.18 0.17 0.20 0.20 0.17 0.14 0.16 0.22 0.23 0.27 0.24 0.24 0.25 0.40 0.47 0.81 0.59 0.44 0.95 1.03 1.45 1.69 1.70 1.31 0.95 0.72 0.44 0.34 0.51 1.06 0.76 0.72 0.80 0.80 0.67 0.53 0.40 0.25 0.06 0.03 0.00 0.00 0.00 0.00 0.02 0.04
0.09 0.12 0.13 0.15 0.17 0.19 0.15 0.17 0.12 0.18 0.22 0.22 0.20 0.23 0.47 0.43 0.44 0.38 0.78 1.41 1.35 1.05 1.13 0.97 0.76 0.40 0.31 0.33 0.30 0.40 0.76 0.72 0.73 0.90 1.26 1.15 0.75 0.34 0.23 0.07 0.05 0.00 0.04 0.09 0.10 0.11 0.03
0.11 0.14 0.15 0.17 0.20 0.21 0.19 0.12 0.05 0.09 0.17 0.30 0.46 0.36 0.29 0.25 0.27 0.73 1.29 1.06 1.11 0.70 0.87 0.45 0.30 0.34 0.32 0.22 0.31 0.30 0.43 0.44 0.23 0.15 0.68 1.02 1.17 0.48 0.31 0.05 0.03 0.01 0.02 0.07 0.03 0.01 0.00
0.16 0.18 0.17 0.23 0.28 0.23 0.15 0.07 0.03 0.06 0.24 0.69 0.49 0.18 0.21 0.13 0.26 0.98 1.09 0.97 0.90 0.89 0.61 0.20 0.27 0.37 0.35 0.15 0.16 0.22 0.32 0.22 0.13 0.11 0.30 0.27 0.40 0.26 0.20 0.06 0.04 0.10 0.12 0.04 0.15 0.10 0.12
0.18 0.21 0.22 0.25 0.28 0.19 0.11 0.06 0.02 0.07 0.24 0.71 0.45 0.20 0.30 0.20 0.36 0.93 0.79 0.83 0.54 0.43 0.09 0.02 0.18 0.14 0.11 0.08 0.07 0.07 0.15 0.08 0.03 0.03 0.01 0.01 0.16 0.18 0.14 0.12 0.06 0.02 0.03 0.11 0.25 0.15 0.06
0.28 0.32 0.30 0.30 0.39 0.25 0.11 0.04 0.03 0.05 0.18 0.32 0.45 0.24 0.35 0.31 0.59 0.96 0.73 0.71 0.41 0.15 0.03 0.05 0.03 0.01 0.01 0.02 0.01 0.01 0.02 0.03 0.02 0.01 0.00 0.00 0.05 0.16 0.22 0.25 0.09 0.02 0.09 0.12 0.17 0.14 0.09
0.38 0.32 0.27 0.33 0.40 0.25 0.11 0.02 0.03 0.05 0.20 0.31 0.59 0.47 0.21 0.32 0.67 0.78 0.66 0.57 0.46 0.16 0.03 0.00 0.01 0.01 0.01 0.00 0.00 0.00 0.00 0.00 0.00 0.00 0.00 0.00 0.04 0.08 0.13 0.03 0.01 0.02 0.01 0.04 0.23 0.09 0.13
0.52 0.53 0.32 0.30 0.38 0.23 0.08 0.01 0.01 0.05 0.23 0.42 0.48 0.46 0.27 0.27 0.31 0.28 0.39 0.31 0.13 0.08 0.04 0.00 0.01 0.02 0.02 0.01 0.00 0.00 0.00 0.00 0.00 0.00 0.00 0.00 0.05 0.10 0.17 0.14 0.06 0.06 0.02 0.10 0.21 0.39 0.25
0.50 0.57 0.49 0.38 0.36 0.19 0.06 0.01 0.01 0.04 0.07 0.42 0.69 0.73 0.54 0.32 0.15 0.08 0.29 0.22 0.12 0.09 0.02 0.00 0.00 0.00 0.00 0.00 0.00 0.00 0.00 0.00 0.00 0.00 0.00 0.01 0.03 0.02 0.06 0.08 0.20 0.18 0.03 0.10 0.42 0.55 0.09
0.41 0.49 0.50 0.46 0.39 0.22 0.05 0.01 0.01 0.04 0.18 0.56 0.52 0.20 0.14 0.16 0.10 0.10 0.15 0.18 0.12 0.04 0.01 0.00 0.01 0.00 0.00 0.01 0.00 0.00 0.00 0.00 0.00 0.00 0.01 0.04 0.05 0.02 0.02 0.06 0.22 0.20 0.08 0.07 0.32 0.17 0.23
0.50 0.43 0.46 0.44 0.31 0.20 0.05 0.01 0.00 0.06 0.19 0.44 0.36 0.09 0.01 0.01 0.05 0.05 0.05 0.09 0.05 0.00 0.01 0.01 0.01 0.00 0.01 0.01 0.01 0.00 0.00 0.00 0.01 0.00 0.02 0.05 0.09 0.06 0.06 0.05 0.10 0.16 0.04 0.06 0.06 0.02 0.02
0.61 0.51 0.47 0.44 0.29 0.16 0.04 0.01 0.01 0.04 0.12 0.15 0.33 0.11 0.03 0.05 0.04 0.01 0.02 0.00 0.01 0.00 0.01 0.01 0.01 0.03 0.02 0.01 0.00 0.00 0.00 0.00 0.00 0.01 0.03 0.06 0.08 0.15 0.07 0.04 0.11 0.13 0.04 0.02 0.01 0.00 0.01
0.60 0.53 0.47 0.46 0.25 0.10 0.02 0.01 0.01 0.02 0.07 0.09 0.21 0.16 0.03 0.04 0.01 0.00 0.00 0.00 0.00 0.00 0.01 0.00 0.00 0.04 0.03 0.01 0.01 0.01 0.00 0.00 0.01 0.00 0.01 0.02 0.06 0.19 0.09 0.09 0.24 0.13 0.02 0.00 0.00 0.00 0.00
0.62 0.67 0.52 0.44 0.24 0.08 0.03 0.01 0.02 0.01 0.03 0.04 0.18 0.15 0.07 0.02 0.00 0.00 0.00 0.00 0.00 0.00 0.00 0.00 0.00 0.00 0.01 0.02 0.05 0.05 0.02 0.01 0.00 0.00 0.01 0.01 0.06 0.18 0.16 0.17 0.09 0.01 0.00 0.00 0.00 0.00 0.00
0.44 0.52 0.57 0.38 0.21 0.10 0.05 0.02 0.03 0.01 0.01 0.02 0.11 0.19 0.15 0.04 0.00 0.00 0.00 0.00 0.00 0.00 0.02 0.02 0.03 0.01 0.01 0.06 0.15 0.10 0.04 0.01 0.01 0.02 0.01 0.02 0.03 0.16 0.10 0.09 0.01 0.01 0.00 0.00 0.02 0.01 0.00
0.43 0.42 0.45 0.37 0.19 0.10 0.07 0.06 0.05 0.02 0.01 0.01 0.08 0.14 0.22 0.07 0.01 0.00 0.00 0.00 0.00 0.01 0.02 0.02 0.06 0.02 0.03 0.11 0.17 0.08 0.02 0.00 0.01 0.01 0.03 0.07 0.10 0.15 0.14 0.15 0.00 0.00 0.00 0.00 0.00 0.01 0.00
0.67 0.54 0.46 0.35 0.17 0.11 0.09 0.08 0.12 0.07 0.02 0.03 0.06 0.09 0.22 0.12 0.02 0.00 0.00 0.01 0.01 0.02 0.03 0.01 0.02 0.02 0.06 0.14 0.13 0.07 0.03 0.01 0.00 0.00 0.00 0.02 0.04 0.06 0.07 0.08 0.00 0.00 0.00 0.00 0.00 0.00 0.00
0.66 0.68 0.51 0.32 0.16 0.10 0.08 0.08 0.19 0.12 0.09 0.07 0.04 0.08 0.15 0.14 0.04 0.00 0.00 0.00 0.00 0.01 0.01 0.00 0.03 0.01 0.04 0.12 0.16 0.10 0.04 0.01 0.00 0.00 0.00 0.00 0.00 0.00 0.00 0.00 0.00 0.00 0.00 0.00 0.00 0.00 0.00

GFSGBSN_prec_precacc_063.txt.gz
Total_Precipitation_Accumulation
0.03 0.04 0.05 0.06 0.05 0.05 0.09 0.14 0.14 0.13 0.18 0.23 0.31 0.43 0.47 0.41 0.35 0.30 0.26 0.24 0.25 0.27 0.29 0.32 0.31 0.72 0.60 0.54 0.20 0.19 0.21 0.27 0.67 0.99 0.54 0.25 0.16 0.16 0.06 0.07 0.45 0.33 0.31 0.27 0.35 0.24 0.15
0.07 0.07 0.07 0.06 0.07 0.09 0.13 0.17 0.15 0.15 0.19 0.28 0.45 0.46 0.39 0.37 0.34 0.27 0.25 0.24 0.26 0.31 0.19 0.19 0.48 0.55 0.48 0.37 0.08 0.11 0.25 0.43 0.64 1.01 0.61 0.32 0.16 0.23 0.09 0.10 0.25 0.28 0.40 0.33 0.43 0.32 0.21
0.07 0.08 0.09 0.08 0.10 0.14 0.18 0.20 0.16 0.19 0.22 0.30 0.45 0.39 0.39 0.39 0.28 0.21 0.20 0.21 0.19 0.27 0.19 0.21 0.37 0.52 0.26 0.16 0.07 0.15 0.24 0.56 0.63 0.90 0.67 0.42 0.21 0.23 0.11 0.13 0.10 0.26 0.39 0.52 0.49 0.33 0.25
0.09 0.12 0.10 0.14 0.16 0.18 0.23 0.19 0.19 0.20 0.27 0.30 0.37 0.33 0.37 0.31 0.23 0.20 0.19 0.16 0.12 0.16 0.26 0.24 0.44 0.45 0.14 0.02 0.08 0.14 0.17 0.62 0.63 0.97 1.14 0.90 0.30 0.25 0.10 0.10 0.14 0.26 0.64 0.60 0.31 0.47 0.17
0.13 0.13 0.13 0.19 0.22 0.27 0.24 0.24 0.23 0.24 0.28 0.29 0.34 0.33 0.30 0.21 0.18 0.21 0.24 0.27 0.24 0.23 0.30 0.45 0.49 0.39 0.14 0.03 0.08 0.18 0.15 0.73 0.83 1.15 1.87 1.67 0.79 0.34 0.16 0.14 0.20 0.19 0.29 0.36 0.29 0.27 0.24
0.16 0.17 0.19 0.26 0.26 0.28 0.23 0.29 0.23 0.25 0.28 0.31 0.29 0.23 0.23 0.16 0.17 0.31 0.41 0.50 0.55 0.44 0.49 0.56 0.57 0.58 0.15 0.05 0.28 0.21 0.23 0.84 1.09 1.52 2.72 2.94 1.66 0.49 0.15 0.11 0.08 0.03 0.02 0.10 0.19 0.16 0.10
0.20 0.22 0.28 0.26 0.22 0.22 0.28 0.30 0.20 0.29 0.30 0.29 0.23 0.21 0.22 0.20 0.27 0.53 0.66 0.87 1.07 0.85 0.67 0.47 0.32 0.23 0.15 0.24 0.23 0.24 0.42 1.50 1.89 2.11 2.67 2.79 1.70 0.42 0.04 0.00 0.00 0.00 0.00 0.01 0.05 0.14 0.13
0.25 0.25 0.22 0.19 0.22 0.23 0.28 0.23 0.19 0.31 0.28 0.26 0.22 0.30 0.40 0.34 0.36 0.56 0.79 0.75 0.64 0.54 0.41 0.31 0.19 0.15 0.08 0.24 0.45 0.38 0.71 2.73 2.35 2.00 1.98 2.08 0.89 0.13 0.04 0.00 0.00 0.01 0.00 0.03 0.07 0.12 0.13
0.17 0.15 0.20 0.25 0.24 0.25 0.27 0.17 0.21 0.30 0.25 0.33 0.37 0.44 0.39 0.37 0.30 0.54 0.55 0.49 0.53 0.58 0.55 0.60 0.42 0.19 0.30 0.67 0.65 0.66 1.40 2.47 1.71 1.42 1.47 1.12 0.42 0.24 0.20 0.05 0.03 0.01 0.00 0.05 0.06 0.13 0.10
0.16 0.21 0.26 0.23 0.24 0.23 0.21 0.16 0.24 0.31 0.27 0.40 0.44 0.43 0.36 0.39 0.36 0.54 0.46 0.45 0.74 0.97 1.19 1.05 0.74 0.55 0.61 0.86 0.86 0.66 1.37 1.91 1.70 1.51 1.76 1.38 0.42 0.24 0.21 0.13 0.01 0.00 0.00 0.02 0.09 0.06 0.03
0.18 0.21 0.21 0.21 0.21 0.23 0.26 0.23 0.28 0.29 0.30 0.34 0.31 0.26 0.33 0.58 0.75 0.68 0.48 0.51 0.85 1.38 1.75 1.15 0.95 0.78 0.85 0.70 0.55 0.72 1.29 1.24 0.79 1.10 1.35 1.25 0.58 0.33 0.21 0.09 0.03 0.02 0.00 0.04 0.08 0.03 0.02
0.18 0.22 0.23 0.26 0.25 0.28 0.25 0.23 0.23 0.23 0.27 0.24 0.24 0.25 0.41 0.47 0.81 0.59 0.44 0.95 1.03 1.46 1.70 1.70 1.31 0.95 0.72 0.44 0.36 0.58 1.11 0.78 0.74 0.80 0.83 0.70 0.61 0.45 0.28 0.08 0.04 0.01 0.01 0.08 0.04 0.03 0.04
0.13 0.18 0.20 0.21 0.22 0.27 0.25 0.25 0.14 0.19 0.22 0.22 0.20 0.23 0.47 0.43 0.44 0.38 0.78 1.41 1.35 1.06 1.13 0.97 0.76 0.40 0.31 0.33 0.30 0.41 0.77 0.72 0.74 0.90 1.29 1.23 0.92 0.35 0.23 0.07 0.05 0.00 0.04 0.15 0.13 0.11 0.03
0.16 0.20 0.23 0.25 0.30 0.32 0.31 0.23 0.10 0.10 0.17 0.30 0.46 0.36 0.29 0.25 0.27 0.73 1.29 1.06 1.11 0.70 0.87 0.45 0.30 0.34 0.33 0.22 0.31 0.31 0.43 0.44 0.23 0.15 0.70 1.12 1.28 0.49 0.31 0.05 0.03 0.01 0.02 0.07 0.03 0.01 0.00
0.22 0.28 0.28 0.34 0.41 0.40 0.33 0.22 0.09 0.06 0.24 0.69 0.49 0.18 0.21 0.13 0.26 0.98 1.09 0.97 0.90 0.89 0.61 0.20 0.27 0.37 0.35 0.15 0.16 0.22 0.32 0.22 0.14 0.11 0.31 0.31 0.44 0.28 0.20 0.06 0.04 0.10 0.12 0.04 0.15 0.10 0.12
0.35 0.36 0.35 0.38 0.42 0.34 0.29 0.20 0.10 0.08 0.24 0.71 0.45 0.20 0.30 0.20 0.36 0.93 0.79 0.84 0.54 0.43 0.09 0.02 0.18 0.14 0.11 0.08 0.07 0.08 0.15 0.08 0.03 0.03 0.01 0.01 0.23 0.23 0.15 0.12 0.06 0.02 0.03 0.11 0.25 0.15 0.06
0.49 0.41 0.43 0.46 0.56 0.42 0.34 0.23 0.11 0.06 0.18 0.32 0.45 0.24 0.35 0.31 0.59 0.96 0.73 0.71 0.41 0.15 0.03 0.05 0.03 0.01 0.01 0.02 0.01 0.01 0.02 0.03 0.02 0.01 0.00 0.00 0.07 0.19 0.22 0.25 0.10 0.02 0.09 0.12 0.17 0.14 0.09
0.47 0.40 0.47 0.60 0.67 0.42 0.33 0.21 0.12 0.06 0.20 0.31 0.59 0.47 0.21 0.32 0.67 0.78 0.66 0.57 0.46 0.16 0.03 0.00 0.01 0.01 0.01 0.00 0.00 0.00 0.01 0.01 0.00 0.00 0.00 0.00 0.04 0.09 0.13 0.03 0.01 0.02 0.01 0.04 0.23 0.09 0.13
0.60 0.63 0.56 0.64 0.68 0.49 0.26 0.15 0.10 0.07 0.23 0.42 0.48 0.46 0.27 0.27 0.31 0.28 0.39 0.31 0.13 0.08 0.04 0.01 0.01 0.02 0.02 0.01 0.00 0.00 0.00 0.00 0.00 0.00 0.00 0.00 0.05 0.11 0.17 0.15 0.06 0.06 0.02 0.10 0.21 0.39 0.25
0.53 0.65 0.64 0.56 0.51 0.48 0.26 0.14 0.06 0.04 0.07 0.42 0.69 0.73 0.55 0.33 0.15 0.08 0.29 0.22 0.12 0.09 0.02 0.00 0.00 0.00 0.00 0.00 0.00 0.00 0.00 0.00 0.00 0.00 0.00 0.01 0.03 0.02 0.06 0.09 0.20 0.18 0.03 0.10 0.42 0.55 0.09
0.45 0.61 0.75 0.65 0.54 0.47 0.21 0.13 0.04 0.04 0.18 0.56 0.52 0.20 0.14 0.16 0.10 0.10 0.15 0.18 0.12 0.04 0.01 0.00 0.01 0.00 0.00 0.01 0.00 0.00 0.00 0.00 0.00 0.00 0.01 0.04 0.05 0.02 0.02 0.06 0.22 0.20 0.08 0.07 0.32 0.17 0.23
0.60 0.58 0.72 0.69 0.53 0.50 0.30 0.13 0.05 0.06 0.19 0.44 0.36 0.09 0.01 0.01 0.05 0.05 0.05 0.09 0.05 0.00 0.01 0.01 0.01 0.00 0.01 0.01 0.01 0.00 0.00 0.00 0.01 0.00 0.02 0.05 0.09 0.06 0.06 0.05 0.10 0.16 0.04 0.06 0.06 0.02 0.02
0.77 0.81 0.94 0.93 0.75 0.50 0.29 0.16 0.05 0.05 0.12 0.15 0.33 0.11 0.03 0.05 0.04 0.01 0.02 0.00 0.01 0.00 0.01 0.01 0.01 0.03 0.02 0.01 0.00 0.00 0.00 0.00 0.00 0.01 0.03 0.06 0.08 0.15 0.07 0.04 0.11 0.13 0.04 0.02 0.01 0.00 0.01
0.75 0.74 0.68 0.70 0.53 0.44 0.26 0.17 0.05 0.02 0.07 0.09 0.21 0.16 0.03 0.04 0.01 0.00 0.00 0.00 0.00 0.00 0.01 0.00 0.00 0.04 0.03 0.01 0.01 0.01 0.00 0.00 0.01 0.00 0.01 0.02 0.06 0.19 0.09 0.09 0.24 0.13 0.02 0.00 0.00 0.00 0.00
0.78 0.98 1.05 1.07 0.78 0.50 0.26 0.15 0.04 0.01 0.03 0.04 0.18 0.15 0.07 0.02 0.00 0.00 0.00 0.00 0.00 0.00 0.00 0.00 0.00 0.00 0.01 0.02 0.05 0.05 0.02 0.01 0.00 0.00 0.01 0.01 0.06 0.18 0.16 0.17 0.09 0.01 0.00 0.00 0.00 0.00 0.00
0.56 0.71 0.82 0.79 0.76 0.60 0.38 0.17 0.03 0.01 0.01 0.02 0.11 0.19 0.15 0.04 0.00 0.00 0.00 0.00 0.00 0.00 0.02 0.02 0.03 0.01 0.01 0.06 0.15 0.10 0.04 0.01 0.01 0.02 0.01 0.02 0.03 0.16 0.10 0.09 0.01 0.01 0.00 0.00 0.02 0.01 0.00
0.51 0.52 0.52 0.48 0.42 0.41 0.32 0.15 0.05 0.02 0.01 0.01 0.08 0.14 0.22 0.07 0.01 0.00 0.00 0.00 0.00 0.01 0.02 0.02 0.06 0.02 0.03 0.11 0.17 0.08 0.02 0.00 0.01 0.01 0.03 0.07 0.10 0.15 0.14 0.15 0.00 0.00 0.00 0.00 0.00 0.01 0.00
0.85 0.91 0.90 0.62 0.40 0.34 0.25 0.12 0.12 0.07 0.02 0.03 0.06 0.09 0.22 0.12 0.02 0.00 0.00 0.01 0.01 0.02 0.03 0.01 0.02 0.02 0.06 0.14 0.13 0.07 0.03 0.01 0.00 0.00 0.00 0.02 0.04 0.06 0.07 0.09 0.01 0.00 0.00 0.00 0.00 0.00 0.00
0.84 0.91 0.96 0.89 0.50 0.36 0.26 0.11 0.19 0.12 0.09 0.07 0.04 0.08 0.15 0.14 0.04 0.00 0.00 0.00 0.00 0.01 0.01 0.00 0.03 0.01 0.04 0.12 0.16 0.10 0.04 0.01 0.00 0.00 0.00 0.00 0.00 0.00 0.00 0.00 0.00 0.00 0.00 0.00 0.00 0.00 0.00

GFSGBSN_prec_precacc_066.txt.gz
Total_Precipitation_Accumulation
0.07 0.08 0.09 0.08 0.07 0.07 0.12 0.16 0.16 0.14 0.19 0.23 0.31 0.43 0.48 0.41 0.35 0.30 0.26 0.24 0.25 0.29 0.30 0.33 0.31 0.72 0.60 0.54 0.20 0.19 0.21 0.27 0.68 1.05 0.66 0.30 0.21 0.25 0.10 0.08 0.72 0.39 0.35 0.33 0.39 0.30 0.18
0.10 0.10 0.10 0.09 0.09 0.11 0.16 0.21 0.20 0.17 0.20 0.28 0.46 0.47 0.39 0.37 0.35 0.28 0.26 0.24 0.26 0.32 0.20 0.19 0.48 0.55 0.48 0.37 0.08 0.11 0.25 0.43 0.65 1.06 0.69 0.41 0.21 0.29 0.14 0.12 0.44 0.40 0.44 0.43 0.51 0.40 0.26
0.10 0.11 0.11 0.11 0.13 0.18 0.22 0.25 0.23 0.23 0.23 0.31 0.45 0.39 0.40 0.39 0.28 0.21 0.21 0.21 0.19 0.27 0.19 0.21 0.37 0.52 0.26 0.16 0.07 0.15 0.24 0.56 0.63 0.92 0.71 0.50 0.22 0.26 0.15 0.17 0.16 0.39 0.45 0.73 0.68 0.48 0.40
0.12 0.15 0.12 0.16 0.19 0.22 0.27 0.26 0.26 0.24 0.30 0.31 0.37 0.33 0.37 0.31 0.24 0.20 0.19 0.16 0.12 0.16 0.26 0.24 0.44 0.45 0.14 0.02 0.08 0.14 0.17 0.62 0.63 1.00 1.19 0.98 0.32 0.25 0.13 0.15 0.19 0.37 0.78 0.80 0.67 0.67 0.47
0.16 0.16 0.16 0.21 0.24 0.30 0.28 0.28 0.25 0.28 0.31 0.30 0.34 0.33 0.31 0.22 0.18 0.21 0.24 0.27 0.24 0.23 0.30 0.45 0.49 0.39 0.14 0.03 0.08 0.18 0.15 0.73 0.85 1.18 1.88 1.70 0.83 0.38 0.24 0.18 0.23 0.36 0.50 0.56 0.59 0.44 0.52
0.18 0.20 0.21 0.27 0.29 0.31 0.27 0.30 0.26 0.30 0.31 0.32 0.29 0.24 0.23 0.16 0.17 0.31 0.41 0.50 0.55 0.44 0.49 0.56 0.57 0.58 0.15 0.05 0.28 0.21 0.24 0.84 1.10 1.54 2.72 2.97 1.74 0.63 0.33 0.16 0.11 0.08 0.12 0.24 0.37 0.30 0.35
0.21 0.23 0.30 0.28 0.25 0.25 0.31 0.33 0.25 0.34 0.33 0.30 0.23 0.21 0.22 0.20 0.27 0.53 0.66 0.87 1.07 0.85 0.67 0.47 0.32 0.23 0.15 0.24 0.27 0.27 0.46 1.51 1.90 2.13 2.67 2.81 1.76 0.56 0.21 0.04 0.00 0.00 0.01 0.04 0.10 0.21 0.24
0.25 0.26 0.24 0.22 0.25 0.27 0.31 0.26 0.23 0.35 0.31 0.27 0.22 0.30 0.40 0.34 0.36 0.56 0.79 0.75 0.64 0.54 0.41 0.31 0.19 0.15 0.08 0.26 0.58 0.45 0.73 2.74 2.36 2.01 1.98 2.08 0.90 0.25 0.20 0.04 0.02 0.02 0.01 0.03 0.09 0.13 0.18
0.17 0.16 0.23 0.27 0.27 0.29 0.30 0.20 0.25 0.35 0.29 0.34 0.37 0.44 0.39 0.37 0.30 0.54 0.55 0.49 0.53 0.58 0.55 0.60 0.42 0.19 0.30 0.71 0.73 0.71 1.41 2.48 1.77 1.44 1.47 1.12 0.42 0.31 0.30 0.06 0.05 0.02 0.00 0.05 0.06 0.13 0.12
0.16 0.22 0.27 0.26 0.27 0.27 0.26 0.21 0.31 0.37 0.30 0.41 0.44 0.43 0.36 0.39 0.36 0.54 0.46 0.45 0.74 0.97 1.19 1.05 0.74 0.55 0.61 0.88 0.88 0.68 1.37 1.92 1.75 1.56 1.78 1.39 0.42 0.28 0.26 0.14 0.02 0.00 0.00 0.03 0.10 0.09 0.08
0.18 0.22 0.21 0.23 0.25 0.29 0.33 0.32 0.39 0.36 0.34 0.35 0.31 0.26 0.33 0.58 0.75 0.68 0.48 0.51 0.85 1.38 1.75 1.15 0.95 0.78 0.86 0.75 0.59 0.79 1.32 1.31 0.88 1.15 1.37 1.27 0.59 0.40 0.26 0.09 0.03 0.02 0.00 0.07 0.11 0.08 0.06
0.19 0.22 0.23 0.28 0.29 0.34 0.34 0.36 0.34 0.30 0.31 0.24 0.24 0.25 0.41 0.47 0.81 0.59 0.44 0.95 1.03 1.46 1.70 1.70 1.31 0.95 0.72 0.47 0.48 0.76 1.22 0.87 0.78 0.82 0.87 0.71 0.66 0.70 0.36 0.09 0.04 0.01 0.01 0.11 0.08 0.07 0.07
0.14 0.19 0.22 0.23 0.26 0.37 0.38 0.38 0.26 0.27 0.27 0.23 0.20 0.23 0.47 0.43 0.44 0.38 0.78 1.41 1.35 1.06 1.13 0.97 0.76 0.40 0.31 0.33 0.32 0.42 0.77 0.72 0.74 0.93 1.36 1.26 1.04 0.56 0.27 0.08 0.05 0.00 0.04 0.30 0.26 0.21 0.04
0.19 0.24 0.28 0.31 0.37 0.42 0.44 0.38 0.24 0.20 0.21 0.31 0.46 0.36 0.29 0.25 0.27 0.73 1.29 1.06 1.11 0.70 0.87 0.45 0.30 0.34 0.33 0.22 0.31 0.31 0.43 0.44 0.23 0.16 0.72 1.19 1.37 0.60 0.35 0.06 0.04 0.01 0.03 0.12 0.07 0.02 0.00
0.27 0.34 0.44 0.56 0.59 0.57 0.52 0.43 0.26 0.18 0.28 0.70 0.49 0.18 0.21 0.13 0.26 0.98 1.09 0.97 0.90 0.89 0.61 0.20 0.27 0.37 0.35 0.15 0.16 0.22 0.32 0.23 0.14 0.11 0.32 0.33 0.46 0.29 0.20 0.06 0.05 0.10 0.12 0.04 0.15 0.10 0.12
0.46 0.62 0.73 0.70 0.62 0.50 0.51 0.45 0.27 0.18 0.28 0.72 0.46 0.20 0.30 0.20 0.36 0.93 0.79 0.84 0.54 0.43 0.09 0.02 0.18 0.14 0.11 0.08 0.07 0.08 0.15 0.08 0.03 0.03 0.01 0.01 0.24 0.23 0.15 0.12 0.06 0.02 0.03 0.11 0.25 0.15 0.06
0.60 0.60 0.64 0.61 0.63 0.60 0.55 0.42 0.26 0.14 0.21 0.33 0.45 0.24 0.35 0.31 0.59 0.97 0.73 0.71 0.41 0.15 0.03 0.05 0.03 0.01 0.01 0.02 0.01 0.01 0.02 0.03 0.02 0.01 0.00 0.00 0.07 0.20 0.22 0.25 0.10 0.02 0.09 0.12 0.17 0.14 0.09
0.50 0.47 0.56 0.66 0.78 0.82 0.70 0.37 0.28 0.12 0.22 0.34 0.60 0.47 0.21 0.32 0.67 0.78 0.66 0.57 0.46 0.16 0.03 0.00 0.01 0.01 0.01 0.00 0.00 0.00 0.01 0.01 0.00 0.00 0.00 0.00 0.04 0.09 0.13 0.03 0.01 0.02 0.01 0.04 0.23 0.09 0.13
0.61 0.66 0.59 0.68 0.77 0.88 0.82 0.45 0.23 0.13 0.28 0.46 0.49 0.47 0.27 0.27 0.31 0.28 0.39 0.31 0.13 0.08 0.04 0.01 0.01 0.02 0.02 0.01 0.00 0.00 0.00 0.00 0.00 0.00 0.00 0.00 0.05 0.11 0.18 0.15 0.06 0.06 0.02 0.10 0.21 0.39 0.25
0.54 0.66 0.66 0.59 0.61 0.65 0.68 0.52 0.24 0.14 0.10 0.44 0.69 0.73 0.55 0.33 0.15 0.08 0.29 0.22 0.13 0.09 0.02 0.00 0.00 0.00 0.00 0.00 0.00 0.00 0.00 0.00 0.00 0.00 0.00 0.01 0.03 0.02 0.06 0.09 0.20 0.18 0.03 0.10 0.42 0.55 0.09
0.45 0.62 0.77 0.71 0.67 0.58 0.45 0.39 0.27 0.15 0.21 0.57 0.52 0.20 0.14 0.16 0.10 0.10 0.15 0.18 0.12 0.04 0.01 0.00 0.01 0.00 0.00 0.01 0.00 0.00 0.00 0.00 0.00 0.00 0.01 0.04 0.05 0.02 0.02 0.06 0.22 0.20 0.08 0.07 0.32 0.17 0.23
0.61 0.59 0.77 0.86 0.90 0.91 0.76 0.43 0.24 0.16 0.25 0.49 0.36 0.09 0.01 0.01 0.05 0.05 0.05 0.09 0.05 0.00 0.01 0.01 0.01 0.00 0.01 0.01 0.01 0.00 0.00 0.00 0.01 0.00 0.02 0.05 0.09 0.06 0.06 0.05 0.10 0.16 0.04 0.06 0.06 0.02 0.02
0.78 0.83 1.05 1.20 1.06 0.86 0.83 0.55 0.25 0.13 0.15 0.16 0.33 0.11 0.03 0.05 0.04 0.01 0.02 0.00 0.01 0.00 0.01 0.01 0.01 0.03 0.02 0.01 0.00 0.00 0.00 0.00 0.00 0.01 0.03 0.06 0.08 0.15 0.07 0.04 0.11 0.13 0.04 0.02 0.01 0.00 0.01
0.76 0.77 0.78 0.92 0.70 0.58 0.59 0.49 0.31 0.18 0.11 0.09 0.21 0.16 0.03 0.04 0.01 0.00 0.00 0.00 0.00 0.00 0.01 0.00 0.00 0.04 0.03 0.01 0.01 0.01 0.00 0.00 0.01 0.00 0.01 0.02 0.06 0.19 0.09 0.09 0.24 0.13 0.02 0.00 0.00 0.00 0.00
0.79 0.99 1.14 1.41 1.30 0.88 0.59 0.46 0.35 0.21 0.05 0.04 0.18 0.15 0.07 0.02 0.00 0.00 0.00 0.00 0.00 0.00 0.00 0.00 0.00 0.00 0.01 0.02 0.05 0.05 0.02 0.01 0.00 0.00 0.01 0.01 0.06 0.18 0.16 0.17 0.09 0.01 0.00 0.00 0.00 0.00 0.00
0.58 0.73 0.93 1.12 1.18 1.20 1.02 0.58 0.37 0.13 0.02 0.02 0.11 0.19 0.15 0.04 0.00 0.00 0.00 0.00 0.00 0.00 0.02 0.02 0.03 0.01 0.01 0.06 0.15 0.10 0.04 0.01 0.01 0.02 0.01 0.02 0.03 0.16 0.10 0.09 0.01 0.01 0.00 0.00 0.02 0.01 0.00
0.52 0.54 0.59 0.57 0.47 0.47 0.55 0.45 0.27 0.07 0.01 0.01 0.08 0.14 0.22 0.07 0.01 0.00 0.00 0.00 0.00 0.01 0.02 0.02 0.06 0.02 0.03 0.11 0.17 0.08 0.02 0.00 0.01 0.01 0.03 0.07 0.10 0.15 0.14 0.15 0.00 0.00 0.00 0.00 0.00 0.01 0.00
0.86 0.95 1.02 0.88 0.63 0.44 0.36 0.29 0.21 0.09 0.03 0.03 0.06 0.09 0.22 0.12 0.02 0.00 0.00 0.01 0.01 0.02 0.03 0.01 0.02 0.02 0.06 0.14 0.13 0.07 0.03 0.01 0.00 0.00 0.00 0.02 0.04 0.06 0.07 0.09 0.01 0.00 0.00 0.00 0.00 0.00 0.00
0.84 0.98 1.14 1.18 1.02 0.68 0.46 0.22 0.21 0.13 0.09 0.07 0.04 0.08 0.15 0.14 0.04 0.00 0.00 0.00 0.00 0.01 0.01 0.00 0.03 0.01 0.04 0.12 0.16 0.10 0.04 0.01 0.00 0.00 0.00 0.00 0.00 0.00 0.00 0.00 0.00 0.00 0.00 0.00 0.00 0.00 0.00

GFSGBSN_prec_precacc_069.txt.gz
Total_Precipitation_Accumulation
0.11 0.12 0.12 0.13 0.11 0.10 0.15 0.19 0.20 0.20 0.25 0.30 0.34 0.44 0.48 0.41 0.35 0.31 0.27 0.24 0.25 0.29 0.31 0.33 0.31 0.72 0.60 0.54 0.20 0.19 0.21 0.27 0.69 1.06 0.69 0.33 0.28 0.55 0.34 0.13 0.76 0.63 0.50 0.38 0.44 0.33 0.21
0.13 0.12 0.13 0.12 0.12 0.14 0.20 0.26 0.26 0.24 0.27 0.36 0.50 0.50 0.40 0.37 0.35 0.28 0.26 0.25 0.26 0.32 0.21 0.20 0.48 0.55 0.48 0.37 0.08 0.11 0.25 0.43 0.65 1.06 0.70 0.46 0.25 0.49 0.29 0.19 0.49 0.60 0.68 0.49 0.58 0.45 0.32
0.11 0.12 0.13 0.13 0.15 0.19 0.24 0.29 0.29 0.29 0.30 0.38 0.52 0.42 0.40 0.39 0.28 0.22 0.22 0.21 0.19 0.27 0.20 0.21 0.38 0.52 0.26 0.16 0.07 0.15 0.24 0.56 0.63 0.92 0.72 0.56 0.28 0.43 0.39 0.23 0.19 0.64 0.73 0.89 0.76 0.56 0.46
0.13 0.15 0.13 0.17 0.21 0.23 0.29 0.29 0.29 0.27 0.33 0.41 0.46 0.36 0.37 0.31 0.24 0.20 0.19 0.16 0.12 0.16 0.26 0.24 0.44 0.45 0.14 0.02 0.08 0.14 0.17 0.62 0.63 1.00 1.22 1.04 0.34 0.35 0.23 0.21 0.24 0.61 1.12 0.93 0.75 0.94 0.72
0.16 0.16 0.16 0.21 0.25 0.31 0.30 0.31 0.28 0.30 0.36 0.41 0.43 0.36 0.31 0.22 0.18 0.21 0.24 0.27 0.24 0.23 0.30 0.45 0.49 0.39 0.14 0.03 0.08 0.18 0.15 0.73 0.86 1.20 1.90 1.76 0.84 0.43 0.32 0.25 0.29 0.51 0.91 0.64 0.66 0.64 1.01
0.18 0.20 0.21 0.28 0.29 0.32 0.28 0.33 0.28 0.33 0.38 0.43 0.36 0.26 0.23 0.16 0.17 0.31 0.41 0.50 0.55 0.44 0.49 0.56 0.57 0.58 0.15 0.05 0.28 0.21 0.24 0.84 1.12 1.57 2.73 3.00 1.76 0.64 0.36 0.22 0.14 0.11 0.33 0.29 0.41 0.42 0.57
0.21 0.23 0.30 0.28 0.25 0.26 0.32 0.35 0.28 0.40 0.42 0.38 0.28 0.24 0.22 0.20 0.27 0.53 0.66 0.87 1.07 0.85 0.67 0.47 0.32 0.23 0.15 0.24 0.28 0.28 0.48 1.52 1.91 2.15 2.68 2.83 1.78 0.56 0.22 0.08 0.01 0.01 0.07 0.13 0.17 0.34 0.33
0.25 0.27 0.24 0.22 0.25 0.27 0.31 0.29 0.28 0.43 0.43 0.35 0.27 0.33 0.40 0.34 0.36 0.56 0.79 0.75 0.64 0.54 0.41 0.31 0.19 0.15 0.08 0.27 0.63 0.47 0.75 2.77 2.36 2.03 1.99 2.10 0.93 0.25 0.23 0.11 0.03 0.03 0.03 0.22 0.29 0.25 0.29
0.17 0.16 0.23 0.28 0.28 0.29 0.31 0.22 0.31 0.45 0.45 0.44 0.40 0.47 0.39 0.37 0.30 0.54 0.55 0.49 0.53 0.58 0.55 0.60 0.42 0.19 0.30 0.72 0.73 0.74 1.42 2.49 1.78 1.45 1.48 1.13 0.42 0.32 0.38 0.25 0.09 0.03 0.01 0.11 0.16 0.21 0.20
0.16 0.22 0.27 0.26 0.27 0.27 0.27 0.24 0.38 0.50 0.49 0.52 0.49 0.46 0.36 0.39 0.36 0.54 0.46 0.45 0.74 0.97 1.19 1.05 0.74 0.55 0.61 0.89 0.89 0.70 1.38 1.98 1.78 1.57 1.78 1.39 0.42 0.29 0.40 0.40 0.05 0.00 0.00 0.03 0.11 0.11 0.11
0.18 0.22 0.21 0.24 0.26 0.29 0.33 0.35 0.47 0.50 0.50 0.44 0.37 0.28 0.33 0.58 0.75 0.68 0.48 0.51 0.85 1.38 1.75 1.15 0.95 0.78 0.86 0.77 0.62 0.84 1.33 1.35 0.89 1.16 1.38 1.28 0.60 0.42 0.39 0.19 0.04 0.03 0.00 0.11 0.13 0.09 0.06
0.19 0.23 0.24 0.29 0.30 0.35 0.35 0.40 0.44 0.46 0.45 0.32 0.30 0.27 0.41 0.47 0.81 0.59 0.44 0.95 1.03 1.46 1.70 1.70 1.31 0.95 0.73 0.52 0.58 0.91 1.32 0.94 0.87 0.84 0.88 0.73 0.67 0.71 0.42 0.09 0.04 0.01 0.01 0.21 0.11 0.13 0.10
0.15 0.20 0.23 0.24 0.28 0.39 0.40 0.42 0.38 0.47 0.44 0.32 0.26 0.24 0.47 0.43 0.44 0.38 0.78 1.41 1.35 1.06 1.13 0.97 0.76 0.40 0.32 0.35 0.34 0.45 0.78 0.74 0.77 0.94 1.37 1.28 1.07 0.60 0.28 0.08 0.05 0.00 0.04 0.37 0.32 0.33 0.09
0.20 0.26 0.29 0.33 0.42 0.51 0.56 0.45 0.44 0.45 0.40 0.41 0.50 0.37 0.29 0.25 0.27 0.73 1.29 1.06 1.11 0.70 0.87 0.45 0.30 0.34 0.33 0.22 0.31 0.31 0.43 0.45 0.23 0.16 0.73 1.28 1.58 0.77 0.35 0.07 0.05 0.01 0.03 0.12 0.07 0.04 0.01
0.29 0.35 0.46 0.64 0.70 0.82 0.89 0.66 0.56 0.46 0.44 0.79 0.55 0.19 0.21 0.13 0.26 0.98 1.09 0.97 0.90 0.89 0.61 0.20 0.27 0.37 0.35 0.15 0.16 0.22 0.32 0.23 0.15 0.11 0.33 0.38 0.72 0.35 0.20 0.06 0.05 0.11 0.12 0.04 0.16 0.10 0.12
0.47 0.63 0.75 0.73 0.75 0.70 0.70 0.66 0.53 0.51 0.44 0.83 0.51 0.21 0.31 0.20 0.36 0.93 0.79 0.84 0.54 0.43 0.09 0.02 0.18 0.14 0.11 0.08 0.07 0.08 0.15 0.08 0.03 0.03 0.01 0.02 0.29 0.24 0.15 0.12 0.06 0.02 0.03 0.11 0.25 0.15 0.06
0.62 0.62 0.66 0.63 0.71 0.70 0.62 0.49 0.43 0.34 0.37 0.46 0.50 0.25 0.35 0.31 0.59 0.97 0.73 0.71 0.41 0.15 0.03 0.05 0.03 0.01 0.01 0.02 0.01 0.01 0.02 0.03 0.02 0.01 0.00 0.00 0.08 0.21 0.22 0.25 0.10 0.02 0.09 0.12 0.17 0.14 0.09
0.52 0.49 0.57 0.68 0.81 0.85 0.81 0.76 0.48 0.35 0.42 0.47 0.64 0.48 0.21 0.32 0.67 0.78 0.66 0.57 0.46 0.16 0.03 0.00 0.01 0.01 0.01 0.00 0.00 0.00 0.01 0.01 0.00 0.00 0.00 0.00 0.04 0.09 0.13 0.03 0.01 0.02 0.01 0.04 0.23 0.09 0.13
0.62 0.67 0.60 0.69 0.78 0.90 1.01 1.16 0.87 0.38 0.46 0.59 0.54 0.48 0.28 0.27 0.31 0.28 0.39 0.31 0.13 0.08 0.04 0.01 0.01 0.02 0.02 0.01 0.00 0.00 0.00 0.00 0.00 0.00 0.00 0.00 0.05 0.11 0.18 0.15 0.06 0.06 0.02 0.10 0.21 0.39 0.25
0.55 0.67 0.67 0.59 0.61 0.67 0.78 0.88 0.70 0.62 0.44 0.61 0.75 0.73 0.56 0.34 0.15 0.08 0.29 0.22 0.13 0.09 0.02 0.00 0.00 0.00 0.00 0.00 0.00 0.00 0.00 0.00 0.00 0.00 0.00 0.01 0.03 0.02 0.06 0.09 0.20 0.18 0.03 0.10 0.42 0.55 0.09
0.47 0.63 0.77 0.71 0.69 0.62 0.50 0.57 0.50 0.61 0.64 0.76 0.54 0.20 0.14 0.17 0.10 0.10 0.15 0.18 0.12 0.04 0.01 0.00 0.01 0.00 0.00 0.01 0.00 0.00 0.00 0.00 0.00 0.00 0.01 0.04 0.05 0.02 0.02 0.06 0.22 0.20 0.08 0.07 0.32 0.17 0.23
0.63 0.60 0.78 0.87 0.94 1.05 1.03 0.83 0.44 0.46 0.60 0.71 0.39 0.09 0.01 0.01 0.05 0.05 0.05 0.09 0.05 0.00 0.01 0.01 0.01 0.00 0.01 0.01 0.01 0.00 0.00 0.00 0.01 0.00 0.02 0.05 0.09 0.06 0.06 0.05 0.10 0.16 0.04 0.06 0.06 0.02 0.02
0.79 0.84 1.06 1.21 1.11 0.98 0.99 0.90 0.65 0.40 0.51 0.39 0.37 0.11 0.03 0.05 0.04 0.01 0.02 0.00 0.01 0.00 0.01 0.01 0.01 0.03 0.02 0.01 0.00 0.00 0.00 0.00 0.00 0.01 0.03 0.06 0.08 0.15 0.07 0.04 0.11 0.13 0.04 0.02 0.01 0.00 0.01
0.77 0.78 0.80 0.93 0.74 0.68 0.78 0.59 0.43 0.43 0.50 0.21 0.23 0.16 0.03 0.04 0.01 0.00 0.00 0.00 0.00 0.00 0.01 0.00 0.00 0.04 0.03 0.01 0.01 0.01 0.00 0.00 0.01 0.00 0.01 0.02 0.06 0.19 0.09 0.09 0.24 0.13 0.02 0.00 0.00 0.00 0.00
0.80 1.01 1.16 1.41 1.38 1.13 0.87 0.61 0.50 0.56 0.46 0.08 0.18 0.15 0.07 0.02 0.00 0.00 0.00 0.00 0.00 0.00 0.00 0.00 0.00 0.00 0.01 0.02 0.05 0.05 0.02 0.01 0.00 0.00 0.01 0.01 0.06 0.18 0.16 0.17 0.09 0.01 0.00 0.00 0.00 0.00 0.00
0.59 0.75 0.94 1.13 1.31 1.44 1.54 1.10 0.61 0.44 0.23 0.04 0.11 0.19 0.15 0.04 0.00 0.00 0.00 0.00 0.00 0.00 0.02 0.02 0.03 0.01 0.01 0.06 0.15 0.10 0.04 0.01 0.01 0.02 0.01 0.02 0.03 0.16 0.10 0.09 0.01 0.01 0.00 0.00 0.02 0.01 0.00
0.53 0.55 0.59 0.59 0.52 0.53 0.62 0.67 0.47 0.24 0.14 0.03 0.08 0.14 0.22 0.07 0.01 0.00 0.00 0.00 0.00 0.01 0.02 0.02 0.06 0.02 0.03 0.11 0.17 0.08 0.02 0.00 0.01 0.01 0.03 0.07 0.10 0.15 0.14 0.15 0.00 0.00 0.00 0.00 0.00 0.01 0.00
0.87 0.96 1.02 0.92 0.68 0.50 0.44 0.33 0.28 0.17 0.08 0.03 0.06 0.09 0.22 0.12 0.02 0.00 0.00 0.01 0.01 0.02 0.03 0.01 0.02 0.02 0.06 0.14 0.13 0.07 0.03 0.01 0.00 0.00 0.00 0.02 0.04 0.06 0.07 0.09 0.01 0.00 0.00 0.00 0.00 0.00 0.00
0.85 0.98 1.14 1.20 1.08 0.86 0.59 0.32 0.26 0.17 0.10 0.07 0.04 0.08 0.15 0.14 0.04 0.00 0.00 0.00 0.00 0.01 0.01 0.00 0.03 0.01 0.04 0.12 0.16 0.10 0.04 0.01 0.00 0.00 0.00 0.00 0.00 0.00 0.00 0.00 0.00 0.00 0.00 0.00 0.00 0.00 0.00

GFSGBSN_prec_precacc_075.txt.gz
Total_Precipitation_Accumulation
0.11 0.12 0.12 0.13 0.12 0.11 0.17 0.21 0.23 0.24 0.29 0.36 0.47 0.56 0.57 0.48 0.40 0.35 0.28 0.25 0.26 0.30 0.32 0.35 0.34 0.72 0.60 0.54 0.20 0.19 0.21 0.27 0.69 1.07 0.69 0.33 0.33 0.65 0.41 0.17 0.84 0.72 0.52 0.42 0.47 0.38 0.29
0.13 0.12 0.13 0.12 0.12 0.15 0.21 0.27 0.27 0.26 0.31 0.42 0.59 0.60 0.49 0.45 0.42 0.30 0.27 0.25 0.27 0.33 0.21 0.21 0.52 0.55 0.48 0.37 0.08 0.11 0.25 0.43 0.65 1.07 0.70 0.46 0.28 0.84 0.57 0.43 0.56 0.66 0.73 0.55 0.72 0.54 0.43
0.11 0.12 0.13 0.13 0.15 0.20 0.25 0.30 0.30 0.30 0.32 0.42 0.61 0.54 0.50 0.48 0.32 0.23 0.22 0.22 0.20 0.27 0.20 0.22 0.41 0.52 0.26 0.16 0.07 0.15 0.24 0.56 0.63 0.92 0.73 0.57 0.31 0.65 0.80 0.66 0.27 0.70 0.81 1.00 0.91 0.74 0.65
0.13 0.15 0.13 0.17 0.21 0.23 0.29 0.29 0.30 0.28 0.35 0.44 0.55 0.52 0.48 0.40 0.29 0.22 0.20 0.16 0.12 0.16 0.27 0.25 0.46 0.45 0.14 0.02 0.08 0.14 0.17 0.62 0.63 1.01 1.24 1.09 0.43 0.46 0.54 0.79 0.53 0.69 1.28 1.29 0.96 1.25 1.00
0.16 0.16 0.16 0.22 0.25 0.31 0.30 0.31 0.28 0.30 0.37 0.44 0.53 0.49 0.50 0.32 0.23 0.24 0.25 0.27 0.24 0.23 0.31 0.47 0.50 0.39 0.14 0.03 0.08 0.18 0.15 0.73 0.86 1.20 1.93 1.82 0.92 0.50 0.46 0.84 0.84 0.63 1.08 0.99 0.89 1.01 1.38
0.18 0.21 0.22 0.29 0.30 0.32 0.28 0.33 0.28 0.33 0.40 0.50 0.48 0.43 0.38 0.24 0.22 0.32 0.41 0.50 0.55 0.44 0.49 0.57 0.57 0.58 0.15 0.05 0.28 0.21 0.24 0.84 1.12 1.58 2.76 3.05 1.82 0.75 0.61 0.59 0.63 0.17 0.45 0.63 0.62 0.64 0.94
0.21 0.24 0.31 0.29 0.27 0.27 0.33 0.36 0.29 0.42 0.45 0.47 0.40 0.37 0.38 0.33 0.32 0.54 0.67 0.88 1.08 0.85 0.67 0.47 0.32 0.23 0.15 0.24 0.28 0.28 0.48 1.52 1.91 2.17 2.70 2.86 1.83 0.62 0.41 0.51 0.24 0.05 0.09 0.49 0.45 0.45 0.49
0.26 0.27 0.25 0.24 0.28 0.29 0.32 0.29 0.29 0.44 0.46 0.47 0.43 0.48 0.62 0.49 0.43 0.58 0.79 0.76 0.65 0.54 0.41 0.31 0.19 0.15 0.08 0.27 0.63 0.48 0.75 2.77 2.37 2.05 2.01 2.14 0.98 0.26 0.32 0.61 0.17 0.04 0.06 0.44 0.61 0.54 0.53
0.18 0.17 0.26 0.31 0.29 0.30 0.31 0.22 0.32 0.46 0.47 0.54 0.55 0.63 0.61 0.51 0.36 0.56 0.56 0.49 0.54 0.58 0.55 0.60 0.42 0.19 0.30 0.72 0.73 0.75 1.42 2.49 1.78 1.51 1.51 1.17 0.44 0.33 0.44 0.62 0.17 0.04 0.01 0.18 0.65 0.63 0.47
0.16 0.23 0.31 0.29 0.28 0.27 0.27 0.25 0.39 0.50 0.50 0.61 0.66 0.63 0.59 0.56 0.40 0.55 0.48 0.46 0.75 0.97 1.19 1.05 0.74 0.55 0.61 0.89 0.90 0.73 1.48 2.05 1.79 1.59 1.79 1.41 0.44 0.30 0.40 0.46 0.10 0.02 0.00 0.03 0.24 0.24 0.30
0.18 0.23 0.23 0.25 0.26 0.30 0.33 0.35 0.47 0.50 0.52 0.51 0.51 0.46 0.51 0.70 0.77 0.71 0.51 0.51 0.85 1.38 1.75 1.15 0.95 0.78 0.86 0.78 0.65 0.89 1.38 1.44 0.93 1.17 1.46 1.32 0.62 0.42 0.41 0.44 0.16 0.05 0.01 0.11 0.13 0.10 0.11
0.22 0.25 0.25 0.29 0.30 0.36 0.36 0.41 0.46 0.48 0.49 0.40 0.42 0.43 0.63 0.64 0.86 0.64 0.47 0.96 1.03 1.46 1.70 1.70 1.31 0.95 0.73 0.54 0.63 0.94 1.40 1.06 0.92 0.94 0.93 0.76 0.67 0.71 0.64 0.46 0.07 0.02 0.02 0.23 0.12 0.14 0.15
0.18 0.24 0.26 0.27 0.31 0.42 0.44 0.49 0.48 0.56 0.53 0.50 0.47 0.49 0.70 0.54 0.53 0.47 0.82 1.41 1.35 1.06 1.13 0.97 0.76 0.40 0.32 0.35 0.35 0.47 0.89 0.82 0.81 0.99 1.40 1.29 1.07 0.69 0.67 0.21 0.08 0.01 0.06 0.52 0.44 0.46 0.18
0.24 0.31 0.35 0.38 0.46 0.54 0.62 0.60 0.61 0.66 0.69 0.83 0.86 0.72 0.48 0.33 0.37 0.79 1.29 1.07 1.12 0.70 0.87 0.45 0.30 0.34 0.33 0.22 0.33 0.32 0.44 0.47 0.24 0.16 0.74 1.29 1.63 0.87 0.46 0.12 0.09 0.04 0.04 0.13 0.10 0.10 0.13
0.33 0.43 0.52 0.70 0.74 0.86 0.93 0.79 0.81 0.74 0.60 1.05 0.92 0.73 0.35 0.24 0.38 1.03 1.10 0.98 0.90 0.89 0.61 0.20 0.27 0.37 0.35 0.15 0.17 0.26 0.36 0.25 0.15 0.11 0.34 0.41 0.84 0.40 0.21 0.06 0.05 0.12 0.12 0.04 0.16 0.11 0.17
0.54 0.72 0.79 0.78 0.78 0.73 0.72 0.77 0.76 0.86 0.64 1.05 0.75 0.45 0.48 0.36 0.48 0.96 0.80 0.84 0.54 0.43 0.09 0.02 0.18 0.14 0.11 0.08 0.07 0.09 0.16 0.09 0.06 0.03 0.01 0.04 0.35 0.25 0.15 0.12 0.06 0.02 0.03 0.11 0.25 0.15 0.07
0.72 0.70 0.70 0.67 0.75 0.73 0.63 0.61 0.82 0.95 0.84 0.70 0.76 0.58 0.63 0.47 0.65 0.99 0.75 0.71 0.41 0.15 0.03 0.05 0.03 0.01 0.01 0.02 0.01 0.01 0.02 0.03 0.02 0.01 0.00 0.00 0.09 0.26 0.22 0.25 0.10 0.02 0.09 0.12 0.17 0.14 0.09
0.64 0.55 0.61 0.72 0.86 0.86 0.84 0.91 1.19 1.13 1.07 0.73 0.92 0.78 0.51 0.41 0.71 0.80 0.66 0.57 0.46 0.16 0.03 0.00 0.01 0.01 0.01 0.00 0.00 0.00 0.01 0.01 0.00 0.00 0.00 0.00 0.04 0.09 0.13 0.03 0.01 0.02 0.01 0.04 0.23 0.09 0.13
0.74 0.74 0.66 0.73 0.82 0.92 1.04 1.26 1.37 1.29 1.04 0.90 0.85 0.85 0.56 0.33 0.36 0.29 0.39 0.31 0.13 0.08 0.04 0.01 0.01 0.02 0.02 0.01 0.00 0.00 0.00 0.00 0.00 0.00 0.00 0.00 0.05 0.11 0.18 0.15 0.06 0.06 0.02 0.10 0.21 0.39 0.25
0.63 0.75 0.74 0.65 0.66 0.70 0.81 1.01 1.00 1.43 0.93 0.97 1.09 1.05 0.80 0.44 0.18 0.08 0.29 0.22 0.13 0.09 0.02 0.00 0.00 0.00 0.00 0.00 0.00 0.00 0.00 0.00 0.00 0.00 0.00 0.01 0.03 0.02 0.06 0.09 0.20 0.18 0.03 0.10 0.42 0.55 0.09
0.55 0.70 0.84 0.76 0.73 0.65 0.53 0.71 0.81 0.99 0.90 1.15 0.87 0.36 0.23 0.22 0.11 0.11 0.16 0.18 0.12 0.05 0.01 0.00 0.01 0.00 0.00 0.01 0.00 0.00 0.00 0.00 0.00 0.00 0.01 0.04 0.05 0.02 0.02 0.06 0.22 0.20 0.08 0.07 0.32 0.17 0.23
0.71 0.68 0.84 0.93 0.97 1.08 1.06 1.03 0.81 0.80 0.89 1.15 0.61 0.23 0.10 0.02 0.05 0.05 0.05 0.09 0.05 0.00 0.01 0.01 0.01 0.00 0.01 0.01 0.01 0.00 0.00 0.00 0.01 0.00 0.02 0.05 0.09 0.06 0.06 0.05 0.10 0.16 0.04 0.06 0.06 0.02 0.02
0.87 0.90 1.11 1.25 1.14 1.00 1.02 1.02 1.05 0.91 1.06 0.85 0.58 0.17 0.05 0.06 0.04 0.01 0.02 0.00 0.01 0.00 0.01 0.01 0.01 0.03 0.02 0.01 0.00 0.00 0.00 0.00 0.00 0.01 0.03 0.06 0.08 0.15 0.07 0.04 0.11 0.13 0.04 0.02 0.01 0.00 0.01
0.85 0.85 0.85 0.97 0.77 0.69 0.81 0.64 0.49 0.51 0.73 0.45 0.35 0.17 0.03 0.05 0.01 0.00 0.00 0.00 0.00 0.00 0.01 0.00 0.00 0.04 0.03 0.01 0.01 0.01 0.00 0.00 0.01 0.00 0.01 0.02 0.06 0.19 0.09 0.09 0.24 0.13 0.02 0.00 0.00 0.00 0.00
0.87 1.06 1.19 1.44 1.40 1.14 0.92 0.66 0.57 0.66 0.62 0.18 0.21 0.15 0.07 0.02 0.00 0.00 0.00 0.00 0.00 0.00 0.00 0.00 0.00 0.00 0.01 0.02 0.05 0.05 0.02 0.01 0.00 0.00 0.01 0.01 0.06 0.18 0.16 0.17 0.09 0.01 0.00 0.00 0.00 0.00 0.00
0.63 0.78 0.97 1.15 1.31 1.47 1.56 1.22 0.77 0.57 0.35 0.07 0.11 0.19 0.15 0.04 0.00 0.00 0.00 0.00 0.00 0.00 0.02 0.02 0.03 0.01 0.01 0.06 0.15 0.10 0.04 0.01 0.01 0.02 0.01 0.02 0.03 0.16 0.10 0.09 0.01 0.01 0.00 0.00 0.02 0.01 0.00
0.57 0.60 0.61 0.60 0.53 0.55 0.66 0.78 0.72 0.41 0.21 0.03 0.08 0.14 0.22 0.07 0.01 0.00 0.00 0.00 0.00 0.01 0.02 0.02 0.06 0.02 0.03 0.11 0.17 0.08 0.02 0.00 0.01 0.01 0.03 0.07 0.10 0.15 0.14 0.15 0.00 0.00 0.00 0.00 0.00 0.01 0.00
0.91 0.97 1.03 0.92 0.68 0.52 0.56 0.41 0.35 0.28 0.12 0.04 0.06 0.09 0.22 0.12 0.02 0.00 0.00 0.01 0.01 0.02 0.03 0.01 0.02 0.02 0.06 0.14 0.13 0.07 0.03 0.01 0.00 0.00 0.00 0.02 0.04 0.06 0.07 0.09 0.01 0.00 0.00 0.00 0.00 0.00 0.00
0.87 0.99 1.15 1.20 1.09 0.89 0.69 0.38 0.28 0.20 0.13 0.07 0.04 0.08 0.15 0.14 0.04 0.00 0.00 0.00 0.00 0.01 0.01 0.00 0.03 0.01 0.04 0.12 0.16 0.10 0.04 0.01 0.00 0.00 0.00 0.00 0.00 0.00 0.00 0.00 0.00 0.00 0.00 0.00 0.00 0.00 0.00

GFSGBSN_prec_precacc_078.txt.gz
Total_Precipitation_Accumulation
0.11 0.12 0.13 0.13 0.13 0.12 0.17 0.22 0.23 0.25 0.29 0.37 0.47 0.57 0.58 0.49 0.43 0.37 0.30 0.26 0.26 0.30 0.32 0.35 0.34 0.73 0.60 0.54 0.20 0.19 0.21 0.27 0.69 1.07 0.69 0.33 0.33 0.65 0.41 0.18 0.85 0.72 0.52 0.42 0.47 0.38 0.29
0.13 0.13 0.14 0.12 0.13 0.15 0.21 0.28 0.28 0.26 0.31 0.42 0.59 0.60 0.49 0.47 0.45 0.32 0.28 0.25 0.27 0.33 0.21 0.21 0.52 0.56 0.48 0.37 0.08 0.11 0.25 0.43 0.65 1.07 0.70 0.46 0.28 0.84 0.57 0.44 0.57 0.66 0.73 0.55 0.72 0.55 0.43
0.11 0.12 0.13 0.14 0.15 0.20 0.25 0.30 0.30 0.31 0.32 0.42 0.61 0.54 0.50 0.49 0.36 0.28 0.27 0.22 0.20 0.27 0.20 0.22 0.42 0.52 0.26 0.16 0.07 0.15 0.24 0.56 0.63 0.92 0.73 0.57 0.31 0.66 0.82 0.67 0.28 0.71 0.82 1.00 0.92 0.74 0.66
0.13 0.16 0.13 0.18 0.21 0.24 0.30 0.30 0.30 0.28 0.35 0.44 0.55 0.52 0.49 0.45 0.34 0.27 0.24 0.17 0.12 0.16 0.27 0.25 0.47 0.45 0.14 0.02 0.08 0.14 0.17 0.62 0.63 1.01 1.24 1.09 0.45 0.47 0.55 0.81 0.59 0.74 1.32 1.30 0.96 1.25 1.00
0.16 0.17 0.17 0.22 0.26 0.33 0.32 0.32 0.29 0.31 0.37 0.44 0.53 0.49 0.51 0.41 0.31 0.29 0.28 0.28 0.24 0.23 0.31 0.47 0.51 0.39 0.14 0.03 0.08 0.18 0.15 0.73 0.86 1.20 1.93 1.84 0.95 0.52 0.48 0.90 1.02 0.74 1.12 1.00 0.90 1.01 1.40
0.18 0.21 0.22 0.29 0.32 0.35 0.31 0.35 0.30 0.34 0.40 0.50 0.48 0.43 0.38 0.27 0.27 0.37 0.43 0.51 0.55 0.44 0.49 0.57 0.57 0.58 0.15 0.05 0.28 0.21 0.24 0.84 1.12 1.58 2.77 3.07 1.86 0.77 0.63 0.65 0.78 0.38 0.47 0.64 0.67 0.66 0.96
0.21 0.24 0.31 0.31 0.30 0.31 0.36 0.38 0.30 0.42 0.46 0.47 0.40 0.37 0.38 0.42 0.41 0.59 0.68 0.89 1.08 0.86 0.68 0.47 0.32 0.23 0.15 0.24 0.28 0.28 0.48 1.52 1.92 2.18 2.71 2.90 1.85 0.63 0.44 0.56 0.32 0.28 0.18 0.52 0.50 0.51 0.51
0.26 0.27 0.28 0.28 0.32 0.34 0.35 0.31 0.31 0.45 0.47 0.49 0.43 0.48 0.62 0.58 0.55 0.61 0.81 0.77 0.65 0.54 0.41 0.31 0.19 0.15 0.08 0.27 0.63 0.48 0.75 2.78 2.37 2.05 2.03 2.16 0.99 0.26 0.33 0.64 0.27 0.17 0.11 0.51 0.65 0.60 0.57
0.18 0.19 0.28 0.34 0.33 0.34 0.35 0.26 0.34 0.47 0.48 0.57 0.57 0.63 0.61 0.58 0.52 0.58 0.56 0.50 0.54 0.58 0.55 0.60 0.42 0.19 0.30 0.72 0.73 0.75 1.42 2.49 1.78 1.51 1.51 1.19 0.45 0.35 0.51 0.81 0.24 0.11 0.03 0.20 0.73 0.73 0.48
0.17 0.24 0.32 0.32 0.32 0.31 0.30 0.29 0.43 0.53 0.53 0.63 0.68 0.63 0.59 0.66 0.52 0.56 0.48 0.46 0.75 0.97 1.19 1.05 0.74 0.55 0.61 0.89 0.90 0.73 1.49 2.05 1.79 1.59 1.80 1.41 0.44 0.32 0.47 0.77 0.14 0.04 0.01 0.10 0.43 0.36 0.34
0.19 0.23 0.23 0.26 0.29 0.33 0.37 0.39 0.50 0.53 0.54 0.53 0.53 0.47 0.52 0.76 0.81 0.71 0.51 0.51 0.85 1.38 1.76 1.15 0.95 0.78 0.86 0.78 0.66 0.90 1.38 1.44 0.94 1.19 1.52 1.36 0.64 0.43 0.42 0.55 0.19 0.07 0.03 0.15 0.17 0.11 0.12
0.22 0.25 0.25 0.31 0.33 0.39 0.39 0.44 0.50 0.50 0.51 0.42 0.43 0.45 0.65 0.69 0.89 0.65 0.48 0.96 1.03 1.47 1.71 1.70 1.31 0.95 0.73 0.54 0.63 0.95 1.40 1.07 0.93 1.01 0.95 0.77 0.67 0.72 0.64 0.47 0.10 0.06 0.03 0.24 0.12 0.15 0.19
0.19 0.24 0.27 0.31 0.35 0.46 0.48 0.54 0.51 0.60 0.57 0.54 0.48 0.51 0.75 0.62 0.56 0.48 0.88 1.43 1.37 1.07 1.13 0.97 0.76 0.40 0.32 0.35 0.35 0.48 0.90 0.83 0.84 1.02 1.41 1.29 1.10 0.85 0.75 0.25 0.13 0.03 0.07 0.53 0.45 0.48 0.28
0.24 0.31 0.39 0.43 0.51 0.60 0.67 0.63 0.64 0.72 0.84 1.05 0.95 0.76 0.55 0.39 0.39 0.87 1.37 1.08 1.16 0.71 0.87 0.45 0.30 0.34 0.33 0.22 0.33 0.32 0.45 0.47 0.24 0.16 0.74 1.30 1.74 1.09 0.54 0.15 0.10 0.04 0.04 0.13 0.10 0.13 0.24
0.33 0.45 0.58 0.75 0.80 0.92 0.96 0.82 0.86 0.90 0.91 1.20 0.95 0.83 0.48 0.26 0.43 1.15 1.13 1.01 0.92 0.90 0.61 0.20 0.27 0.37 0.35 0.15 0.17 0.28 0.37 0.25 0.15 0.12 0.34 0.44 0.94 0.53 0.27 0.07 0.05 0.12 0.12 0.04 0.16 0.13 0.19
0.55 0.78 0.84 0.84 0.84 0.76 0.75 0.79 0.84 1.05 1.07 1.12 0.75 0.60 0.64 0.42 0.62 1.07 0.86 0.86 0.54 0.43 0.09 0.02 0.18 0.14 0.11 0.08 0.07 0.09 0.16 0.11 0.08 0.04 0.02 0.04 0.36 0.25 0.15 0.12 0.06 0.02 0.03 0.11 0.25 0.15 0.09
0.76 0.76 0.75 0.73 0.79 0.75 0.65 0.64 0.91 1.13 1.17 0.72 0.77 0.71 0.92 0.72 0.88 1.12 0.82 0.72 0.41 0.15 0.03 0.05 0.03 0.01 0.01 0.02 0.01 0.01 0.06 0.10 0.03 0.01 0.00 0.00 0.09 0.26 0.22 0.25 0.10 0.02 0.09 0.12 0.17 0.14 0.09
0.68 0.60 0.65 0.77 0.89 0.88 0.85 0.94 1.21 1.30 1.34 0.86 0.96 0.88 0.77 0.63 0.89 0.88 0.68 0.57 0.46 0.16 0.03 0.00 0.01 0.01 0.01 0.00 0.00 0.00 0.01 0.01 0.00 0.00 0.00 0.00 0.04 0.09 0.13 0.03 0.01 0.02 0.01 0.04 0.23 0.09 0.13
0.76 0.78 0.69 0.77 0.85 0.93 1.06 1.28 1.39 1.43 1.18 0.98 0.93 1.00 0.84 0.49 0.48 0.31 0.39 0.31 0.13 0.08 0.04 0.01 0.01 0.02 0.02 0.01 0.00 0.00 0.00 0.00 0.00 0.00 0.00 0.00 0.05 0.11 0.18 0.15 0.06 0.06 0.02 0.10 0.21 0.39 0.25
0.67 0.78 0.77 0.67 0.69 0.72 0.84 1.02 1.05 1.54 0.97 0.99 1.15 1.19 1.01 0.65 0.25 0.08 0.30 0.22 0.13 0.09 0.02 0.00 0.00 0.00 0.00 0.00 0.00 0.00 0.00 0.00 0.00 0.00 0.00 0.01 0.03 0.02 0.06 0.09 0.20 0.18 0.03 0.10 0.42 0.55 0.09
0.59 0.73 0.86 0.78 0.75 0.67 0.55 0.73 0.94 1.02 0.92 1.18 0.94 0.46 0.30 0.29 0.12 0.12 0.17 0.18 0.12 0.05 0.01 0.00 0.01 0.00 0.00 0.01 0.00 0.00 0.00 0.00 0.00 0.00 0.01 0.04 0.05 0.02 0.02 0.06 0.22 0.20 0.08 0.07 0.32 0.17 0.23
0.74 0.70 0.85 0.94 0.98 1.09 1.07 1.04 0.95 0.90 0.94 1.18 0.64 0.29 0.15 0.02 0.05 0.09 0.05 0.09 0.05 0.00 0.01 0.01 0.01 0.00 0.01 0.01 0.01 0.00 0.00 0.00 0.01 0.00 0.02 0.05 0.09 0.06 0.06 0.05 0.10 0.16 0.04 0.06 0.06 0.02 0.02
0.88 0.92 1.12 1.26 1.15 1.01 1.02 1.02 1.07 0.93 1.10 0.87 0.59 0.18 0.06 0.06 0.04 0.02 0.02 0.00 0.01 0.00 0.01 0.01 0.01 0.03 0.02 0.01 0.00 0.00 0.00 0.00 0.00 0.01 0.03 0.06 0.08 0.15 0.07 0.04 0.11 0.13 0.04 0.02 0.01 0.00 0.01
0.86 0.85 0.85 0.97 0.77 0.69 0.81 0.65 0.50 0.52 0.74 0.45 0.35 0.17 0.03 0.05 0.01 0.00 0.00 0.00 0.00 0.00 0.01 0.00 0.00 0.04 0.03 0.01 0.01 0.01 0.00 0.00 0.01 0.00 0.01 0.02 0.06 0.19 0.09 0.09 0.24 0.13 0.02 0.00 0.00 0.00 0.00
0.89 1.06 1.20 1.45 1.40 1.15 0.92 0.66 0.57 0.66 0.62 0.18 0.21 0.15 0.07 0.02 0.00 0.00 0.00 0.00 0.00 0.00 0.00 0.00 0.00 0.00 0.01 0.02 0.05 0.05 0.02 0.01 0.00 0.00 0.01 0.01 0.06 0.18 0.16 0.17 0.09 0.01 0.00 0.00 0.00 0.00 0.00
0.64 0.78 0.98 1.15 1.31 1.47 1.56 1.22 0.78 0.57 0.35 0.07 0.11 0.19 0.15 0.04 0.00 0.00 0.00 0.00 0.00 0.00 0.02 0.02 0.03 0.01 0.01 0.06 0.15 0.10 0.04 0.01 0.01 0.02 0.01 0.02 0.03 0.16 0.10 0.09 0.01 0.01 0.00 0.00 0.02 0.01 0.00
0.57 0.60 0.61 0.60 0.53 0.55 0.67 0.79 0.73 0.41 0.21 0.03 0.08 0.14 0.22 0.07 0.01 0.00 0.00 0.00 0.00 0.01 0.02 0.02 0.06 0.02 0.03 0.11 0.17 0.08 0.02 0.00 0.01 0.01 0.03 0.07 0.10 0.15 0.14 0.15 0.00 0.00 0.00 0.00 0.00 0.01 0.00
0.91 0.98 1.03 0.92 0.68 0.53 0.59 0.41 0.35 0.28 0.12 0.04 0.06 0.09 0.22 0.12 0.02 0.00 0.00 0.01 0.01 0.02 0.03 0.01 0.02 0.02 0.06 0.14 0.13 0.07 0.03 0.01 0.00 0.00 0.00 0.02 0.04 0.06 0.07 0.09 0.01 0.00 0.00 0.00 0.00 0.00 0.00
0.87 0.99 1.15 1.20 1.09 0.90 0.73 0.39 0.28 0.20 0.13 0.07 0.04 0.08 0.15 0.14 0.04 0.00 0.00 0.00 0.00 0.01 0.01 0.00 0.03 0.01 0.04 0.12 0.16 0.10 0.04 0.01 0.00 0.00 0.00 0.00 0.00 0.00 0.00 0.00 0.00 0.00 0.00 0.00 0.00 0.00 0.00

GFSGBSN_prec_precacc_081.txt.gz
Total_Precipitation_Accumulation
0.12 0.13 0.13 0.14 0.13 0.12 0.17 0.22 0.23 0.25 0.30 0.37 0.47 0.57 0.58 0.50 0.43 0.39 0.32 0.28 0.27 0.30 0.32 0.35 0.34 0.73 0.60 0.54 0.20 0.19 0.21 0.27 0.69 1.07 0.69 0.33 0.33 0.65 0.41 0.18 0.85 0.72 0.52 0.42 0.47 0.38 0.29
0.14 0.13 0.14 0.13 0.13 0.16 0.21 0.28 0.28 0.26 0.31 0.42 0.60 0.61 0.50 0.47 0.45 0.35 0.33 0.30 0.28 0.34 0.21 0.21 0.52 0.56 0.48 0.37 0.08 0.11 0.25 0.43 0.65 1.07 0.70 0.46 0.28 0.84 0.57 0.44 0.57 0.66 0.73 0.55 0.72 0.55 0.43
0.12 0.13 0.14 0.14 0.16 0.20 0.25 0.31 0.31 0.31 0.32 0.42 0.61 0.54 0.51 0.50 0.39 0.36 0.32 0.25 0.22 0.28 0.20 0.22 0.42 0.52 0.26 0.16 0.07 0.15 0.24 0.56 0.63 0.92 0.73 0.57 0.31 0.66 0.82 0.67 0.29 0.71 0.82 1.00 0.92 0.74 0.66
0.13 0.16 0.14 0.19 0.22 0.24 0.32 0.32 0.32 0.29 0.35 0.44 0.55 0.52 0.49 0.45 0.39 0.37 0.27 0.21 0.15 0.16 0.27 0.25 0.47 0.45 0.14 0.02 0.08 0.14 0.17 0.62 0.63 1.01 1.24 1.09 0.46 0.49 0.56 0.82 0.60 0.76 1.35 1.32 0.96 1.25 1.00
0.17 0.17 0.17 0.22 0.26 0.34 0.35 0.35 0.32 0.32 0.38 0.44 0.53 0.50 0.51 0.41 0.39 0.42 0.34 0.33 0.27 0.24 0.31 0.47 0.51 0.39 0.14 0.03 0.08 0.18 0.15 0.73 0.86 1.20 1.93 1.84 0.98 0.55 0.51 0.93 1.05 0.75 1.13 1.00 0.90 1.01 1.40
0.19 0.21 0.23 0.30 0.33 0.38 0.35 0.39 0.33 0.36 0.42 0.50 0.48 0.43 0.38 0.27 0.33 0.46 0.49 0.54 0.56 0.45 0.49 0.57 0.57 0.58 0.15 0.05 0.28 0.21 0.24 0.84 1.12 1.60 2.80 3.10 1.89 0.79 0.64 0.68 0.82 0.45 0.55 0.66 0.68 0.66 0.96
0.23 0.25 0.32 0.32 0.31 0.32 0.39 0.43 0.34 0.45 0.48 0.48 0.41 0.38 0.38 0.44 0.64 0.73 0.70 0.92 1.10 0.87 0.68 0.47 0.32 0.23 0.15 0.24 0.28 0.28 0.48 1.53 1.93 2.21 2.74 2.95 1.88 0.64 0.44 0.56 0.34 0.34 0.28 0.58 0.54 0.52 0.52
0.28 0.29 0.29 0.29 0.32 0.35 0.38 0.35 0.35 0.48 0.48 0.50 0.44 0.49 0.62 0.58 0.68 0.84 0.82 0.78 0.67 0.55 0.41 0.31 0.19 0.15 0.08 0.27 0.63 0.48 0.75 2.78 2.37 2.07 2.05 2.18 1.00 0.26 0.34 0.64 0.28 0.20 0.16 0.61 0.81 0.68 0.59
0.20 0.21 0.30 0.34 0.35 0.36 0.41 0.31 0.39 0.51 0.52 0.59 0.58 0.64 0.62 0.59 0.58 0.67 0.57 0.51 0.54 0.58 0.55 0.60 0.42 0.19 0.30 0.72 0.74 0.75 1.42 2.50 1.79 1.52 1.52 1.20 0.45 0.35 0.54 0.88 0.29 0.12 0.05 0.37 0.98 0.82 0.56
0.19 0.26 0.32 0.32 0.33 0.38 0.36 0.34 0.48 0.58 0.57 0.65 0.70 0.65 0.62 0.67 0.61 0.61 0.49 0.47 0.76 0.97 1.19 1.05 0.74 0.55 0.61 0.89 0.90 0.74 1.49 2.07 1.80 1.59 1.81 1.42 0.45 0.34 0.53 0.91 0.20 0.13 0.08 0.17 0.55 0.42 0.38
0.20 0.24 0.23 0.26 0.34 0.40 0.43 0.45 0.56 0.57 0.58 0.56 0.55 0.48 0.53 0.78 0.85 0.85 0.53 0.52 0.87 1.38 1.77 1.15 0.95 0.78 0.86 0.79 0.67 0.91 1.39 1.45 0.94 1.20 1.55 1.38 0.65 0.47 0.54 0.65 0.26 0.21 0.08 0.21 0.25 0.17 0.14
0.22 0.26 0.26 0.35 0.40 0.47 0.46 0.52 0.57 0.54 0.54 0.47 0.48 0.48 0.66 0.72 0.91 0.66 0.48 1.00 1.05 1.48 1.72 1.70 1.31 0.95 0.73 0.55 0.64 0.95 1.41 1.07 0.94 1.02 0.97 0.78 0.68 0.73 0.67 0.47 0.11 0.10 0.06 0.27 0.16 0.20 0.27
0.19 0.24 0.29 0.38 0.41 0.52 0.55 0.60 0.56 0.67 0.68 0.67 0.58 0.54 0.77 0.65 0.58 0.50 0.91 1.54 1.41 1.09 1.13 0.97 0.76 0.40 0.32 0.36 0.37 0.49 0.90 0.83 0.85 1.04 1.41 1.30 1.11 0.86 0.76 0.34 0.19 0.05 0.11 0.58 0.52 0.57 0.41
0.25 0.32 0.44 0.49 0.58 0.67 0.73 0.68 0.71 0.84 1.09 1.34 1.15 0.82 0.56 0.42 0.42 0.90 1.48 1.22 1.22 0.71 0.87 0.45 0.30 0.34 0.33 0.22 0.34 0.32 0.45 0.47 0.24 0.16 0.75 1.36 1.82 1.10 0.56 0.22 0.12 0.08 0.07 0.16 0.15 0.18 0.29
0.33 0.47 0.62 0.80 0.86 0.97 0.99 0.88 0.95 1.06 1.20 1.33 0.98 0.87 0.51 0.28 0.47 1.19 1.26 1.12 0.95 0.90 0.61 0.20 0.27 0.37 0.35 0.16 0.17 0.29 0.38 0.26 0.16 0.12 0.38 0.54 1.10 0.57 0.27 0.07 0.06 0.12 0.12 0.04 0.17 0.14 0.20
0.56 0.80 0.89 0.87 0.89 0.79 0.78 0.84 0.92 1.27 1.20 1.15 0.76 0.64 0.70 0.44 0.67 1.20 1.02 0.97 0.55 0.43 0.09 0.02 0.18 0.14 0.11 0.09 0.08 0.09 0.17 0.11 0.08 0.04 0.05 0.14 0.49 0.28 0.16 0.12 0.06 0.02 0.03 0.11 0.25 0.16 0.09
0.76 0.79 0.78 0.76 0.82 0.76 0.67 0.69 0.94 1.29 1.29 0.74 0.77 0.81 1.12 0.80 1.07 1.31 0.99 0.81 0.41 0.15 0.03 0.05 0.03 0.01 0.01 0.02 0.01 0.01 0.07 0.11 0.03 0.01 0.00 0.01 0.11 0.27 0.22 0.25 0.10 0.02 0.09 0.12 0.17 0.14 0.09
0.68 0.63 0.67 0.80 0.90 0.90 0.87 0.97 1.23 1.36 1.40 0.88 0.96 1.09 1.15 0.84 1.09 1.04 0.80 0.59 0.46 0.16 0.03 0.00 0.01 0.01 0.01 0.00 0.00 0.00 0.01 0.02 0.00 0.00 0.00 0.00 0.04 0.09 0.13 0.03 0.01 0.02 0.01 0.04 0.23 0.09 0.13
0.77 0.80 0.70 0.78 0.86 0.95 1.07 1.30 1.43 1.49 1.27 1.02 0.94 1.17 1.10 0.63 0.59 0.39 0.41 0.31 0.13 0.08 0.04 0.01 0.01 0.02 0.02 0.01 0.00 0.00 0.00 0.00 0.00 0.00 0.00 0.00 0.05 0.11 0.18 0.15 0.06 0.06 0.02 0.10 0.21 0.39 0.25
0.68 0.80 0.78 0.69 0.71 0.74 0.84 1.07 1.11 1.60 0.99 1.00 1.16 1.25 1.13 0.77 0.29 0.10 0.31 0.22 0.13 0.09 0.02 0.00 0.00 0.00 0.00 0.00 0.00 0.00 0.00 0.00 0.00 0.00 0.00 0.01 0.03 0.03 0.06 0.09 0.20 0.18 0.03 0.10 0.42 0.55 0.09
0.60 0.74 0.87 0.79 0.77 0.68 0.55 0.76 0.98 1.03 0.93 1.19 0.95 0.49 0.34 0.34 0.12 0.12 0.17 0.18 0.12 0.05 0.01 0.00 0.01 0.00 0.00 0.01 0.00 0.00 0.00 0.00 0.00 0.00 0.01 0.04 0.05 0.02 0.02 0.06 0.22 0.20 0.08 0.07 0.32 0.17 0.23
0.75 0.70 0.86 0.94 0.99 1.10 1.07 1.04 0.96 0.90 0.94 1.18 0.65 0.30 0.16 0.03 0.06 0.10 0.05 0.09 0.05 0.00 0.01 0.01 0.01 0.00 0.01 0.01 0.01 0.00 0.00 0.00 0.01 0.00 0.02 0.05 0.09 0.06 0.06 0.05 0.10 0.16 0.04 0.06 0.06 0.02 0.02
0.89 0.92 1.13 1.26 1.16 1.01 1.02 1.02 1.07 0.93 1.10 0.87 0.59 0.18 0.06 0.06 0.04 0.03 0.02 0.00 0.01 0.00 0.01 0.01 0.01 0.03 0.02 0.01 0.00 0.00 0.00 0.00 0.00 0.01 0.03 0.06 0.08 0.15 0.07 0.04 0.11 0.13 0.04 0.02 0.01 0.00 0.01
0.87 0.86 0.86 0.98 0.77 0.69 0.81 0.65 0.50 0.52 0.74 0.45 0.35 0.17 0.03 0.05 0.01 0.00 0.00 0.00 0.00 0.00 0.01 0.00 0.00 0.04 0.03 0.01 0.01 0.01 0.00 0.00 0.01 0.00 0.01 0.02 0.06 0.19 0.09 0.09 0.24 0.13 0.02 0.00 0.00 0.00 0.00
0.89 1.07 1.20 1.45 1.40 1.15 0.92 0.66 0.57 0.66 0.62 0.18 0.21 0.15 0.07 0.02 0.00 0.00 0.00 0.00 0.00 0.00 0.00 0.00 0.00 0.00 0.01 0.02 0.05 0.05 0.02 0.01 0.00 0.00 0.01 0.01 0.06 0.18 0.16 0.17 0.09 0.01 0.00 0.00 0.00 0.00 0.00
0.64 0.79 0.98 1.15 1.31 1.47 1.56 1.22 0.78 0.57 0.35 0.07 0.11 0.19 0.15 0.04 0.00 0.00 0.00 0.00 0.00 0.00 0.02 0.02 0.03 0.01 0.01 0.06 0.15 0.10 0.04 0.01 0.01 0.02 0.01 0.02 0.03 0.16 0.10 0.09 0.01 0.01 0.00 0.00 0.02 0.01 0.00
0.58 0.60 0.61 0.60 0.53 0.55 0.67 0.79 0.73 0.41 0.21 0.03 0.08 0.14 0.22 0.07 0.01 0.00 0.00 0.00 0.00 0.01 0.02 0.02 0.06 0.02 0.03 0.11 0.17 0.08 0.02 0.00 0.01 0.01 0.03 0.07 0.10 0.15 0.14 0.15 0.00 0.00 0.00 0.00 0.00 0.01 0.00
0.92 0.98 1.03 0.92 0.68 0.53 0.59 0.41 0.35 0.28 0.12 0.04 0.06 0.09 0.22 0.12 0.02 0.00 0.00 0.01 0.01 0.02 0.03 0.01 0.02 0.02 0.06 0.14 0.13 0.07 0.03 0.01 0.00 0.00 0.00 0.02 0.04 0.06 0.07 0.09 0.01 0.00 0.00 0.00 0.00 0.00 0.00
0.87 0.99 1.15 1.20 1.09 0.91 0.73 0.39 0.28 0.20 0.13 0.07 0.04 0.08 0.15 0.14 0.04 0.00 0.00 0.00 0.00 0.01 0.01 0.00 0.03 0.01 0.04 0.12 0.16 0.10 0.04 0.01 0.00 0.00 0.00 0.00 0.00 0.00 0.00 0.00 0.00 0.00 0.00 0.00 0.00 0.00 0.00

GFSGBSN_prec_precacc_084.txt.gz
Total_Precipitation_Accumulation
0.13 0.14 0.14 0.15 0.14 0.13 0.18 0.23 0.24 0.25 0.30 0.37 0.48 0.57 0.59 0.50 0.44 0.39 0.33 0.34 0.33 0.31 0.32 0.35 0.34 0.73 0.60 0.54 0.20 0.19 0.21 0.27 0.69 1.07 0.69 0.33 0.33 0.65 0.41 0.18 0.85 0.72 0.52 0.42 0.47 0.38 0.29
0.15 0.14 0.16 0.14 0.14 0.17 0.22 0.30 0.30 0.28 0.31 0.43 0.60 0.61 0.50 0.47 0.45 0.35 0.36 0.36 0.31 0.35 0.23 0.21 0.52 0.56 0.48 0.37 0.08 0.11 0.25 0.43 0.65 1.07 0.70 0.46 0.28 0.84 0.57 0.44 0.57 0.66 0.73 0.55 0.72 0.55 0.43
0.13 0.14 0.16 0.15 0.17 0.21 0.26 0.33 0.34 0.34 0.33 0.43 0.62 0.55 0.51 0.50 0.39 0.36 0.38 0.33 0.23 0.29 0.21 0.23 0.42 0.52 0.26 0.16 0.07 0.15 0.24 0.56 0.63 0.92 0.73 0.57 0.31 0.66 0.82 0.67 0.29 0.71 0.82 1.01 0.92 0.74 0.66
0.14 0.17 0.16 0.20 0.22 0.25 0.33 0.35 0.35 0.33 0.38 0.44 0.56 0.52 0.49 0.45 0.39 0.38 0.37 0.27 0.17 0.18 0.29 0.25 0.47 0.45 0.14 0.02 0.08 0.14 0.17 0.62 0.63 1.01 1.24 1.09 0.46 0.49 0.56 0.82 0.61 0.76 1.36 1.33 0.96 1.25 1.00
0.17 0.18 0.19 0.24 0.27 0.34 0.35 0.37 0.34 0.36 0.40 0.45 0.53 0.50 0.51 0.41 0.39 0.46 0.45 0.49 0.31 0.25 0.31 0.48 0.51 0.39 0.14 0.03 0.08 0.18 0.15 0.73 0.86 1.20 1.93 1.84 0.98 0.55 0.52 0.95 1.07 0.76 1.14 1.00 0.90 1.01 1.40
0.19 0.23 0.25 0.31 0.35 0.39 0.36 0.40 0.36 0.40 0.46 0.51 0.48 0.44 0.38 0.27 0.34 0.59 0.73 0.65 0.58 0.45 0.50 0.57 0.57 0.58 0.15 0.05 0.28 0.21 0.24 0.84 1.12 1.60 2.80 3.11 1.91 0.81 0.65 0.70 0.84 0.45 0.58 0.69 0.69 0.67 0.97
0.23 0.26 0.34 0.34 0.33 0.33 0.39 0.44 0.37 0.49 0.51 0.49 0.41 0.38 0.38 0.44 0.65 1.01 0.88 1.06 1.17 0.92 0.69 0.47 0.32 0.23 0.15 0.24 0.28 0.28 0.48 1.53 1.93 2.21 2.74 2.98 1.91 0.65 0.44 0.57 0.34 0.35 0.29 0.60 0.54 0.54 0.59
0.28 0.29 0.31 0.31 0.33 0.35 0.40 0.40 0.40 0.51 0.50 0.51 0.44 0.49 0.62 0.58 0.68 1.06 1.08 0.82 0.78 0.61 0.44 0.31 0.19 0.15 0.08 0.27 0.63 0.48 0.75 2.78 2.38 2.07 2.06 2.21 1.01 0.27 0.34 0.65 0.29 0.20 0.17 0.62 0.83 0.70 0.65
0.21 0.21 0.32 0.36 0.36 0.40 0.47 0.37 0.44 0.56 0.55 0.60 0.59 0.64 0.62 0.59 0.58 0.70 0.68 0.61 0.57 0.61 0.62 0.60 0.42 0.19 0.30 0.72 0.74 0.75 1.42 2.50 1.80 1.52 1.53 1.21 0.46 0.39 0.56 0.91 0.32 0.13 0.07 0.38 1.18 0.89 0.58
0.21 0.26 0.35 0.35 0.38 0.43 0.43 0.50 0.56 0.64 0.62 0.69 0.72 0.65 0.62 0.67 0.62 0.62 0.54 0.52 0.78 0.98 1.23 1.05 0.74 0.55 0.61 0.89 0.91 0.74 1.49 2.07 1.81 1.60 1.82 1.43 0.45 0.35 0.55 0.97 0.30 0.16 0.09 0.35 0.72 0.44 0.44
0.22 0.24 0.26 0.31 0.40 0.44 0.55 0.56 0.62 0.61 0.61 0.59 0.59 0.49 0.55 0.80 0.87 0.87 0.63 0.55 0.92 1.41 1.80 1.16 0.95 0.78 0.86 0.79 0.67 0.91 1.39 1.45 0.94 1.21 1.56 1.39 0.65 0.51 0.60 0.68 0.38 0.34 0.08 0.28 0.33 0.20 0.17
0.23 0.26 0.28 0.40 0.45 0.52 0.52 0.58 0.62 0.56 0.57 0.55 0.55 0.53 0.70 0.75 0.92 0.67 0.58 1.03 1.15 1.57 1.74 1.70 1.31 0.95 0.74 0.55 0.65 0.96 1.41 1.07 0.94 1.03 0.98 0.78 0.68 0.76 0.69 0.48 0.19 0.13 0.06 0.31 0.26 0.30 0.32
0.19 0.25 0.31 0.41 0.45 0.57 0.61 0.65 0.60 0.71 0.78 0.83 0.71 0.57 0.79 0.68 0.61 0.53 0.96 1.61 1.55 1.14 1.14 0.97 0.76 0.40 0.32 0.36 0.37 0.49 0.90 0.83 0.86 1.06 1.42 1.30 1.11 0.86 0.76 0.35 0.19 0.06 0.20 0.71 0.68 0.81 0.49
0.25 0.32 0.45 0.51 0.62 0.72 0.79 0.77 0.86 1.05 1.28 1.51 1.32 0.89 0.57 0.43 0.44 0.93 1.49 1.32 1.29 0.72 0.87 0.45 0.30 0.35 0.34 0.22 0.34 0.33 0.45 0.48 0.25 0.17 0.79 1.39 1.86 1.12 0.62 0.27 0.16 0.14 0.17 0.35 0.35 0.22 0.33
0.33 0.47 0.63 0.82 0.90 1.01 1.07 1.04 1.14 1.33 1.32 1.42 1.01 0.94 0.53 0.30 0.49 1.21 1.30 1.29 1.08 0.90 0.61 0.20 0.27 0.37 0.35 0.16 0.18 0.29 0.38 0.27 0.16 0.15 0.47 0.59 1.12 0.58 0.28 0.08 0.08 0.13 0.13 0.08 0.21 0.14 0.23
0.56 0.81 0.90 0.89 0.92 0.81 0.83 0.96 1.00 1.45 1.29 1.20 0.79 0.69 0.73 0.45 0.68 1.22 1.11 1.15 0.58 0.43 0.09 0.02 0.18 0.14 0.11 0.09 0.09 0.10 0.19 0.12 0.09 0.07 0.10 0.16 0.55 0.29 0.16 0.13 0.06 0.02 0.03 0.11 0.26 0.17 0.11
0.76 0.79 0.79 0.77 0.83 0.77 0.70 0.77 0.98 1.32 1.31 0.76 0.78 0.86 1.18 0.82 1.10 1.39 1.12 0.92 0.42 0.15 0.03 0.05 0.03 0.01 0.01 0.03 0.03 0.02 0.07 0.11 0.04 0.05 0.02 0.01 0.13 0.27 0.23 0.25 0.10 0.02 0.09 0.12 0.17 0.14 0.09
0.68 0.63 0.68 0.80 0.91 0.91 0.89 1.00 1.26 1.36 1.40 0.88 0.96 1.21 1.27 0.87 1.14 1.15 0.95 0.62 0.46 0.16 0.03 0.00 0.01 0.01 0.01 0.01 0.00 0.01 0.02 0.02 0.00 0.00 0.00 0.00 0.04 0.10 0.13 0.03 0.01 0.02 0.01 0.04 0.23 0.09 0.13
0.77 0.81 0.70 0.79 0.87 0.95 1.07 1.31 1.45 1.50 1.27 1.02 0.94 1.27 1.19 0.67 0.63 0.53 0.45 0.31 0.13 0.08 0.04 0.01 0.01 0.02 0.02 0.01 0.01 0.01 0.00 0.00 0.00 0.00 0.00 0.00 0.05 0.12 0.18 0.16 0.06 0.06 0.02 0.10 0.21 0.39 0.25
0.69 0.80 0.78 0.70 0.71 0.74 0.84 1.07 1.11 1.60 0.99 1.00 1.16 1.29 1.17 0.78 0.32 0.15 0.31 0.22 0.13 0.09 0.02 0.00 0.00 0.00 0.00 0.00 0.00 0.00 0.00 0.00 0.00 0.00 0.00 0.01 0.03 0.03 0.06 0.09 0.20 0.18 0.03 0.10 0.42 0.55 0.09
0.61 0.75 0.87 0.80 0.77 0.68 0.55 0.76 0.98 1.03 0.93 1.19 0.95 0.49 0.35 0.35 0.13 0.12 0.17 0.18 0.12 0.05 0.01 0.00 0.01 0.00 0.00 0.01 0.00 0.00 0.00 0.00 0.00 0.00 0.01 0.04 0.05 0.02 0.02 0.06 0.22 0.20 0.08 0.07 0.32 0.17 0.23
0.76 0.71 0.86 0.95 1.00 1.10 1.08 1.04 0.96 0.90 0.94 1.18 0.65 0.30 0.16 0.03 0.06 0.10 0.05 0.09 0.05 0.00 0.01 0.01 0.01 0.00 0.01 0.01 0.01 0.00 0.00 0.00 0.01 0.00 0.02 0.05 0.09 0.06 0.06 0.05 0.10 0.16 0.04 0.06 0.06 0.02 0.02
0.90 0.93 1.13 1.27 1.16 1.01 1.02 1.02 1.07 0.93 1.10 0.87 0.59 0.18 0.06 0.06 0.05 0.03 0.02 0.00 0.01 0.00 0.01 0.01 0.01 0.03 0.02 0.01 0.00 0.00 0.00 0.00 0.00 0.01 0.03 0.06 0.08 0.15 0.07 0.04 0.11 0.13 0.04 0.02 0.01 0.00 0.01
0.88 0.86 0.86 0.98 0.78 0.69 0.82 0.65 0.50 0.52 0.74 0.45 0.35 0.17 0.03 0.05 0.01 0.00 0.00 0.00 0.00 0.00 0.01 0.00 0.00 0.04 0.03 0.01 0.01 0.01 0.00 0.00 0.01 0.00 0.01 0.02 0.06 0.19 0.09 0.09 0.24 0.13 0.02 0.00 0.00 0.00 0.00
0.89 1.07 1.21 1.45 1.40 1.15 0.92 0.66 0.57 0.66 0.62 0.18 0.21 0.15 0.07 0.02 0.00 0.00 0.00 0.00 0.00 0.00 0.00 0.00 0.00 0.00 0.01 0.02 0.05 0.05 0.02 0.01 0.00 0.00 0.01 0.01 0.06 0.18 0.16 0.17 0.09 0.01 0.00 0.00 0.00 0.00 0.00
0.64 0.79 0.98 1.16 1.32 1.47 1.56 1.22 0.78 0.57 0.35 0.07 0.11 0.19 0.15 0.04 0.00 0.00 0.00 0.00 0.00 0.00 0.02 0.02 0.03 0.01 0.01 0.06 0.15 0.10 0.04 0.01 0.01 0.02 0.01 0.02 0.03 0.16 0.10 0.09 0.01 0.01 0.00 0.00 0.02 0.01 0.00
0.58 0.60 0.61 0.60 0.53 0.56 0.67 0.79 0.73 0.41 0.21 0.03 0.08 0.14 0.22 0.07 0.01 0.00 0.00 0.00 0.00 0.01 0.02 0.02 0.06 0.02 0.03 0.11 0.17 0.08 0.02 0.00 0.01 0.01 0.03 0.07 0.10 0.15 0.14 0.15 0.00 0.00 0.00 0.00 0.00 0.01 0.00
0.92 0.98 1.03 0.92 0.68 0.53 0.59 0.41 0.35 0.28 0.12 0.04 0.06 0.09 0.22 0.12 0.02 0.00 0.00 0.01 0.01 0.02 0.03 0.01 0.02 0.02 0.06 0.14 0.13 0.07 0.03 0.01 0.00 0.00 0.00 0.02 0.04 0.06 0.07 0.09 0.01 0.00 0.00 0.00 0.00 0.00 0.00
0.87 0.99 1.15 1.20 1.09 0.91 0.73 0.39 0.28 0.20 0.13 0.07 0.04 0.08 0.15 0.14 0.04 0.00 0.00 0.00 0.00 0.01 0.01 0.00 0.03 0.01 0.04 0.12 0.16 0.10 0.04 0.01 0.00 0.00 0.00 0.00 0.00 0.00 0.00 0.00 0.00 0.00 0.00 0.00 0.00 0.00 0.00

GFSGBSN_prec_precacc_087.txt.gz
Total_Precipitation_Accumulation
0.13 0.14 0.15 0.16 0.15 0.14 0.19 0.24 0.25 0.27 0.32 0.39 0.48 0.59 0.60 0.50 0.44 0.39 0.34 0.34 0.35 0.37 0.38 0.37 0.34 0.73 0.60 0.54 0.20 0.19 0.21 0.27 0.69 1.07 0.69 0.33 0.33 0.65 0.41 0.18 0.85 0.72 0.52 0.42 0.47 0.38 0.29
0.15 0.15 0.16 0.15 0.16 0.18 0.22 0.31 0.31 0.31 0.34 0.45 0.62 0.62 0.50 0.47 0.46 0.35 0.36 0.36 0.34 0.41 0.24 0.22 0.53 0.56 0.48 0.37 0.08 0.11 0.25 0.43 0.65 1.07 0.70 0.46 0.28 0.84 0.57 0.44 0.57 0.66 0.73 0.55 0.72 0.55 0.43
0.13 0.14 0.16 0.17 0.19 0.22 0.27 0.34 0.35 0.36 0.37 0.46 0.65 0.56 0.51 0.50 0.40 0.36 0.38 0.34 0.29 0.35 0.24 0.23 0.42 0.52 0.26 0.16 0.07 0.15 0.24 0.56 0.63 0.92 0.73 0.57 0.31 0.66 0.82 0.67 0.29 0.71 0.82 1.01 0.92 0.74 0.66
0.14 0.17 0.16 0.21 0.24 0.27 0.35 0.36 0.36 0.35 0.42 0.47 0.58 0.54 0.50 0.45 0.39 0.38 0.38 0.33 0.24 0.22 0.32 0.26 0.48 0.45 0.14 0.02 0.08 0.14 0.17 0.62 0.63 1.01 1.24 1.09 0.46 0.49 0.56 0.82 0.61 0.76 1.36 1.33 0.96 1.25 1.00
0.19 0.20 0.20 0.24 0.29 0.37 0.38 0.38 0.35 0.38 0.42 0.47 0.54 0.52 0.52 0.41 0.39 0.47 0.59 0.57 0.47 0.34 0.34 0.49 0.53 0.40 0.14 0.03 0.08 0.18 0.15 0.73 0.86 1.20 1.93 1.84 0.98 0.55 0.52 0.95 1.07 0.76 1.14 1.00 0.90 1.01 1.40
0.29 0.31 0.27 0.32 0.37 0.42 0.37 0.41 0.38 0.42 0.48 0.53 0.49 0.44 0.38 0.27 0.34 0.60 1.22 0.78 0.79 0.59 0.51 0.58 0.59 0.58 0.15 0.05 0.28 0.21 0.24 0.84 1.12 1.60 2.80 3.11 1.91 0.81 0.65 0.71 0.85 0.45 0.58 0.69 0.70 0.67 1.02
0.37 0.33 0.35 0.35 0.35 0.36 0.41 0.47 0.42 0.53 0.56 0.53 0.44 0.39 0.39 0.44 0.65 1.06 1.20 1.22 1.37 1.13 0.74 0.48 0.32 0.23 0.15 0.24 0.28 0.28 0.48 1.53 1.93 2.21 2.74 2.98 1.91 0.65 0.44 0.57 0.34 0.35 0.29 0.60 0.54 0.54 0.61
0.41 0.33 0.31 0.31 0.38 0.39 0.43 0.45 0.50 0.55 0.55 0.55 0.47 0.51 0.63 0.58 0.68 1.06 1.15 1.00 0.97 0.77 0.56 0.36 0.19 0.15 0.08 0.27 0.63 0.48 0.75 2.78 2.38 2.07 2.06 2.21 1.02 0.27 0.34 0.66 0.31 0.22 0.20 0.63 0.83 0.70 0.68
0.29 0.23 0.32 0.39 0.41 0.43 0.49 0.47 0.59 0.59 0.60 0.63 0.60 0.67 0.63 0.59 0.58 0.71 0.72 0.78 0.75 0.74 0.76 0.67 0.42 0.19 0.30 0.72 0.74 0.75 1.42 2.50 1.80 1.52 1.53 1.21 0.46 0.40 0.56 0.91 0.34 0.14 0.08 0.39 1.19 0.90 0.60
0.24 0.27 0.35 0.38 0.42 0.46 0.46 0.56 0.59 0.66 0.65 0.72 0.74 0.72 0.64 0.67 0.64 0.62 0.60 0.80 0.88 1.02 1.32 1.14 0.75 0.55 0.61 0.89 0.91 0.74 1.49 2.07 1.81 1.60 1.82 1.43 0.45 0.35 0.56 0.99 0.37 0.23 0.09 0.37 0.73 0.48 0.46
0.22 0.24 0.26 0.34 0.43 0.47 0.59 0.61 0.68 0.65 0.65 0.61 0.60 0.51 0.57 0.81 0.89 0.88 0.64 0.60 0.98 1.42 1.86 1.21 0.95 0.78 0.86 0.79 0.67 0.92 1.39 1.45 0.94 1.21 1.57 1.39 0.65 0.51 0.64 0.71 0.44 0.41 0.10 0.29 0.34 0.22 0.21
0.23 0.26 0.28 0.42 0.47 0.56 0.60 0.72 0.74 0.67 0.62 0.59 0.57 0.53 0.71 0.76 0.93 0.68 0.58 1.04 1.16 1.58 1.77 1.72 1.31 0.95 0.74 0.55 0.65 0.96 1.41 1.07 0.94 1.03 0.98 0.78 0.68 0.77 0.70 0.48 0.22 0.16 0.09 0.37 0.29 0.34 0.36
0.19 0.25 0.33 0.44 0.48 0.61 0.79 0.87 0.73 0.90 0.86 0.90 0.89 0.60 0.80 0.68 0.62 0.53 0.96 1.61 1.58 1.19 1.15 0.98 0.76 0.40 0.32 0.37 0.38 0.49 0.90 0.83 0.86 1.07 1.42 1.30 1.11 0.86 0.76 0.35 0.21 0.17 0.37 0.99 0.93 1.06 0.58
0.25 0.33 0.48 0.54 0.65 0.76 1.03 1.01 0.92 1.17 1.37 1.54 1.41 0.94 0.58 0.45 0.48 0.93 1.49 1.32 1.34 0.77 0.88 0.45 0.30 0.35 0.34 0.22 0.34 0.33 0.45 0.48 0.25 0.17 0.80 1.40 1.87 1.12 0.63 0.28 0.29 0.20 0.31 0.58 0.54 0.26 0.37
0.34 0.49 0.66 0.84 0.93 1.03 1.22 1.22 1.18 1.37 1.34 1.46 1.07 0.97 0.54 0.32 0.50 1.21 1.30 1.34 1.18 0.92 0.61 0.20 0.28 0.38 0.36 0.16 0.18 0.29 0.38 0.27 0.17 0.16 0.50 0.60 1.13 0.58 0.28 0.08 0.09 0.16 0.24 0.16 0.31 0.15 0.26
0.57 0.82 0.92 0.92 0.94 0.83 0.88 1.07 1.07 1.48 1.31 1.21 0.81 0.70 0.75 0.46 0.69 1.22 1.12 1.29 0.61 0.43 0.09 0.02 0.18 0.14 0.11 0.09 0.09 0.10 0.19 0.12 0.09 0.08 0.10 0.17 0.56 0.30 0.16 0.13 0.06 0.02 0.03 0.11 0.32 0.22 0.16
0.77 0.80 0.80 0.79 0.84 0.78 0.71 0.80 1.04 1.37 1.33 0.76 0.78 0.86 1.20 0.82 1.10 1.39 1.14 1.02 0.45 0.16 0.05 0.05 0.03 0.01 0.01 0.03 0.03 0.03 0.07 0.11 0.05 0.06 0.02 0.01 0.15 0.28 0.23 0.25 0.10 0.02 0.09 0.12 0.17 0.14 0.09
0.69 0.64 0.68 0.81 0.93 0.92 0.89 1.00 1.27 1.40 1.41 0.88 0.96 1.23 1.29 0.87 1.14 1.17 1.01 0.67 0.51 0.16 0.03 0.00 0.01 0.01 0.01 0.01 0.00 0.01 0.02 0.02 0.01 0.00 0.00 0.00 0.04 0.10 0.13 0.03 0.01 0.02 0.01 0.04 0.23 0.09 0.13
0.78 0.82 0.71 0.79 0.88 0.96 1.07 1.31 1.45 1.51 1.27 1.02 0.95 1.28 1.19 0.68 0.66 0.58 0.46 0.32 0.14 0.08 0.04 0.01 0.01 0.02 0.02 0.01 0.01 0.01 0.00 0.00 0.00 0.00 0.00 0.00 0.05 0.12 0.18 0.16 0.06 0.06 0.02 0.10 0.21 0.39 0.25
0.69 0.81 0.79 0.70 0.71 0.75 0.84 1.07 1.11 1.60 0.99 1.00 1.16 1.29 1.17 0.78 0.33 0.15 0.31 0.22 0.13 0.09 0.02 0.00 0.00 0.00 0.00 0.00 0.00 0.00 0.00 0.00 0.00 0.00 0.00 0.01 0.03 0.03 0.06 0.09 0.20 0.18 0.03 0.10 0.42 0.55 0.09
0.61 0.75 0.87 0.81 0.77 0.68 0.56 0.76 0.98 1.03 0.93 1.19 0.95 0.49 0.35 0.35 0.13 0.12 0.17 0.18 0.12 0.05 0.01 0.00 0.01 0.00 0.00 0.01 0.00 0.00 0.00 0.00 0.00 0.00 0.01 0.04 0.05 0.02 0.02 0.06 0.22 0.20 0.08 0.07 0.32 0.17 0.23
0.76 0.71 0.86 0.95 1.00 1.11 1.08 1.04 0.96 0.90 0.94 1.18 0.65 0.30 0.16 0.03 0.06 0.10 0.05 0.09 0.05 0.00 0.01 0.01 0.01 0.00 0.01 0.01 0.01 0.00 0.00 0.00 0.01 0.00 0.02 0.05 0.09 0.06 0.06 0.05 0.10 0.16 0.04 0.06 0.06 0.02 0.02
0.90 0.93 1.13 1.27 1.16 1.02 1.02 1.02 1.07 0.93 1.10 0.87 0.59 0.18 0.06 0.06 0.05 0.03 0.02 0.00 0.01 0.00 0.01 0.01 0.01 0.03 0.02 0.01 0.00 0.00 0.00 0.00 0.00 0.01 0.03 0.06 0.08 0.15 0.07 0.04 0.11 0.13 0.04 0.02 0.01 0.00 0.01
0.88 0.87 0.86 0.98 0.78 0.69 0.82 0.65 0.50 0.52 0.74 0.45 0.35 0.17 0.03 0.05 0.01 0.00 0.00 0.00 0.00 0.00 0.01 0.00 0.00 0.04 0.03 0.01 0.01 0.01 0.00 0.00 0.01 0.00 0.01 0.02 0.06 0.19 0.09 0.09 0.24 0.13 0.02 0.00 0.00 0.00 0.00
0.89 1.07 1.21 1.45 1.40 1.15 0.92 0.66 0.57 0.66 0.62 0.18 0.21 0.15 0.07 0.02 0.00 0.00 0.00 0.00 0.00 0.00 0.00 0.00 0.00 0.00 0.01 0.02 0.05 0.05 0.02 0.01 0.00 0.00 0.01 0.01 0.06 0.18 0.16 0.17 0.09 0.01 0.00 0.00 0.00 0.00 0.00
0.64 0.79 0.98 1.16 1.32 1.48 1.56 1.22 0.78 0.57 0.35 0.07 0.11 0.19 0.15 0.04 0.00 0.00 0.00 0.00 0.00 0.00 0.02 0.02 0.03 0.01 0.01 0.06 0.15 0.10 0.04 0.01 0.01 0.02 0.01 0.02 0.03 0.16 0.10 0.09 0.01 0.01 0.00 0.00 0.02 0.01 0.00
0.58 0.60 0.61 0.60 0.53 0.56 0.67 0.79 0.73 0.41 0.21 0.03 0.08 0.14 0.22 0.07 0.01 0.00 0.00 0.00 0.00 0.01 0.02 0.02 0.06 0.02 0.03 0.11 0.17 0.08 0.02 0.00 0.01 0.01 0.03 0.07 0.10 0.15 0.14 0.15 0.00 0.00 0.00 0.00 0.00 0.01 0.00
0.92 0.98 1.03 0.92 0.68 0.53 0.59 0.41 0.35 0.28 0.12 0.04 0.06 0.09 0.22 0.12 0.02 0.00 0.00 0.01 0.01 0.02 0.03 0.01 0.02 0.02 0.06 0.14 0.13 0.07 0.03 0.01 0.00 0.00 0.00 0.02 0.04 0.06 0.07 0.09 0.01 0.00 0.00 0.00 0.00 0.00 0.00
0.87 0.99 1.15 1.20 1.09 0.91 0.73 0.39 0.28 0.20 0.13 0.07 0.04 0.08 0.15 0.14 0.04 0.00 0.00 0.00 0.00 0.01 0.01 0.00 0.03 0.01 0.04 0.12 0.16 0.10 0.04 0.01 0.00 0.00 0.00 0.00 0.00 0.00 0.00 0.00 0.00 0.00 0.00 0.00 0.00 0.00 0.00

GFSGBSN_prec_precacc_090.txt.gz
Total_Precipitation_Accumulation
0.13 0.14 0.15 0.16 0.16 0.15 0.20 0.24 0.26 0.27 0.33 0.40 0.50 0.61 0.62 0.52 0.44 0.40 0.34 0.35 0.35 0.39 0.43 0.52 0.37 0.73 0.60 0.54 0.20 0.19 0.21 0.27 0.69 1.07 0.69 0.33 0.33 0.65 0.41 0.18 0.85 0.72 0.52 0.42 0.47 0.38 0.29
0.16 0.16 0.17 0.17 0.16 0.19 0.23 0.32 0.33 0.31 0.35 0.47 0.65 0.66 0.52 0.48 0.46 0.36 0.37 0.37 0.35 0.43 0.28 0.28 0.60 0.57 0.48 0.37 0.08 0.11 0.25 0.43 0.65 1.07 0.70 0.46 0.28 0.84 0.57 0.44 0.57 0.66 0.73 0.55 0.72 0.55 0.43
0.18 0.19 0.25 0.24 0.21 0.23 0.29 0.37 0.40 0.38 0.39 0.50 0.68 0.60 0.52 0.50 0.40 0.37 0.38 0.34 0.30 0.41 0.34 0.29 0.43 0.53 0.26 0.16 0.07 0.15 0.24 0.56 0.63 0.92 0.73 0.57 0.31 0.66 0.82 0.67 0.29 0.71 0.82 1.01 0.92 0.74 0.66
0.24 0.28 0.31 0.25 0.26 0.27 0.37 0.40 0.41 0.37 0.45 0.50 0.59 0.55 0.51 0.45 0.39 0.38 0.38 0.34 0.25 0.28 0.47 0.32 0.49 0.45 0.14 0.02 0.08 0.14 0.17 0.62 0.63 1.01 1.24 1.09 0.46 0.49 0.56 0.82 0.61 0.76 1.36 1.33 0.96 1.25 1.00
0.30 0.33 0.28 0.26 0.29 0.38 0.42 0.43 0.39 0.40 0.46 0.52 0.57 0.54 0.54 0.41 0.39 0.47 0.63 0.67 0.58 0.53 0.52 0.60 0.57 0.41 0.16 0.03 0.08 0.18 0.15 0.73 0.86 1.20 1.93 1.84 0.98 0.55 0.52 0.95 1.07 0.76 1.14 1.00 0.90 1.01 1.40
0.34 0.36 0.29 0.33 0.37 0.45 0.44 0.46 0.42 0.46 0.54 0.60 0.54 0.46 0.42 0.28 0.34 0.60 1.70 1.06 0.95 0.89 0.71 0.72 0.61 0.65 0.17 0.05 0.28 0.21 0.24 0.84 1.12 1.60 2.80 3.11 1.91 0.81 0.65 0.71 0.85 0.45 0.58 0.69 0.70 0.67 1.02
0.38 0.34 0.36 0.35 0.36 0.39 0.46 0.52 0.46 0.56 0.57 0.58 0.50 0.41 0.44 0.44 0.66 1.06 1.56 1.59 1.40 1.29 0.99 0.60 0.34 0.26 0.16 0.24 0.28 0.28 0.48 1.53 1.93 2.21 2.74 2.98 1.91 0.65 0.44 0.57 0.34 0.35 0.29 0.60 0.54 0.54 0.62
0.41 0.34 0.32 0.32 0.40 0.41 0.47 0.52 0.57 0.57 0.57 0.60 0.53 0.56 0.68 0.59 0.68 1.07 1.24 1.38 1.05 0.96 0.83 0.43 0.20 0.15 0.08 0.27 0.63 0.48 0.75 2.78 2.38 2.07 2.06 2.21 1.02 0.27 0.34 0.66 0.31 0.23 0.21 0.63 0.83 0.70 0.69
0.29 0.24 0.32 0.40 0.44 0.47 0.57 0.59 0.69 0.68 0.66 0.70 0.66 0.74 0.67 0.59 0.58 0.72 0.72 0.91 0.82 0.96 0.91 0.74 0.46 0.19 0.30 0.72 0.74 0.75 1.42 2.50 1.80 1.52 1.53 1.21 0.46 0.40 0.56 0.91 0.34 0.15 0.09 0.39 1.21 0.91 0.60
0.24 0.27 0.35 0.39 0.47 0.55 0.64 0.77 0.73 0.77 0.74 0.77 0.77 0.76 0.66 0.67 0.64 0.62 0.60 0.81 0.95 1.15 1.47 1.28 0.78 0.56 0.61 0.89 0.91 0.74 1.49 2.07 1.81 1.60 1.82 1.43 0.45 0.35 0.56 0.99 0.38 0.24 0.09 0.39 0.76 0.51 0.47
0.22 0.24 0.27 0.36 0.47 0.58 0.86 0.85 0.80 0.77 0.83 0.65 0.62 0.53 0.57 0.81 0.89 0.88 0.65 0.60 1.01 1.49 1.99 1.39 0.98 0.78 0.86 0.79 0.67 0.92 1.39 1.45 0.94 1.21 1.57 1.39 0.65 0.51 0.64 0.71 0.44 0.42 0.11 0.31 0.35 0.23 0.23
0.23 0.27 0.29 0.43 0.51 0.63 0.87 0.90 0.82 0.77 0.70 0.63 0.60 0.53 0.71 0.76 0.93 0.68 0.58 1.04 1.20 1.62 1.85 1.81 1.33 0.96 0.74 0.56 0.66 0.96 1.41 1.07 0.94 1.03 0.98 0.78 0.68 0.77 0.70 0.48 0.22 0.17 0.12 0.43 0.33 0.36 0.41
0.20 0.26 0.34 0.45 0.50 0.65 0.95 0.97 0.78 0.95 0.88 0.93 0.95 0.62 0.80 0.69 0.62 0.53 0.96 1.62 1.58 1.20 1.18 1.00 0.77 0.40 0.33 0.37 0.38 0.49 0.90 0.83 0.86 1.07 1.42 1.30 1.11 0.86 0.76 0.35 0.23 0.21 0.51 1.14 1.05 1.08 0.63
0.26 0.34 0.49 0.55 0.66 0.79 1.12 1.06 0.93 1.19 1.38 1.56 1.46 0.95 0.58 0.46 0.48 0.93 1.49 1.32 1.35 0.80 0.88 0.46 0.30 0.36 0.35 0.23 0.34 0.33 0.45 0.48 0.25 0.17 0.81 1.40 1.87 1.12 0.63 0.28 0.33 0.27 0.47 0.77 0.64 0.31 0.39
0.35 0.49 0.66 0.85 0.94 1.06 1.28 1.26 1.19 1.38 1.35 1.47 1.07 0.97 0.54 0.32 0.50 1.21 1.30 1.35 1.20 0.93 0.61 0.20 0.29 0.39 0.36 0.16 0.18 0.29 0.38 0.27 0.17 0.16 0.50 0.60 1.13 0.58 0.28 0.08 0.12 0.23 0.32 0.22 0.33 0.16 0.27
0.57 0.82 0.92 0.92 0.94 0.84 0.93 1.12 1.08 1.49 1.31 1.21 0.81 0.70 0.75 0.46 0.69 1.22 1.12 1.31 0.62 0.43 0.09 0.02 0.18 0.14 0.11 0.09 0.09 0.10 0.19 0.12 0.09 0.08 0.10 0.17 0.57 0.30 0.16 0.13 0.06 0.02 0.03 0.14 0.36 0.26 0.21
0.77 0.81 0.80 0.79 0.84 0.79 0.72 0.86 1.07 1.38 1.33 0.76 0.78 0.86 1.20 0.82 1.10 1.39 1.15 1.08 0.49 0.18 0.05 0.05 0.03 0.01 0.01 0.03 0.03 0.03 0.07 0.11 0.05 0.06 0.02 0.01 0.16 0.28 0.23 0.25 0.10 0.02 0.09 0.12 0.17 0.15 0.12
0.69 0.64 0.68 0.81 0.93 0.92 0.89 1.01 1.31 1.41 1.41 0.88 0.96 1.23 1.29 0.87 1.14 1.17 1.06 0.77 0.56 0.17 0.03 0.00 0.01 0.01 0.01 0.01 0.00 0.01 0.02 0.02 0.01 0.00 0.00 0.00 0.04 0.10 0.13 0.03 0.01 0.02 0.01 0.04 0.23 0.09 0.13
0.78 0.82 0.71 0.79 0.88 0.96 1.07 1.31 1.45 1.51 1.27 1.02 0.95 1.29 1.19 0.68 0.66 0.58 0.46 0.32 0.14 0.08 0.04 0.01 0.01 0.02 0.02 0.01 0.01 0.01 0.00 0.00 0.00 0.00 0.00 0.00 0.05 0.12 0.18 0.16 0.06 0.06 0.02 0.10 0.21 0.39 0.25
0.69 0.81 0.79 0.70 0.72 0.75 0.84 1.07 1.11 1.60 0.99 1.00 1.16 1.29 1.17 0.78 0.33 0.15 0.31 0.22 0.13 0.09 0.02 0.00 0.00 0.00 0.00 0.00 0.00 0.00 0.00 0.00 0.00 0.00 0.00 0.01 0.03 0.03 0.06 0.09 0.20 0.18 0.03 0.10 0.42 0.55 0.09
0.61 0.76 0.88 0.82 0.78 0.69 0.56 0.76 0.98 1.03 0.93 1.19 0.95 0.49 0.35 0.35 0.13 0.12 0.17 0.18 0.12 0.05 0.01 0.00 0.01 0.00 0.00 0.01 0.00 0.00 0.00 0.00 0.00 0.00 0.01 0.04 0.05 0.02 0.02 0.06 0.22 0.20 0.08 0.07 0.32 0.17 0.23
0.76 0.71 0.86 0.96 1.00 1.11 1.08 1.04 0.96 0.90 0.94 1.18 0.65 0.30 0.16 0.03 0.06 0.10 0.05 0.09 0.05 0.00 0.01 0.01 0.01 0.00 0.01 0.01 0.01 0.00 0.00 0.00 0.01 0.00 0.02 0.05 0.09 0.06 0.06 0.05 0.10 0.16 0.04 0.06 0.06 0.02 0.02
0.90 0.93 1.13 1.27 1.16 1.02 1.02 1.02 1.07 0.93 1.10 0.87 0.59 0.18 0.06 0.06 0.05 0.03 0.02 0.00 0.01 0.00 0.01 0.01 0.01 0.03 0.02 0.01 0.00 0.00 0.00 0.00 0.00 0.01 0.03 0.06 0.08 0.15 0.07 0.04 0.11 0.13 0.04 0.02 0.01 0.00 0.01
0.88 0.87 0.87 0.99 0.78 0.69 0.82 0.65 0.50 0.52 0.74 0.45 0.35 0.17 0.03 0.05 0.01 0.00 0.00 0.00 0.00 0.00 0.01 0.00 0.00 0.04 0.03 0.01 0.01 0.01 0.00 0.00 0.01 0.00 0.01 0.02 0.06 0.19 0.09 0.09 0.24 0.13 0.02 0.00 0.00 0.00 0.00
0.89 1.07 1.21 1.45 1.41 1.15 0.92 0.66 0.57 0.66 0.62 0.18 0.21 0.15 0.07 0.02 0.00 0.00 0.00 0.00 0.00 0.00 0.00 0.00 0.00 0.00 0.01 0.02 0.05 0.05 0.02 0.01 0.00 0.00 0.01 0.01 0.06 0.18 0.16 0.17 0.09 0.01 0.00 0.00 0.00 0.00 0.00
0.64 0.79 0.98 1.16 1.33 1.48 1.56 1.22 0.78 0.57 0.35 0.07 0.11 0.19 0.15 0.04 0.00 0.00 0.00 0.00 0.00 0.00 0.02 0.02 0.03 0.01 0.01 0.06 0.15 0.10 0.04 0.01 0.01 0.02 0.01 0.02 0.03 0.16 0.10 0.09 0.01 0.01 0.00 0.00 0.02 0.01 0.00
0.58 0.60 0.61 0.60 0.54 0.56 0.67 0.79 0.73 0.41 0.21 0.03 0.08 0.14 0.22 0.07 0.01 0.00 0.00 0.00 0.00 0.01 0.02 0.02 0.06 0.02 0.03 0.11 0.17 0.08 0.02 0.00 0.01 0.01 0.03 0.07 0.10 0.15 0.14 0.15 0.00 0.00 0.00 0.00 0.00 0.01 0.00
0.92 0.98 1.03 0.92 0.68 0.53 0.59 0.41 0.35 0.28 0.12 0.04 0.06 0.09 0.22 0.12 0.02 0.00 0.00 0.01 0.01 0.02 0.03 0.01 0.02 0.02 0.06 0.14 0.13 0.07 0.03 0.01 0.00 0.00 0.00 0.02 0.04 0.06 0.07 0.09 0.01 0.00 0.00 0.00 0.00 0.00 0.00
0.87 0.99 1.15 1.20 1.09 0.91 0.73 0.39 0.28 0.20 0.13 0.07 0.04 0.08 0.15 0.14 0.04 0.00 0.00 0.00 0.00 0.01 0.01 0.00 0.03 0.01 0.04 0.12 0.16 0.10 0.04 0.01 0.00 0.00 0.00 0.00 0.00 0.00 0.00 0.00 0.00 0.00 0.00 0.00 0.00 0.00 0.00

GFSGBSN_prec_precacc_093.txt.gz
Total_Precipitation_Accumulation
0.18 0.19 0.22 0.25 0.22 0.16 0.20 0.25 0.27 0.29 0.36 0.42 0.51 0.63 0.68 0.58 0.48 0.41 0.34 0.35 0.36 0.39 0.43 0.60 0.55 0.74 0.61 0.54 0.20 0.19 0.21 0.27 0.69 1.07 0.69 0.33 0.33 0.65 0.41 0.18 0.85 0.72 0.52 0.42 0.47 0.38 0.29
0.25 0.26 0.29 0.31 0.22 0.20 0.24 0.33 0.35 0.36 0.38 0.49 0.68 0.70 0.60 0.53 0.48 0.37 0.37 0.37 0.35 0.43 0.28 0.34 0.82 0.61 0.48 0.37 0.08 0.11 0.25 0.43 0.65 1.07 0.70 0.46 0.28 0.84 0.57 0.44 0.57 0.66 0.73 0.55 0.72 0.55 0.43
0.23 0.26 0.32 0.29 0.23 0.24 0.29 0.39 0.43 0.42 0.42 0.53 0.69 0.63 0.57 0.53 0.41 0.37 0.38 0.34 0.30 0.41 0.34 0.37 0.54 0.63 0.31 0.16 0.07 0.15 0.24 0.56 0.63 0.92 0.73 0.57 0.31 0.66 0.82 0.67 0.29 0.71 0.82 1.01 0.92 0.74 0.66
0.27 0.29 0.33 0.27 0.27 0.28 0.38 0.42 0.44 0.40 0.47 0.53 0.61 0.58 0.52 0.47 0.40 0.38 0.38 0.34 0.25 0.28 0.49 0.48 0.61 0.49 0.28 0.03 0.08 0.14 0.17 0.62 0.63 1.01 1.24 1.09 0.46 0.49 0.56 0.82 0.61 0.76 1.36 1.33 0.96 1.25 1.00
0.33 0.33 0.29 0.27 0.30 0.38 0.43 0.45 0.41 0.43 0.50 0.57 0.66 0.63 0.59 0.45 0.39 0.47 0.64 0.76 0.63 0.58 0.72 0.94 0.65 0.43 0.22 0.04 0.08 0.18 0.15 0.73 0.86 1.20 1.93 1.84 0.98 0.55 0.52 0.95 1.07 0.76 1.14 1.00 0.90 1.01 1.40
0.36 0.36 0.29 0.33 0.37 0.45 0.45 0.48 0.44 0.49 0.58 0.62 0.57 0.55 0.51 0.33 0.34 0.61 1.80 1.58 1.26 1.01 0.97 1.07 0.79 0.73 0.19 0.05 0.28 0.21 0.24 0.84 1.12 1.60 2.80 3.11 1.91 0.81 0.65 0.71 0.85 0.45 0.58 0.69 0.70 0.67 1.02
0.38 0.34 0.36 0.35 0.36 0.40 0.49 0.57 0.57 0.64 0.62 0.59 0.51 0.45 0.49 0.46 0.66 1.07 1.73 1.88 1.62 1.40 1.21 0.90 0.48 0.40 0.17 0.25 0.28 0.28 0.48 1.53 1.93 2.21 2.74 2.98 1.91 0.65 0.44 0.57 0.34 0.35 0.29 0.60 0.54 0.54 0.62
0.41 0.34 0.32 0.32 0.41 0.44 0.53 0.72 0.81 0.64 0.62 0.66 0.55 0.57 0.69 0.59 0.69 1.08 1.39 1.73 1.37 1.14 1.10 0.58 0.24 0.18 0.10 0.27 0.63 0.48 0.75 2.78 2.38 2.07 2.06 2.21 1.02 0.27 0.34 0.66 0.31 0.23 0.21 0.63 0.83 0.70 0.70
0.29 0.24 0.32 0.40 0.45 0.50 0.65 0.92 0.80 0.76 0.78 0.76 0.68 0.74 0.67 0.59 0.59 0.73 0.78 1.09 1.01 1.14 1.12 0.91 0.49 0.20 0.31 0.72 0.74 0.75 1.42 2.50 1.80 1.52 1.53 1.21 0.46 0.40 0.56 0.91 0.34 0.15 0.09 0.39 1.22 0.91 0.60
0.24 0.27 0.36 0.40 0.47 0.56 0.71 1.00 0.83 0.92 0.98 0.84 0.78 0.76 0.66 0.67 0.64 0.62 0.63 0.86 1.04 1.28 1.60 1.48 0.84 0.57 0.61 0.89 0.92 0.74 1.49 2.07 1.81 1.60 1.82 1.43 0.45 0.35 0.56 0.99 0.38 0.24 0.09 0.39 0.78 0.54 0.47
0.23 0.25 0.28 0.36 0.48 0.59 0.89 0.92 0.86 0.85 0.98 0.71 0.62 0.53 0.57 0.81 0.89 0.88 0.66 0.62 1.15 1.55 2.07 1.54 1.02 0.79 0.86 0.79 0.68 0.92 1.39 1.45 0.94 1.21 1.57 1.39 0.65 0.51 0.64 0.71 0.44 0.42 0.11 0.31 0.36 0.23 0.23
0.24 0.28 0.30 0.44 0.51 0.64 0.88 0.92 0.85 0.79 0.71 0.64 0.61 0.53 0.71 0.76 0.93 0.68 0.58 1.05 1.27 1.63 1.91 1.87 1.35 0.96 0.74 0.57 0.66 0.96 1.41 1.07 0.94 1.03 0.98 0.78 0.68 0.77 0.70 0.48 0.22 0.17 0.12 0.43 0.36 0.40 0.42
0.21 0.28 0.35 0.46 0.51 0.66 0.96 0.98 0.79 0.96 0.88 0.93 0.95 0.62 0.80 0.69 0.62 0.53 0.96 1.62 1.60 1.23 1.23 1.03 0.78 0.40 0.33 0.37 0.38 0.49 0.90 0.83 0.86 1.07 1.42 1.30 1.11 0.86 0.76 0.35 0.23 0.21 0.52 1.18 1.10 1.11 0.64
0.26 0.36 0.50 0.56 0.67 0.80 1.13 1.08 0.94 1.19 1.38 1.56 1.46 0.95 0.58 0.46 0.48 0.93 1.49 1.32 1.37 0.84 0.91 0.46 0.30 0.36 0.35 0.23 0.34 0.33 0.45 0.48 0.25 0.17 0.81 1.40 1.87 1.12 0.63 0.28 0.33 0.29 0.52 0.83 0.71 0.32 0.40
0.35 0.51 0.68 0.86 0.94 1.07 1.29 1.26 1.20 1.39 1.35 1.47 1.07 0.97 0.54 0.32 0.50 1.21 1.30 1.35 1.21 0.94 0.61 0.20 0.29 0.39 0.36 0.16 0.18 0.29 0.38 0.27 0.17 0.16 0.50 0.60 1.13 0.58 0.28 0.08 0.14 0.27 0.36 0.28 0.38 0.16 0.28
0.57 0.83 0.93 0.93 0.95 0.85 0.94 1.12 1.08 1.49 1.31 1.21 0.81 0.70 0.75 0.46 0.69 1.22 1.12 1.31 0.62 0.43 0.09 0.02 0.18 0.14 0.11 0.09 0.09 0.10 0.19 0.12 0.09 0.08 0.10 0.17 0.57 0.30 0.16 0.13 0.06 0.04 0.08 0.17 0.40 0.32 0.24
0.77 0.82 0.82 0.79 0.85 0.79 0.73 0.87 1.07 1.38 1.33 0.76 0.78 0.86 1.20 0.82 1.10 1.39 1.15 1.08 0.49 0.18 0.05 0.05 0.03 0.01 0.01 0.03 0.03 0.03 0.07 0.11 0.05 0.06 0.02 0.01 0.16 0.28 0.23 0.25 0.10 0.04 0.13 0.14 0.19 0.17 0.15
0.69 0.65 0.70 0.83 0.94 0.92 0.89 1.01 1.31 1.41 1.41 0.88 0.96 1.23 1.29 0.87 1.14 1.17 1.06 0.77 0.56 0.17 0.03 0.00 0.01 0.01 0.01 0.01 0.00 0.01 0.02 0.02 0.01 0.00 0.00 0.00 0.04 0.10 0.13 0.03 0.01 0.02 0.01 0.04 0.23 0.09 0.13
0.78 0.83 0.72 0.81 0.89 0.96 1.07 1.31 1.45 1.51 1.27 1.02 0.95 1.29 1.19 0.68 0.66 0.58 0.46 0.32 0.14 0.08 0.04 0.01 0.01 0.02 0.02 0.01 0.01 0.01 0.00 0.00 0.00 0.00 0.00 0.00 0.05 0.12 0.18 0.16 0.06 0.06 0.02 0.10 0.21 0.39 0.25
0.69 0.81 0.80 0.72 0.72 0.75 0.84 1.07 1.11 1.60 0.99 1.00 1.16 1.29 1.17 0.78 0.33 0.15 0.31 0.22 0.13 0.09 0.02 0.00 0.00 0.00 0.00 0.00 0.00 0.00 0.00 0.00 0.00 0.00 0.00 0.01 0.03 0.03 0.06 0.09 0.20 0.18 0.03 0.10 0.42 0.55 0.09
0.61 0.76 0.88 0.83 0.78 0.69 0.56 0.76 0.98 1.03 0.93 1.19 0.95 0.49 0.35 0.35 0.13 0.12 0.17 0.18 0.12 0.05 0.01 0.00 0.01 0.00 0.00 0.01 0.00 0.00 0.00 0.00 0.00 0.00 0.01 0.04 0.05 0.02 0.02 0.06 0.22 0.20 0.08 0.07 0.32 0.17 0.23
0.76 0.71 0.87 0.97 1.00 1.11 1.08 1.04 0.96 0.90 0.94 1.18 0.65 0.30 0.16 0.03 0.06 0.10 0.05 0.09 0.05 0.00 0.01 0.01 0.01 0.00 0.01 0.01 0.01 0.00 0.00 0.00 0.01 0.00 0.02 0.05 0.09 0.06 0.06 0.05 0.10 0.16 0.04 0.06 0.06 0.02 0.02
0.90 0.93 1.14 1.28 1.16 1.02 1.02 1.02 1.07 0.93 1.10 0.87 0.59 0.18 0.06 0.06 0.05 0.03 0.02 0.00 0.01 0.00 0.01 0.01 0.01 0.03 0.02 0.01 0.00 0.00 0.00 0.00 0.00 0.01 0.03 0.06 0.08 0.15 0.07 0.04 0.11 0.13 0.04 0.02 0.01 0.00 0.01
0.88 0.87 0.87 0.99 0.78 0.69 0.82 0.65 0.50 0.52 0.74 0.45 0.35 0.17 0.03 0.05 0.01 0.00 0.00 0.00 0.00 0.00 0.01 0.00 0.00 0.04 0.03 0.01 0.01 0.01 0.00 0.00 0.01 0.00 0.01 0.02 0.06 0.19 0.09 0.09 0.24 0.13 0.02 0.00 0.00 0.00 0.00
0.89 1.07 1.21 1.46 1.41 1.15 0.92 0.66 0.57 0.66 0.62 0.18 0.21 0.15 0.07 0.02 0.00 0.00 0.00 0.00 0.00 0.00 0.00 0.00 0.00 0.00 0.01 0.02 0.05 0.05 0.02 0.01 0.00 0.00 0.01 0.01 0.06 0.18 0.16 0.17 0.09 0.01 0.00 0.00 0.00 0.00 0.00
0.64 0.79 0.98 1.16 1.33 1.48 1.56 1.22 0.78 0.57 0.35 0.07 0.11 0.19 0.15 0.04 0.00 0.00 0.00 0.00 0.00 0.00 0.02 0.02 0.03 0.01 0.01 0.06 0.15 0.10 0.04 0.01 0.01 0.02 0.01 0.02 0.03 0.16 0.10 0.09 0.01 0.01 0.00 0.00 0.02 0.01 0.00
0.58 0.60 0.61 0.60 0.54 0.56 0.67 0.79 0.73 0.41 0.21 0.03 0.08 0.14 0.22 0.07 0.01 0.00 0.00 0.00 0.00 0.01 0.02 0.02 0.06 0.02 0.03 0.11 0.17 0.08 0.02 0.00 0.01 0.01 0.03 0.07 0.10 0.15 0.14 0.15 0.00 0.00 0.00 0.00 0.00 0.01 0.00
0.92 0.98 1.03 0.92 0.68 0.53 0.59 0.41 0.35 0.28 0.12 0.04 0.06 0.09 0.22 0.12 0.02 0.00 0.00 0.01 0.01 0.02 0.03 0.01 0.02 0.02 0.06 0.14 0.13 0.07 0.03 0.01 0.00 0.00 0.00 0.02 0.04 0.06 0.07 0.09 0.01 0.00 0.00 0.00 0.00 0.00 0.00
0.87 0.99 1.15 1.20 1.09 0.91 0.73 0.39 0.28 0.20 0.13 0.07 0.04 0.08 0.15 0.14 0.04 0.00 0.00 0.00 0.00 0.01 0.01 0.00 0.03 0.01 0.04 0.12 0.16 0.10 0.04 0.01 0.00 0.00 0.00 0.00 0.00 0.00 0.00 0.00 0.00 0.00 0.00 0.00 0.00 0.00 0.00

GFSGBSN_prec_precacc_096.txt.gz
Total_Precipitation_Accumulation
0.19 0.20 0.24 0.33 0.27 0.17 0.21 0.25 0.27 0.30 0.37 0.43 0.52 0.63 0.69 0.62 0.55 0.48 0.39 0.38 0.36 0.39 0.43 0.62 0.68 0.93 0.63 0.58 0.20 0.19 0.21 0.27 0.69 1.07 0.69 0.33 0.33 0.65 0.41 0.18 0.85 0.72 0.52 0.42 0.47 0.38 0.29
0.25 0.26 0.29 0.31 0.22 0.21 0.24 0.33 0.36 0.36 0.39 0.50 0.68 0.70 0.62 0.57 0.55 0.45 0.42 0.39 0.36 0.43 0.29 0.35 0.94 0.79 0.49 0.41 0.09 0.11 0.25 0.43 0.65 1.07 0.70 0.46 0.28 0.84 0.57 0.44 0.57 0.66 0.73 0.55 0.72 0.55 0.43
0.24 0.26 0.32 0.29 0.24 0.25 0.29 0.40 0.43 0.43 0.42 0.54 0.70 0.64 0.59 0.56 0.44 0.40 0.41 0.35 0.30 0.42 0.34 0.38 0.85 0.72 0.43 0.16 0.08 0.15 0.24 0.56 0.63 0.92 0.73 0.57 0.31 0.66 0.82 0.67 0.29 0.71 0.82 1.01 0.92 0.74 0.66
0.28 0.29 0.33 0.27 0.27 0.28 0.39 0.43 0.45 0.40 0.47 0.56 0.63 0.59 0.55 0.49 0.42 0.38 0.38 0.34 0.25 0.28 0.49 0.50 0.91 0.60 0.49 0.09 0.09 0.14 0.17 0.62 0.63 1.01 1.24 1.09 0.46 0.49 0.56 0.82 0.61 0.76 1.36 1.33 0.96 1.25 1.00
0.33 0.34 0.29 0.27 0.31 0.40 0.45 0.46 0.42 0.44 0.52 0.58 0.66 0.63 0.61 0.49 0.43 0.48 0.64 0.77 0.67 0.60 0.73 1.06 0.90 0.53 0.33 0.18 0.14 0.18 0.15 0.73 0.86 1.20 1.93 1.84 0.98 0.55 0.52 0.95 1.07 0.76 1.14 1.00 0.90 1.01 1.40
0.36 0.36 0.30 0.36 0.41 0.49 0.49 0.51 0.48 0.55 0.68 0.67 0.57 0.56 0.54 0.36 0.36 0.61 1.80 1.70 1.53 1.06 1.05 1.29 0.99 0.81 0.30 0.22 0.35 0.21 0.24 0.84 1.12 1.60 2.80 3.11 1.91 0.81 0.65 0.71 0.85 0.45 0.58 0.69 0.70 0.67 1.02
0.38 0.36 0.39 0.40 0.42 0.44 0.53 0.63 0.67 0.80 0.70 0.63 0.53 0.46 0.51 0.47 0.68 1.07 1.75 2.32 1.93 1.43 1.31 1.17 0.74 0.48 0.19 0.28 0.29 0.28 0.48 1.53 1.93 2.21 2.74 2.98 1.91 0.65 0.44 0.57 0.34 0.35 0.29 0.60 0.54 0.54 0.62
0.42 0.37 0.36 0.38 0.47 0.48 0.58 0.80 0.99 0.72 0.63 0.69 0.57 0.58 0.70 0.59 0.69 1.08 1.43 2.14 1.70 1.37 1.48 0.93 0.34 0.23 0.11 0.29 0.63 0.48 0.75 2.78 2.38 2.07 2.06 2.21 1.02 0.27 0.34 0.66 0.31 0.23 0.21 0.63 0.83 0.70 0.70
0.30 0.27 0.36 0.47 0.51 0.53 0.67 0.98 0.92 0.83 0.84 0.77 0.69 0.74 0.67 0.59 0.59 0.74 0.83 1.26 1.30 1.34 1.34 1.24 0.63 0.29 0.35 0.75 0.74 0.75 1.42 2.50 1.80 1.52 1.53 1.21 0.46 0.40 0.56 0.91 0.34 0.15 0.09 0.39 1.22 0.92 0.60
0.25 0.31 0.40 0.47 0.52 0.57 0.72 1.02 0.86 0.97 1.01 0.85 0.78 0.76 0.66 0.67 0.64 0.63 0.68 1.03 1.27 1.37 1.69 1.69 0.94 0.60 0.61 0.89 0.92 0.74 1.49 2.07 1.81 1.60 1.82 1.43 0.45 0.35 0.56 0.99 0.38 0.24 0.09 0.39 0.79 0.58 0.49
0.24 0.29 0.32 0.41 0.50 0.59 0.90 0.93 0.87 0.85 0.98 0.71 0.62 0.53 0.57 0.81 0.89 0.89 0.72 0.73 1.25 1.57 2.15 1.74 1.10 0.80 0.86 0.79 0.68 0.93 1.39 1.45 0.94 1.21 1.57 1.39 0.65 0.51 0.64 0.71 0.44 0.42 0.11 0.31 0.36 0.26 0.27
0.25 0.31 0.35 0.48 0.52 0.64 0.88 0.92 0.86 0.79 0.71 0.64 0.61 0.53 0.71 0.76 0.93 0.68 0.59 1.07 1.29 1.63 1.99 1.95 1.37 0.96 0.75 0.57 0.66 0.97 1.41 1.07 0.94 1.03 0.98 0.78 0.68 0.77 0.70 0.48 0.22 0.17 0.12 0.44 0.38 0.45 0.46
0.21 0.30 0.40 0.50 0.51 0.67 0.97 0.99 0.80 0.96 0.88 0.93 0.95 0.62 0.80 0.69 0.62 0.53 0.96 1.63 1.60 1.24 1.26 1.06 0.78 0.40 0.33 0.38 0.38 0.49 0.90 0.83 0.86 1.07 1.42 1.30 1.11 0.86 0.76 0.35 0.23 0.22 0.55 1.19 1.11 1.13 0.65
0.27 0.37 0.54 0.60 0.68 0.80 1.13 1.08 0.95 1.20 1.38 1.56 1.46 0.95 0.58 0.46 0.48 0.93 1.49 1.32 1.38 0.87 0.92 0.47 0.30 0.36 0.35 0.23 0.34 0.33 0.45 0.48 0.25 0.17 0.81 1.41 1.87 1.12 0.63 0.28 0.33 0.30 0.54 0.85 0.72 0.35 0.41
0.35 0.52 0.71 0.89 0.96 1.07 1.29 1.26 1.20 1.39 1.35 1.47 1.07 0.97 0.54 0.32 0.50 1.21 1.30 1.35 1.23 0.95 0.62 0.20 0.29 0.39 0.36 0.16 0.18 0.29 0.38 0.27 0.17 0.16 0.51 0.61 1.13 0.58 0.28 0.08 0.14 0.29 0.40 0.30 0.42 0.20 0.31
0.58 0.84 0.96 0.96 0.96 0.85 0.94 1.12 1.08 1.49 1.31 1.21 0.81 0.70 0.75 0.46 0.69 1.22 1.12 1.31 0.62 0.43 0.09 0.02 0.18 0.14 0.11 0.09 0.09 0.10 0.19 0.12 0.09 0.08 0.10 0.17 0.57 0.30 0.16 0.13 0.07 0.07 0.12 0.22 0.46 0.37 0.25
0.78 0.82 0.84 0.82 0.86 0.80 0.73 0.87 1.07 1.38 1.33 0.76 0.78 0.86 1.20 0.82 1.10 1.39 1.15 1.08 0.49 0.18 0.05 0.05 0.03 0.01 0.01 0.03 0.03 0.03 0.07 0.11 0.05 0.06 0.02 0.01 0.16 0.28 0.23 0.25 0.10 0.04 0.13 0.15 0.21 0.20 0.18
0.70 0.65 0.71 0.84 0.94 0.92 0.89 1.01 1.31 1.41 1.41 0.88 0.96 1.23 1.29 0.87 1.14 1.17 1.06 0.77 0.56 0.17 0.03 0.00 0.01 0.01 0.01 0.01 0.00 0.01 0.02 0.02 0.01 0.00 0.00 0.00 0.04 0.10 0.13 0.03 0.01 0.02 0.01 0.04 0.23 0.09 0.13
0.78 0.83 0.73 0.82 0.90 0.96 1.07 1.31 1.45 1.51 1.27 1.02 0.95 1.29 1.19 0.68 0.66 0.58 0.46 0.32 0.14 0.08 0.04 0.01 0.01 0.02 0.02 0.01 0.01 0.01 0.00 0.00 0.00 0.00 0.00 0.00 0.05 0.12 0.18 0.16 0.06 0.06 0.02 0.10 0.21 0.39 0.25
0.69 0.81 0.80 0.72 0.72 0.75 0.84 1.07 1.11 1.60 0.99 1.00 1.16 1.29 1.17 0.78 0.33 0.15 0.31 0.22 0.13 0.09 0.02 0.00 0.00 0.00 0.00 0.00 0.00 0.00 0.00 0.00 0.00 0.00 0.00 0.01 0.03 0.03 0.06 0.09 0.20 0.18 0.03 0.10 0.42 0.55 0.09
0.61 0.76 0.89 0.83 0.78 0.69 0.56 0.76 0.98 1.03 0.93 1.19 0.95 0.49 0.35 0.35 0.13 0.12 0.17 0.18 0.12 0.05 0.01 0.00 0.01 0.00 0.00 0.01 0.00 0.00 0.00 0.00 0.00 0.00 0.01 0.04 0.05 0.02 0.02 0.06 0.22 0.20 0.08 0.07 0.32 0.17 0.23
0.76 0.71 0.87 0.97 1.00 1.11 1.08 1.04 0.96 0.90 0.94 1.18 0.65 0.30 0.16 0.03 0.06 0.10 0.05 0.09 0.05 0.00 0.01 0.01 0.01 0.00 0.01 0.01 0.01 0.00 0.00 0.00 0.01 0.00 0.02 0.05 0.09 0.06 0.06 0.05 0.10 0.16 0.04 0.06 0.06 0.02 0.02
0.90 0.93 1.14 1.29 1.16 1.02 1.02 1.02 1.07 0.93 1.10 0.87 0.59 0.18 0.06 0.06 0.05 0.03 0.02 0.00 0.01 0.00 0.01 0.01 0.01 0.03 0.02 0.01 0.00 0.00 0.00 0.00 0.00 0.01 0.03 0.06 0.08 0.15 0.07 0.04 0.11 0.13 0.04 0.02 0.01 0.00 0.01
0.88 0.87 0.87 1.00 0.78 0.69 0.82 0.65 0.50 0.52 0.74 0.45 0.35 0.17 0.03 0.05 0.01 0.00 0.00 0.00 0.00 0.00 0.01 0.00 0.00 0.04 0.03 0.01 0.01 0.01 0.00 0.00 0.01 0.00 0.01 0.02 0.06 0.19 0.09 0.09 0.24 0.13 0.02 0.00 0.00 0.00 0.00
0.89 1.07 1.21 1.46 1.41 1.15 0.92 0.66 0.57 0.66 0.62 0.18 0.21 0.15 0.07 0.02 0.00 0.00 0.00 0.00 0.00 0.00 0.00 0.00 0.00 0.00 0.01 0.02 0.05 0.05 0.02 0.01 0.00 0.00 0.01 0.01 0.06 0.18 0.16 0.17 0.09 0.01 0.00 0.00 0.00 0.00 0.00
0.64 0.79 0.98 1.16 1.33 1.48 1.56 1.22 0.78 0.57 0.35 0.07 0.11 0.19 0.15 0.04 0.00 0.00 0.00 0.00 0.00 0.00 0.02 0.02 0.03 0.01 0.01 0.06 0.15 0.10 0.04 0.01 0.01 0.02 0.01 0.02 0.03 0.16 0.10 0.09 0.01 0.01 0.00 0.00 0.02 0.01 0.00
0.58 0.60 0.61 0.60 0.54 0.56 0.67 0.79 0.73 0.41 0.21 0.03 0.08 0.14 0.22 0.07 0.01 0.00 0.00 0.00 0.00 0.01 0.02 0.02 0.06 0.02 0.03 0.11 0.17 0.08 0.02 0.00 0.01 0.01 0.03 0.07 0.10 0.15 0.14 0.15 0.00 0.00 0.00 0.00 0.00 0.01 0.00
0.92 0.98 1.03 0.92 0.68 0.53 0.59 0.41 0.35 0.28 0.12 0.04 0.06 0.09 0.22 0.12 0.02 0.00 0.00 0.01 0.01 0.02 0.03 0.01 0.02 0.02 0.06 0.14 0.13 0.07 0.03 0.01 0.00 0.00 0.00 0.02 0.04 0.06 0.07 0.09 0.01 0.00 0.00 0.00 0.00 0.00 0.00
0.87 0.99 1.15 1.20 1.09 0.91 0.73 0.39 0.28 0.20 0.13 0.07 0.04 0.08 0.15 0.14 0.04 0.00 0.00 0.00 0.00 0.01 0.01 0.00 0.03 0.01 0.04 0.12 0.16 0.10 0.04 0.01 0.00 0.00 0.00 0.00 0.00 0.00 0.00 0.00 0.00 0.00 0.00 0.00 0.00 0.00 0.00

GFSGBSN_prec_precacc_099.txt.gz
Total_Precipitation_Accumulation
0.22 0.23 0.25 0.33 0.27 0.18 0.21 0.26 0.28 0.31 0.38 0.44 0.53 0.64 0.70 0.63 0.56 0.50 0.43 0.46 0.44 0.42 0.44 0.63 0.70 1.05 0.67 0.60 0.21 0.19 0.21 0.27 0.69 1.07 0.69 0.33 0.33 0.65 0.41 0.18 0.85 0.72 0.52 0.42 0.47 0.38 0.29
0.28 0.27 0.29 0.32 0.22 0.21 0.25 0.34 0.37 0.38 0.40 0.51 0.70 0.71 0.62 0.57 0.58 0.51 0.46 0.47 0.51 0.49 0.30 0.35 0.96 1.00 0.68 0.45 0.12 0.11 0.25 0.43 0.65 1.07 0.70 0.46 0.28 0.84 0.57 0.44 0.57 0.66 0.73 0.55 0.72 0.55 0.43
0.25 0.26 0.32 0.30 0.24 0.26 0.33 0.44 0.47 0.46 0.44 0.56 0.73 0.67 0.60 0.57 0.47 0.48 0.46 0.41 0.38 0.43 0.36 0.39 0.89 0.79 0.62 0.27 0.12 0.18 0.24 0.56 0.63 0.92 0.73 0.57 0.31 0.66 0.82 0.67 0.29 0.71 0.82 1.01 0.92 0.74 0.66
0.28 0.30 0.33 0.28 0.30 0.34 0.48 0.53 0.53 0.49 0.57 0.64 0.67 0.61 0.56 0.54 0.47 0.42 0.39 0.34 0.25 0.28 0.49 0.50 1.07 0.78 0.69 0.18 0.10 0.15 0.17 0.62 0.63 1.01 1.24 1.09 0.46 0.49 0.56 0.82 0.61 0.76 1.36 1.33 0.96 1.25 1.00
0.33 0.34 0.30 0.30 0.37 0.49 0.56 0.58 0.54 0.60 0.65 0.70 0.77 0.65 0.62 0.53 0.47 0.51 0.64 0.77 0.68 0.62 0.73 1.07 1.12 0.94 0.45 0.35 0.18 0.18 0.15 0.73 0.86 1.20 1.93 1.84 0.98 0.55 0.52 0.95 1.07 0.76 1.14 1.00 0.90 1.01 1.40
0.36 0.37 0.33 0.39 0.47 0.56 0.58 0.62 0.64 0.88 0.94 0.90 0.82 0.57 0.54 0.38 0.37 0.61 1.80 1.70 1.63 1.18 1.08 1.33 1.21 1.23 0.41 0.45 0.41 0.21 0.24 0.84 1.12 1.60 2.80 3.11 1.91 0.81 0.65 0.71 0.85 0.45 0.58 0.69 0.70 0.67 1.02
0.38 0.38 0.43 0.44 0.45 0.49 0.61 0.73 0.83 1.24 0.79 0.65 0.55 0.46 0.51 0.47 0.68 1.07 1.75 2.43 2.13 1.50 1.37 1.32 0.95 0.72 0.24 0.34 0.32 0.28 0.48 1.53 1.93 2.21 2.74 2.98 1.91 0.65 0.44 0.57 0.34 0.35 0.29 0.60 0.54 0.54 0.62
0.42 0.39 0.40 0.41 0.49 0.51 0.61 0.84 1.06 0.77 0.65 0.70 0.58 0.58 0.70 0.59 0.69 1.08 1.43 2.29 1.87 1.45 1.79 1.17 0.48 0.36 0.14 0.30 0.64 0.48 0.75 2.78 2.38 2.07 2.06 2.21 1.02 0.27 0.34 0.66 0.31 0.23 0.21 0.63 0.83 0.70 0.70
0.30 0.30 0.40 0.49 0.52 0.54 0.68 0.99 0.93 0.86 0.84 0.78 0.69 0.74 0.67 0.59 0.59 0.74 0.86 1.45 1.42 1.41 1.56 1.69 0.95 0.46 0.39 0.77 0.75 0.75 1.42 2.50 1.80 1.52 1.53 1.21 0.46 0.40 0.56 0.91 0.34 0.15 0.09 0.39 1.22 0.92 0.60
0.26 0.34 0.44 0.48 0.53 0.58 0.72 1.03 0.88 0.97 1.01 0.85 0.78 0.76 0.66 0.67 0.64 0.65 0.77 1.22 1.35 1.41 1.78 2.00 1.10 0.69 0.63 0.90 0.92 0.74 1.49 2.07 1.81 1.60 1.82 1.43 0.45 0.35 0.56 0.99 0.38 0.24 0.09 0.39 0.79 0.59 0.49
0.24 0.31 0.36 0.42 0.51 0.59 0.90 0.93 0.87 0.85 0.98 0.71 0.62 0.53 0.57 0.81 0.90 0.97 0.87 0.86 1.31 1.58 2.21 1.91 1.18 0.81 0.86 0.79 0.68 0.93 1.39 1.45 0.94 1.21 1.57 1.39 0.65 0.51 0.64 0.71 0.44 0.42 0.11 0.31 0.37 0.27 0.30
0.25 0.32 0.39 0.49 0.53 0.65 0.88 0.92 0.86 0.79 0.71 0.64 0.61 0.53 0.71 0.76 0.93 0.72 0.62 1.09 1.29 1.64 2.07 2.05 1.40 0.98 0.75 0.57 0.66 0.97 1.41 1.07 0.94 1.03 0.98 0.78 0.68 0.77 0.70 0.48 0.22 0.17 0.13 0.44 0.38 0.47 0.49
0.21 0.30 0.43 0.52 0.52 0.67 0.97 0.99 0.80 0.96 0.88 0.93 0.95 0.62 0.80 0.69 0.62 0.53 0.96 1.63 1.60 1.26 1.33 1.10 0.80 0.40 0.33 0.38 0.38 0.49 0.90 0.83 0.86 1.07 1.42 1.30 1.11 0.86 0.76 0.35 0.23 0.23 0.57 1.19 1.11 1.14 0.65
0.27 0.37 0.55 0.61 0.68 0.80 1.13 1.08 0.95 1.20 1.38 1.56 1.46 0.95 0.58 0.46 0.48 0.93 1.49 1.32 1.40 0.90 0.93 0.47 0.30 0.36 0.35 0.23 0.34 0.33 0.45 0.48 0.25 0.17 0.81 1.41 1.87 1.12 0.63 0.28 0.34 0.33 0.56 0.86 0.72 0.35 0.41
0.35 0.52 0.72 0.90 0.96 1.07 1.29 1.26 1.20 1.39 1.35 1.47 1.07 0.97 0.54 0.32 0.50 1.21 1.30 1.35 1.24 0.95 0.62 0.20 0.29 0.39 0.36 0.16 0.18 0.29 0.38 0.27 0.17 0.16 0.51 0.61 1.13 0.58 0.28 0.08 0.15 0.31 0.42 0.31 0.44 0.20 0.34
0.58 0.84 0.96 0.96 0.96 0.85 0.94 1.12 1.08 1.49 1.31 1.21 0.81 0.70 0.75 0.46 0.69 1.22 1.12 1.32 0.62 0.43 0.09 0.02 0.18 0.14 0.11 0.09 0.09 0.10 0.19 0.12 0.09 0.08 0.10 0.17 0.58 0.30 0.16 0.13 0.07 0.07 0.12 0.25 0.51 0.40 0.27
0.78 0.82 0.85 0.82 0.86 0.80 0.73 0.87 1.07 1.38 1.33 0.76 0.78 0.86 1.20 0.82 1.10 1.39 1.15 1.08 0.49 0.18 0.05 0.05 0.03 0.01 0.01 0.03 0.03 0.03 0.07 0.11 0.05 0.06 0.02 0.01 0.16 0.28 0.23 0.25 0.10 0.04 0.13 0.15 0.22 0.21 0.21
0.70 0.66 0.72 0.85 0.94 0.92 0.89 1.01 1.31 1.41 1.41 0.88 0.96 1.23 1.29 0.87 1.14 1.17 1.06 0.77 0.56 0.17 0.03 0.00 0.01 0.01 0.01 0.01 0.00 0.01 0.02 0.02 0.01 0.00 0.00 0.00 0.04 0.10 0.13 0.03 0.01 0.02 0.01 0.04 0.23 0.09 0.13
0.78 0.83 0.73 0.82 0.90 0.96 1.07 1.31 1.45 1.51 1.27 1.02 0.95 1.29 1.19 0.68 0.66 0.58 0.46 0.32 0.14 0.08 0.04 0.01 0.01 0.02 0.02 0.01 0.01 0.01 0.00 0.00 0.00 0.00 0.00 0.00 0.05 0.12 0.18 0.16 0.06 0.06 0.02 0.10 0.21 0.39 0.25
0.69 0.82 0.80 0.72 0.72 0.75 0.84 1.07 1.11 1.60 0.99 1.00 1.16 1.29 1.17 0.78 0.33 0.15 0.31 0.22 0.13 0.09 0.02 0.00 0.00 0.00 0.00 0.00 0.00 0.00 0.00 0.00 0.00 0.00 0.00 0.01 0.03 0.03 0.06 0.09 0.20 0.18 0.03 0.10 0.42 0.55 0.09
0.61 0.76 0.89 0.83 0.78 0.69 0.56 0.76 0.98 1.03 0.93 1.19 0.95 0.49 0.35 0.35 0.13 0.12 0.17 0.18 0.12 0.05 0.01 0.00 0.01 0.00 0.00 0.01 0.00 0.00 0.00 0.00 0.00 0.00 0.01 0.04 0.05 0.02 0.02 0.06 0.22 0.20 0.08 0.07 0.32 0.17 0.23
0.76 0.71 0.88 0.97 1.00 1.11 1.08 1.04 0.96 0.90 0.94 1.18 0.65 0.30 0.16 0.03 0.06 0.10 0.05 0.09 0.05 0.00 0.01 0.01 0.01 0.00 0.01 0.01 0.01 0.00 0.00 0.00 0.01 0.00 0.02 0.05 0.09 0.06 0.06 0.05 0.10 0.16 0.04 0.06 0.06 0.02 0.02
0.90 0.93 1.14 1.29 1.16 1.02 1.02 1.02 1.07 0.93 1.10 0.87 0.59 0.18 0.06 0.06 0.05 0.03 0.02 0.00 0.01 0.00 0.01 0.01 0.01 0.03 0.02 0.01 0.00 0.00 0.00 0.00 0.00 0.01 0.03 0.06 0.08 0.15 0.07 0.04 0.11 0.13 0.04 0.02 0.01 0.00 0.01
0.88 0.87 0.87 1.00 0.78 0.69 0.82 0.65 0.50 0.52 0.74 0.45 0.35 0.17 0.03 0.05 0.01 0.00 0.00 0.00 0.00 0.00 0.01 0.00 0.00 0.04 0.03 0.01 0.01 0.01 0.00 0.00 0.01 0.00 0.01 0.02 0.06 0.19 0.09 0.09 0.24 0.13 0.02 0.00 0.00 0.00 0.00
0.89 1.07 1.21 1.46 1.41 1.15 0.92 0.66 0.57 0.66 0.62 0.18 0.21 0.15 0.07 0.02 0.00 0.00 0.00 0.00 0.00 0.00 0.00 0.00 0.00 0.00 0.01 0.02 0.05 0.05 0.02 0.01 0.00 0.00 0.01 0.01 0.06 0.18 0.16 0.17 0.09 0.01 0.00 0.00 0.00 0.00 0.00
0.64 0.79 0.98 1.16 1.33 1.48 1.56 1.22 0.78 0.57 0.35 0.07 0.11 0.19 0.15 0.04 0.00 0.00 0.00 0.00 0.00 0.00 0.02 0.02 0.03 0.01 0.01 0.06 0.15 0.10 0.04 0.01 0.01 0.02 0.01 0.02 0.03 0.16 0.10 0.09 0.01 0.01 0.00 0.00 0.02 0.01 0.00
0.58 0.60 0.61 0.60 0.54 0.56 0.67 0.79 0.73 0.41 0.21 0.03 0.08 0.14 0.22 0.07 0.01 0.00 0.00 0.00 0.00 0.01 0.02 0.02 0.06 0.02 0.03 0.11 0.17 0.08 0.02 0.00 0.01 0.01 0.03 0.07 0.10 0.15 0.14 0.15 0.00 0.00 0.00 0.00 0.00 0.01 0.00
0.92 0.98 1.03 0.92 0.68 0.53 0.59 0.41 0.35 0.28 0.12 0.04 0.06 0.09 0.22 0.12 0.02 0.00 0.00 0.01 0.01 0.02 0.03 0.01 0.02 0.02 0.06 0.14 0.13 0.07 0.03 0.01 0.00 0.00 0.00 0.02 0.04 0.06 0.07 0.09 0.01 0.00 0.00 0.00 0.00 0.00 0.00
0.87 0.99 1.15 1.20 1.09 0.91 0.73 0.39 0.28 0.20 0.13 0.07 0.04 0.08 0.15 0.14 0.04 0.00 0.00 0.00 0.00 0.01 0.01 0.00 0.03 0.01 0.04 0.12 0.16 0.10 0.04 0.01 0.00 0.00 0.00 0.00 0.00 0.00 0.00 0.00 0.00 0.00 0.00 0.00 0.00 0.00 0.00

GFSGBSN_prec_precacc_102.txt.gz
Total_Precipitation_Accumulation
0.23 0.23 0.25 0.34 0.28 0.19 0.23 0.27 0.29 0.31 0.38 0.46 0.55 0.67 0.72 0.63 0.56 0.52 0.48 0.52 0.51 0.49 0.48 0.63 0.70 1.10 0.68 0.63 0.28 0.19 0.24 0.27 0.69 1.07 0.69 0.33 0.33 0.65 0.41 0.18 0.85 0.72 0.52 0.42 0.47 0.38 0.29
0.28 0.27 0.30 0.34 0.27 0.27 0.31 0.42 0.44 0.47 0.44 0.52 0.71 0.72 0.63 0.57 0.58 0.53 0.48 0.48 0.56 0.58 0.36 0.37 0.96 1.07 0.69 0.48 0.14 0.12 0.25 0.43 0.65 1.07 0.70 0.46 0.28 0.84 0.57 0.44 0.57 0.66 0.73 0.55 0.72 0.55 0.43
0.25 0.27 0.34 0.32 0.30 0.34 0.43 0.58 0.61 0.54 0.57 0.60 0.78 0.71 0.62 0.58 0.48 0.50 0.50 0.43 0.39 0.51 0.42 0.44 0.90 0.89 0.72 0.38 0.12 0.18 0.24 0.56 0.63 0.92 0.73 0.57 0.31 0.66 0.82 0.67 0.29 0.71 0.82 1.01 0.92 0.74 0.66
0.28 0.31 0.36 0.31 0.34 0.41 0.56 0.65 0.64 0.62 0.77 0.87 0.90 0.70 0.56 0.57 0.48 0.43 0.42 0.36 0.25 0.29 0.50 0.51 1.09 0.92 0.87 0.45 0.11 0.15 0.17 0.62 0.63 1.01 1.24 1.09 0.46 0.49 0.56 0.82 0.61 0.76 1.36 1.33 0.96 1.25 1.00
0.33 0.36 0.32 0.31 0.39 0.55 0.62 0.65 0.61 0.68 0.81 1.16 1.10 0.78 0.62 0.54 0.47 0.52 0.65 0.77 0.69 0.63 0.74 1.09 1.25 1.17 0.73 0.63 0.19 0.18 0.15 0.73 0.86 1.20 1.93 1.84 0.98 0.55 0.52 0.95 1.07 0.76 1.14 1.00 0.90 1.01 1.40
0.37 0.39 0.34 0.40 0.49 0.61 0.63 0.65 0.67 0.99 1.08 0.94 1.02 0.66 0.55 0.38 0.38 0.61 1.80 1.71 1.74 1.28 1.14 1.36 1.52 1.53 0.75 0.64 0.43 0.21 0.24 0.84 1.12 1.60 2.80 3.11 1.91 0.81 0.65 0.71 0.85 0.45 0.58 0.69 0.70 0.67 1.02
0.39 0.40 0.44 0.45 0.47 0.52 0.64 0.75 0.85 1.27 0.82 0.67 0.56 0.46 0.52 0.47 0.68 1.07 1.75 2.44 2.18 1.54 1.41 1.42 1.22 0.96 0.46 0.40 0.32 0.28 0.48 1.53 1.93 2.21 2.74 2.98 1.91 0.65 0.44 0.57 0.34 0.35 0.29 0.60 0.54 0.54 0.62
0.43 0.41 0.41 0.42 0.50 0.52 0.61 0.85 1.07 0.78 0.66 0.72 0.59 0.58 0.70 0.59 0.69 1.08 1.43 2.30 1.89 1.49 1.87 1.44 0.67 0.62 0.24 0.31 0.64 0.48 0.75 2.78 2.38 2.07 2.06 2.21 1.02 0.27 0.34 0.66 0.31 0.23 0.21 0.63 0.83 0.70 0.70
0.31 0.32 0.41 0.51 0.53 0.55 0.68 0.99 0.94 0.86 0.85 0.78 0.69 0.75 0.68 0.60 0.59 0.74 0.86 1.48 1.46 1.45 1.75 2.00 1.29 0.72 0.52 0.78 0.75 0.75 1.42 2.50 1.80 1.52 1.53 1.21 0.46 0.40 0.56 0.91 0.34 0.15 0.09 0.39 1.22 0.92 0.60
0.26 0.36 0.45 0.49 0.54 0.58 0.72 1.03 0.88 0.98 1.01 0.85 0.78 0.76 0.67 0.69 0.65 0.66 0.78 1.26 1.38 1.43 1.90 2.31 1.35 0.89 0.72 0.90 0.92 0.74 1.49 2.07 1.81 1.60 1.82 1.43 0.45 0.35 0.56 0.99 0.38 0.24 0.09 0.39 0.79 0.59 0.50
0.24 0.33 0.37 0.42 0.52 0.60 0.90 0.93 0.87 0.85 0.98 0.71 0.62 0.53 0.57 0.82 0.92 1.01 0.91 0.88 1.33 1.58 2.26 2.07 1.27 0.86 0.89 0.80 0.68 0.93 1.39 1.45 0.94 1.21 1.57 1.39 0.65 0.51 0.64 0.71 0.44 0.42 0.11 0.31 0.37 0.27 0.31
0.25 0.33 0.40 0.49 0.53 0.65 0.88 0.92 0.86 0.79 0.71 0.64 0.61 0.53 0.71 0.76 0.94 0.74 0.64 1.10 1.29 1.64 2.14 2.17 1.50 1.01 0.76 0.57 0.66 0.97 1.41 1.07 0.94 1.03 0.98 0.78 0.68 0.77 0.70 0.48 0.22 0.17 0.13 0.44 0.38 0.48 0.51
0.21 0.31 0.44 0.52 0.52 0.67 0.97 0.99 0.80 0.96 0.88 0.93 0.95 0.62 0.80 0.69 0.62 0.53 0.96 1.63 1.60 1.28 1.37 1.13 0.83 0.41 0.33 0.38 0.38 0.49 0.90 0.83 0.86 1.07 1.42 1.30 1.11 0.86 0.76 0.35 0.23 0.23 0.58 1.20 1.11 1.14 0.65
0.27 0.38 0.57 0.62 0.68 0.80 1.13 1.08 0.95 1.20 1.38 1.56 1.46 0.95 0.58 0.46 0.48 0.93 1.49 1.32 1.40 0.91 0.94 0.47 0.31 0.36 0.35 0.23 0.34 0.33 0.45 0.48 0.25 0.17 0.81 1.41 1.87 1.12 0.63 0.28 0.34 0.34 0.58 0.88 0.73 0.35 0.41
0.36 0.53 0.73 0.91 0.96 1.07 1.29 1.26 1.20 1.39 1.35 1.48 1.07 0.97 0.54 0.32 0.50 1.21 1.30 1.35 1.24 0.95 0.62 0.20 0.29 0.39 0.36 0.16 0.18 0.29 0.38 0.27 0.17 0.16 0.51 0.61 1.13 0.58 0.28 0.08 0.15 0.32 0.44 0.33 0.46 0.21 0.34
0.58 0.85 0.97 0.97 0.97 0.85 0.94 1.12 1.08 1.49 1.31 1.21 0.81 0.70 0.75 0.46 0.69 1.22 1.12 1.32 0.62 0.43 0.09 0.02 0.18 0.14 0.11 0.09 0.09 0.10 0.19 0.12 0.09 0.08 0.10 0.17 0.58 0.30 0.16 0.13 0.07 0.07 0.13 0.25 0.52 0.40 0.27
0.78 0.83 0.85 0.82 0.86 0.80 0.73 0.87 1.07 1.38 1.33 0.76 0.78 0.86 1.20 0.82 1.10 1.39 1.15 1.08 0.49 0.18 0.05 0.05 0.03 0.01 0.01 0.03 0.03 0.03 0.07 0.11 0.05 0.06 0.02 0.01 0.16 0.28 0.23 0.25 0.10 0.04 0.13 0.15 0.22 0.22 0.21
0.70 0.66 0.72 0.85 0.94 0.92 0.89 1.01 1.31 1.41 1.41 0.88 0.96 1.23 1.29 0.87 1.14 1.17 1.06 0.77 0.56 0.17 0.03 0.00 0.01 0.01 0.01 0.01 0.00 0.01 0.02 0.02 0.01 0.00 0.00 0.00 0.04 0.10 0.13 0.03 0.01 0.02 0.01 0.04 0.23 0.09 0.13
0.78 0.83 0.73 0.82 0.90 0.96 1.07 1.31 1.45 1.51 1.27 1.02 0.95 1.29 1.19 0.68 0.66 0.58 0.46 0.32 0.14 0.08 0.04 0.01 0.01 0.02 0.02 0.01 0.01 0.01 0.00 0.00 0.00 0.00 0.00 0.00 0.05 0.12 0.18 0.16 0.06 0.06 0.02 0.10 0.21 0.39 0.25
0.69 0.82 0.81 0.72 0.72 0.75 0.84 1.07 1.11 1.60 0.99 1.00 1.16 1.29 1.17 0.78 0.33 0.15 0.31 0.22 0.13 0.09 0.02 0.00 0.00 0.00 0.00 0.00 0.00 0.00 0.00 0.00 0.00 0.00 0.00 0.01 0.03 0.03 0.06 0.09 0.20 0.18 0.03 0.10 0.42 0.55 0.09
0.61 0.76 0.90 0.83 0.78 0.69 0.56 0.76 0.98 1.03 0.93 1.19 0.95 0.49 0.35 0.35 0.13 0.12 0.17 0.18 0.12 0.05 0.01 0.00 0.01 0.00 0.00 0.01 0.00 0.00 0.00 0.00 0.00 0.00 0.01 0.04 0.05 0.02 0.02 0.06 0.22 0.20 0.08 0.07 0.32 0.17 0.23
0.76 0.71 0.88 0.97 1.00 1.11 1.08 1.04 0.96 0.90 0.94 1.18 0.65 0.30 0.16 0.03 0.06 0.10 0.05 0.09 0.05 0.00 0.01 0.01 0.01 0.00 0.01 0.01 0.01 0.00 0.00 0.00 0.01 0.00 0.02 0.05 0.09 0.06 0.06 0.05 0.10 0.16 0.04 0.06 0.06 0.02 0.02
0.90 0.93 1.14 1.29 1.16 1.02 1.02 1.02 1.07 0.93 1.10 0.87 0.59 0.18 0.06 0.06 0.05 0.03 0.02 0.00 0.01 0.00 0.01 0.01 0.01 0.03 0.02 0.01 0.00 0.00 0.00 0.00 0.00 0.01 0.03 0.06 0.08 0.15 0.07 0.04 0.11 0.13 0.04 0.02 0.01 0.00 0.01
0.88 0.87 0.87 1.00 0.78 0.69 0.82 0.65 0.50 0.52 0.74 0.45 0.35 0.17 0.03 0.05 0.01 0.00 0.00 0.00 0.00 0.00 0.01 0.00 0.00 0.04 0.03 0.01 0.01 0.01 0.00 0.00 0.01 0.00 0.01 0.02 0.06 0.19 0.09 0.09 0.24 0.13 0.02 0.00 0.00 0.00 0.00
0.89 1.07 1.21 1.46 1.41 1.15 0.92 0.66 0.57 0.66 0.62 0.18 0.21 0.15 0.07 0.02 0.00 0.00 0.00 0.00 0.00 0.00 0.00 0.00 0.00 0.00 0.01 0.02 0.05 0.05 0.02 0.01 0.00 0.00 0.01 0.01 0.06 0.18 0.16 0.17 0.09 0.01 0.00 0.00 0.00 0.00 0.00
0.64 0.79 0.98 1.16 1.33 1.48 1.56 1.22 0.78 0.57 0.35 0.07 0.11 0.19 0.15 0.04 0.00 0.00 0.00 0.00 0.00 0.00 0.02 0.02 0.03 0.01 0.01 0.06 0.15 0.10 0.04 0.01 0.01 0.02 0.01 0.02 0.03 0.16 0.10 0.09 0.01 0.01 0.00 0.00 0.02 0.01 0.00
0.58 0.60 0.61 0.60 0.54 0.56 0.67 0.79 0.73 0.41 0.21 0.03 0.08 0.14 0.22 0.07 0.01 0.00 0.00 0.00 0.00 0.01 0.02 0.02 0.06 0.02 0.03 0.11 0.17 0.08 0.02 0.00 0.01 0.01 0.03 0.07 0.10 0.15 0.14 0.15 0.00 0.00 0.00 0.00 0.00 0.01 0.00
0.92 0.98 1.03 0.92 0.68 0.53 0.59 0.41 0.35 0.28 0.12 0.04 0.06 0.09 0.22 0.12 0.02 0.00 0.00 0.01 0.01 0.02 0.03 0.01 0.02 0.02 0.06 0.14 0.13 0.07 0.03 0.01 0.00 0.00 0.00 0.02 0.04 0.06 0.07 0.09 0.01 0.00 0.00 0.00 0.00 0.00 0.00
0.87 0.99 1.15 1.20 1.09 0.91 0.73 0.39 0.28 0.20 0.13 0.07 0.04 0.08 0.15 0.14 0.04 0.00 0.00 0.00 0.00 0.01 0.01 0.00 0.03 0.01 0.04 0.12 0.16 0.10 0.04 0.01 0.00 0.00 0.00 0.00 0.00 0.00 0.00 0.00 0.00 0.00 0.00 0.00 0.00 0.00 0.00

GFSGBSN_prec_precacc_105.txt.gz
Total_Precipitation_Accumulation
0.23 0.25 0.29 0.38 0.33 0.26 0.32 0.38 0.37 0.36 0.47 0.50 0.58 0.70 0.75 0.66 0.56 0.52 0.48 0.52 0.53 0.55 0.51 0.63 0.70 1.13 0.71 0.68 0.29 0.19 0.24 0.27 0.69 1.07 0.69 0.33 0.33 0.65 0.41 0.18 0.85 0.72 0.52 0.42 0.47 0.38 0.29
0.29 0.30 0.33 0.37 0.29 0.31 0.37 0.52 0.56 0.56 0.55 0.57 0.78 0.77 0.65 0.57 0.58 0.53 0.48 0.49 0.57 0.60 0.38 0.37 0.97 1.12 0.71 0.52 0.15 0.12 0.26 0.43 0.65 1.07 0.70 0.46 0.28 0.84 0.57 0.44 0.57 0.66 0.73 0.55 0.72 0.55 0.43
0.27 0.29 0.35 0.33 0.31 0.36 0.45 0.63 0.68 0.61 0.72 0.71 0.92 0.81 0.68 0.59 0.48 0.50 0.50 0.43 0.39 0.51 0.43 0.46 0.91 0.92 0.76 0.43 0.14 0.21 0.24 0.56 0.63 0.92 0.73 0.57 0.31 0.66 0.82 0.67 0.29 0.71 0.82 1.01 0.92 0.74 0.66
0.30 0.32 0.36 0.31 0.35 0.42 0.59 0.68 0.67 0.66 0.84 0.96 1.08 0.78 0.59 0.57 0.48 0.43 0.42 0.37 0.25 0.29 0.51 0.52 1.12 0.97 0.92 0.60 0.16 0.19 0.17 0.62 0.63 1.01 1.24 1.09 0.46 0.49 0.56 0.82 0.61 0.76 1.36 1.33 0.96 1.25 1.00
0.36 0.37 0.32 0.32 0.40 0.56 0.63 0.67 0.64 0.71 0.82 1.20 1.24 0.82 0.62 0.54 0.47 0.52 0.65 0.77 0.69 0.63 0.77 1.11 1.28 1.37 0.85 0.98 0.25 0.19 0.15 0.73 0.86 1.20 1.93 1.84 0.98 0.55 0.52 0.95 1.07 0.76 1.14 1.00 0.90 1.01 1.40
0.40 0.40 0.36 0.41 0.49 0.62 0.64 0.67 0.68 1.00 1.08 0.94 1.03 0.68 0.55 0.38 0.38 0.61 1.81 1.74 1.81 1.35 1.21 1.37 1.58 1.77 1.00 0.97 0.47 0.21 0.24 0.84 1.12 1.60 2.80 3.11 1.91 0.81 0.65 0.71 0.85 0.45 0.58 0.69 0.70 0.67 1.02
0.42 0.40 0.45 0.46 0.48 0.52 0.64 0.76 0.87 1.29 0.83 0.68 0.58 0.48 0.52 0.47 0.68 1.07 1.77 2.47 2.20 1.58 1.42 1.44 1.37 1.13 0.66 0.62 0.33 0.28 0.48 1.53 1.93 2.21 2.74 2.98 1.91 0.65 0.44 0.57 0.34 0.35 0.29 0.60 0.54 0.54 0.62
0.45 0.42 0.41 0.44 0.50 0.52 0.62 0.85 1.08 0.78 0.67 0.72 0.60 0.60 0.70 0.59 0.69 1.08 1.43 2.30 1.89 1.51 1.95 1.72 0.84 0.72 0.40 0.39 0.67 0.48 0.75 2.78 2.38 2.07 2.06 2.21 1.02 0.27 0.34 0.66 0.31 0.23 0.21 0.63 0.83 0.70 0.70
0.32 0.34 0.41 0.51 0.53 0.55 0.68 0.99 0.94 0.86 0.85 0.78 0.71 0.80 0.70 0.61 0.60 0.74 0.86 1.49 1.47 1.45 1.91 2.23 1.44 0.84 0.62 0.82 0.76 0.75 1.42 2.50 1.80 1.52 1.53 1.21 0.46 0.40 0.56 0.91 0.34 0.15 0.09 0.39 1.22 0.92 0.60
0.27 0.37 0.46 0.49 0.54 0.58 0.72 1.03 0.88 0.98 1.01 0.85 0.78 0.78 0.69 0.70 0.65 0.66 0.81 1.29 1.39 1.45 2.01 2.62 1.53 1.03 0.77 0.91 0.92 0.74 1.49 2.07 1.81 1.60 1.82 1.43 0.45 0.35 0.56 0.99 0.38 0.24 0.09 0.39 0.79 0.59 0.50
0.25 0.34 0.38 0.42 0.52 0.60 0.90 0.93 0.87 0.86 0.98 0.71 0.62 0.53 0.57 0.82 0.92 1.01 0.92 0.90 1.34 1.59 2.33 2.25 1.41 0.95 0.92 0.80 0.68 0.93 1.39 1.45 0.94 1.21 1.57 1.39 0.65 0.51 0.64 0.71 0.44 0.42 0.11 0.31 0.37 0.27 0.31
0.25 0.34 0.41 0.50 0.53 0.65 0.88 0.92 0.86 0.79 0.71 0.64 0.61 0.53 0.71 0.76 0.94 0.74 0.64 1.10 1.29 1.64 2.22 2.29 1.56 1.04 0.76 0.57 0.66 0.97 1.41 1.07 0.94 1.03 0.98 0.78 0.68 0.77 0.70 0.48 0.22 0.17 0.13 0.44 0.38 0.48 0.51
0.21 0.31 0.44 0.52 0.52 0.67 0.97 0.99 0.80 0.96 0.88 0.94 0.95 0.62 0.80 0.69 0.62 0.53 0.96 1.63 1.60 1.29 1.39 1.16 0.86 0.41 0.33 0.38 0.38 0.49 0.90 0.83 0.86 1.07 1.42 1.30 1.11 0.86 0.76 0.35 0.23 0.23 0.58 1.20 1.11 1.15 0.65
0.27 0.38 0.57 0.62 0.68 0.80 1.13 1.08 0.96 1.20 1.38 1.56 1.46 0.95 0.58 0.46 0.48 0.93 1.49 1.32 1.41 0.92 0.95 0.48 0.31 0.36 0.35 0.23 0.34 0.33 0.45 0.48 0.25 0.17 0.81 1.41 1.87 1.12 0.63 0.28 0.34 0.35 0.58 0.88 0.73 0.35 0.42
0.36 0.54 0.73 0.91 0.96 1.07 1.29 1.26 1.20 1.39 1.36 1.48 1.07 0.97 0.54 0.32 0.50 1.21 1.30 1.36 1.25 0.95 0.62 0.20 0.29 0.39 0.36 0.16 0.18 0.29 0.38 0.27 0.17 0.16 0.51 0.61 1.13 0.58 0.28 0.08 0.15 0.33 0.45 0.33 0.47 0.21 0.35
0.58 0.85 0.97 0.97 0.97 0.85 0.94 1.12 1.08 1.49 1.31 1.21 0.81 0.70 0.75 0.46 0.69 1.22 1.12 1.32 0.62 0.43 0.09 0.02 0.18 0.14 0.11 0.09 0.09 0.10 0.19 0.12 0.09 0.08 0.10 0.17 0.58 0.30 0.16 0.13 0.07 0.07 0.13 0.26 0.53 0.41 0.27
0.78 0.83 0.85 0.82 0.86 0.80 0.73 0.87 1.07 1.38 1.33 0.76 0.78 0.86 1.20 0.82 1.10 1.39 1.16 1.08 0.49 0.18 0.05 0.05 0.03 0.01 0.01 0.03 0.03 0.03 0.07 0.11 0.05 0.06 0.02 0.01 0.16 0.28 0.23 0.25 0.10 0.04 0.14 0.15 0.22 0.22 0.22
0.70 0.67 0.73 0.85 0.94 0.92 0.89 1.01 1.31 1.41 1.41 0.88 0.96 1.23 1.29 0.87 1.14 1.17 1.06 0.77 0.56 0.17 0.03 0.00 0.01 0.01 0.01 0.01 0.00 0.01 0.02 0.02 0.01 0.00 0.00 0.00 0.04 0.10 0.13 0.03 0.01 0.02 0.01 0.04 0.23 0.09 0.13
0.78 0.83 0.74 0.82 0.90 0.96 1.07 1.31 1.45 1.51 1.27 1.02 0.95 1.29 1.19 0.68 0.66 0.58 0.46 0.32 0.14 0.08 0.04 0.01 0.01 0.02 0.02 0.01 0.01 0.01 0.00 0.00 0.00 0.00 0.00 0.00 0.05 0.12 0.18 0.16 0.06 0.06 0.02 0.10 0.21 0.39 0.25
0.69 0.82 0.81 0.72 0.73 0.75 0.84 1.07 1.11 1.60 0.99 1.00 1.16 1.29 1.17 0.78 0.33 0.15 0.31 0.22 0.13 0.09 0.02 0.00 0.00 0.00 0.00 0.00 0.00 0.00 0.00 0.00 0.00 0.00 0.00 0.01 0.03 0.03 0.06 0.09 0.20 0.18 0.03 0.10 0.42 0.55 0.09
0.61 0.76 0.90 0.83 0.78 0.69 0.56 0.76 0.98 1.03 0.93 1.19 0.95 0.49 0.35 0.35 0.13 0.12 0.17 0.18 0.12 0.05 0.01 0.00 0.01 0.00 0.00 0.01 0.00 0.00 0.00 0.00 0.00 0.00 0.01 0.04 0.05 0.02 0.02 0.06 0.22 0.20 0.08 0.07 0.32 0.17 0.23
0.76 0.71 0.88 0.97 1.00 1.11 1.08 1.04 0.96 0.90 0.94 1.18 0.65 0.30 0.16 0.03 0.06 0.10 0.05 0.09 0.05 0.00 0.01 0.01 0.01 0.00 0.01 0.01 0.01 0.00 0.00 0.00 0.01 0.00 0.02 0.05 0.09 0.06 0.06 0.05 0.10 0.16 0.04 0.06 0.06 0.02 0.02
0.90 0.93 1.14 1.29 1.16 1.02 1.02 1.02 1.07 0.93 1.10 0.87 0.59 0.18 0.06 0.06 0.05 0.03 0.02 0.00 0.01 0.00 0.01 0.01 0.01 0.03 0.02 0.01 0.00 0.00 0.00 0.00 0.00 0.01 0.03 0.06 0.08 0.15 0.07 0.04 0.11 0.13 0.04 0.02 0.01 0.00 0.01
0.88 0.87 0.87 1.00 0.78 0.69 0.82 0.65 0.50 0.52 0.74 0.45 0.35 0.17 0.03 0.05 0.01 0.00 0.00 0.00 0.00 0.00 0.01 0.00 0.00 0.04 0.03 0.01 0.01 0.01 0.00 0.00 0.01 0.00 0.01 0.02 0.06 0.19 0.09 0.09 0.24 0.13 0.02 0.00 0.00 0.00 0.00
0.89 1.07 1.21 1.46 1.41 1.15 0.92 0.66 0.57 0.66 0.62 0.18 0.21 0.15 0.07 0.02 0.00 0.00 0.00 0.00 0.00 0.00 0.00 0.00 0.00 0.00 0.01 0.02 0.05 0.05 0.02 0.01 0.00 0.00 0.01 0.01 0.06 0.18 0.16 0.17 0.09 0.01 0.00 0.00 0.00 0.00 0.00
0.64 0.79 0.98 1.16 1.33 1.48 1.56 1.22 0.78 0.57 0.35 0.07 0.11 0.19 0.15 0.04 0.00 0.00 0.00 0.00 0.00 0.00 0.02 0.02 0.03 0.01 0.01 0.06 0.15 0.10 0.04 0.01 0.01 0.02 0.01 0.02 0.03 0.16 0.10 0.09 0.01 0.01 0.00 0.00 0.02 0.01 0.00
0.58 0.60 0.61 0.60 0.54 0.56 0.67 0.79 0.73 0.41 0.21 0.03 0.08 0.14 0.22 0.07 0.01 0.00 0.00 0.00 0.00 0.01 0.02 0.02 0.06 0.02 0.03 0.11 0.17 0.08 0.02 0.00 0.01 0.01 0.03 0.07 0.10 0.15 0.14 0.15 0.00 0.00 0.00 0.00 0.00 0.01 0.00
0.92 0.98 1.03 0.92 0.68 0.53 0.59 0.41 0.35 0.28 0.12 0.04 0.06 0.09 0.22 0.12 0.02 0.00 0.00 0.01 0.01 0.02 0.03 0.01 0.02 0.02 0.06 0.14 0.13 0.07 0.03 0.01 0.00 0.00 0.00 0.02 0.04 0.06 0.07 0.09 0.01 0.00 0.00 0.00 0.00 0.00 0.00
0.87 0.99 1.15 1.20 1.09 0.91 0.73 0.39 0.28 0.20 0.13 0.07 0.04 0.08 0.15 0.14 0.04 0.00 0.00 0.00 0.00 0.01 0.01 0.00 0.03 0.01 0.04 0.12 0.16 0.10 0.04 0.01 0.00 0.00 0.00 0.00 0.00 0.00 0.00 0.00 0.00 0.00 0.00 0.00 0.00 0.00 0.00

GFSGBSN_prec_precacc_108.txt.gz
Total_Precipitation_Accumulation
0.25 0.26 0.30 0.40 0.34 0.27 0.34 0.42 0.40 0.40 0.62 0.71 0.63 0.71 0.75 0.66 0.56 0.52 0.48 0.52 0.54 0.56 0.51 0.63 0.70 1.14 0.72 0.71 0.30 0.19 0.24 0.28 0.69 1.07 0.69 0.33 0.33 0.65 0.41 0.18 0.85 0.72 0.52 0.42 0.47 0.38 0.29
0.30 0.30 0.34 0.38 0.31 0.31 0.39 0.54 0.57 0.59 0.64 0.74 0.90 0.81 0.65 0.57 0.58 0.53 0.49 0.51 0.62 0.63 0.40 0.37 0.97 1.14 0.73 0.56 0.15 0.13 0.26 0.43 0.65 1.07 0.70 0.46 0.28 0.84 0.57 0.44 0.57 0.66 0.73 0.55 0.72 0.55 0.43
0.28 0.30 0.36 0.34 0.32 0.37 0.46 0.64 0.69 0.63 0.80 0.81 1.00 0.84 0.68 0.59 0.48 0.50 0.50 0.44 0.40 0.53 0.43 0.46 0.91 0.94 0.79 0.47 0.18 0.22 0.25 0.56 0.63 0.92 0.73 0.57 0.31 0.66 0.82 0.67 0.29 0.71 0.82 1.01 0.92 0.74 0.66
0.31 0.33 0.37 0.32 0.35 0.43 0.59 0.68 0.67 0.67 0.89 1.05 1.11 0.80 0.59 0.57 0.48 0.43 0.43 0.38 0.26 0.29 0.52 0.52 1.12 1.03 0.99 0.63 0.22 0.21 0.19 0.62 0.63 1.01 1.24 1.09 0.46 0.49 0.56 0.82 0.61 0.76 1.36 1.33 0.96 1.25 1.00
0.36 0.38 0.33 0.33 0.40 0.57 0.64 0.67 0.64 0.71 0.84 1.25 1.29 0.83 0.62 0.54 0.47 0.53 0.65 0.77 0.70 0.64 0.78 1.11 1.29 1.44 0.96 1.01 0.43 0.22 0.16 0.74 0.86 1.20 1.93 1.84 0.98 0.55 0.52 0.95 1.07 0.76 1.14 1.00 0.90 1.01 1.40
0.40 0.40 0.37 0.42 0.50 0.62 0.64 0.67 0.69 1.00 1.08 0.96 1.06 0.70 0.55 0.39 0.38 0.61 1.83 1.75 1.82 1.39 1.25 1.38 1.63 1.83 1.12 1.04 0.64 0.22 0.24 0.84 1.12 1.60 2.80 3.11 1.91 0.81 0.65 0.71 0.85 0.45 0.58 0.69 0.70 0.67 1.02
0.43 0.41 0.46 0.46 0.48 0.52 0.64 0.76 0.87 1.29 0.83 0.68 0.58 0.48 0.52 0.47 0.68 1.07 1.80 2.51 2.21 1.60 1.43 1.47 1.50 1.23 0.74 0.67 0.34 0.28 0.48 1.53 1.93 2.21 2.74 2.98 1.91 0.65 0.44 0.57 0.34 0.35 0.29 0.60 0.54 0.54 0.62
0.46 0.43 0.42 0.44 0.51 0.52 0.62 0.86 1.08 0.78 0.67 0.72 0.61 0.60 0.70 0.59 0.69 1.08 1.44 2.31 1.89 1.51 1.96 1.81 0.92 0.82 0.49 0.45 0.68 0.48 0.75 2.78 2.38 2.07 2.06 2.21 1.02 0.27 0.34 0.66 0.31 0.23 0.21 0.63 0.83 0.70 0.70
0.33 0.35 0.41 0.51 0.54 0.55 0.69 1.00 0.96 0.87 0.85 0.78 0.73 0.81 0.70 0.61 0.60 0.74 0.86 1.49 1.47 1.45 1.96 2.34 1.58 1.03 0.73 0.87 0.78 0.76 1.42 2.50 1.80 1.52 1.53 1.21 0.46 0.40 0.56 0.91 0.34 0.15 0.09 0.39 1.22 0.92 0.60
0.27 0.38 0.47 0.49 0.55 0.59 0.72 1.03 0.90 0.99 1.01 0.85 0.80 0.79 0.69 0.70 0.65 0.66 0.81 1.30 1.40 1.46 2.06 2.80 1.65 1.14 0.82 0.93 0.93 0.74 1.49 2.07 1.81 1.60 1.82 1.43 0.45 0.35 0.56 0.99 0.38 0.24 0.09 0.39 0.79 0.59 0.50
0.25 0.34 0.38 0.42 0.52 0.60 0.90 0.94 0.88 0.87 0.98 0.71 0.62 0.53 0.58 0.82 0.92 1.02 0.92 0.90 1.35 1.59 2.38 2.37 1.48 1.03 0.98 0.82 0.70 0.93 1.39 1.45 0.94 1.21 1.57 1.39 0.65 0.51 0.64 0.71 0.44 0.42 0.11 0.31 0.37 0.27 0.31
0.26 0.34 0.41 0.50 0.53 0.65 0.89 0.93 0.87 0.80 0.71 0.64 0.61 0.53 0.71 0.76 0.94 0.74 0.64 1.11 1.30 1.65 2.31 2.37 1.62 1.10 0.76 0.57 0.66 0.97 1.41 1.07 0.94 1.03 0.98 0.78 0.68 0.77 0.70 0.48 0.22 0.17 0.13 0.44 0.38 0.48 0.51
0.23 0.31 0.44 0.52 0.52 0.67 0.97 0.99 0.80 0.97 0.89 0.94 0.95 0.62 0.80 0.69 0.62 0.53 0.96 1.63 1.60 1.32 1.44 1.20 0.90 0.43 0.34 0.38 0.38 0.49 0.90 0.83 0.86 1.07 1.42 1.30 1.11 0.86 0.76 0.35 0.23 0.23 0.58 1.20 1.11 1.15 0.65
0.28 0.39 0.57 0.62 0.68 0.80 1.13 1.08 0.96 1.20 1.39 1.56 1.46 0.95 0.58 0.46 0.48 0.93 1.49 1.32 1.42 0.95 0.96 0.48 0.31 0.36 0.35 0.23 0.34 0.33 0.45 0.48 0.25 0.17 0.81 1.41 1.87 1.12 0.63 0.28 0.34 0.35 0.58 0.88 0.73 0.35 0.42
0.36 0.54 0.73 0.91 0.96 1.07 1.29 1.26 1.20 1.39 1.36 1.48 1.07 0.97 0.54 0.32 0.50 1.21 1.30 1.36 1.26 0.96 0.62 0.20 0.29 0.39 0.36 0.16 0.18 0.29 0.38 0.27 0.17 0.16 0.51 0.61 1.13 0.58 0.28 0.08 0.16 0.33 0.45 0.33 0.47 0.21 0.35
0.58 0.86 0.97 0.97 0.97 0.85 0.94 1.12 1.08 1.49 1.31 1.21 0.81 0.70 0.75 0.46 0.69 1.22 1.12 1.32 0.62 0.43 0.09 0.02 0.18 0.14 0.11 0.09 0.09 0.10 0.19 0.12 0.09 0.08 0.10 0.17 0.58 0.30 0.16 0.13 0.07 0.07 0.13 0.26 0.53 0.41 0.28
0.78 0.84 0.86 0.83 0.86 0.80 0.73 0.87 1.07 1.38 1.33 0.76 0.78 0.86 1.20 0.82 1.10 1.39 1.16 1.08 0.49 0.18 0.05 0.05 0.03 0.01 0.01 0.03 0.03 0.03 0.07 0.11 0.05 0.06 0.02 0.01 0.16 0.28 0.23 0.25 0.10 0.04 0.14 0.15 0.23 0.22 0.22
0.70 0.67 0.73 0.85 0.94 0.92 0.89 1.01 1.31 1.41 1.41 0.88 0.96 1.23 1.29 0.87 1.14 1.17 1.06 0.77 0.56 0.17 0.03 0.00 0.01 0.01 0.01 0.01 0.00 0.01 0.02 0.02 0.01 0.00 0.00 0.00 0.04 0.10 0.13 0.03 0.01 0.02 0.01 0.04 0.23 0.09 0.13
0.78 0.83 0.74 0.82 0.90 0.96 1.07 1.31 1.45 1.51 1.27 1.02 0.95 1.29 1.19 0.68 0.66 0.58 0.46 0.32 0.14 0.08 0.04 0.01 0.01 0.02 0.02 0.01 0.01 0.01 0.00 0.00 0.00 0.00 0.00 0.00 0.05 0.12 0.18 0.16 0.06 0.06 0.02 0.10 0.21 0.39 0.25
0.69 0.82 0.81 0.72 0.73 0.75 0.84 1.07 1.11 1.60 0.99 1.00 1.16 1.29 1.17 0.78 0.33 0.15 0.31 0.22 0.13 0.09 0.02 0.00 0.00 0.00 0.00 0.00 0.00 0.00 0.00 0.00 0.00 0.00 0.00 0.01 0.03 0.03 0.06 0.09 0.20 0.18 0.03 0.10 0.42 0.55 0.09
0.61 0.76 0.90 0.83 0.78 0.69 0.56 0.76 0.98 1.03 0.93 1.19 0.95 0.49 0.35 0.35 0.13 0.12 0.17 0.18 0.12 0.05 0.01 0.00 0.01 0.00 0.00 0.01 0.00 0.00 0.00 0.00 0.00 0.00 0.01 0.04 0.05 0.02 0.02 0.06 0.22 0.20 0.08 0.07 0.32 0.17 0.23
0.76 0.71 0.88 0.97 1.00 1.11 1.08 1.04 0.96 0.90 0.94 1.18 0.65 0.30 0.16 0.03 0.06 0.10 0.05 0.09 0.05 0.00 0.01 0.01 0.01 0.00 0.01 0.01 0.01 0.00 0.00 0.00 0.01 0.00 0.02 0.05 0.09 0.06 0.06 0.05 0.10 0.16 0.04 0.06 0.06 0.02 0.02
0.90 0.93 1.14 1.29 1.16 1.02 1.02 1.02 1.07 0.93 1.10 0.87 0.59 0.18 0.06 0.06 0.05 0.03 0.02 0.00 0.01 0.00 0.01 0.01 0.01 0.03 0.02 0.01 0.00 0.00 0.00 0.00 0.00 0.01 0.03 0.06 0.08 0.15 0.07 0.04 0.11 0.13 0.04 0.02 0.01 0.00 0.01
0.88 0.87 0.87 1.00 0.78 0.69 0.82 0.65 0.50 0.52 0.74 0.45 0.35 0.17 0.03 0.05 0.01 0.00 0.00 0.00 0.00 0.00 0.01 0.00 0.00 0.04 0.03 0.01 0.01 0.01 0.00 0.00 0.01 0.00 0.01 0.02 0.06 0.19 0.09 0.09 0.24 0.13 0.02 0.00 0.00 0.00 0.00
0.89 1.07 1.21 1.46 1.41 1.15 0.92 0.66 0.57 0.66 0.62 0.18 0.21 0.15 0.07 0.02 0.00 0.00 0.00 0.00 0.00 0.00 0.00 0.00 0.00 0.00 0.01 0.02 0.05 0.05 0.02 0.01 0.00 0.00 0.01 0.01 0.06 0.18 0.16 0.17 0.09 0.01 0.00 0.00 0.00 0.00 0.00
0.64 0.79 0.98 1.16 1.33 1.48 1.56 1.22 0.78 0.57 0.35 0.07 0.11 0.19 0.15 0.04 0.00 0.00 0.00 0.00 0.00 0.00 0.02 0.02 0.03 0.01 0.01 0.06 0.15 0.10 0.04 0.01 0.01 0.02 0.01 0.02 0.03 0.16 0.10 0.09 0.01 0.01 0.00 0.00 0.02 0.01 0.00
0.58 0.60 0.61 0.60 0.54 0.56 0.67 0.79 0.73 0.41 0.21 0.03 0.08 0.14 0.22 0.07 0.01 0.00 0.00 0.00 0.00 0.01 0.02 0.02 0.06 0.02 0.03 0.11 0.17 0.08 0.02 0.00 0.01 0.01 0.03 0.07 0.10 0.15 0.14 0.15 0.00 0.00 0.00 0.00 0.00 0.01 0.00
0.92 0.98 1.03 0.92 0.68 0.53 0.59 0.41 0.35 0.28 0.12 0.04 0.06 0.09 0.22 0.12 0.02 0.00 0.00 0.01 0.01 0.02 0.03 0.01 0.02 0.02 0.06 0.14 0.13 0.07 0.03 0.01 0.00 0.00 0.00 0.02 0.04 0.06 0.07 0.09 0.01 0.00 0.00 0.00 0.00 0.00 0.00
0.88 0.99 1.15 1.20 1.09 0.91 0.73 0.39 0.28 0.20 0.13 0.07 0.04 0.08 0.15 0.14 0.04 0.00 0.00 0.00 0.00 0.01 0.01 0.00 0.03 0.01 0.04 0.12 0.16 0.10 0.04 0.01 0.00 0.00 0.00 0.00 0.00 0.00 0.00 0.00 0.00 0.00 0.00 0.00 0.00 0.00 0.00

GFSGBSN_prec_precacc_111.txt.gz
Total_Precipitation_Accumulation
0.26 0.26 0.30 0.40 0.36 0.28 0.35 0.42 0.40 0.41 0.71 0.81 0.70 0.77 0.75 0.66 0.58 0.53 0.48 0.53 0.57 0.57 0.51 0.63 0.70 1.17 0.72 0.72 0.31 0.22 0.25 0.28 0.69 1.07 0.69 0.33 0.33 0.65 0.41 0.18 0.85 0.72 0.52 0.42 0.47 0.38 0.29
0.30 0.30 0.34 0.39 0.31 0.32 0.39 0.54 0.57 0.61 0.71 0.83 0.99 0.86 0.65 0.57 0.58 0.53 0.51 0.57 0.70 0.73 0.42 0.37 0.97 1.16 0.73 0.57 0.16 0.18 0.30 0.43 0.65 1.07 0.70 0.46 0.28 0.84 0.57 0.44 0.57 0.66 0.73 0.55 0.72 0.55 0.43
0.28 0.30 0.36 0.34 0.32 0.37 0.46 0.65 0.70 0.67 0.88 0.88 1.06 0.89 0.69 0.60 0.48 0.50 0.51 0.47 0.52 0.62 0.45 0.46 0.91 0.96 0.80 0.49 0.18 0.27 0.28 0.56 0.63 0.92 0.73 0.57 0.31 0.66 0.82 0.67 0.29 0.71 0.82 1.01 0.92 0.74 0.66
0.31 0.34 0.37 0.32 0.35 0.43 0.60 0.69 0.68 0.71 0.95 1.11 1.18 0.82 0.59 0.57 0.48 0.43 0.44 0.40 0.27 0.29 0.52 0.52 1.12 1.05 1.02 0.69 0.22 0.24 0.22 0.62 0.63 1.01 1.24 1.09 0.46 0.49 0.56 0.82 0.61 0.76 1.36 1.33 0.96 1.25 1.00
0.36 0.38 0.33 0.33 0.41 0.57 0.64 0.68 0.65 0.72 0.87 1.31 1.40 0.84 0.62 0.54 0.47 0.53 0.65 0.78 0.70 0.65 0.78 1.12 1.30 1.51 1.00 1.11 0.47 0.26 0.17 0.74 0.86 1.20 1.93 1.84 0.98 0.55 0.52 0.95 1.07 0.76 1.14 1.00 0.90 1.01 1.40
0.41 0.40 0.37 0.42 0.50 0.62 0.65 0.67 0.69 1.00 1.09 0.96 1.06 0.70 0.55 0.39 0.38 0.61 1.84 1.75 1.82 1.39 1.26 1.39 1.65 1.96 1.20 1.21 0.79 0.24 0.24 0.84 1.12 1.60 2.80 3.11 1.91 0.81 0.65 0.71 0.85 0.45 0.58 0.69 0.70 0.67 1.02
0.44 0.41 0.46 0.46 0.48 0.53 0.66 0.78 0.87 1.29 0.84 0.68 0.58 0.48 0.52 0.47 0.68 1.07 1.83 2.51 2.23 1.62 1.44 1.49 1.53 1.28 0.82 0.76 0.44 0.29 0.48 1.53 1.93 2.21 2.74 2.98 1.91 0.65 0.44 0.57 0.34 0.35 0.29 0.60 0.54 0.54 0.62
0.47 0.44 0.42 0.44 0.51 0.53 0.63 0.89 1.10 0.78 0.67 0.72 0.61 0.60 0.70 0.59 0.69 1.08 1.44 2.31 1.90 1.51 1.97 1.85 0.94 0.87 0.54 0.51 0.74 0.50 0.75 2.78 2.38 2.07 2.06 2.21 1.02 0.27 0.34 0.66 0.31 0.23 0.21 0.63 0.83 0.70 0.70
0.34 0.35 0.42 0.51 0.54 0.56 0.69 1.01 1.00 0.88 0.85 0.78 0.73 0.81 0.70 0.61 0.60 0.74 0.86 1.49 1.47 1.45 2.00 2.42 1.67 1.11 0.77 0.88 0.78 0.76 1.42 2.50 1.80 1.52 1.53 1.21 0.46 0.40 0.56 0.91 0.34 0.15 0.09 0.39 1.22 0.92 0.60
0.28 0.39 0.47 0.49 0.55 0.59 0.73 1.03 0.91 1.01 1.03 0.85 0.80 0.79 0.69 0.70 0.65 0.66 0.81 1.30 1.40 1.46 2.09 2.93 1.72 1.18 0.84 0.93 0.94 0.74 1.49 2.07 1.81 1.60 1.82 1.43 0.45 0.35 0.56 0.99 0.38 0.24 0.09 0.39 0.79 0.59 0.50
0.27 0.35 0.38 0.42 0.52 0.60 0.90 0.94 0.89 0.87 0.99 0.71 0.62 0.53 0.58 0.82 0.92 1.02 0.92 0.90 1.35 1.59 2.40 2.47 1.58 1.12 1.01 0.83 0.70 0.93 1.39 1.45 0.94 1.21 1.57 1.39 0.65 0.51 0.64 0.71 0.44 0.42 0.11 0.31 0.37 0.27 0.31
0.28 0.35 0.41 0.50 0.53 0.65 0.89 0.93 0.87 0.81 0.71 0.64 0.61 0.53 0.71 0.76 0.94 0.74 0.64 1.11 1.30 1.65 2.37 2.46 1.69 1.18 0.78 0.58 0.66 0.97 1.41 1.07 0.94 1.03 0.98 0.78 0.68 0.77 0.70 0.48 0.22 0.17 0.13 0.44 0.38 0.48 0.51
0.24 0.32 0.45 0.52 0.52 0.67 0.97 0.99 0.80 0.97 0.89 0.94 0.95 0.62 0.80 0.69 0.62 0.53 0.96 1.63 1.60 1.33 1.49 1.25 0.93 0.44 0.34 0.38 0.38 0.49 0.90 0.83 0.86 1.07 1.42 1.30 1.11 0.86 0.76 0.35 0.23 0.23 0.58 1.20 1.11 1.15 0.65
0.28 0.40 0.58 0.62 0.68 0.80 1.13 1.08 0.96 1.20 1.39 1.56 1.46 0.95 0.58 0.46 0.48 0.93 1.49 1.32 1.43 0.97 0.98 0.50 0.31 0.36 0.35 0.23 0.34 0.33 0.45 0.48 0.25 0.17 0.81 1.41 1.87 1.12 0.63 0.28 0.34 0.35 0.58 0.88 0.73 0.35 0.42
0.36 0.55 0.74 0.91 0.96 1.07 1.29 1.26 1.20 1.39 1.36 1.48 1.07 0.97 0.54 0.32 0.50 1.21 1.30 1.36 1.27 0.96 0.62 0.20 0.29 0.39 0.36 0.16 0.18 0.29 0.38 0.27 0.17 0.16 0.51 0.61 1.13 0.58 0.28 0.08 0.16 0.33 0.45 0.33 0.47 0.21 0.35
0.58 0.86 0.98 0.97 0.97 0.85 0.94 1.12 1.08 1.49 1.31 1.21 0.81 0.70 0.75 0.46 0.69 1.22 1.12 1.32 0.62 0.43 0.09 0.02 0.18 0.14 0.11 0.09 0.09 0.10 0.19 0.12 0.09 0.08 0.10 0.17 0.58 0.30 0.16 0.13 0.07 0.07 0.13 0.26 0.53 0.41 0.28
0.78 0.84 0.86 0.83 0.86 0.80 0.73 0.87 1.07 1.38 1.33 0.76 0.78 0.86 1.20 0.82 1.10 1.39 1.16 1.08 0.49 0.18 0.05 0.05 0.03 0.01 0.01 0.03 0.03 0.03 0.07 0.11 0.05 0.06 0.02 0.01 0.16 0.28 0.23 0.25 0.10 0.04 0.14 0.15 0.23 0.22 0.22
0.70 0.67 0.73 0.85 0.94 0.92 0.89 1.01 1.31 1.41 1.41 0.88 0.96 1.23 1.29 0.87 1.14 1.17 1.06 0.77 0.56 0.17 0.03 0.00 0.01 0.01 0.01 0.01 0.00 0.01 0.02 0.02 0.01 0.00 0.00 0.00 0.04 0.10 0.13 0.03 0.01 0.02 0.01 0.04 0.23 0.09 0.13
0.78 0.83 0.74 0.82 0.90 0.96 1.07 1.31 1.45 1.51 1.27 1.02 0.95 1.29 1.19 0.68 0.66 0.58 0.46 0.32 0.14 0.08 0.04 0.01 0.01 0.02 0.02 0.01 0.01 0.01 0.00 0.00 0.00 0.00 0.00 0.00 0.05 0.12 0.18 0.16 0.06 0.06 0.02 0.10 0.21 0.39 0.25
0.69 0.82 0.81 0.72 0.73 0.75 0.84 1.07 1.11 1.60 0.99 1.00 1.16 1.29 1.17 0.78 0.33 0.15 0.31 0.22 0.13 0.09 0.02 0.00 0.00 0.00 0.00 0.00 0.00 0.00 0.00 0.00 0.00 0.00 0.00 0.01 0.03 0.03 0.06 0.09 0.20 0.18 0.03 0.10 0.42 0.55 0.09
0.61 0.76 0.90 0.83 0.78 0.69 0.56 0.76 0.98 1.03 0.93 1.19 0.95 0.49 0.35 0.35 0.13 0.12 0.17 0.18 0.12 0.05 0.01 0.00 0.01 0.00 0.00 0.01 0.00 0.00 0.00 0.00 0.00 0.00 0.01 0.04 0.05 0.02 0.02 0.06 0.22 0.20 0.08 0.07 0.32 0.17 0.23
0.76 0.71 0.88 0.97 1.00 1.11 1.08 1.04 0.96 0.90 0.94 1.18 0.65 0.30 0.16 0.03 0.06 0.10 0.05 0.09 0.05 0.00 0.01 0.01 0.01 0.00 0.01 0.01 0.01 0.00 0.00 0.00 0.01 0.00 0.02 0.05 0.09 0.06 0.06 0.05 0.10 0.16 0.04 0.06 0.06 0.02 0.02
0.90 0.93 1.14 1.29 1.16 1.02 1.02 1.02 1.07 0.93 1.10 0.87 0.59 0.18 0.06 0.06 0.05 0.03 0.02 0.00 0.01 0.00 0.01 0.01 0.01 0.03 0.02 0.01 0.00 0.00 0.00 0.00 0.00 0.01 0.03 0.06 0.08 0.15 0.07 0.04 0.11 0.13 0.04 0.02 0.01 0.00 0.01
0.88 0.87 0.87 1.00 0.78 0.69 0.82 0.65 0.50 0.52 0.74 0.45 0.35 0.17 0.03 0.05 0.01 0.00 0.00 0.00 0.00 0.00 0.01 0.00 0.00 0.04 0.03 0.01 0.01 0.01 0.00 0.00 0.01 0.00 0.01 0.02 0.06 0.19 0.09 0.09 0.24 0.13 0.02 0.00 0.00 0.00 0.00
0.89 1.07 1.21 1.46 1.41 1.15 0.92 0.66 0.57 0.66 0.62 0.18 0.21 0.15 0.07 0.02 0.00 0.00 0.00 0.00 0.00 0.00 0.00 0.00 0.00 0.00 0.01 0.02 0.05 0.05 0.02 0.01 0.00 0.00 0.01 0.01 0.06 0.18 0.16 0.17 0.09 0.01 0.00 0.00 0.00 0.00 0.00
0.64 0.79 0.98 1.16 1.33 1.48 1.56 1.22 0.78 0.57 0.35 0.07 0.11 0.19 0.15 0.04 0.00 0.00 0.00 0.00 0.00 0.00 0.02 0.02 0.03 0.01 0.01 0.06 0.15 0.10 0.04 0.01 0.01 0.02 0.01 0.02 0.03 0.16 0.10 0.09 0.01 0.01 0.00 0.00 0.02 0.01 0.00
0.58 0.60 0.61 0.60 0.54 0.56 0.67 0.79 0.73 0.41 0.21 0.03 0.08 0.14 0.22 0.07 0.01 0.00 0.00 0.00 0.00 0.01 0.02 0.02 0.06 0.02 0.03 0.11 0.17 0.08 0.02 0.00 0.01 0.01 0.03 0.07 0.10 0.15 0.14 0.15 0.00 0.00 0.00 0.00 0.00 0.01 0.00
0.92 0.98 1.03 0.92 0.68 0.53 0.59 0.41 0.35 0.28 0.12 0.04 0.06 0.09 0.22 0.12 0.02 0.00 0.00 0.01 0.01 0.02 0.03 0.01 0.02 0.02 0.06 0.14 0.13 0.07 0.03 0.01 0.00 0.00 0.00 0.02 0.04 0.06 0.07 0.09 0.01 0.00 0.00 0.00 0.00 0.00 0.00
0.88 1.00 1.15 1.20 1.09 0.91 0.73 0.39 0.28 0.20 0.13 0.07 0.04 0.08 0.15 0.14 0.04 0.00 0.00 0.00 0.00 0.01 0.01 0.00 0.03 0.01 0.04 0.12 0.16 0.10 0.04 0.01 0.00 0.00 0.00 0.00 0.00 0.00 0.00 0.00 0.00 0.00 0.00 0.00 0.00 0.00 0.00

GFSGBSN_prec_precacc_114.txt.gz
Total_Precipitation_Accumulation
0.26 0.26 0.30 0.41 0.36 0.28 0.35 0.43 0.43 0.46 0.74 0.84 0.73 0.80 0.78 0.69 0.60 0.54 0.49 0.55 0.66 0.65 0.52 0.63 0.71 1.24 0.75 0.73 0.33 0.25 0.25 0.28 0.69 1.07 0.69 0.33 0.33 0.65 0.41 0.18 0.85 0.72 0.52 0.42 0.47 0.38 0.29
0.31 0.30 0.34 0.39 0.31 0.32 0.39 0.56 0.63 0.68 0.76 0.88 1.04 0.87 0.66 0.58 0.58 0.54 0.52 0.59 0.80 0.81 0.43 0.37 0.97 1.19 0.75 0.57 0.16 0.24 0.32 0.43 0.65 1.07 0.70 0.46 0.28 0.84 0.57 0.44 0.57 0.66 0.73 0.55 0.72 0.55 0.43
0.28 0.30 0.36 0.35 0.32 0.37 0.46 0.66 0.74 0.75 0.95 0.90 1.08 0.94 0.70 0.60 0.48 0.51 0.53 0.48 0.56 0.71 0.46 0.46 0.91 0.96 0.82 0.50 0.18 0.37 0.37 0.56 0.63 0.92 0.73 0.57 0.31 0.66 0.82 0.67 0.29 0.71 0.82 1.01 0.92 0.74 0.66
0.31 0.34 0.37 0.32 0.36 0.44 0.60 0.69 0.69 0.75 1.02 1.15 1.20 0.83 0.59 0.57 0.48 0.47 0.47 0.41 0.28 0.33 0.54 0.52 1.12 1.05 1.03 0.69 0.23 0.33 0.31 0.62 0.63 1.01 1.24 1.09 0.46 0.49 0.56 0.82 0.61 0.76 1.36 1.33 0.96 1.25 1.00
0.36 0.38 0.33 0.33 0.41 0.60 0.67 0.68 0.65 0.72 0.88 1.33 1.43 0.85 0.62 0.54 0.47 0.54 0.66 0.78 0.70 0.65 0.79 1.12 1.30 1.52 1.02 1.13 0.49 0.30 0.27 0.74 0.86 1.20 1.93 1.84 0.98 0.55 0.52 0.95 1.07 0.76 1.14 1.00 0.90 1.01 1.40
0.41 0.40 0.37 0.42 0.50 0.63 0.69 0.71 0.69 1.01 1.09 0.96 1.06 0.70 0.55 0.39 0.38 0.61 1.84 1.75 1.82 1.39 1.26 1.39 1.66 1.96 1.25 1.30 0.80 0.27 0.32 0.84 1.12 1.60 2.80 3.11 1.91 0.81 0.65 0.71 0.85 0.45 0.58 0.69 0.70 0.67 1.02
0.45 0.41 0.46 0.46 0.48 0.53 0.67 0.83 0.88 1.29 0.84 0.69 0.58 0.48 0.52 0.47 0.68 1.07 1.83 2.51 2.23 1.63 1.45 1.55 1.62 1.31 0.92 0.83 0.45 0.31 0.50 1.53 1.93 2.21 2.74 2.98 1.91 0.65 0.44 0.57 0.34 0.35 0.29 0.60 0.54 0.54 0.62
0.47 0.44 0.42 0.44 0.51 0.53 0.63 0.93 1.13 0.78 0.67 0.72 0.61 0.60 0.70 0.59 0.69 1.08 1.44 2.31 1.90 1.52 2.00 1.89 1.01 0.92 0.64 0.55 0.80 0.50 0.75 2.78 2.38 2.07 2.06 2.21 1.02 0.27 0.34 0.66 0.31 0.23 0.21 0.63 0.83 0.70 0.70
0.35 0.36 0.42 0.52 0.54 0.56 0.70 1.02 1.03 0.88 0.85 0.78 0.73 0.81 0.70 0.61 0.60 0.74 0.86 1.49 1.47 1.45 2.03 2.49 1.73 1.20 0.88 0.96 0.82 0.76 1.42 2.50 1.80 1.52 1.53 1.21 0.46 0.40 0.56 0.91 0.34 0.15 0.09 0.39 1.22 0.92 0.60
0.29 0.39 0.47 0.50 0.55 0.59 0.73 1.04 0.92 1.02 1.03 0.85 0.80 0.79 0.69 0.70 0.65 0.66 0.81 1.30 1.40 1.46 2.10 3.02 1.78 1.28 0.89 1.00 1.00 0.75 1.49 2.07 1.81 1.60 1.82 1.43 0.45 0.35 0.56 0.99 0.38 0.24 0.09 0.39 0.79 0.59 0.50
0.27 0.35 0.39 0.43 0.53 0.60 0.91 0.94 0.89 0.87 0.99 0.71 0.62 0.53 0.58 0.82 0.92 1.02 0.92 0.90 1.35 1.59 2.42 2.57 1.65 1.16 1.03 0.86 0.74 0.94 1.39 1.45 0.94 1.21 1.57 1.39 0.65 0.51 0.64 0.71 0.44 0.42 0.11 0.31 0.37 0.27 0.31
0.28 0.35 0.42 0.50 0.54 0.66 0.89 0.93 0.87 0.81 0.71 0.64 0.61 0.53 0.71 0.76 0.94 0.74 0.64 1.11 1.30 1.65 2.42 2.53 1.74 1.22 0.78 0.58 0.66 0.97 1.41 1.07 0.94 1.03 0.98 0.78 0.68 0.77 0.70 0.48 0.22 0.17 0.13 0.44 0.38 0.48 0.51
0.24 0.33 0.45 0.53 0.52 0.68 0.97 0.99 0.81 0.97 0.89 0.94 0.95 0.62 0.80 0.69 0.62 0.53 0.96 1.63 1.60 1.34 1.50 1.27 0.95 0.44 0.35 0.38 0.38 0.49 0.90 0.83 0.86 1.07 1.42 1.30 1.11 0.86 0.76 0.35 0.23 0.23 0.58 1.20 1.11 1.15 0.65
0.29 0.40 0.58 0.62 0.68 0.81 1.14 1.08 0.96 1.20 1.39 1.56 1.46 0.95 0.58 0.46 0.48 0.93 1.49 1.32 1.44 0.99 0.99 0.50 0.31 0.36 0.35 0.23 0.34 0.33 0.45 0.48 0.25 0.17 0.81 1.41 1.87 1.12 0.63 0.28 0.34 0.35 0.58 0.88 0.73 0.35 0.42
0.37 0.55 0.74 0.91 0.96 1.07 1.29 1.27 1.20 1.39 1.36 1.48 1.07 0.97 0.54 0.32 0.50 1.21 1.30 1.36 1.28 0.96 0.62 0.20 0.29 0.39 0.36 0.16 0.18 0.29 0.38 0.27 0.17 0.16 0.51 0.61 1.13 0.58 0.28 0.08 0.16 0.33 0.45 0.33 0.47 0.21 0.35
0.58 0.86 0.98 0.97 0.97 0.85 0.94 1.12 1.08 1.49 1.31 1.21 0.81 0.70 0.75 0.46 0.69 1.22 1.12 1.32 0.62 0.43 0.09 0.02 0.18 0.14 0.11 0.09 0.09 0.10 0.19 0.12 0.09 0.08 0.10 0.17 0.58 0.30 0.16 0.13 0.07 0.07 0.13 0.26 0.53 0.41 0.28
0.78 0.84 0.86 0.83 0.86 0.80 0.73 0.87 1.07 1.38 1.33 0.76 0.78 0.86 1.20 0.82 1.10 1.39 1.16 1.08 0.49 0.18 0.05 0.05 0.03 0.01 0.01 0.03 0.03 0.03 0.07 0.11 0.05 0.06 0.02 0.01 0.16 0.28 0.23 0.25 0.10 0.04 0.14 0.15 0.23 0.22 0.22
0.70 0.67 0.73 0.85 0.94 0.92 0.89 1.01 1.31 1.41 1.41 0.88 0.96 1.23 1.29 0.87 1.14 1.17 1.06 0.77 0.56 0.17 0.03 0.00 0.01 0.01 0.01 0.01 0.00 0.01 0.02 0.02 0.01 0.00 0.00 0.00 0.04 0.10 0.13 0.03 0.01 0.02 0.01 0.04 0.23 0.09 0.13
0.78 0.83 0.74 0.82 0.90 0.96 1.07 1.31 1.45 1.51 1.27 1.02 0.95 1.29 1.19 0.68 0.66 0.58 0.46 0.32 0.14 0.08 0.04 0.01 0.01 0.02 0.02 0.01 0.01 0.01 0.00 0.00 0.00 0.00 0.00 0.00 0.05 0.12 0.18 0.16 0.06 0.06 0.02 0.10 0.21 0.39 0.25
0.69 0.82 0.81 0.72 0.73 0.75 0.84 1.07 1.11 1.60 0.99 1.00 1.16 1.29 1.17 0.78 0.33 0.15 0.31 0.22 0.13 0.09 0.02 0.00 0.00 0.00 0.00 0.00 0.00 0.00 0.00 0.00 0.00 0.00 0.00 0.01 0.03 0.03 0.06 0.09 0.20 0.18 0.03 0.10 0.42 0.55 0.09
0.61 0.76 0.90 0.83 0.78 0.69 0.56 0.76 0.98 1.03 0.93 1.19 0.95 0.49 0.35 0.35 0.13 0.12 0.17 0.18 0.12 0.05 0.01 0.00 0.01 0.00 0.00 0.01 0.00 0.00 0.00 0.00 0.00 0.00 0.01 0.04 0.05 0.02 0.02 0.06 0.22 0.20 0.08 0.07 0.32 0.17 0.23
0.76 0.71 0.88 0.97 1.00 1.11 1.08 1.04 0.96 0.90 0.94 1.18 0.65 0.30 0.16 0.03 0.06 0.10 0.05 0.09 0.05 0.00 0.01 0.01 0.01 0.00 0.01 0.01 0.01 0.00 0.00 0.00 0.01 0.00 0.02 0.05 0.09 0.06 0.06 0.05 0.10 0.16 0.04 0.06 0.06 0.02 0.02
0.90 0.93 1.14 1.29 1.16 1.02 1.02 1.02 1.07 0.93 1.10 0.87 0.59 0.18 0.06 0.06 0.05 0.03 0.02 0.00 0.01 0.00 0.01 0.01 0.01 0.03 0.02 0.01 0.00 0.00 0.00 0.00 0.00 0.01 0.03 0.06 0.08 0.15 0.07 0.04 0.11 0.13 0.04 0.02 0.01 0.00 0.01
0.88 0.87 0.87 1.00 0.78 0.69 0.82 0.65 0.50 0.52 0.74 0.45 0.35 0.17 0.03 0.05 0.01 0.00 0.00 0.00 0.00 0.00 0.01 0.00 0.00 0.04 0.03 0.01 0.01 0.01 0.00 0.00 0.01 0.00 0.01 0.02 0.06 0.19 0.09 0.09 0.24 0.13 0.02 0.00 0.00 0.00 0.00
0.89 1.07 1.21 1.46 1.41 1.15 0.92 0.66 0.57 0.66 0.62 0.18 0.21 0.15 0.07 0.02 0.00 0.00 0.00 0.00 0.00 0.00 0.00 0.00 0.00 0.00 0.01 0.02 0.05 0.05 0.02 0.01 0.00 0.00 0.01 0.01 0.06 0.18 0.16 0.17 0.09 0.01 0.00 0.00 0.00 0.00 0.00
0.64 0.79 0.98 1.16 1.33 1.48 1.56 1.22 0.78 0.57 0.35 0.07 0.11 0.19 0.15 0.04 0.00 0.00 0.00 0.00 0.00 0.00 0.02 0.02 0.03 0.01 0.01 0.06 0.15 0.10 0.04 0.01 0.01 0.02 0.01 0.02 0.03 0.16 0.10 0.09 0.01 0.01 0.00 0.00 0.02 0.01 0.00
0.58 0.60 0.61 0.60 0.54 0.56 0.67 0.79 0.73 0.41 0.21 0.03 0.08 0.14 0.22 0.07 0.01 0.00 0.00 0.00 0.00 0.01 0.02 0.02 0.06 0.02 0.03 0.11 0.17 0.08 0.02 0.00 0.01 0.01 0.03 0.07 0.10 0.15 0.14 0.15 0.00 0.00 0.00 0.00 0.00 0.01 0.00
0.92 0.98 1.03 0.92 0.68 0.53 0.59 0.41 0.35 0.28 0.12 0.04 0.06 0.09 0.22 0.12 0.02 0.00 0.00 0.01 0.01 0.02 0.03 0.01 0.02 0.02 0.06 0.14 0.13 0.07 0.03 0.01 0.00 0.00 0.00 0.02 0.04 0.06 0.07 0.09 0.01 0.00 0.00 0.00 0.00 0.00 0.00
0.88 1.00 1.15 1.20 1.09 0.91 0.73 0.39 0.28 0.20 0.13 0.07 0.04 0.08 0.15 0.14 0.04 0.00 0.00 0.00 0.00 0.01 0.01 0.00 0.03 0.01 0.04 0.12 0.16 0.10 0.04 0.01 0.00 0.00 0.00 0.00 0.00 0.00 0.00 0.00 0.00 0.00 0.00 0.00 0.00 0.00 0.00

GFSGBSN_prec_precacc_117.txt.gz
Total_Precipitation_Accumulation
0.26 0.26 0.30 0.41 0.36 0.28 0.36 0.46 0.46 0.48 0.75 0.84 0.74 0.82 0.80 0.70 0.60 0.55 0.53 0.57 0.72 0.76 0.54 0.63 0.72 1.25 0.81 0.76 0.39 0.36 0.26 0.28 0.69 1.07 0.69 0.33 0.33 0.65 0.41 0.18 0.85 0.72 0.52 0.42 0.47 0.38 0.29
0.31 0.30 0.34 0.39 0.31 0.32 0.39 0.57 0.67 0.73 0.82 0.89 1.04 0.88 0.66 0.58 0.58 0.55 0.58 0.62 0.84 0.87 0.43 0.37 0.97 1.23 0.77 0.58 0.19 0.43 0.33 0.43 0.65 1.07 0.70 0.46 0.28 0.84 0.57 0.44 0.57 0.66 0.73 0.55 0.72 0.55 0.43
0.28 0.30 0.36 0.35 0.33 0.38 0.47 0.66 0.75 0.77 1.04 0.94 1.08 0.94 0.70 0.60 0.49 0.52 0.57 0.56 0.62 0.75 0.46 0.46 0.91 0.98 0.85 0.51 0.21 0.61 0.39 0.56 0.63 0.92 0.73 0.57 0.31 0.66 0.82 0.67 0.29 0.71 0.82 1.01 0.92 0.74 0.66
0.31 0.34 0.37 0.32 0.36 0.47 0.62 0.69 0.69 0.75 1.04 1.21 1.21 0.84 0.60 0.57 0.48 0.47 0.47 0.47 0.29 0.33 0.54 0.52 1.12 1.06 1.10 0.71 0.27 0.40 0.33 0.62 0.63 1.01 1.24 1.09 0.46 0.49 0.56 0.82 0.61 0.76 1.36 1.33 0.96 1.25 1.00
0.37 0.38 0.33 0.33 0.41 0.61 0.74 0.69 0.65 0.72 0.88 1.34 1.44 0.86 0.62 0.54 0.47 0.54 0.66 0.80 0.70 0.65 0.79 1.12 1.30 1.52 1.08 1.17 0.53 0.33 0.31 0.74 0.86 1.20 1.93 1.84 0.98 0.55 0.52 0.95 1.07 0.76 1.14 1.00 0.90 1.01 1.40
0.42 0.41 0.37 0.42 0.51 0.65 0.75 0.74 0.69 1.01 1.09 0.96 1.06 0.70 0.55 0.39 0.38 0.62 1.84 1.75 1.82 1.39 1.26 1.39 1.66 1.96 1.28 1.34 0.84 0.29 0.40 0.84 1.12 1.60 2.80 3.11 1.91 0.81 0.65 0.71 0.85 0.45 0.58 0.69 0.70 0.67 1.02
0.45 0.41 0.47 0.47 0.49 0.54 0.70 0.87 0.88 1.29 0.84 0.69 0.58 0.48 0.52 0.47 0.68 1.07 1.83 2.51 2.23 1.63 1.46 1.57 1.63 1.32 0.98 0.86 0.48 0.35 0.63 1.54 1.93 2.21 2.74 2.98 1.91 0.65 0.44 0.57 0.34 0.35 0.29 0.60 0.54 0.54 0.62
0.47 0.45 0.42 0.45 0.52 0.54 0.64 0.95 1.14 0.78 0.67 0.72 0.61 0.60 0.70 0.59 0.69 1.08 1.44 2.31 1.90 1.52 2.06 1.92 1.02 0.93 0.66 0.56 0.82 0.53 0.84 2.80 2.38 2.07 2.06 2.21 1.02 0.27 0.34 0.66 0.31 0.23 0.21 0.63 0.83 0.70 0.70
0.35 0.36 0.42 0.52 0.55 0.57 0.71 1.03 1.04 0.88 0.85 0.78 0.73 0.81 0.70 0.61 0.60 0.74 0.86 1.49 1.47 1.46 2.11 2.57 1.78 1.25 0.92 0.97 0.85 0.78 1.45 2.51 1.80 1.52 1.53 1.21 0.46 0.40 0.56 0.91 0.34 0.15 0.09 0.39 1.22 0.92 0.60
0.29 0.39 0.47 0.50 0.56 0.61 0.75 1.04 0.92 1.02 1.03 0.85 0.80 0.79 0.69 0.70 0.65 0.66 0.81 1.30 1.40 1.46 2.11 3.13 1.85 1.38 0.98 1.03 1.01 0.75 1.49 2.07 1.81 1.60 1.82 1.43 0.45 0.35 0.56 0.99 0.38 0.24 0.09 0.39 0.79 0.59 0.50
0.27 0.35 0.39 0.44 0.53 0.61 0.92 0.95 0.89 0.87 0.99 0.71 0.62 0.53 0.58 0.82 0.92 1.02 0.92 0.90 1.35 1.59 2.44 2.66 1.74 1.27 1.14 0.90 0.76 0.94 1.39 1.45 0.94 1.21 1.57 1.39 0.65 0.51 0.64 0.71 0.44 0.42 0.11 0.31 0.37 0.27 0.31
0.28 0.36 0.42 0.50 0.54 0.66 0.90 0.94 0.87 0.81 0.71 0.64 0.61 0.53 0.71 0.76 0.94 0.74 0.64 1.11 1.30 1.65 2.47 2.61 1.80 1.30 0.82 0.59 0.67 0.97 1.41 1.07 0.94 1.03 0.98 0.78 0.68 0.77 0.70 0.48 0.22 0.17 0.13 0.44 0.38 0.48 0.51
0.24 0.33 0.45 0.53 0.52 0.68 0.98 1.00 0.81 0.97 0.89 0.94 0.95 0.62 0.80 0.69 0.62 0.53 0.96 1.63 1.60 1.35 1.52 1.28 0.97 0.47 0.36 0.39 0.38 0.49 0.90 0.83 0.86 1.07 1.42 1.30 1.11 0.86 0.76 0.35 0.23 0.23 0.58 1.20 1.11 1.15 0.65
0.29 0.40 0.58 0.62 0.68 0.81 1.14 1.08 0.96 1.20 1.39 1.56 1.46 0.95 0.58 0.46 0.48 0.93 1.49 1.32 1.45 1.01 1.00 0.51 0.31 0.36 0.35 0.23 0.34 0.33 0.45 0.48 0.25 0.17 0.81 1.41 1.87 1.12 0.63 0.28 0.34 0.35 0.58 0.88 0.73 0.35 0.42
0.37 0.55 0.74 0.91 0.96 1.07 1.29 1.27 1.20 1.39 1.36 1.48 1.07 0.97 0.54 0.32 0.50 1.21 1.30 1.36 1.28 0.96 0.62 0.20 0.29 0.39 0.36 0.16 0.18 0.29 0.38 0.27 0.17 0.16 0.51 0.61 1.13 0.58 0.28 0.08 0.16 0.33 0.45 0.33 0.47 0.21 0.35
0.58 0.86 0.98 0.97 0.97 0.85 0.94 1.12 1.08 1.49 1.31 1.21 0.81 0.70 0.75 0.46 0.69 1.22 1.12 1.32 0.62 0.43 0.09 0.02 0.18 0.14 0.11 0.09 0.09 0.10 0.19 0.12 0.09 0.08 0.10 0.17 0.58 0.30 0.16 0.13 0.07 0.07 0.13 0.26 0.53 0.41 0.28
0.78 0.84 0.86 0.83 0.86 0.80 0.73 0.87 1.07 1.38 1.33 0.76 0.78 0.86 1.20 0.82 1.10 1.39 1.16 1.08 0.49 0.18 0.05 0.05 0.03 0.01 0.01 0.03 0.03 0.03 0.07 0.11 0.05 0.06 0.02 0.01 0.16 0.28 0.23 0.25 0.10 0.04 0.14 0.15 0.23 0.22 0.22
0.70 0.67 0.73 0.85 0.94 0.92 0.89 1.01 1.31 1.41 1.41 0.88 0.96 1.23 1.29 0.87 1.14 1.17 1.06 0.77 0.56 0.17 0.03 0.00 0.01 0.01 0.01 0.01 0.00 0.01 0.02 0.02 0.01 0.00 0.00 0.00 0.04 0.10 0.13 0.03 0.01 0.02 0.01 0.04 0.23 0.09 0.13
0.78 0.83 0.74 0.82 0.90 0.96 1.07 1.31 1.45 1.51 1.27 1.02 0.95 1.29 1.19 0.68 0.66 0.58 0.46 0.32 0.14 0.08 0.04 0.01 0.01 0.02 0.02 0.01 0.01 0.01 0.00 0.00 0.00 0.00 0.00 0.00 0.05 0.12 0.18 0.16 0.06 0.06 0.02 0.10 0.21 0.39 0.25
0.69 0.82 0.81 0.72 0.73 0.75 0.84 1.07 1.11 1.60 0.99 1.00 1.16 1.29 1.17 0.78 0.33 0.15 0.31 0.22 0.13 0.09 0.02 0.00 0.00 0.00 0.00 0.00 0.00 0.00 0.00 0.00 0.00 0.00 0.00 0.01 0.03 0.03 0.06 0.09 0.20 0.18 0.03 0.10 0.42 0.55 0.09
0.61 0.76 0.90 0.83 0.78 0.69 0.56 0.76 0.98 1.03 0.93 1.19 0.95 0.49 0.35 0.35 0.13 0.12 0.17 0.18 0.12 0.05 0.01 0.00 0.01 0.00 0.00 0.01 0.00 0.00 0.00 0.00 0.00 0.00 0.01 0.04 0.05 0.02 0.02 0.06 0.22 0.20 0.08 0.07 0.32 0.17 0.23
0.76 0.71 0.88 0.97 1.00 1.11 1.08 1.04 0.96 0.90 0.94 1.18 0.65 0.30 0.16 0.03 0.06 0.10 0.05 0.09 0.05 0.00 0.01 0.01 0.01 0.00 0.01 0.01 0.01 0.00 0.00 0.00 0.01 0.00 0.02 0.05 0.09 0.06 0.06 0.05 0.10 0.16 0.04 0.06 0.06 0.02 0.02
0.90 0.93 1.14 1.29 1.16 1.02 1.02 1.02 1.07 0.93 1.10 0.87 0.59 0.18 0.06 0.06 0.05 0.03 0.02 0.00 0.01 0.00 0.01 0.01 0.01 0.03 0.02 0.01 0.00 0.00 0.00 0.00 0.00 0.01 0.03 0.06 0.08 0.15 0.07 0.04 0.11 0.13 0.04 0.02 0.01 0.00 0.01
0.88 0.87 0.87 1.00 0.78 0.69 0.82 0.65 0.50 0.52 0.74 0.45 0.35 0.17 0.03 0.05 0.01 0.00 0.00 0.00 0.00 0.00 0.01 0.00 0.00 0.04 0.03 0.01 0.01 0.01 0.00 0.00 0.01 0.00 0.01 0.02 0.06 0.19 0.09 0.09 0.24 0.13 0.02 0.00 0.00 0.00 0.00
0.89 1.07 1.21 1.46 1.41 1.15 0.92 0.66 0.57 0.66 0.62 0.18 0.21 0.15 0.07 0.02 0.00 0.00 0.00 0.00 0.00 0.00 0.00 0.00 0.00 0.00 0.01 0.02 0.05 0.05 0.02 0.01 0.00 0.00 0.01 0.01 0.06 0.18 0.16 0.17 0.09 0.01 0.00 0.00 0.00 0.00 0.00
0.65 0.79 0.98 1.16 1.33 1.48 1.56 1.22 0.78 0.57 0.35 0.07 0.11 0.19 0.15 0.04 0.00 0.00 0.00 0.00 0.00 0.00 0.02 0.02 0.03 0.01 0.01 0.06 0.15 0.10 0.04 0.01 0.01 0.02 0.01 0.02 0.03 0.16 0.10 0.09 0.01 0.01 0.00 0.00 0.02 0.01 0.00
0.58 0.61 0.61 0.60 0.54 0.56 0.67 0.79 0.73 0.41 0.21 0.03 0.08 0.14 0.22 0.07 0.01 0.00 0.00 0.00 0.00 0.01 0.02 0.02 0.06 0.02 0.03 0.11 0.17 0.08 0.02 0.00 0.01 0.01 0.03 0.07 0.10 0.15 0.14 0.15 0.00 0.00 0.00 0.00 0.00 0.01 0.00
0.92 0.98 1.03 0.92 0.68 0.53 0.59 0.41 0.35 0.28 0.12 0.04 0.06 0.09 0.22 0.12 0.02 0.00 0.00 0.01 0.01 0.02 0.03 0.01 0.02 0.02 0.06 0.14 0.13 0.07 0.03 0.01 0.00 0.00 0.00 0.02 0.04 0.06 0.07 0.09 0.01 0.00 0.00 0.00 0.00 0.00 0.00
0.88 1.00 1.15 1.20 1.09 0.91 0.73 0.39 0.28 0.20 0.13 0.07 0.04 0.08 0.15 0.14 0.04 0.00 0.00 0.00 0.00 0.01 0.01 0.00 0.03 0.01 0.04 0.12 0.16 0.10 0.04 0.01 0.00 0.00 0.00 0.00 0.00 0.00 0.00 0.00 0.00 0.00 0.00 0.00 0.00 0.00 0.00

GFSGBSN_prec_precacc_120.txt.gz
Total_Precipitation_Accumulation
0.26 0.26 0.30 0.42 0.37 0.28 0.36 0.46 0.47 0.51 0.79 0.87 0.74 0.82 0.80 0.70 0.62 0.59 0.59 0.64 0.82 0.88 0.61 0.63 0.74 1.29 1.11 1.06 0.64 0.49 0.26 0.28 0.69 1.07 0.69 0.33 0.33 0.65 0.41 0.18 0.85 0.72 0.52 0.42 0.47 0.38 0.29
0.31 0.30 0.34 0.39 0.33 0.33 0.40 0.57 0.67 0.74 0.87 0.91 1.05 0.88 0.66 0.58 0.59 0.57 0.60 0.66 0.91 0.94 0.45 0.38 0.98 1.27 0.94 0.83 0.36 0.65 0.34 0.43 0.65 1.07 0.70 0.46 0.28 0.84 0.57 0.44 0.57 0.66 0.73 0.55 0.72 0.55 0.43
0.28 0.30 0.36 0.35 0.34 0.41 0.48 0.66 0.75 0.77 1.07 0.95 1.08 0.95 0.71 0.61 0.52 0.57 0.60 0.61 0.69 0.77 0.46 0.46 0.93 1.02 0.87 0.65 0.36 0.82 0.39 0.56 0.63 0.92 0.73 0.57 0.31 0.66 0.82 0.67 0.29 0.71 0.82 1.01 0.92 0.74 0.66
0.31 0.34 0.37 0.33 0.37 0.50 0.66 0.69 0.69 0.75 1.04 1.22 1.22 0.84 0.60 0.59 0.53 0.52 0.51 0.52 0.32 0.34 0.54 0.52 1.13 1.08 1.13 0.79 0.36 0.58 0.33 0.62 0.63 1.01 1.24 1.09 0.46 0.49 0.56 0.82 0.61 0.76 1.36 1.33 0.96 1.25 1.00
0.37 0.39 0.34 0.34 0.42 0.63 0.78 0.69 0.65 0.72 0.88 1.34 1.44 0.86 0.62 0.54 0.49 0.60 0.74 0.82 0.71 0.65 0.79 1.12 1.30 1.54 1.13 1.20 0.64 0.52 0.32 0.74 0.86 1.20 1.93 1.84 0.98 0.55 0.52 0.95 1.07 0.76 1.14 1.00 0.90 1.01 1.40
0.43 0.41 0.38 0.43 0.52 0.65 0.78 0.75 0.69 1.01 1.09 0.96 1.06 0.70 0.55 0.39 0.39 0.63 1.85 1.75 1.82 1.39 1.26 1.39 1.66 1.97 1.35 1.41 0.93 0.42 0.43 0.84 1.12 1.60 2.80 3.11 1.91 0.81 0.65 0.71 0.85 0.45 0.58 0.69 0.70 0.67 1.02
0.45 0.42 0.47 0.48 0.50 0.55 0.71 0.90 0.88 1.29 0.84 0.69 0.58 0.48 0.53 0.47 0.70 1.08 1.83 2.51 2.23 1.63 1.47 1.59 1.63 1.32 1.04 0.92 0.54 0.43 0.67 1.54 1.93 2.21 2.74 2.98 1.91 0.65 0.44 0.57 0.34 0.35 0.29 0.60 0.54 0.54 0.62
0.48 0.45 0.43 0.46 0.53 0.55 0.65 0.97 1.14 0.78 0.67 0.72 0.61 0.60 0.71 0.59 0.69 1.08 1.44 2.31 1.90 1.52 2.07 1.92 1.03 0.94 0.68 0.62 0.87 0.58 0.87 2.80 2.38 2.07 2.06 2.21 1.02 0.27 0.34 0.66 0.31 0.23 0.21 0.63 0.83 0.70 0.70
0.35 0.36 0.43 0.53 0.56 0.58 0.72 1.03 1.05 0.88 0.85 0.78 0.73 0.81 0.70 0.61 0.60 0.74 0.86 1.49 1.47 1.46 2.12 2.59 1.80 1.27 0.93 0.99 0.88 0.83 1.49 2.51 1.80 1.52 1.53 1.21 0.46 0.40 0.56 0.91 0.34 0.15 0.09 0.39 1.22 0.92 0.60
0.30 0.40 0.48 0.51 0.57 0.62 0.76 1.05 0.93 1.02 1.03 0.85 0.80 0.79 0.69 0.70 0.65 0.66 0.81 1.30 1.40 1.46 2.12 3.21 1.88 1.42 1.00 1.06 1.07 0.78 1.51 2.07 1.81 1.60 1.82 1.43 0.45 0.35 0.56 0.99 0.38 0.24 0.09 0.39 0.79 0.59 0.50
0.28 0.36 0.39 0.44 0.54 0.62 0.93 0.96 0.90 0.87 0.99 0.71 0.62 0.53 0.58 0.82 0.92 1.02 0.92 0.90 1.35 1.59 2.45 2.72 1.81 1.31 1.16 0.91 0.79 0.97 1.39 1.45 0.94 1.21 1.57 1.39 0.65 0.51 0.64 0.71 0.44 0.42 0.11 0.31 0.37 0.27 0.31
0.28 0.36 0.42 0.51 0.55 0.67 0.91 0.95 0.87 0.81 0.71 0.64 0.61 0.53 0.71 0.76 0.94 0.74 0.64 1.11 1.30 1.65 2.50 2.70 1.86 1.33 0.83 0.60 0.67 0.97 1.41 1.07 0.94 1.03 0.98 0.78 0.68 0.77 0.70 0.48 0.22 0.17 0.13 0.44 0.38 0.48 0.51
0.24 0.33 0.45 0.53 0.52 0.68 0.98 1.00 0.81 0.97 0.89 0.94 0.95 0.62 0.80 0.69 0.62 0.53 0.96 1.63 1.60 1.36 1.55 1.32 1.04 0.49 0.36 0.39 0.38 0.49 0.90 0.83 0.86 1.07 1.42 1.30 1.11 0.86 0.76 0.35 0.23 0.23 0.58 1.20 1.11 1.15 0.65
0.29 0.40 0.58 0.62 0.68 0.81 1.14 1.09 0.96 1.20 1.39 1.56 1.46 0.95 0.58 0.46 0.48 0.93 1.49 1.32 1.46 1.03 1.02 0.52 0.33 0.37 0.35 0.23 0.34 0.33 0.45 0.48 0.25 0.17 0.81 1.41 1.87 1.12 0.63 0.28 0.34 0.35 0.58 0.88 0.73 0.35 0.42
0.37 0.55 0.74 0.91 0.97 1.07 1.29 1.27 1.20 1.39 1.36 1.48 1.07 0.97 0.54 0.32 0.50 1.21 1.30 1.36 1.28 0.96 0.62 0.20 0.29 0.39 0.36 0.16 0.18 0.29 0.38 0.27 0.17 0.16 0.51 0.61 1.13 0.58 0.28 0.08 0.16 0.33 0.45 0.33 0.47 0.21 0.35
0.58 0.86 0.98 0.97 0.97 0.85 0.94 1.12 1.08 1.49 1.31 1.21 0.81 0.70 0.75 0.46 0.69 1.22 1.12 1.32 0.62 0.43 0.09 0.02 0.18 0.14 0.11 0.09 0.09 0.10 0.19 0.12 0.09 0.08 0.10 0.17 0.58 0.30 0.16 0.13 0.07 0.07 0.13 0.26 0.53 0.41 0.28
0.78 0.84 0.86 0.83 0.86 0.80 0.73 0.87 1.07 1.38 1.33 0.76 0.78 0.86 1.20 0.82 1.10 1.39 1.16 1.08 0.49 0.18 0.05 0.05 0.03 0.01 0.01 0.03 0.03 0.03 0.07 0.11 0.05 0.06 0.02 0.01 0.16 0.28 0.23 0.25 0.10 0.04 0.14 0.15 0.23 0.22 0.22
0.70 0.67 0.73 0.85 0.94 0.92 0.89 1.01 1.31 1.41 1.41 0.88 0.96 1.23 1.29 0.87 1.14 1.17 1.06 0.77 0.56 0.17 0.03 0.00 0.01 0.01 0.01 0.01 0.00 0.01 0.02 0.02 0.01 0.00 0.00 0.00 0.04 0.10 0.13 0.03 0.01 0.02 0.01 0.04 0.23 0.09 0.13
0.78 0.83 0.74 0.82 0.90 0.96 1.07 1.31 1.45 1.51 1.27 1.02 0.95 1.29 1.19 0.68 0.66 0.58 0.46 0.32 0.14 0.08 0.04 0.01 0.01 0.02 0.02 0.01 0.01 0.01 0.00 0.00 0.00 0.00 0.00 0.00 0.05 0.12 0.18 0.16 0.06 0.06 0.02 0.10 0.21 0.39 0.25
0.69 0.82 0.81 0.72 0.73 0.75 0.84 1.07 1.11 1.60 0.99 1.00 1.16 1.29 1.17 0.78 0.33 0.15 0.31 0.22 0.13 0.09 0.02 0.00 0.00 0.00 0.00 0.00 0.00 0.00 0.00 0.00 0.00 0.00 0.00 0.01 0.03 0.03 0.06 0.09 0.20 0.18 0.03 0.10 0.42 0.55 0.09
0.61 0.76 0.90 0.83 0.78 0.69 0.56 0.76 0.98 1.03 0.93 1.19 0.95 0.49 0.35 0.35 0.13 0.12 0.17 0.18 0.12 0.05 0.01 0.00 0.01 0.00 0.00 0.01 0.00 0.00 0.00 0.00 0.00 0.00 0.01 0.04 0.05 0.02 0.02 0.06 0.22 0.20 0.08 0.07 0.32 0.17 0.23
0.76 0.71 0.88 0.97 1.00 1.11 1.08 1.04 0.96 0.90 0.94 1.18 0.65 0.30 0.16 0.03 0.06 0.10 0.05 0.09 0.05 0.00 0.01 0.01 0.01 0.00 0.01 0.01 0.01 0.00 0.00 0.00 0.01 0.00 0.02 0.05 0.09 0.06 0.06 0.05 0.10 0.16 0.04 0.06 0.06 0.02 0.02
0.90 0.93 1.14 1.29 1.16 1.02 1.02 1.02 1.07 0.93 1.10 0.87 0.59 0.18 0.06 0.06 0.05 0.03 0.02 0.00 0.01 0.00 0.01 0.01 0.01 0.03 0.02 0.01 0.00 0.00 0.00 0.00 0.00 0.01 0.03 0.06 0.08 0.15 0.07 0.04 0.11 0.13 0.04 0.02 0.01 0.00 0.01
0.88 0.87 0.87 1.00 0.78 0.69 0.82 0.65 0.50 0.52 0.74 0.45 0.35 0.17 0.03 0.05 0.01 0.00 0.00 0.00 0.00 0.00 0.01 0.00 0.00 0.04 0.03 0.01 0.01 0.01 0.00 0.00 0.01 0.00 0.01 0.02 0.06 0.19 0.09 0.09 0.24 0.13 0.02 0.00 0.00 0.00 0.00
0.90 1.07 1.21 1.46 1.41 1.15 0.92 0.66 0.57 0.66 0.62 0.18 0.21 0.15 0.07 0.02 0.00 0.00 0.00 0.00 0.00 0.00 0.00 0.00 0.00 0.00 0.01 0.02 0.05 0.05 0.02 0.01 0.00 0.00 0.01 0.01 0.06 0.18 0.16 0.17 0.09 0.01 0.00 0.00 0.00 0.00 0.00
0.65 0.79 0.98 1.16 1.33 1.48 1.56 1.22 0.78 0.57 0.35 0.07 0.11 0.19 0.15 0.04 0.00 0.00 0.00 0.00 0.00 0.00 0.02 0.02 0.03 0.01 0.01 0.06 0.15 0.10 0.04 0.01 0.01 0.02 0.01 0.02 0.03 0.16 0.10 0.09 0.01 0.01 0.00 0.00 0.02 0.01 0.00
0.58 0.61 0.62 0.60 0.54 0.56 0.67 0.79 0.73 0.41 0.21 0.03 0.08 0.14 0.22 0.07 0.01 0.00 0.00 0.00 0.00 0.01 0.02 0.02 0.06 0.02 0.03 0.11 0.17 0.08 0.02 0.00 0.01 0.01 0.03 0.07 0.10 0.15 0.14 0.15 0.00 0.00 0.00 0.00 0.00 0.01 0.00
0.92 0.98 1.03 0.92 0.68 0.53 0.59 0.41 0.35 0.28 0.12 0.04 0.06 0.09 0.22 0.12 0.02 0.00 0.00 0.01 0.01 0.02 0.03 0.01 0.02 0.02 0.06 0.14 0.13 0.07 0.03 0.01 0.00 0.00 0.00 0.02 0.04 0.06 0.07 0.09 0.01 0.00 0.00 0.00 0.00 0.00 0.00
0.88 1.00 1.15 1.20 1.09 0.91 0.73 0.39 0.28 0.20 0.13 0.07 0.04 0.08 0.15 0.14 0.04 0.00 0.00 0.00 0.00 0.01 0.01 0.00 0.03 0.01 0.04 0.12 0.16 0.10 0.04 0.01 0.00 0.00 0.00 0.00 0.00 0.00 0.00 0.00 0.00 0.00 0.00 0.00 0.00 0.00 0.00

GFSGBSN_prec_precacc_123.txt.gz
Total_Precipitation_Accumulation
0.26 0.26 0.30 0.42 0.38 0.30 0.37 0.46 0.48 0.51 0.80 0.88 0.74 0.83 0.81 0.70 0.63 0.61 0.61 0.74 1.04 1.14 0.80 0.69 0.79 1.35 1.32 1.49 1.01 0.84 0.31 0.28 0.69 1.07 0.69 0.33 0.33 0.65 0.41 0.18 0.85 0.72 0.52 0.42 0.47 0.38 0.29
0.32 0.31 0.35 0.40 0.34 0.36 0.41 0.57 0.67 0.75 0.88 0.92 1.05 0.88 0.66 0.58 0.62 0.63 0.66 0.74 1.08 1.11 0.54 0.43 1.03 1.29 1.06 1.06 0.75 0.94 0.37 0.43 0.65 1.07 0.70 0.46 0.28 0.84 0.57 0.44 0.57 0.66 0.73 0.55 0.72 0.55 0.43
0.29 0.31 0.37 0.36 0.35 0.43 0.49 0.66 0.75 0.77 1.07 0.96 1.09 0.96 0.71 0.61 0.52 0.61 0.64 0.69 0.80 0.88 0.53 0.53 0.94 1.04 1.00 0.94 0.59 1.11 0.40 0.56 0.63 0.92 0.73 0.57 0.31 0.66 0.82 0.67 0.29 0.71 0.82 1.01 0.92 0.74 0.66
0.32 0.35 0.38 0.34 0.37 0.51 0.67 0.69 0.69 0.75 1.04 1.22 1.22 0.84 0.60 0.59 0.54 0.53 0.54 0.59 0.36 0.34 0.54 0.54 1.17 1.09 1.23 0.97 0.49 0.78 0.34 0.62 0.63 1.01 1.24 1.09 0.46 0.49 0.56 0.82 0.61 0.76 1.36 1.33 0.96 1.25 1.00
0.38 0.40 0.35 0.35 0.43 0.64 0.80 0.69 0.65 0.72 0.88 1.34 1.44 0.86 0.62 0.54 0.51 0.63 0.77 0.83 0.71 0.65 0.79 1.14 1.32 1.58 1.23 1.30 0.71 0.65 0.33 0.74 0.86 1.20 1.93 1.84 0.98 0.55 0.52 0.95 1.07 0.76 1.14 1.00 0.90 1.01 1.40
0.43 0.42 0.39 0.44 0.52 0.66 0.79 0.75 0.69 1.01 1.09 0.96 1.06 0.70 0.55 0.39 0.40 0.63 1.85 1.75 1.82 1.39 1.26 1.39 1.66 2.00 1.43 1.47 0.95 0.54 0.44 0.84 1.12 1.60 2.80 3.11 1.91 0.81 0.65 0.71 0.85 0.45 0.58 0.69 0.70 0.67 1.02
0.46 0.43 0.48 0.49 0.51 0.56 0.71 0.91 0.88 1.29 0.84 0.69 0.58 0.48 0.53 0.47 0.70 1.08 1.83 2.51 2.23 1.63 1.47 1.60 1.65 1.40 1.14 0.94 0.57 0.51 0.69 1.54 1.93 2.21 2.74 2.98 1.91 0.65 0.44 0.57 0.34 0.35 0.29 0.60 0.54 0.54 0.62
0.49 0.45 0.44 0.47 0.53 0.56 0.66 0.97 1.14 0.78 0.67 0.72 0.61 0.60 0.71 0.59 0.69 1.08 1.44 2.31 1.90 1.53 2.08 1.93 1.03 0.96 0.76 0.64 0.90 0.63 0.88 2.80 2.38 2.07 2.06 2.21 1.02 0.27 0.34 0.66 0.31 0.23 0.21 0.63 0.83 0.70 0.70
0.36 0.37 0.44 0.54 0.57 0.59 0.72 1.03 1.05 0.88 0.85 0.78 0.73 0.81 0.70 0.61 0.60 0.74 0.86 1.49 1.47 1.46 2.12 2.60 1.81 1.30 0.97 1.02 0.91 0.86 1.50 2.51 1.80 1.52 1.53 1.21 0.46 0.40 0.56 0.91 0.34 0.15 0.09 0.39 1.22 0.92 0.60
0.30 0.40 0.49 0.52 0.58 0.62 0.76 1.05 0.93 1.02 1.03 0.85 0.80 0.79 0.69 0.70 0.65 0.66 0.81 1.30 1.40 1.46 2.12 3.22 1.89 1.45 1.03 1.09 1.09 0.79 1.51 2.07 1.81 1.60 1.82 1.43 0.45 0.35 0.56 0.99 0.38 0.24 0.09 0.39 0.79 0.59 0.50
0.28 0.36 0.40 0.45 0.55 0.63 0.94 0.96 0.90 0.87 0.99 0.71 0.62 0.53 0.58 0.82 0.92 1.02 0.92 0.90 1.35 1.59 2.46 2.75 1.83 1.33 1.18 0.92 0.84 0.98 1.39 1.45 0.94 1.21 1.57 1.39 0.65 0.51 0.64 0.71 0.44 0.42 0.11 0.31 0.37 0.27 0.31
0.29 0.36 0.42 0.52 0.56 0.68 0.92 0.95 0.87 0.81 0.71 0.64 0.61 0.53 0.71 0.76 0.94 0.74 0.64 1.11 1.30 1.65 2.54 2.74 1.87 1.34 0.83 0.60 0.68 0.97 1.41 1.07 0.94 1.03 0.98 0.78 0.68 0.77 0.70 0.48 0.22 0.17 0.13 0.44 0.38 0.48 0.51
0.24 0.33 0.45 0.53 0.53 0.69 0.99 1.01 0.81 0.97 0.89 0.94 0.95 0.62 0.80 0.69 0.62 0.53 0.96 1.63 1.60 1.37 1.59 1.35 1.07 0.49 0.36 0.40 0.38 0.49 0.90 0.83 0.86 1.07 1.42 1.30 1.11 0.86 0.76 0.35 0.23 0.23 0.58 1.20 1.11 1.15 0.65
0.29 0.40 0.58 0.62 0.69 0.81 1.14 1.09 0.96 1.20 1.39 1.56 1.46 0.95 0.58 0.46 0.48 0.93 1.49 1.32 1.47 1.06 1.04 0.54 0.34 0.37 0.35 0.23 0.34 0.33 0.45 0.48 0.25 0.17 0.81 1.41 1.87 1.12 0.63 0.28 0.34 0.35 0.58 0.88 0.73 0.35 0.42
0.37 0.55 0.74 0.91 0.97 1.07 1.29 1.27 1.21 1.39 1.36 1.48 1.07 0.97 0.54 0.32 0.50 1.21 1.30 1.36 1.29 0.97 0.62 0.20 0.29 0.39 0.36 0.16 0.18 0.29 0.38 0.27 0.17 0.16 0.51 0.61 1.13 0.58 0.28 0.08 0.16 0.33 0.45 0.33 0.47 0.21 0.35
0.58 0.86 0.98 0.97 0.97 0.85 0.94 1.12 1.08 1.49 1.31 1.21 0.81 0.70 0.75 0.46 0.69 1.22 1.12 1.32 0.62 0.43 0.09 0.02 0.18 0.14 0.11 0.09 0.09 0.10 0.19 0.12 0.09 0.08 0.10 0.17 0.58 0.30 0.16 0.13 0.07 0.07 0.13 0.26 0.53 0.41 0.28
0.78 0.84 0.86 0.83 0.86 0.80 0.73 0.87 1.07 1.38 1.33 0.76 0.78 0.86 1.20 0.82 1.10 1.39 1.16 1.08 0.49 0.18 0.05 0.05 0.03 0.01 0.01 0.03 0.03 0.03 0.07 0.11 0.05 0.06 0.02 0.01 0.16 0.28 0.23 0.25 0.10 0.04 0.14 0.15 0.23 0.22 0.22
0.70 0.67 0.73 0.85 0.94 0.92 0.89 1.01 1.31 1.41 1.41 0.88 0.96 1.23 1.29 0.87 1.14 1.17 1.06 0.77 0.56 0.17 0.03 0.00 0.01 0.01 0.01 0.01 0.00 0.01 0.02 0.02 0.01 0.00 0.00 0.00 0.04 0.10 0.13 0.03 0.01 0.02 0.01 0.04 0.23 0.09 0.13
0.78 0.83 0.74 0.82 0.90 0.96 1.07 1.31 1.45 1.51 1.27 1.02 0.95 1.29 1.19 0.68 0.66 0.58 0.46 0.32 0.14 0.08 0.04 0.01 0.01 0.02 0.02 0.01 0.01 0.01 0.00 0.00 0.00 0.00 0.00 0.00 0.05 0.12 0.18 0.16 0.06 0.06 0.02 0.10 0.21 0.39 0.25
0.69 0.82 0.81 0.72 0.73 0.75 0.84 1.07 1.11 1.60 0.99 1.00 1.16 1.29 1.17 0.78 0.33 0.15 0.31 0.22 0.13 0.09 0.02 0.00 0.00 0.00 0.00 0.00 0.00 0.00 0.00 0.00 0.00 0.00 0.00 0.01 0.03 0.03 0.06 0.09 0.20 0.18 0.03 0.10 0.42 0.55 0.09
0.61 0.76 0.90 0.83 0.78 0.69 0.56 0.76 0.98 1.03 0.93 1.19 0.95 0.49 0.35 0.35 0.13 0.12 0.17 0.18 0.12 0.05 0.01 0.00 0.01 0.00 0.00 0.01 0.00 0.00 0.00 0.00 0.00 0.00 0.01 0.04 0.05 0.02 0.02 0.06 0.22 0.20 0.08 0.07 0.32 0.17 0.23
0.76 0.71 0.88 0.97 1.00 1.11 1.08 1.04 0.96 0.90 0.94 1.18 0.65 0.30 0.16 0.03 0.06 0.10 0.05 0.09 0.05 0.00 0.01 0.01 0.01 0.00 0.01 0.01 0.01 0.00 0.00 0.00 0.01 0.00 0.02 0.05 0.09 0.06 0.06 0.05 0.10 0.16 0.04 0.06 0.06 0.02 0.02
0.90 0.93 1.14 1.29 1.16 1.02 1.02 1.02 1.07 0.93 1.10 0.87 0.59 0.18 0.06 0.06 0.05 0.03 0.02 0.00 0.01 0.00 0.01 0.01 0.01 0.03 0.02 0.01 0.00 0.00 0.00 0.00 0.00 0.01 0.03 0.06 0.08 0.15 0.07 0.04 0.11 0.13 0.04 0.02 0.01 0.00 0.01
0.88 0.87 0.87 1.00 0.78 0.69 0.82 0.65 0.50 0.52 0.74 0.45 0.35 0.17 0.03 0.05 0.01 0.00 0.00 0.00 0.00 0.00 0.01 0.00 0.00 0.04 0.03 0.01 0.01 0.01 0.00 0.00 0.01 0.00 0.01 0.02 0.06 0.19 0.09 0.09 0.24 0.13 0.02 0.00 0.00 0.00 0.00
0.90 1.08 1.21 1.46 1.41 1.15 0.92 0.66 0.57 0.66 0.62 0.18 0.21 0.15 0.07 0.02 0.00 0.00 0.00 0.00 0.00 0.00 0.00 0.00 0.00 0.00 0.01 0.02 0.05 0.05 0.02 0.01 0.00 0.00 0.01 0.01 0.06 0.18 0.16 0.17 0.09 0.01 0.00 0.00 0.00 0.00 0.00
0.65 0.80 0.98 1.16 1.33 1.48 1.56 1.22 0.78 0.57 0.35 0.07 0.11 0.19 0.15 0.04 0.00 0.00 0.00 0.00 0.00 0.00 0.02 0.02 0.03 0.01 0.01 0.06 0.15 0.10 0.04 0.01 0.01 0.02 0.01 0.02 0.03 0.16 0.10 0.09 0.01 0.01 0.00 0.00 0.02 0.01 0.00
0.59 0.61 0.62 0.60 0.54 0.56 0.67 0.79 0.73 0.41 0.21 0.03 0.08 0.14 0.22 0.07 0.01 0.00 0.00 0.00 0.00 0.01 0.02 0.02 0.06 0.02 0.03 0.11 0.17 0.08 0.02 0.00 0.01 0.01 0.03 0.07 0.10 0.15 0.14 0.15 0.00 0.00 0.00 0.00 0.00 0.01 0.00
0.92 0.98 1.03 0.92 0.68 0.53 0.59 0.41 0.35 0.28 0.12 0.04 0.06 0.09 0.22 0.12 0.02 0.00 0.00 0.01 0.01 0.02 0.03 0.01 0.02 0.02 0.06 0.14 0.13 0.07 0.03 0.01 0.00 0.00 0.00 0.02 0.04 0.06 0.07 0.09 0.01 0.00 0.00 0.00 0.00 0.00 0.00
0.88 1.00 1.15 1.20 1.09 0.91 0.73 0.39 0.28 0.20 0.13 0.07 0.04 0.08 0.15 0.14 0.04 0.00 0.00 0.00 0.00 0.01 0.01 0.00 0.03 0.01 0.04 0.12 0.16 0.10 0.04 0.01 0.00 0.00 0.00 0.00 0.00 0.00 0.00 0.00 0.00 0.00 0.00 0.00 0.00 0.00 0.00

GFSGBSN_prec_precacc_129.txt.gz
Total_Precipitation_Accumulation
0.27 0.28 0.32 0.44 0.40 0.32 0.37 0.46 0.48 0.52 0.81 0.88 0.75 0.84 0.81 0.70 0.66 0.68 0.76 0.92 1.18 1.26 0.93 0.76 0.82 1.45 1.38 1.63 1.20 1.09 0.58 0.31 0.69 1.07 0.69 0.33 0.33 0.65 0.41 0.18 0.85 0.72 0.52 0.42 0.47 0.38 0.29
0.33 0.33 0.37 0.42 0.36 0.38 0.41 0.57 0.67 0.75 0.88 0.93 1.05 0.88 0.66 0.59 0.65 0.76 0.94 1.22 1.40 1.33 0.77 0.62 1.15 1.39 1.12 1.17 0.87 1.13 0.62 0.50 0.65 1.07 0.70 0.46 0.28 0.84 0.57 0.44 0.57 0.66 0.73 0.55 0.72 0.55 0.43
0.30 0.32 0.38 0.38 0.37 0.45 0.50 0.66 0.75 0.78 1.07 0.96 1.09 0.96 0.71 0.61 0.56 0.68 0.80 0.89 1.05 1.26 0.88 0.81 1.09 1.07 1.06 1.02 0.71 1.30 0.56 0.64 0.63 0.92 0.73 0.57 0.31 0.66 0.82 0.67 0.29 0.71 0.82 1.01 0.92 0.74 0.66
0.33 0.36 0.39 0.35 0.39 0.53 0.68 0.69 0.69 0.75 1.04 1.22 1.22 0.84 0.60 0.59 0.54 0.55 0.57 0.62 0.42 0.46 0.70 0.71 1.23 1.10 1.34 1.10 0.62 0.90 0.47 0.65 0.65 1.01 1.24 1.09 0.46 0.49 0.56 0.82 0.61 0.76 1.36 1.33 0.96 1.25 1.00
0.39 0.41 0.36 0.37 0.45 0.65 0.81 0.70 0.65 0.72 0.88 1.34 1.44 0.86 0.62 0.54 0.51 0.63 0.77 0.83 0.72 0.66 0.81 1.15 1.32 1.60 1.37 1.42 0.78 0.73 0.41 0.76 0.87 1.20 1.93 1.84 0.98 0.55 0.52 0.95 1.07 0.76 1.14 1.00 0.90 1.01 1.40
0.45 0.43 0.40 0.46 0.54 0.68 0.80 0.75 0.69 1.01 1.09 0.96 1.06 0.70 0.55 0.39 0.40 0.63 1.85 1.75 1.82 1.39 1.26 1.39 1.69 2.06 1.55 1.58 0.99 0.61 0.48 0.85 1.12 1.60 2.80 3.11 1.91 0.81 0.65 0.71 0.85 0.45 0.58 0.69 0.70 0.67 1.02
0.47 0.44 0.49 0.50 0.52 0.57 0.72 0.91 0.88 1.29 0.84 0.69 0.58 0.48 0.53 0.47 0.70 1.08 1.83 2.51 2.23 1.64 1.49 1.75 1.85 1.56 1.28 1.04 0.59 0.58 0.74 1.55 1.93 2.21 2.74 2.98 1.91 0.65 0.44 0.57 0.34 0.35 0.29 0.60 0.54 0.54 0.62
0.50 0.46 0.45 0.48 0.54 0.57 0.66 0.97 1.14 0.78 0.67 0.72 0.61 0.60 0.71 0.59 0.69 1.08 1.44 2.31 1.90 1.53 2.15 2.13 1.22 1.04 0.84 0.67 0.94 0.71 0.90 2.80 2.38 2.07 2.06 2.21 1.02 0.27 0.34 0.66 0.31 0.23 0.21 0.63 0.83 0.70 0.70
0.37 0.38 0.44 0.55 0.58 0.60 0.73 1.03 1.05 0.88 0.85 0.78 0.73 0.81 0.70 0.61 0.60 0.74 0.86 1.49 1.47 1.46 2.14 2.68 2.00 1.46 1.07 1.05 0.95 0.92 1.50 2.51 1.80 1.52 1.53 1.21 0.46 0.40 0.56 0.91 0.34 0.15 0.09 0.39 1.22 0.92 0.60
0.31 0.41 0.49 0.53 0.58 0.63 0.77 1.05 0.93 1.02 1.03 0.85 0.80 0.79 0.69 0.70 0.65 0.66 0.81 1.30 1.40 1.46 2.14 3.32 2.01 1.62 1.12 1.12 1.12 0.79 1.51 2.07 1.81 1.60 1.82 1.43 0.45 0.35 0.56 0.99 0.38 0.24 0.09 0.39 0.79 0.59 0.50
0.28 0.36 0.40 0.45 0.55 0.63 0.94 0.96 0.90 0.87 0.99 0.71 0.62 0.53 0.58 0.82 0.92 1.02 0.92 0.90 1.35 1.59 2.53 2.91 1.98 1.42 1.21 0.93 0.85 0.98 1.39 1.45 0.94 1.21 1.57 1.39 0.65 0.51 0.64 0.71 0.44 0.42 0.11 0.31 0.37 0.27 0.31
0.29 0.36 0.42 0.52 0.56 0.68 0.92 0.95 0.87 0.81 0.71 0.64 0.61 0.53 0.71 0.76 0.94 0.74 0.64 1.11 1.30 1.65 2.63 2.87 1.98 1.39 0.84 0.60 0.68 0.97 1.41 1.07 0.94 1.03 0.98 0.78 0.68 0.77 0.70 0.48 0.22 0.17 0.13 0.44 0.38 0.48 0.51
0.25 0.33 0.45 0.54 0.53 0.69 0.99 1.01 0.81 0.97 0.89 0.94 0.95 0.62 0.80 0.69 0.62 0.53 0.96 1.63 1.60 1.39 1.62 1.40 1.15 0.51 0.36 0.40 0.38 0.49 0.90 0.83 0.86 1.07 1.42 1.30 1.11 0.86 0.76 0.35 0.23 0.23 0.58 1.20 1.11 1.15 0.65
0.29 0.40 0.58 0.62 0.69 0.81 1.14 1.09 0.96 1.20 1.39 1.56 1.46 0.95 0.58 0.46 0.48 0.93 1.49 1.32 1.48 1.08 1.06 0.56 0.34 0.37 0.35 0.23 0.34 0.33 0.45 0.48 0.25 0.17 0.81 1.41 1.87 1.12 0.63 0.28 0.34 0.35 0.58 0.88 0.73 0.35 0.42
0.37 0.55 0.74 0.91 0.97 1.07 1.29 1.27 1.21 1.39 1.36 1.48 1.07 0.97 0.54 0.32 0.50 1.21 1.30 1.36 1.29 0.97 0.62 0.20 0.29 0.39 0.36 0.16 0.18 0.29 0.38 0.27 0.17 0.16 0.51 0.61 1.13 0.58 0.28 0.08 0.16 0.33 0.45 0.33 0.47 0.21 0.35
0.58 0.86 0.98 0.97 0.97 0.85 0.94 1.12 1.08 1.49 1.31 1.21 0.81 0.70 0.75 0.46 0.69 1.22 1.12 1.32 0.62 0.43 0.09 0.02 0.18 0.14 0.11 0.09 0.09 0.10 0.19 0.12 0.09 0.08 0.10 0.17 0.58 0.30 0.16 0.13 0.07 0.07 0.13 0.26 0.53 0.41 0.28
0.78 0.84 0.86 0.83 0.86 0.80 0.73 0.87 1.07 1.38 1.33 0.76 0.78 0.86 1.20 0.82 1.10 1.39 1.16 1.08 0.49 0.18 0.05 0.05 0.03 0.01 0.01 0.03 0.03 0.03 0.07 0.11 0.05 0.06 0.02 0.01 0.16 0.28 0.23 0.25 0.10 0.04 0.14 0.15 0.23 0.22 0.22
0.70 0.67 0.73 0.85 0.94 0.92 0.89 1.01 1.31 1.41 1.41 0.88 0.96 1.23 1.29 0.87 1.14 1.17 1.06 0.77 0.56 0.17 0.03 0.00 0.01 0.01 0.01 0.01 0.00 0.01 0.02 0.02 0.01 0.00 0.00 0.00 0.04 0.10 0.13 0.03 0.01 0.02 0.01 0.04 0.23 0.09 0.13
0.78 0.83 0.74 0.82 0.90 0.96 1.07 1.31 1.45 1.51 1.27 1.02 0.95 1.29 1.19 0.68 0.66 0.58 0.46 0.32 0.14 0.08 0.04 0.01 0.01 0.02 0.02 0.01 0.01 0.01 0.00 0.00 0.00 0.00 0.00 0.00 0.05 0.12 0.18 0.16 0.06 0.06 0.02 0.10 0.21 0.39 0.25
0.69 0.82 0.81 0.72 0.73 0.75 0.84 1.07 1.11 1.60 0.99 1.00 1.16 1.29 1.17 0.78 0.33 0.15 0.31 0.22 0.13 0.09 0.02 0.00 0.00 0.00 0.00 0.00 0.00 0.00 0.00 0.00 0.00 0.00 0.00 0.01 0.03 0.03 0.06 0.09 0.20 0.18 0.03 0.10 0.42 0.55 0.09
0.61 0.76 0.90 0.83 0.78 0.69 0.56 0.76 0.98 1.03 0.93 1.19 0.95 0.49 0.35 0.35 0.13 0.12 0.17 0.18 0.12 0.05 0.01 0.00 0.01 0.00 0.00 0.01 0.00 0.00 0.00 0.00 0.00 0.00 0.01 0.04 0.05 0.02 0.02 0.06 0.22 0.20 0.08 0.07 0.32 0.17 0.23
0.76 0.71 0.88 0.97 1.00 1.11 1.08 1.04 0.96 0.90 0.94 1.18 0.65 0.30 0.16 0.03 0.06 0.10 0.05 0.09 0.05 0.00 0.01 0.01 0.01 0.00 0.01 0.01 0.01 0.00 0.00 0.00 0.01 0.00 0.02 0.05 0.09 0.06 0.06 0.05 0.10 0.16 0.04 0.06 0.06 0.02 0.02
0.90 0.93 1.14 1.29 1.16 1.02 1.02 1.02 1.07 0.93 1.10 0.87 0.59 0.18 0.06 0.06 0.05 0.03 0.02 0.00 0.01 0.00 0.01 0.01 0.01 0.03 0.02 0.01 0.00 0.00 0.00 0.00 0.00 0.01 0.03 0.06 0.08 0.15 0.07 0.04 0.11 0.13 0.04 0.02 0.01 0.00 0.01
0.89 0.87 0.87 1.00 0.78 0.69 0.82 0.65 0.50 0.52 0.74 0.45 0.35 0.17 0.03 0.05 0.01 0.00 0.00 0.00 0.00 0.00 0.01 0.00 0.00 0.04 0.03 0.01 0.01 0.01 0.00 0.00 0.01 0.00 0.01 0.02 0.06 0.19 0.09 0.09 0.24 0.13 0.02 0.00 0.00 0.00 0.00
0.91 1.08 1.21 1.46 1.41 1.15 0.92 0.66 0.57 0.66 0.62 0.18 0.21 0.15 0.07 0.02 0.00 0.00 0.00 0.00 0.00 0.00 0.00 0.00 0.00 0.00 0.01 0.02 0.05 0.05 0.02 0.01 0.00 0.00 0.01 0.01 0.06 0.18 0.16 0.17 0.09 0.01 0.00 0.00 0.00 0.00 0.00
0.67 0.81 0.99 1.16 1.33 1.48 1.56 1.22 0.78 0.57 0.35 0.07 0.11 0.19 0.15 0.04 0.00 0.00 0.00 0.00 0.00 0.00 0.02 0.02 0.03 0.01 0.01 0.06 0.15 0.10 0.04 0.01 0.01 0.02 0.01 0.02 0.03 0.16 0.10 0.09 0.01 0.01 0.00 0.00 0.02 0.01 0.00
0.60 0.62 0.62 0.61 0.54 0.56 0.67 0.79 0.73 0.41 0.21 0.03 0.08 0.14 0.22 0.07 0.01 0.00 0.00 0.00 0.00 0.01 0.02 0.02 0.06 0.02 0.03 0.11 0.17 0.08 0.02 0.00 0.01 0.01 0.03 0.07 0.10 0.15 0.14 0.15 0.00 0.00 0.00 0.00 0.00 0.01 0.00
0.93 0.99 1.03 0.92 0.68 0.53 0.59 0.41 0.35 0.28 0.12 0.04 0.06 0.09 0.22 0.12 0.02 0.00 0.00 0.01 0.01 0.02 0.03 0.01 0.02 0.02 0.06 0.14 0.13 0.07 0.03 0.01 0.00 0.00 0.00 0.02 0.04 0.06 0.07 0.09 0.01 0.00 0.00 0.00 0.00 0.00 0.00
0.89 1.00 1.15 1.20 1.09 0.92 0.73 0.39 0.28 0.20 0.13 0.07 0.04 0.08 0.15 0.14 0.04 0.00 0.00 0.00 0.00 0.01 0.01 0.00 0.03 0.01 0.04 0.12 0.16 0.10 0.04 0.01 0.00 0.00 0.00 0.00 0.00 0.00 0.00 0.00 0.00 0.00 0.00 0.00 0.00 0.00 0.00

GFSGBSN_prec_precacc_132.txt.gz
Total_Precipitation_Accumulation
0.28 0.28 0.33 0.44 0.41 0.33 0.37 0.46 0.48 0.52 0.81 0.89 0.75 0.84 0.81 0.73 0.69 0.71 0.78 0.94 1.24 1.29 0.94 0.79 0.83 1.48 1.44 1.71 1.24 1.09 0.58 0.31 0.69 1.07 0.69 0.33 0.33 0.65 0.41 0.18 0.85 0.72 0.52 0.42 0.47 0.38 0.29
0.33 0.33 0.37 0.42 0.36 0.38 0.41 0.57 0.67 0.75 0.88 0.93 1.05 0.89 0.67 0.63 0.69 0.82 1.05 1.31 1.46 1.37 0.80 0.63 1.16 1.45 1.22 1.23 0.88 1.14 0.62 0.50 0.66 1.07 0.70 0.46 0.28 0.84 0.57 0.44 0.57 0.66 0.73 0.55 0.72 0.55 0.43
0.30 0.33 0.39 0.39 0.37 0.46 0.50 0.66 0.75 0.78 1.07 0.96 1.09 0.96 0.71 0.61 0.56 0.68 0.83 1.04 1.33 1.37 0.97 0.86 1.18 1.19 1.21 1.07 0.71 1.30 0.57 0.67 0.64 0.92 0.73 0.57 0.31 0.66 0.82 0.67 0.29 0.71 0.82 1.01 0.92 0.74 0.66
0.34 0.36 0.40 0.36 0.40 0.53 0.68 0.69 0.69 0.75 1.04 1.22 1.22 0.84 0.60 0.59 0.54 0.55 0.57 0.64 0.54 0.69 1.01 0.94 1.34 1.15 1.37 1.11 0.62 0.90 0.47 0.69 0.66 1.01 1.24 1.09 0.46 0.49 0.56 0.82 0.61 0.76 1.36 1.33 0.96 1.25 1.00
0.40 0.42 0.37 0.37 0.45 0.66 0.81 0.70 0.65 0.72 0.88 1.34 1.44 0.86 0.62 0.54 0.51 0.63 0.77 0.84 0.73 0.70 0.89 1.23 1.39 1.61 1.38 1.42 0.78 0.73 0.44 0.81 0.91 1.20 1.93 1.84 0.98 0.55 0.52 0.95 1.07 0.76 1.14 1.00 0.90 1.01 1.40
0.45 0.44 0.41 0.46 0.54 0.68 0.80 0.75 0.69 1.01 1.09 0.96 1.06 0.70 0.55 0.39 0.40 0.63 1.85 1.75 1.82 1.39 1.26 1.41 1.74 2.08 1.66 1.58 0.99 0.61 0.49 0.89 1.17 1.60 2.80 3.11 1.91 0.81 0.65 0.71 0.85 0.45 0.58 0.69 0.70 0.67 1.02
0.47 0.44 0.50 0.50 0.53 0.57 0.72 0.91 0.88 1.29 0.84 0.69 0.58 0.48 0.53 0.47 0.70 1.08 1.83 2.51 2.24 1.67 1.54 1.88 1.87 1.57 1.34 1.05 0.59 0.58 0.74 1.57 1.96 2.22 2.74 2.98 1.91 0.65 0.44 0.57 0.34 0.35 0.29 0.60 0.54 0.54 0.62
0.50 0.47 0.45 0.48 0.55 0.57 0.66 0.97 1.14 0.78 0.67 0.72 0.61 0.60 0.71 0.59 0.69 1.08 1.44 2.31 1.90 1.59 2.35 2.33 1.27 1.06 0.93 0.71 0.95 0.72 0.90 2.82 2.40 2.07 2.06 2.21 1.02 0.27 0.34 0.66 0.31 0.23 0.21 0.63 0.83 0.70 0.70
0.37 0.38 0.44 0.55 0.58 0.60 0.73 1.04 1.05 0.88 0.85 0.78 0.73 0.81 0.70 0.61 0.60 0.74 0.86 1.49 1.47 1.46 2.21 2.86 2.12 1.54 1.14 1.07 0.98 0.95 1.51 2.51 1.80 1.52 1.53 1.21 0.46 0.40 0.56 0.91 0.34 0.15 0.09 0.39 1.22 0.92 0.60
0.31 0.41 0.49 0.53 0.58 0.63 0.77 1.05 0.93 1.02 1.03 0.85 0.80 0.79 0.69 0.70 0.65 0.66 0.81 1.30 1.40 1.46 2.17 3.41 2.10 1.70 1.16 1.14 1.15 0.80 1.51 2.07 1.81 1.60 1.82 1.43 0.45 0.35 0.56 0.99 0.38 0.24 0.09 0.39 0.79 0.59 0.50
0.29 0.37 0.40 0.46 0.55 0.63 0.94 0.96 0.90 0.87 0.99 0.71 0.62 0.53 0.58 0.82 0.92 1.02 0.92 0.90 1.35 1.59 2.57 3.01 2.05 1.46 1.24 0.95 0.87 1.00 1.39 1.45 0.94 1.21 1.57 1.39 0.65 0.51 0.64 0.71 0.44 0.42 0.11 0.31 0.37 0.27 0.31
0.29 0.36 0.42 0.52 0.56 0.68 0.92 0.95 0.87 0.81 0.71 0.64 0.61 0.53 0.71 0.76 0.94 0.74 0.64 1.11 1.30 1.66 2.67 2.91 2.01 1.41 0.84 0.61 0.68 0.98 1.41 1.07 0.94 1.03 0.98 0.78 0.68 0.77 0.70 0.48 0.22 0.17 0.13 0.44 0.38 0.48 0.51
0.25 0.33 0.45 0.54 0.53 0.69 0.99 1.01 0.82 0.97 0.89 0.94 0.95 0.62 0.80 0.69 0.62 0.53 0.96 1.63 1.60 1.40 1.63 1.41 1.17 0.52 0.36 0.40 0.38 0.49 0.90 0.83 0.86 1.07 1.42 1.30 1.11 0.86 0.76 0.35 0.23 0.23 0.58 1.20 1.11 1.15 0.65
0.29 0.40 0.58 0.62 0.69 0.81 1.14 1.09 0.96 1.20 1.39 1.56 1.46 0.95 0.58 0.46 0.48 0.93 1.49 1.32 1.49 1.10 1.06 0.56 0.34 0.37 0.35 0.23 0.34 0.33 0.45 0.48 0.25 0.17 0.81 1.41 1.87 1.12 0.63 0.28 0.34 0.35 0.58 0.88 0.73 0.35 0.42
0.37 0.56 0.74 0.91 0.97 1.07 1.29 1.27 1.21 1.39 1.36 1.48 1.07 0.97 0.54 0.32 0.50 1.21 1.30 1.36 1.30 0.97 0.62 0.20 0.30 0.39 0.36 0.16 0.18 0.29 0.38 0.27 0.17 0.16 0.51 0.61 1.13 0.58 0.28 0.08 0.16 0.33 0.45 0.33 0.47 0.21 0.35
0.58 0.87 0.98 0.97 0.97 0.85 0.94 1.12 1.08 1.49 1.31 1.21 0.81 0.70 0.75 0.46 0.69 1.22 1.12 1.32 0.62 0.43 0.09 0.02 0.19 0.15 0.11 0.09 0.09 0.10 0.19 0.12 0.09 0.08 0.10 0.17 0.58 0.30 0.16 0.13 0.07 0.07 0.13 0.26 0.53 0.41 0.28
0.78 0.84 0.86 0.83 0.86 0.80 0.73 0.87 1.07 1.38 1.33 0.76 0.78 0.86 1.20 0.82 1.10 1.39 1.16 1.08 0.49 0.18 0.05 0.05 0.03 0.01 0.01 0.03 0.03 0.03 0.07 0.11 0.05 0.06 0.02 0.01 0.16 0.28 0.23 0.25 0.10 0.04 0.14 0.15 0.23 0.22 0.22
0.70 0.67 0.73 0.85 0.94 0.92 0.89 1.01 1.31 1.41 1.41 0.88 0.96 1.23 1.29 0.87 1.14 1.17 1.06 0.77 0.56 0.17 0.03 0.00 0.01 0.01 0.01 0.01 0.00 0.01 0.02 0.02 0.01 0.00 0.00 0.00 0.04 0.10 0.13 0.03 0.01 0.02 0.01 0.04 0.23 0.09 0.13
0.78 0.83 0.74 0.82 0.90 0.96 1.07 1.31 1.45 1.52 1.27 1.02 0.95 1.29 1.19 0.68 0.66 0.58 0.46 0.32 0.14 0.08 0.04 0.01 0.01 0.02 0.02 0.01 0.01 0.01 0.00 0.00 0.00 0.00 0.00 0.00 0.05 0.12 0.18 0.16 0.06 0.06 0.02 0.10 0.21 0.39 0.25
0.69 0.82 0.81 0.72 0.73 0.75 0.84 1.07 1.11 1.60 0.99 1.00 1.16 1.29 1.17 0.78 0.33 0.15 0.31 0.22 0.13 0.09 0.02 0.00 0.00 0.00 0.00 0.00 0.00 0.00 0.00 0.00 0.00 0.00 0.00 0.01 0.03 0.03 0.06 0.09 0.20 0.18 0.03 0.10 0.42 0.55 0.09
0.62 0.76 0.90 0.83 0.78 0.69 0.56 0.76 0.98 1.03 0.93 1.19 0.95 0.49 0.35 0.35 0.13 0.12 0.17 0.18 0.12 0.05 0.01 0.00 0.01 0.00 0.00 0.01 0.00 0.00 0.00 0.00 0.00 0.00 0.01 0.04 0.05 0.02 0.02 0.06 0.22 0.20 0.08 0.07 0.32 0.17 0.23
0.77 0.71 0.88 0.97 1.00 1.11 1.08 1.04 0.96 0.90 0.94 1.18 0.65 0.30 0.16 0.03 0.06 0.10 0.05 0.09 0.05 0.00 0.01 0.01 0.01 0.00 0.01 0.01 0.01 0.00 0.00 0.00 0.01 0.00 0.02 0.05 0.09 0.06 0.06 0.05 0.10 0.16 0.04 0.06 0.06 0.02 0.02
0.90 0.93 1.14 1.29 1.16 1.02 1.02 1.02 1.07 0.93 1.10 0.87 0.59 0.18 0.06 0.06 0.05 0.03 0.02 0.00 0.01 0.00 0.01 0.01 0.01 0.03 0.02 0.01 0.00 0.00 0.00 0.00 0.00 0.01 0.03 0.06 0.08 0.15 0.07 0.04 0.11 0.13 0.04 0.02 0.01 0.00 0.01
0.89 0.87 0.87 1.00 0.78 0.69 0.82 0.65 0.50 0.52 0.74 0.45 0.35 0.17 0.03 0.05 0.01 0.00 0.00 0.00 0.00 0.00 0.01 0.00 0.00 0.04 0.03 0.01 0.01 0.01 0.00 0.00 0.01 0.00 0.01 0.02 0.06 0.19 0.09 0.09 0.24 0.13 0.02 0.00 0.00 0.00 0.00
0.91 1.09 1.22 1.46 1.41 1.15 0.92 0.66 0.57 0.66 0.62 0.18 0.21 0.15 0.07 0.02 0.00 0.00 0.00 0.00 0.00 0.00 0.00 0.00 0.00 0.00 0.01 0.02 0.05 0.05 0.02 0.01 0.00 0.00 0.01 0.01 0.06 0.18 0.16 0.17 0.09 0.01 0.00 0.00 0.00 0.00 0.00
0.67 0.81 0.99 1.16 1.33 1.48 1.56 1.22 0.78 0.57 0.35 0.07 0.11 0.19 0.15 0.04 0.00 0.00 0.00 0.00 0.00 0.00 0.02 0.02 0.03 0.01 0.01 0.06 0.15 0.10 0.04 0.01 0.01 0.02 0.01 0.02 0.03 0.16 0.10 0.09 0.01 0.01 0.00 0.00 0.02 0.01 0.00
0.60 0.62 0.63 0.61 0.54 0.56 0.67 0.79 0.73 0.41 0.21 0.03 0.08 0.14 0.22 0.07 0.01 0.00 0.00 0.00 0.00 0.01 0.02 0.02 0.06 0.02 0.03 0.11 0.17 0.08 0.02 0.00 0.01 0.01 0.03 0.07 0.10 0.15 0.14 0.15 0.00 0.00 0.00 0.00 0.00 0.01 0.00
0.93 0.99 1.04 0.93 0.68 0.53 0.59 0.41 0.35 0.28 0.12 0.04 0.06 0.09 0.22 0.12 0.02 0.00 0.00 0.01 0.01 0.02 0.03 0.01 0.02 0.02 0.06 0.14 0.13 0.07 0.03 0.01 0.00 0.00 0.00 0.02 0.04 0.06 0.07 0.09 0.01 0.00 0.00 0.00 0.00 0.00 0.00
0.89 1.01 1.16 1.20 1.09 0.92 0.74 0.39 0.28 0.20 0.13 0.07 0.04 0.08 0.15 0.14 0.04 0.00 0.00 0.00 0.00 0.01 0.01 0.00 0.03 0.01 0.04 0.12 0.16 0.10 0.04 0.01 0.00 0.00 0.00 0.00 0.00 0.00 0.00 0.00 0.00 0.00 0.00 0.00 0.00 0.00 0.00

GFSGBSN_prec_precacc_135.txt.gz
Total_Precipitation_Accumulation
0.28 0.28 0.33 0.45 0.42 0.33 0.38 0.46 0.48 0.52 0.81 0.89 0.75 0.84 0.81 0.74 0.72 0.73 0.83 0.99 1.28 1.32 0.95 0.82 0.92 1.58 1.51 1.83 1.29 1.09 0.58 0.31 0.71 1.08 0.69 0.33 0.33 0.65 0.41 0.18 0.85 0.72 0.52 0.42 0.47 0.38 0.29
0.33 0.33 0.37 0.43 0.37 0.39 0.41 0.57 0.67 0.75 0.88 0.93 1.05 0.89 0.67 0.63 0.69 0.82 1.10 1.43 1.49 1.39 0.80 0.63 1.23 1.55 1.29 1.32 0.91 1.14 0.62 0.50 0.68 1.09 0.70 0.46 0.28 0.84 0.57 0.44 0.57 0.66 0.73 0.55 0.72 0.55 0.43
0.30 0.33 0.39 0.39 0.38 0.46 0.50 0.66 0.75 0.78 1.07 0.96 1.09 0.96 0.71 0.61 0.56 0.68 0.84 1.09 1.43 1.40 0.97 0.86 1.19 1.25 1.30 1.14 0.72 1.30 0.57 0.67 0.65 0.96 0.73 0.57 0.31 0.66 0.82 0.67 0.29 0.71 0.82 1.01 0.92 0.74 0.66
0.34 0.37 0.40 0.36 0.40 0.54 0.68 0.69 0.69 0.75 1.04 1.22 1.22 0.84 0.60 0.59 0.54 0.55 0.57 0.65 0.57 0.77 1.06 0.99 1.41 1.22 1.48 1.19 0.62 0.90 0.47 0.69 0.66 1.01 1.24 1.09 0.46 0.49 0.56 0.82 0.61 0.76 1.36 1.33 0.96 1.25 1.00
0.40 0.42 0.37 0.38 0.45 0.66 0.82 0.70 0.65 0.72 0.88 1.34 1.44 0.86 0.62 0.54 0.51 0.63 0.77 0.84 0.74 0.74 0.99 1.26 1.41 1.62 1.41 1.49 0.78 0.73 0.44 0.81 0.91 1.21 1.94 1.84 0.98 0.55 0.52 0.95 1.07 0.76 1.14 1.00 0.90 1.01 1.40
0.45 0.44 0.41 0.47 0.54 0.68 0.80 0.75 0.69 1.01 1.09 0.96 1.06 0.70 0.55 0.39 0.40 0.63 1.85 1.75 1.82 1.39 1.27 1.48 1.84 2.13 1.67 1.59 0.99 0.61 0.49 0.89 1.18 1.60 2.81 3.11 1.91 0.81 0.65 0.71 0.85 0.45 0.58 0.69 0.70 0.67 1.02
0.48 0.44 0.50 0.50 0.53 0.58 0.73 0.91 0.88 1.29 0.84 0.69 0.58 0.48 0.53 0.47 0.70 1.08 1.83 2.51 2.24 1.67 1.56 1.94 1.93 1.67 1.42 1.06 0.59 0.58 0.74 1.58 1.97 2.22 2.75 2.98 1.91 0.65 0.44 0.57 0.34 0.35 0.29 0.60 0.54 0.54 0.62
0.50 0.47 0.46 0.48 0.55 0.58 0.67 0.97 1.14 0.78 0.67 0.72 0.61 0.60 0.71 0.59 0.69 1.08 1.44 2.31 1.91 1.61 2.43 2.35 1.29 1.10 0.96 0.72 0.97 0.72 0.91 2.85 2.42 2.09 2.06 2.21 1.02 0.27 0.34 0.66 0.31 0.23 0.21 0.63 0.83 0.70 0.70
0.37 0.38 0.45 0.55 0.58 0.61 0.73 1.04 1.05 0.88 0.85 0.78 0.73 0.81 0.70 0.61 0.60 0.74 0.86 1.49 1.47 1.47 2.27 3.03 2.21 1.65 1.24 1.10 0.99 0.95 1.52 2.53 1.83 1.57 1.53 1.21 0.46 0.40 0.56 0.91 0.34 0.15 0.09 0.39 1.22 0.92 0.60
0.31 0.41 0.49 0.53 0.59 0.63 0.77 1.06 0.93 1.02 1.03 0.85 0.80 0.79 0.69 0.70 0.65 0.66 0.81 1.30 1.40 1.46 2.18 3.50 2.21 1.82 1.26 1.20 1.18 0.80 1.52 2.09 1.85 1.63 1.82 1.43 0.45 0.35 0.56 0.99 0.38 0.24 0.09 0.39 0.79 0.59 0.50
0.29 0.37 0.40 0.46 0.55 0.64 0.94 0.96 0.90 0.87 0.99 0.71 0.62 0.53 0.58 0.82 0.92 1.02 0.92 0.90 1.35 1.59 2.60 3.11 2.16 1.56 1.27 0.97 0.90 1.00 1.39 1.45 0.95 1.22 1.57 1.39 0.65 0.51 0.64 0.71 0.44 0.42 0.11 0.31 0.37 0.27 0.31
0.29 0.36 0.42 0.52 0.56 0.68 0.92 0.95 0.87 0.81 0.71 0.64 0.61 0.53 0.71 0.76 0.94 0.74 0.64 1.11 1.30 1.66 2.72 2.99 2.10 1.46 0.87 0.61 0.69 0.98 1.41 1.07 0.94 1.03 0.98 0.78 0.68 0.77 0.70 0.48 0.22 0.17 0.13 0.44 0.38 0.48 0.51
0.25 0.33 0.45 0.54 0.53 0.69 0.99 1.01 0.82 0.97 0.89 0.94 0.95 0.62 0.80 0.69 0.62 0.53 0.96 1.63 1.60 1.41 1.66 1.44 1.21 0.54 0.37 0.41 0.39 0.49 0.90 0.83 0.86 1.07 1.42 1.30 1.11 0.86 0.76 0.35 0.23 0.23 0.58 1.20 1.11 1.15 0.65
0.29 0.40 0.58 0.62 0.69 0.81 1.14 1.09 0.96 1.20 1.39 1.56 1.46 0.95 0.58 0.46 0.48 0.93 1.49 1.32 1.50 1.14 1.09 0.56 0.35 0.38 0.35 0.24 0.34 0.33 0.46 0.48 0.25 0.17 0.81 1.41 1.87 1.12 0.63 0.28 0.34 0.35 0.58 0.88 0.73 0.35 0.42
0.37 0.56 0.74 0.91 0.97 1.07 1.29 1.27 1.21 1.39 1.36 1.48 1.07 0.97 0.54 0.32 0.50 1.21 1.30 1.36 1.30 0.97 0.62 0.21 0.30 0.39 0.36 0.16 0.18 0.29 0.38 0.27 0.17 0.16 0.51 0.61 1.13 0.58 0.28 0.08 0.16 0.33 0.45 0.33 0.47 0.21 0.35
0.58 0.87 0.98 0.97 0.97 0.85 0.94 1.12 1.08 1.49 1.31 1.21 0.81 0.70 0.75 0.46 0.69 1.22 1.12 1.32 0.62 0.43 0.09 0.02 0.19 0.15 0.11 0.09 0.09 0.10 0.19 0.12 0.09 0.08 0.10 0.17 0.58 0.30 0.16 0.13 0.07 0.07 0.13 0.26 0.53 0.41 0.28
0.78 0.84 0.87 0.83 0.86 0.80 0.73 0.87 1.07 1.38 1.33 0.76 0.78 0.86 1.20 0.82 1.10 1.39 1.16 1.08 0.49 0.18 0.05 0.05 0.03 0.01 0.01 0.03 0.03 0.03 0.07 0.11 0.05 0.06 0.02 0.01 0.16 0.28 0.23 0.25 0.10 0.04 0.14 0.15 0.23 0.22 0.22
0.70 0.67 0.73 0.85 0.94 0.92 0.89 1.01 1.31 1.42 1.41 0.88 0.96 1.23 1.29 0.87 1.14 1.17 1.06 0.77 0.56 0.17 0.03 0.00 0.01 0.01 0.01 0.01 0.00 0.01 0.02 0.02 0.01 0.00 0.00 0.00 0.04 0.10 0.13 0.03 0.01 0.02 0.01 0.04 0.23 0.09 0.13
0.78 0.83 0.74 0.82 0.90 0.96 1.07 1.31 1.45 1.52 1.27 1.02 0.95 1.29 1.19 0.68 0.66 0.58 0.46 0.32 0.14 0.08 0.04 0.01 0.01 0.02 0.02 0.01 0.01 0.01 0.00 0.00 0.00 0.00 0.00 0.00 0.05 0.12 0.18 0.16 0.06 0.06 0.02 0.10 0.21 0.39 0.25
0.69 0.82 0.81 0.73 0.73 0.75 0.84 1.07 1.11 1.60 0.99 1.00 1.16 1.29 1.17 0.78 0.33 0.15 0.31 0.22 0.13 0.09 0.02 0.00 0.00 0.00 0.00 0.00 0.00 0.00 0.00 0.00 0.00 0.00 0.00 0.01 0.03 0.03 0.06 0.09 0.20 0.18 0.03 0.10 0.42 0.55 0.09
0.62 0.76 0.90 0.84 0.78 0.69 0.56 0.76 0.98 1.03 0.93 1.19 0.95 0.49 0.35 0.35 0.13 0.12 0.17 0.18 0.12 0.05 0.01 0.00 0.01 0.00 0.00 0.01 0.00 0.00 0.00 0.00 0.00 0.00 0.01 0.04 0.05 0.02 0.02 0.06 0.22 0.20 0.08 0.07 0.32 0.17 0.23
0.77 0.72 0.88 0.97 1.00 1.11 1.08 1.04 0.96 0.90 0.94 1.18 0.65 0.30 0.16 0.03 0.06 0.10 0.05 0.09 0.05 0.00 0.01 0.01 0.01 0.00 0.01 0.01 0.01 0.00 0.00 0.00 0.01 0.00 0.02 0.05 0.09 0.06 0.06 0.05 0.10 0.16 0.04 0.06 0.06 0.02 0.02
0.91 0.94 1.14 1.29 1.16 1.02 1.02 1.02 1.07 0.93 1.10 0.87 0.59 0.18 0.06 0.06 0.05 0.03 0.02 0.00 0.01 0.00 0.01 0.01 0.01 0.03 0.02 0.01 0.00 0.00 0.00 0.00 0.00 0.01 0.03 0.06 0.08 0.15 0.07 0.04 0.11 0.13 0.04 0.02 0.01 0.00 0.01
0.90 0.88 0.88 1.00 0.78 0.69 0.82 0.65 0.50 0.52 0.74 0.45 0.35 0.17 0.03 0.05 0.01 0.00 0.00 0.00 0.00 0.00 0.01 0.00 0.00 0.04 0.03 0.01 0.01 0.01 0.00 0.00 0.01 0.00 0.01 0.02 0.06 0.19 0.09 0.09 0.24 0.13 0.02 0.00 0.00 0.00 0.00
0.92 1.09 1.22 1.46 1.41 1.15 0.92 0.66 0.57 0.66 0.62 0.18 0.21 0.15 0.07 0.02 0.00 0.00 0.00 0.00 0.00 0.00 0.00 0.00 0.00 0.00 0.01 0.02 0.05 0.05 0.02 0.01 0.00 0.00 0.01 0.01 0.06 0.18 0.16 0.17 0.09 0.01 0.00 0.00 0.00 0.00 0.00
0.67 0.82 1.00 1.16 1.33 1.48 1.56 1.22 0.78 0.57 0.35 0.07 0.11 0.19 0.15 0.04 0.00 0.00 0.00 0.00 0.00 0.00 0.02 0.02 0.03 0.01 0.01 0.06 0.15 0.10 0.04 0.01 0.01 0.02 0.01 0.02 0.03 0.16 0.10 0.09 0.01 0.01 0.00 0.00 0.02 0.01 0.00
0.61 0.62 0.64 0.61 0.54 0.56 0.67 0.79 0.73 0.41 0.21 0.03 0.08 0.14 0.22 0.07 0.01 0.00 0.00 0.00 0.00 0.01 0.02 0.02 0.06 0.02 0.03 0.11 0.17 0.08 0.02 0.00 0.01 0.01 0.03 0.07 0.10 0.15 0.14 0.15 0.00 0.00 0.00 0.00 0.00 0.01 0.00
0.94 0.99 1.04 0.93 0.69 0.53 0.59 0.41 0.35 0.28 0.12 0.04 0.06 0.09 0.22 0.12 0.02 0.00 0.00 0.01 0.01 0.02 0.03 0.01 0.02 0.02 0.06 0.14 0.13 0.07 0.03 0.01 0.00 0.00 0.00 0.02 0.04 0.06 0.07 0.09 0.01 0.00 0.00 0.00 0.00 0.00 0.00
0.90 1.01 1.16 1.21 1.09 0.92 0.74 0.39 0.28 0.20 0.13 0.07 0.04 0.08 0.15 0.14 0.04 0.00 0.00 0.00 0.00 0.01 0.01 0.00 0.03 0.01 0.04 0.12 0.16 0.10 0.04 0.01 0.00 0.00 0.00 0.00 0.00 0.00 0.00 0.00 0.00 0.00 0.00 0.00 0.00 0.00 0.00